# Wetter Temperatur Luftdruck Luftfeuchtigkeit Sichtweite Windgeschwindigkeit Windrichtung Zeit
1 Snow 1 1011 82 4000 0.5 0 09:58 29.01.2020
2 Snow 1 1011 82 4000 0.5 0 09:39 29.01.2020
3 Snow 1 1011 82 4000 0.5 0 09:18 29.01.2020
4 Snow 0 1010 82 4000 1 70 08:44 29.01.2020
5 Snow 0 1010 82 2500 0.5 0 08:24 29.01.2020
6 Snow 0 1010 93 2500 0.5 0 08:24 29.01.2020
7 Snow 0 1009 93 2500 0.5 0 07:45 29.01.2020
8 Snow 0 1009 93 1500 1 0 07:26 29.01.2020
9 Snow 0 1009 93 2000 1 0 06:56 29.01.2020
10 Snow 0 1009 93 2000 1 0 06:38 29.01.2020
11 Snow 0 1008 93 4000 1 0 06:19 29.01.2020
12 Snow 0 1008 93 2000 1 0 05:50 29.01.2020
13 Snow 0 1007 93 2200 2.6 280 05:32 29.01.2020
14 Snow 0 1007 93 3300 2.6 250 04:38 29.01.2020
15 Snow 0 1007 93 2800 2.6 260 03:59 29.01.2020
16 Clouds 0 1006 86 10000 1 0 02:34 29.01.2020
17 Clouds 0 1007 86 10000 1.5 30 01:18 29.01.2020
18 Clouds 1 1007 86 10000 2.1 300 00:39 29.01.2020
19 Clouds 0 1007 86 10000 1.5 220 00:20 29.01.2020
20 Clouds 0 1007 80 10000 2.1 350 23:40 28.01.2020
21 Clouds 1 1008 80 10000 5.1 260 23:19 28.01.2020
22 Clouds 1 1008 80 10000 4.6 240 22:51 28.01.2020
23 Clouds 1 1008 74 10000 5.7 240 22:27 28.01.2020
24 Clouds 2 1007 74 10000 5.7 240 21:58 28.01.2020
25 Clouds 2 1007 74 10000 5.7 240 21:39 28.01.2020
26 Clouds 2 1007 60 10000 11.3 300 21:19 28.01.2020
27 Clouds 2 1005 52 10000 8.7 280 20:46 28.01.2020
28 Clouds 2 1005 56 10000 3.6 240 20:26 28.01.2020
29 Clouds 1 1004 69 10000 1 0 19:56 28.01.2020
30 Snow 1 1008 85 0 0.89 207 19:37 28.01.2020
31 Clouds 1 1004 74 10000 1.5 60 19:19 28.01.2020
32 Clouds 3 1005 69 10000 2.1 90 18:42 28.01.2020
33 Clouds 3 1004 69 10000 2.6 60 18:23 28.01.2020
34 Clouds 3 1004 69 10000 1.5 60 17:59 28.01.2020
35 Clouds 3 1004 69 10000 1.5 60 17:40 28.01.2020
36 Clouds 3 1004 79 10000 2.1 0 17:21 28.01.2020
37 Rain 3 1004 79 10000 7.7 250 16:59 28.01.2020
38 Clouds 3 1003 79 10000 2.6 40 16:41 28.01.2020
39 Clouds 3 1003 79 10000 2.6 40 16:22 28.01.2020
40 Clouds 3 1003 79 10000 1.5 0 15:55 28.01.2020
41 Clouds 3 1003 79 10000 4.1 250 15:37 28.01.2020
42 Clouds 3 1003 79 10000 4.1 250 15:18 28.01.2020
43 Rain 3 1003 79 10000 7.7 260 14:43 28.01.2020
44 Clouds 3 1003 80 10000 7.7 240 14:19 28.01.2020
45 Rain 3 1003 80 6000 16.5 260 13:42 28.01.2020
46 Clouds 3 1000 81 10000 6.7 250 13:24 28.01.2020
47 Clouds 5 1000 75 10000 1.5 0 12:45 28.01.2020
48 Clouds 5 1000 75 10000 1.5 0 12:45 28.01.2020
49 Clouds 5 1000 75 10000 3.6 290 12:25 28.01.2020
50 Clouds 5 1001 75 10000 3.1 280 11:59 28.01.2020
51 Clouds 4 1001 81 10000 3.6 260 11:41 28.01.2020
52 Clouds 4 1001 73 10000 3.6 260 11:21 28.01.2020
53 Clouds 4 1002 73 10000 3.6 290 10:44 28.01.2020
54 Clouds 3 1002 73 10000 4.1 300 10:26 28.01.2020
55 Clouds 3 1003 73 10000 4.1 290 09:59 28.01.2020
56 Clouds 3 1003 73 10000 4.1 290 09:41 28.01.2020
57 Clouds 3 1003 80 10000 2.6 250 09:20 28.01.2020
58 Clouds 3 1003 80 10000 2.6 250 09:20 28.01.2020
59 Clouds 3 1003 74 10000 2.6 290 08:45 28.01.2020
60 Clouds 2 1003 74 10000 3.1 290 08:25 28.01.2020
61 Clouds 2 1004 87 10000 3.6 260 07:53 28.01.2020
62 Snow 2 1005 90 0 0.89 282 07:31 28.01.2020
63 Clouds 2 1004 80 10000 5.1 270 06:47 28.01.2020
64 Clouds 2 1005 80 10000 3.6 260 06:24 28.01.2020
65 Clouds 2 1004 74 10000 4.6 280 05:38 28.01.2020
66 Clouds 2 1004 74 10000 4.6 280 05:20 28.01.2020
67 Clouds 1 1006 80 10000 2.6 270 03:47 28.01.2020
68 Clouds 2 1007 74 10000 3.6 260 02:46 28.01.2020
69 Clouds 2 1007 74 10000 3.1 270 02:25 28.01.2020
70 Clouds 2 1007 74 10000 3.6 260 01:53 28.01.2020
71 Clouds 2 1008 74 10000 4.1 260 01:20 28.01.2020
72 Clouds 1 1008 74 10000 4.1 270 00:43 28.01.2020
73 Clouds 2 1008 74 10000 5.1 270 00:19 28.01.2020
74 Clouds 2 1008 74 10000 3.6 250 23:43 27.01.2020
75 Clouds 2 1008 74 10000 3.6 270 23:19 27.01.2020
76 Clouds 2 1008 74 10000 3.6 270 22:45 27.01.2020
77 Clouds 2 1009 74 10000 3.1 260 22:20 27.01.2020
78 Clouds 2 1009 74 10000 3.1 260 22:20 27.01.2020
79 Clouds 2 1009 69 10000 2.6 240 21:57 27.01.2020
80 Clouds 2 1009 69 10000 2.6 240 21:57 27.01.2020
81 Clouds 2 1009 69 10000 2.6 240 21:39 27.01.2020
82 Clouds 3 1009 69 10000 3.1 250 21:19 27.01.2020
83 Clouds 3 1010 69 10000 2.6 260 20:56 27.01.2020
84 Clouds 2 1010 74 10000 2.6 250 20:37 27.01.2020
85 Clouds 2 1010 74 10000 2.6 250 20:19 27.01.2020
86 Clouds 3 1011 69 10000 2.1 270 19:55 27.01.2020
87 Clouds 2 1010 69 10000 2.1 220 19:37 27.01.2020
88 Clouds 2 1010 69 10000 2.1 220 19:19 27.01.2020
89 Clouds 2 1011 74 10000 1.5 0 18:39 27.01.2020
90 Clouds 2 1011 74 10000 1.5 0 18:21 27.01.2020
91 Clouds 3 1011 69 10000 1.5 220 17:57 27.01.2020
92 Clouds 3 1011 69 10000 1.5 220 17:57 27.01.2020
93 Clouds 6 1012 60 10000 0.5 0 17:37 27.01.2020
94 Clouds 6 1012 60 10000 0.5 0 17:18 27.01.2020
95 Clouds 6 1012 60 10000 0.5 0 16:55 27.01.2020
96 Clouds 6 1012 56 10000 1 0 16:36 27.01.2020
97 Clouds 6 1012 56 10000 1 0 16:18 27.01.2020
98 Clouds 7 1013 52 10000 1 0 15:41 27.01.2020
99 Clouds 8 1013 52 10000 1 0 15:19 27.01.2020
100 Clouds 8 1013 49 10000 1 0 14:56 27.01.2020
101 Clouds 7 1014 52 10000 1 0 14:37 27.01.2020
102 Clouds 7 1014 52 10000 1 0 14:37 27.01.2020
103 Clouds 7 1014 52 10000 1 0 14:19 27.01.2020
104 Clouds 7 1014 52 10000 0.5 0 13:42 27.01.2020
105 Clouds 7 1015 52 10000 1 0 13:22 27.01.2020
106 Clouds 7 1016 60 10000 1.5 260 12:57 27.01.2020
107 Clouds 7 1016 60 10000 1 0 12:38 27.01.2020
108 Clouds 6 1016 60 10000 1 0 12:20 27.01.2020
109 Clouds 5 1017 69 10000 1.5 270 11:42 27.01.2020
110 Clouds 5 1017 69 10000 1.5 270 11:42 27.01.2020
111 Clouds 4 1018 74 10000 1 0 11:21 27.01.2020
112 Clouds 3 1018 74 10000 1 0 10:55 27.01.2020
113 Clouds 2 1018 80 10000 2.6 240 10:36 27.01.2020
114 Clouds 2 1018 80 10000 2.6 240 10:18 27.01.2020
115 Clouds 1 1019 73 10000 1.5 290 09:39 27.01.2020
116 Clouds 1 1019 73 10000 1.5 290 09:39 27.01.2020
117 Clouds 0 1019 86 10000 2.1 270 09:19 27.01.2020
118 Clouds 0 1019 92 10000 1 140 08:48 27.01.2020
119 Clouds 0 1019 86 10000 0.5 0 08:23 27.01.2020
120 Clouds 1 1019 78 10000 1.21 183 07:55 27.01.2020
121 Clouds 0 1019 78 10000 1 0 07:37 27.01.2020
122 Clouds 0 1019 78 10000 1 0 07:19 27.01.2020
123 Clouds 0 1019 78 10000 1 270 06:33 27.01.2020
124 Clouds 0 1019 92 10000 0.5 0 05:38 27.01.2020
125 Clouds 0 1019 92 10000 1 0 04:21 27.01.2020
126 Clouds -1 1019 92 10000 1 0 03:35 27.01.2020
127 Clouds 0 1019 83 10000 1 210 01:47 27.01.2020
128 Clouds 0 1019 86 10000 0.5 0 01:22 27.01.2020
129 Clouds 0 1019 92 10000 0.5 0 00:40 27.01.2020
130 Clouds -1 1019 92 10000 0.5 0 00:21 27.01.2020
131 Clouds 0 1019 86 10000 1 250 23:43 26.01.2020
132 Clouds 0 1019 86 10000 1 250 23:21 26.01.2020
133 Clouds 0 1019 87 10000 1 250 22:57 26.01.2020
134 Clouds 0 1019 87 10000 1 250 22:38 26.01.2020
135 Clouds 0 1019 86 10000 1 0 22:20 26.01.2020
136 Clouds 0 1019 87 10000 0.5 0 21:57 26.01.2020
137 Clouds 0 1019 87 10000 0.5 0 21:38 26.01.2020
138 Clouds 1 1019 80 10000 2.1 270 21:20 26.01.2020
139 Clouds 1 1019 80 10000 1 0 20:57 26.01.2020
140 Clouds 1 1019 80 10000 1 0 20:57 26.01.2020
141 Clouds 2 1019 74 10000 0.5 0 20:38 26.01.2020
142 Clouds 2 1019 74 10000 0.5 0 20:18 26.01.2020
143 Clouds 2 1019 74 10000 0.5 0 19:57 26.01.2020
144 Clouds 2 1019 74 10000 0.5 0 19:38 26.01.2020
145 Clouds 2 1018 74 10000 1 150 19:18 26.01.2020
146 Clouds 2 1018 74 10000 1.5 140 18:54 26.01.2020
147 Clouds 3 1018 69 10000 1 150 18:36 26.01.2020
148 Clouds 3 1018 69 10000 1 150 18:18 26.01.2020
149 Clouds 4 1018 60 10000 2.1 100 17:40 26.01.2020
150 Clouds 4 1018 60 10000 2.1 80 17:20 26.01.2020
151 Clouds 4 1018 60 10000 2.1 80 17:20 26.01.2020
152 Clouds 4 1030 61 0 0.46 313 16:59 26.01.2020
153 Clouds 4 1018 65 10000 1 140 16:40 26.01.2020
154 Clouds 5 1018 56 10000 0.5 0 16:22 26.01.2020
155 Clouds 5 1018 56 10000 0.5 0 16:22 26.01.2020
156 Clouds 4 1020 70 0 0.46 313 15:58 26.01.2020
157 Clouds 4 1030 59 0 0.46 313 15:58 26.01.2020
158 Clouds 4 1030 59 0 0.46 313 15:58 26.01.2020
159 Clouds 4 1020 70 0 0.46 313 15:40 26.01.2020
160 Clouds 4 1021 63 0 0.89 44 15:19 26.01.2020
161 Clouds 5 1020 65 0 0.89 53 14:41 26.01.2020
162 Clouds 5 1020 65 0 0.89 53 14:23 26.01.2020
163 Clouds 5 1020 65 0 0.89 53 14:23 26.01.2020
164 Clouds 4 1030 62 0 0.26 192 13:57 26.01.2020
165 Clouds 4 1030 61 0 0.26 192 13:38 26.01.2020
166 Clouds 4 1031 61 0 0.18 239 13:18 26.01.2020
167 Clouds 4 1031 64 0 0.18 239 12:43 26.01.2020
168 Clouds 3 1023 68 0 0.18 239 12:24 26.01.2020
169 Clouds 3 1032 67 0 0.18 239 11:58 26.01.2020
170 Clouds 3 1032 67 0 0.18 239 11:40 26.01.2020
171 Clouds 1 1021 86 10000 0.5 0 11:19 26.01.2020
172 Clouds 1 1021 86 10000 0.5 0 10:59 26.01.2020
173 Clouds 1 1021 86 10000 0.5 0 10:39 26.01.2020
174 Clouds 0 1021 86 10000 0.5 0 10:21 26.01.2020
175 Clouds 0 1021 92 10000 0.5 0 09:58 26.01.2020
176 Clouds 0 1021 92 10000 0.5 0 09:40 26.01.2020
177 Clouds 0 1021 92 10000 1 280 09:40 26.01.2020
178 Clouds -1 1021 92 10000 1 280 09:21 26.01.2020
179 Clouds -1 1020 86 10000 1 0 08:45 26.01.2020
180 Clouds -1 1020 92 10000 0.5 0 08:23 26.01.2020
181 Clouds -1 1020 86 10000 0.5 0 07:58 26.01.2020
182 Clouds -1 1020 86 10000 0.5 0 07:40 26.01.2020
183 Clouds -1 1020 92 10000 1 300 07:21 26.01.2020
184 Clouds -1 1020 92 10000 1 270 06:31 26.01.2020
185 Clouds -1 1020 92 10000 0.5 0 05:32 26.01.2020
186 Clouds -1 1020 86 10000 1.15 196 04:45 26.01.2020
187 Clouds 0 1021 86 10000 1.5 250 02:59 26.01.2020
188 Clouds 0 1021 92 10000 0.5 0 01:57 26.01.2020
189 Clouds -1 1021 92 10000 0.5 0 01:37 26.01.2020
190 Clouds -1 1021 92 10000 0.5 0 01:18 26.01.2020
191 Clouds 0 1021 86 10000 1 0 00:38 26.01.2020
192 Clouds 0 1021 92 10000 1.5 250 00:20 26.01.2020
193 Clouds 1 1033 72 0 1.41 199 23:37 25.01.2020
194 Clouds 1 1033 72 0 1.46 186 23:18 25.01.2020
195 Clouds 1 1033 72 0 1.46 186 23:18 25.01.2020
196 Clouds 1 1024 82 0 1.46 186 22:41 25.01.2020
197 Clouds 1 1024 81 0 1.46 186 22:20 25.01.2020
198 Clouds 1 1024 81 0 1.46 186 21:57 25.01.2020
199 Clouds 1 1033 70 0 1.46 186 21:39 25.01.2020
200 Clouds 1 1024 80 0 1.46 186 21:20 25.01.2020
201 Clouds -1 1023 71 0 1.46 186 20:45 25.01.2020
202 Clouds 1 1024 79 0 0.97 179 20:26 25.01.2020
203 Clouds 1 1024 78 0 0.97 179 19:56 25.01.2020
204 Clouds 1 1024 78 0 0.97 179 19:56 25.01.2020
205 Clouds 2 1033 68 0 1.08 180 19:37 25.01.2020
206 Clouds 1 1024 76 0 0.97 179 19:19 25.01.2020
207 Clouds 1 1024 89 0 1.08 180 18:55 25.01.2020
208 Clouds 1 1024 89 0 0.97 179 18:37 25.01.2020
209 Clouds 1 1023 88 0 0.97 179 18:18 25.01.2020
210 Clouds 1 1023 88 0 0.97 179 18:18 25.01.2020
211 Clouds 2 1023 86 0 0.97 179 17:39 25.01.2020
212 Clouds 3 1024 67 0 0.66 2 17:19 25.01.2020
213 Clouds 4 1024 67 0 0.66 2 16:56 25.01.2020
214 Clouds 3 1032 58 0 0.66 2 16:37 25.01.2020
215 Clouds 3 1032 58 0 0.66 2 16:18 25.01.2020
216 Clouds 4 1024 66 0 0.66 2 15:42 25.01.2020
217 Clouds 4 1024 64 0 0.66 2 15:23 25.01.2020
218 Clouds 4 1033 59 0 0.66 2 14:46 25.01.2020
219 Clouds 4 1033 59 0 0.31 351 14:19 25.01.2020
220 Clouds 3 1024 62 0 0.89 270 13:57 25.01.2020
221 Clouds 3 1033 57 0 0.31 351 13:39 25.01.2020
222 Clouds 3 1033 59 0 0.2 341 13:18 25.01.2020
223 Clouds 3 1033 59 0 0.2 341 13:18 25.01.2020
224 Clouds 3 1023 74 10000 0.5 0 12:42 25.01.2020
225 Clouds 2 1023 74 10000 0.5 0 12:21 25.01.2020
226 Clouds 2 1023 74 10000 0.5 0 11:43 25.01.2020
227 Clouds 1 1023 57 10000 1 0 11:21 25.01.2020
228 Clouds 0 1023 80 10000 1 0 10:56 25.01.2020
229 Clouds 0 1023 80 10000 1 0 10:38 25.01.2020
230 Clouds 0 1023 80 10000 0.5 0 10:19 25.01.2020
231 Clouds -1 1023 86 10000 0.5 0 09:40 25.01.2020
232 Clouds -1 1023 79 10000 0.5 0 09:20 25.01.2020
233 Clouds -1 1023 86 10000 1 0 08:43 25.01.2020
234 Clouds -2 1022 86 10000 1 0 08:20 25.01.2020
235 Clouds -3 1022 85 10000 0.5 0 07:41 25.01.2020
236 Clouds -2 1022 86 10000 1 0 06:44 25.01.2020
237 Clouds -2 1022 92 10000 1.5 300 06:24 25.01.2020
238 Clouds -2 1022 85 10000 1 320 05:44 25.01.2020
239 Clouds -2 1022 85 10000 1 0 04:25 25.01.2020
240 Clouds -2 1022 86 10000 1 260 03:50 25.01.2020
241 Clouds -2 1022 86 10000 0.5 0 02:48 25.01.2020
242 Clouds -1 1023 79 10000 1 0 01:58 25.01.2020
243 Clouds -1 1023 80 10000 1.5 250 01:34 25.01.2020
244 Clouds -1 1023 80 10000 2.6 260 00:41 25.01.2020
245 Clouds -1 1023 80 10000 1 0 00:23 25.01.2020
246 Clouds -1 1023 80 10000 1 0 23:42 24.01.2020
247 Clouds -1 1023 80 10000 1 0 23:24 24.01.2020
248 Clouds 0 1024 80 10000 1.5 0 22:56 24.01.2020
249 Clouds -1 1024 86 10000 1.5 230 22:37 24.01.2020
250 Clouds -1 1024 86 10000 1.5 230 22:19 24.01.2020
251 Clouds -1 1024 86 10000 0.5 0 21:41 24.01.2020
252 Clouds -1 1024 79 10000 0.5 0 21:19 24.01.2020
253 Clouds -1 1024 79 10000 0.5 0 20:44 24.01.2020
254 Clouds 0 1023 80 10000 0.5 0 20:23 24.01.2020
255 Clear 0 1023 74 10000 0.5 0 19:59 24.01.2020
256 Clear 0 1023 74 10000 0.5 0 19:41 24.01.2020
257 Clear 0 1023 52 10000 1 0 19:22 24.01.2020
258 Clear 0 1023 52 10000 1 0 18:58 24.01.2020
259 Clear 0 1023 52 10000 1 0 18:40 24.01.2020
260 Clear 0 1023 52 10000 0.5 0 18:21 24.01.2020
261 Clear 2 1022 64 10000 0.5 0 17:44 24.01.2020
262 Clear 4 1022 59 10000 0.5 0 17:22 24.01.2020
263 Clear 4 1022 56 10000 1.5 160 16:57 24.01.2020
264 Clear 4 1022 56 10000 1.5 160 16:57 24.01.2020
265 Clear 5 1022 56 10000 1.5 160 16:38 24.01.2020
266 Clear 5 1022 48 10000 1.5 170 16:18 24.01.2020
267 Clear 5 1022 48 10000 0.5 0 15:41 24.01.2020
268 Clear 6 1022 42 10000 1 0 15:21 24.01.2020
269 Clear 5 1023 45 10000 2.1 180 14:42 24.01.2020
270 Clear 6 1023 52 10000 0.5 0 14:24 24.01.2020
271 Clear 6 1023 45 10000 0.5 0 13:58 24.01.2020
272 Clear 5 1023 45 10000 0.5 0 13:40 24.01.2020
273 Clear 6 1024 48 10000 1 0 13:21 24.01.2020
274 Clear 5 1024 51 10000 0.5 0 12:42 24.01.2020
275 Clear 5 1025 55 10000 1 0 12:20 24.01.2020
276 Clear 4 1025 64 10000 1 0 11:44 24.01.2020
277 Clear 2 1026 69 10000 1 0 11:19 24.01.2020
278 Clear 1 1026 80 10000 0.5 0 10:43 24.01.2020
279 Clear 0 1026 79 10000 0.5 0 10:23 24.01.2020
280 Clear -1 1026 86 10000 1 0 10:00 24.01.2020
281 Clear 0 1026 86 10000 1 0 09:40 24.01.2020
282 Clear -2 1026 92 10000 1 0 09:22 24.01.2020
283 Clear -2 1026 92 10000 1 240 08:41 24.01.2020
284 Clear -5 1026 92 10000 0.5 0 08:20 24.01.2020
285 Clear -5 1025 92 10000 0.5 0 07:53 24.01.2020
286 Clear -5 1025 92 10000 0.5 0 07:35 24.01.2020
287 Clear -6 1025 85 10000 1 0 06:48 24.01.2020
288 Clear -6 1025 85 10000 1 0 06:29 24.01.2020
289 Clear -6 1025 92 10000 0.5 0 05:59 24.01.2020
290 Clear -4 1025 85 10000 1.5 110 04:57 24.01.2020
291 Clear -4 1025 79 10000 1.5 310 02:53 24.01.2020
292 Clear -4 1025 79 10000 1.5 210 02:26 24.01.2020
293 Clear -3 1025 85 10000 1 0 01:46 24.01.2020
294 Clear -3 1025 86 10000 0.5 0 01:28 24.01.2020
295 Clear -3 1025 79 10000 1.5 210 00:25 24.01.2020
296 Clear -3 1025 85 10000 1.5 0 23:49 23.01.2020
297 Clear -3 1025 79 10000 1 0 23:31 23.01.2020
298 Clear -3 1025 79 10000 1.5 0 22:59 23.01.2020
299 Clear -2 1025 79 10000 1.5 0 22:38 23.01.2020
300 Clear -3 1025 79 10000 1 0 22:19 23.01.2020
301 Clear -2 1025 79 10000 1 0 21:57 23.01.2020
302 Clear -2 1025 79 10000 1 0 21:39 23.01.2020
303 Clear -2 1025 79 10000 2.1 280 21:20 23.01.2020
304 Clear -2 1025 85 10000 1 0 20:58 23.01.2020
305 Clear -2 1026 86 10000 1 0 20:38 23.01.2020
306 Clear -2 1026 86 10000 1 0 20:19 23.01.2020
307 Clear -1 1026 79 10000 1 0 19:54 23.01.2020
308 Clear -1 1026 79 10000 0.5 0 19:36 23.01.2020
309 Clear -1 1026 79 10000 0.5 0 19:18 23.01.2020
310 Clear 0 1025 74 10000 1 0 18:42 23.01.2020
311 Clear 0 1025 46 10000 1 0 18:20 23.01.2020
312 Clear -1 1025 46 10000 1 0 17:58 23.01.2020
313 Clear -1 1025 46 10000 1 0 17:40 23.01.2020
314 Clear 2 1025 55 10000 1.5 0 17:19 23.01.2020
315 Clear 2 1025 64 10000 1 0 16:55 23.01.2020
316 Clear 2 1025 52 10000 1 0 16:36 23.01.2020
317 Clear 2 1025 52 10000 1 0 16:18 23.01.2020
318 Clear 2 1028 75 0 1.79 355 15:54 23.01.2020
319 Clear 3 1028 74 0 1.79 32 15:36 23.01.2020
320 Clear 4 1026 52 10000 1 0 15:18 23.01.2020
321 Clear 4 1026 52 10000 0.5 0 14:54 23.01.2020
322 Clear 5 1027 56 10000 0.5 0 14:36 23.01.2020
323 Clear 5 1027 56 10000 0.5 0 14:18 23.01.2020
324 Clear 4 1028 60 10000 0.5 0 13:38 23.01.2020
325 Clear 4 1028 59 10000 1 0 13:19 23.01.2020
326 Clear 4 1029 69 10000 1 260 12:47 23.01.2020
327 Clear 4 1029 44 10000 1.5 270 12:25 23.01.2020
328 Clear 4 1029 44 10000 1.5 270 12:25 23.01.2020
329 Clear 3 1030 80 10000 1.5 280 11:58 23.01.2020
330 Clear 3 1031 86 10000 1 0 11:38 23.01.2020
331 Clear 0 1031 86 10000 1 0 11:19 23.01.2020
332 Clear -1 1031 86 10000 2.1 250 10:44 23.01.2020
333 Clear -2 1031 92 10000 2.6 250 10:22 23.01.2020
334 Clear -2 1032 92 10000 1 260 09:59 23.01.2020
335 Clouds -3 1032 92 10000 1.5 260 09:37 23.01.2020
336 Clouds -3 1032 92 10000 1.5 260 09:19 23.01.2020
337 Clouds -4 1032 92 10000 1 0 08:41 23.01.2020
338 Fog -5 1032 92 10000 0.5 0 08:22 23.01.2020
339 Fog -5 1032 92 10000 0.5 0 07:45 23.01.2020
340 Fog -4 1032 92 10000 0.5 0 07:26 23.01.2020
341 Fog -4 1032 92 10000 0.5 0 06:54 23.01.2020
342 Clouds -4 1032 92 10000 0.5 0 06:23 23.01.2020
343 Clear -4 1032 92 10000 0.5 0 05:58 23.01.2020
344 Clear -4 1033 92 6000 0.5 0 04:24 23.01.2020
345 Clear -3 1033 85 10000 1 0 02:35 23.01.2020
346 Clear -3 1033 85 10000 1 0 01:41 23.01.2020
347 Clear -3 1034 92 10000 2.6 250 00:28 23.01.2020
348 Clear -2 1034 92 10000 0.5 0 23:48 22.01.2020
349 Clear -2 1034 92 10000 0.5 0 23:30 22.01.2020
350 Clear -2 1034 86 10000 0.5 0 22:59 22.01.2020
351 Clear -2 1034 86 10000 0.5 0 22:41 22.01.2020
352 Clear -2 1034 86 10000 1.5 130 22:23 22.01.2020
353 Clear -2 1033 86 10000 1.5 110 21:41 22.01.2020
354 Clear -1 1033 92 10000 0.5 0 21:22 22.01.2020
355 Clear -1 1032 86 10000 1 110 20:58 22.01.2020
356 Clear -1 1032 86 10000 1 250 20:39 22.01.2020
357 Clear -1 1032 86 10000 1 250 20:21 22.01.2020
358 Clear -1 1032 80 10000 0.5 0 19:57 22.01.2020
359 Clear 0 1032 80 10000 0.5 0 19:39 22.01.2020
360 Clear 0 1032 80 10000 0.5 0 19:19 22.01.2020
361 Clear 0 1031 77 10000 1.5 270 18:57 22.01.2020
362 Clear 1 1031 77 10000 0.5 0 18:38 22.01.2020
363 Clear 0 1031 77 10000 1.5 270 18:38 22.01.2020
364 Clear 0 1031 77 10000 0.5 0 18:19 22.01.2020
365 Clear 1 1031 74 10000 1.5 140 17:55 22.01.2020
366 Clear 1 1030 64 10000 2.1 140 17:37 22.01.2020
367 Clear 2 1030 64 10000 2.1 140 17:18 22.01.2020
368 Clear 2 1030 60 10000 2.1 100 16:43 22.01.2020
369 Clear 3 1030 60 10000 2.1 100 16:43 22.01.2020
370 Clear 4 1030 56 10000 2.1 160 16:23 22.01.2020
371 Clear 4 1030 52 10000 1.5 180 15:59 22.01.2020
372 Clear 3 1035 82 0 0.41 274 15:40 22.01.2020
373 Clear 3 1035 82 0 0.41 274 15:40 22.01.2020
374 Clear 5 1030 48 10000 1.5 180 15:22 22.01.2020
375 Clear 4 1030 48 10000 1 190 14:57 22.01.2020
376 Clear 5 1030 48 10000 0.5 0 14:37 22.01.2020
377 Clear 5 1030 48 10000 0.5 0 14:18 22.01.2020
378 Clear 5 1031 55 10000 1 270 13:54 22.01.2020
379 Clear 4 1031 56 10000 0.5 0 13:36 22.01.2020
380 Clear 4 1031 56 10000 0.5 0 13:18 22.01.2020
381 Clear 5 1032 55 10000 0.5 0 12:54 22.01.2020
382 Clear 5 1033 69 10000 1 0 12:36 22.01.2020
383 Clear 5 1033 69 10000 1 0 12:18 22.01.2020
384 Clear 5 1033 64 10000 0.5 0 11:55 22.01.2020
385 Clear 4 1033 42 10000 0.5 0 11:36 22.01.2020
386 Clear 2 1033 36 10000 0.5 0 11:18 22.01.2020
387 Clear 0 1034 86 10000 1 190 10:42 22.01.2020
388 Clear -1 1034 92 10000 1.5 60 10:19 22.01.2020
389 Clear -1 1034 92 10000 1 0 09:43 22.01.2020
390 Clear -2 1034 92 10000 2.1 250 09:24 22.01.2020
391 Clear -3 1034 92 10000 1 250 08:57 22.01.2020
392 Clear -3 1034 92 10000 1 250 08:57 22.01.2020
393 Clear -3 1034 92 10000 1 250 08:39 22.01.2020
394 Clouds -4 1034 92 10000 0.5 0 08:20 22.01.2020
395 Clouds -4 1034 92 10000 1 280 07:47 22.01.2020
396 Clouds -4 1034 92 10000 0.5 0 07:29 22.01.2020
397 Clouds -5 1034 92 10000 0.5 0 06:50 22.01.2020
398 Clouds -5 1034 92 10000 1 0 06:26 22.01.2020
399 Clouds -4 1034 92 10000 1 0 05:33 22.01.2020
400 Clear -4 1035 92 10000 1 0 04:18 22.01.2020
401 Clear -4 1035 92 10000 1 10 03:21 22.01.2020
402 Clear -3 1036 92 10000 1 0 01:43 22.01.2020
403 Clear -3 1036 92 10000 0.5 0 00:44 22.01.2020
404 Clear -4 1036 92 10000 1 0 00:26 22.01.2020
405 Clear -3 1036 85 10000 1 0 23:38 21.01.2020
406 Clear -3 1036 85 10000 1 0 23:20 21.01.2020
407 Clear -2 1037 85 10000 0.5 0 22:56 21.01.2020
408 Clear -2 1037 85 10000 0.5 0 22:56 21.01.2020
409 Clear -3 1037 92 10000 1 0 22:37 21.01.2020
410 Clear -3 1037 92 10000 1 0 22:37 21.01.2020
411 Clear -3 1037 92 10000 1 0 22:19 21.01.2020
412 Clear -3 1037 85 10000 1 0 21:55 21.01.2020
413 Clear -3 1037 92 10000 0.5 0 21:37 21.01.2020
414 Clear -3 1037 92 10000 0.5 0 21:18 21.01.2020
415 Clear -2 1037 85 10000 1 0 20:55 21.01.2020
416 Clear -2 1037 92 10000 1 0 20:36 21.01.2020
417 Clear -2 1037 92 10000 1 0 20:18 21.01.2020
418 Clear -2 1037 86 10000 0.5 0 19:55 21.01.2020
419 Clear -1 1037 86 10000 1 0 19:36 21.01.2020
420 Clear -1 1037 86 10000 1 0 19:18 21.01.2020
421 Clear -1 1037 86 10000 0.5 0 18:54 21.01.2020
422 Clear -1 1037 79 10000 0.5 0 18:36 21.01.2020
423 Clear -1 1037 79 10000 0.5 0 18:18 21.01.2020
424 Clear 0 1037 74 10000 1 0 17:42 21.01.2020
425 Clear 1 1037 74 10000 1 0 17:19 21.01.2020
426 Clear 1 1037 45 10000 1 0 16:55 21.01.2020
427 Clear 3 1037 64 10000 1 0 16:36 21.01.2020
428 Clear 3 1037 64 10000 1 0 16:18 21.01.2020
429 Clear 3 1038 64 10000 1 160 15:39 21.01.2020
430 Clear 4 1038 55 10000 0.5 0 15:20 21.01.2020
431 Clear 4 1038 51 10000 1 0 14:40 21.01.2020
432 Rain 4 1038 51 10000 1.5 150 14:22 21.01.2020
433 Rain 3 1039 55 10000 1 0 13:58 21.01.2020
434 Rain 3 1039 55 10000 1 0 13:38 21.01.2020
435 Rain 2 1040 51 10000 1 0 13:18 21.01.2020
436 Rain 2 1040 36 10000 0.5 0 12:42 21.01.2020
437 Rain 2 1041 63 10000 0.5 0 12:24 21.01.2020
438 Rain 2 1041 63 10000 0.5 0 11:56 21.01.2020
439 Rain 1 1041 63 10000 0.5 0 11:38 21.01.2020
440 Rain 1 1041 63 10000 0.5 0 11:38 21.01.2020
441 Rain 0 1042 79 10000 0.5 0 11:19 21.01.2020
442 Rain -1 1042 79 10000 0.5 0 11:19 21.01.2020
443 Clear -2 1042 85 10000 0.5 0 10:43 21.01.2020
444 Clear -2 1042 92 10000 0.5 0 10:23 21.01.2020
445 Clear -3 1045 84 0 0.45 270 09:57 21.01.2020
446 Clear -4 1042 92 10000 0.5 0 09:39 21.01.2020
447 Clear -6 1042 92 10000 0.5 0 09:21 21.01.2020
448 Clear -6 1042 92 10000 0.5 0 08:45 21.01.2020
449 Clear -5 1056 71 0 1.23 184 08:27 21.01.2020
450 Clear -6 1042 92 10000 0.5 0 07:44 21.01.2020
451 Clear -6 1042 92 10000 0.5 0 07:25 21.01.2020
452 Clear -6 1042 92 10000 0.5 0 06:58 21.01.2020
453 Clear -6 1042 92 10000 0.5 0 06:38 21.01.2020
454 Clear -6 1042 92 10000 0.5 0 06:20 21.01.2020
455 Clear -7 1042 92 10000 0.5 0 05:40 21.01.2020
456 Clear -6 1042 92 7000 1 260 04:38 21.01.2020
457 Clear -6 1043 92 10000 0.5 0 02:29 21.01.2020
458 Clear -5 1043 92 10000 0.5 0 01:37 21.01.2020
459 Clear -5 1043 92 10000 0.5 0 00:52 21.01.2020
460 Clear -5 1043 92 10000 1 0 00:29 21.01.2020
461 Clear -5 1043 92 10000 0.5 0 23:56 20.01.2020
462 Clouds -6 1043 92 10000 1.5 260 23:36 20.01.2020
463 Clouds -4 1044 92 10000 0.5 0 23:18 20.01.2020
464 Clouds -5 1044 92 10000 0.5 0 22:54 20.01.2020
465 Clouds -4 1043 92 10000 0.5 0 22:36 20.01.2020
466 Clouds -4 1043 92 10000 0.5 0 22:18 20.01.2020
467 Clouds -4 1043 92 10000 0.5 0 21:54 20.01.2020
468 Clouds -5 1043 92 10000 1 0 21:36 20.01.2020
469 Clouds -5 1043 92 10000 1 0 21:18 20.01.2020
470 Clouds -5 1043 85 10000 0.5 0 20:42 20.01.2020
471 Clouds -5 1043 85 10000 1 0 20:20 20.01.2020
472 Clouds -4 1043 85 10000 1 0 19:59 20.01.2020
473 Clouds -4 1043 85 10000 1 0 19:40 20.01.2020
474 Clouds -4 1043 85 10000 1 0 19:19 20.01.2020
475 Clouds -4 1043 85 10000 1 0 18:55 20.01.2020
476 Clouds -4 1042 85 10000 1.5 250 18:37 20.01.2020
477 Clouds -4 1042 85 10000 1.5 250 18:19 20.01.2020
478 Clouds -4 1042 86 10000 0.5 0 17:38 20.01.2020
479 Clouds -2 1042 79 10000 1 0 17:19 20.01.2020
480 Clouds -2 1042 79 10000 1 0 16:46 20.01.2020
481 Clouds 0 1042 69 10000 2.1 170 16:26 20.01.2020
482 Rain 0 1042 69 10000 1.5 170 15:59 20.01.2020
483 Rain 0 1042 59 10000 0.5 0 15:40 20.01.2020
484 -273 0 0 0 0 0 15:22 20.01.2020
485 Rain 0 1042 58 10000 1.5 280 14:58 20.01.2020
486 Rain 0 1042 58 10000 1.5 280 14:39 20.01.2020
487 Rain 0 1042 56 10000 2.6 260 14:20 20.01.2020
488 Rain -1 1042 56 10000 3.1 260 13:44 20.01.2020
489 Rain -1 1043 74 10000 2.6 270 13:24 20.01.2020
490 Rain -1 1043 74 10000 2.6 260 12:58 20.01.2020
491 Rain -1 1043 74 10000 2.6 260 12:40 20.01.2020
492 Rain -1 1043 74 10000 1.5 260 12:21 20.01.2020
493 Rain -1 1044 57 10000 0.5 0 11:55 20.01.2020
494 Clouds 0 1044 74 10000 0.5 0 11:36 20.01.2020
495 Clouds -3 1044 74 10000 0.5 0 11:18 20.01.2020
496 Clouds -2 1045 86 10000 0.5 0 10:41 20.01.2020
497 Clouds -3 1044 92 10000 1 0 10:20 20.01.2020
498 Clouds -4 1044 92 10000 1 270 09:42 20.01.2020
499 Clouds -4 1044 92 10000 1 0 09:24 20.01.2020
500 Clouds -4 1044 92 10000 1 0 08:55 20.01.2020
501 Clouds -4 1043 92 10000 1.5 280 08:34 20.01.2020
502 Clouds -9 1043 85 10000 1.5 270 07:56 20.01.2020
503 Clouds -8 1043 85 10000 1.5 270 07:37 20.01.2020
504 Clouds -8 1042 92 10000 2.6 260 07:19 20.01.2020
505 Clouds -9 1042 92 10000 2.1 270 06:40 20.01.2020
506 Clouds -9 1042 85 10000 1.5 260 06:20 20.01.2020
507 Clouds -8 1042 92 10000 1.5 310 05:38 20.01.2020
508 Clouds -7 1042 92 10000 1.5 310 05:19 20.01.2020
509 Clouds -6 1041 92 10000 3.1 280 03:55 20.01.2020
510 Clouds -5 1041 92 10000 1 0 01:58 20.01.2020
511 Clouds -5 1041 92 10000 0.5 0 01:39 20.01.2020
512 Clouds -5 1040 100 10000 1 0 00:56 20.01.2020
513 Clouds -5 1040 92 6000 2.1 260 00:37 20.01.2020
514 Clouds -5 1040 92 6000 2.1 260 00:19 20.01.2020
515 Fog -4 1039 92 10000 0.5 0 23:37 19.01.2020
516 Fog -4 1039 92 10000 0.5 0 23:18 19.01.2020
517 Fog -4 1039 92 10000 0.5 0 22:55 19.01.2020
518 Fog -4 1039 92 10000 0.5 0 22:37 19.01.2020
519 Fog -4 1039 92 10000 0.5 0 22:18 19.01.2020
520 Clouds -4 1038 92 10000 1 0 21:56 19.01.2020
521 Clouds -3 1038 92 10000 0.5 0 21:37 19.01.2020
522 Clouds -2 1038 92 10000 0.5 0 21:19 19.01.2020
523 Clouds -3 1038 92 10000 1 0 20:56 19.01.2020
524 Clouds -2 1037 95 10000 1.5 240 20:37 19.01.2020
525 Clouds -2 1037 99 10000 1.5 240 20:19 19.01.2020
526 Clouds -2 1037 97 10000 0.5 0 19:55 19.01.2020
527 Clouds -2 1037 97 10000 2.1 290 19:37 19.01.2020
528 Clouds -2 1037 97 10000 2.1 290 19:19 19.01.2020
529 Snow -2 1036 97 10000 1 0 18:55 19.01.2020
530 Snow -2 1036 97 6000 3.6 70 18:37 19.01.2020
531 Snow -2 1036 97 6000 3.6 70 18:18 19.01.2020
532 Snow -2 1036 97 6000 3.6 70 18:18 19.01.2020
533 Snow -2 1035 97 10000 1 130 17:57 19.01.2020
534 Snow -1 1035 97 10000 1 130 17:38 19.01.2020
535 Clouds -1 1035 80 10000 0.5 0 17:19 19.01.2020
536 Clouds -1 1034 90 10000 2.6 270 16:57 19.01.2020
537 Clouds -1 1033 80 10000 3.1 270 16:37 19.01.2020
538 Clouds -1 1033 80 10000 3.1 270 16:37 19.01.2020
539 Rain -1 1033 80 10000 3.1 270 16:19 19.01.2020
540 Rain 0 1033 74 10000 2.6 240 15:55 19.01.2020
541 Clouds 1 1033 69 10000 1 0 15:36 19.01.2020
542 Clouds 0 1033 69 10000 1 0 15:18 19.01.2020
543 Clouds 0 1033 69 10000 1 0 15:18 19.01.2020
544 Clouds 0 1032 69 10000 2.1 110 14:40 19.01.2020
545 Clouds 0 1032 69 10000 2.6 170 14:21 19.01.2020
546 Clouds 0 1032 64 10000 1.5 0 13:59 19.01.2020
547 Clouds 0 1032 74 10000 1 0 13:40 19.01.2020
548 Clouds 0 1032 74 10000 1 0 13:22 19.01.2020
549 Clouds 0 1032 74 10000 1 0 13:22 19.01.2020
550 Clouds 0 1032 86 10000 2.1 250 12:59 19.01.2020
551 Clouds 0 1032 86 10000 2.1 250 12:41 19.01.2020
552 Clouds 0 1032 80 10000 2.6 260 12:21 19.01.2020
553 Clouds 0 1032 80 10000 3.1 280 11:57 19.01.2020
554 Clouds 0 1032 80 10000 3.1 280 11:38 19.01.2020
555 Snow 0 1032 93 10000 3.6 270 11:18 19.01.2020
556 Clouds 0 1031 93 8000 3.6 280 10:41 19.01.2020
557 Mist -1 1031 93 5000 2.1 280 10:21 19.01.2020
558 Mist -1 1030 93 4000 0.5 0 09:57 19.01.2020
559 Snow -1 1030 93 4000 1 110 09:38 19.01.2020
560 Snow -1 1030 93 4000 1 110 09:20 19.01.2020
561 Snow -1 1029 93 1800 1 0 08:55 19.01.2020
562 Snow -1 1029 94 2000 1 0 08:33 19.01.2020
563 Snow -1 1029 96 1500 1 80 07:58 19.01.2020
564 Snow -1 1028 96 3000 1.5 70 07:29 19.01.2020
565 Snow -1 1028 96 3500 1.5 70 06:55 19.01.2020
566 Snow -1 1028 96 3500 0.5 0 06:23 19.01.2020
567 Clouds -1 1027 96 6000 0.5 0 04:18 19.01.2020
568 Mist -1 1027 96 4800 0.5 0 02:34 19.01.2020
569 Mist 0 1027 89 4200 1 0 01:45 19.01.2020
570 Mist -1 1027 95 2900 1 90 01:21 19.01.2020
571 Snow 0 1027 95 3700 1 0 00:45 19.01.2020
572 Clouds 1 1027 95 3400 2.1 260 00:25 19.01.2020
573 Clouds -1 1027 95 3400 2.1 260 23:55 18.01.2020
574 Rain 0 1027 95 10000 1.5 260 23:36 18.01.2020
575 Rain 0 1027 94 10000 1.5 260 23:18 18.01.2020
576 Clouds 1 1027 94 10000 0.5 0 22:42 18.01.2020
577 Rain 1 1027 94 10000 0.5 0 22:24 18.01.2020
578 Rain 1 1027 94 10000 0.5 0 22:24 18.01.2020
579 Clouds 1 1027 94 10000 0.5 0 21:58 18.01.2020
580 Clouds 1 1027 94 10000 0.5 0 21:39 18.01.2020
581 Clouds 1 1027 94 10000 0.5 0 21:21 18.01.2020
582 Clouds 1 1027 94 10000 0.5 0 20:59 18.01.2020
583 Clouds 1 1027 94 10000 0.5 0 20:41 18.01.2020
584 Clouds 1 1027 99 10000 0.5 0 20:19 18.01.2020
585 Clouds 1 1027 99 10000 0.5 0 19:44 18.01.2020
586 Clouds 1 1027 99 10000 1 0 19:25 18.01.2020
587 Clouds 1 1026 99 10000 1.5 90 18:56 18.01.2020
588 Rain 1 1026 93 10000 1.5 70 18:37 18.01.2020
589 Rain 1 1026 93 10000 1.5 70 18:19 18.01.2020
590 Clouds 1 1026 99 10000 2.1 60 17:41 18.01.2020
591 Rain 1 1026 93 10000 2.1 70 17:21 18.01.2020
592 Rain 1 1025 93 10000 2.1 60 16:57 18.01.2020
593 Clouds 1 1025 93 10000 0.5 0 16:38 18.01.2020
594 Clouds 1 1025 93 10000 0.5 0 16:19 18.01.2020
595 Clouds 1 1025 93 10000 0.5 0 16:19 18.01.2020
596 Clouds 1 1025 93 10000 1 130 15:47 18.01.2020
597 Clouds 1 1025 93 8000 1.5 110 15:26 18.01.2020
598 Clouds 1 1025 93 8000 1.5 110 15:26 18.01.2020
599 Rain 1 1025 96 6000 0.5 0 15:00 18.01.2020
600 Rain 1 1025 96 6000 0.5 0 14:41 18.01.2020
601 Rain 2 1026 93 6000 0.5 0 14:19 18.01.2020
602 Rain 1 1026 96 5000 2.74 7 13:57 18.01.2020
603 Rain 1 1026 96 4000 0.5 0 13:36 18.01.2020
604 Rain 1 1026 96 4000 0.5 0 13:36 18.01.2020
605 Rain 1 1026 95 4000 0.5 0 13:18 18.01.2020
606 Rain 2 1026 95 3000 0.5 0 12:41 18.01.2020
607 Rain 1 1026 95 2000 0.5 0 12:22 18.01.2020
608 Rain 1 1027 95 1500 0.5 0 11:57 18.01.2020
609 Snow 1 1027 95 1500 0.5 0 11:38 18.01.2020
610 Snow 1 1027 94 1500 0.5 0 11:19 18.01.2020
611 Snow 1 1027 94 2500 0.5 0 10:43 18.01.2020
612 Snow 1 1027 94 4000 0.5 0 10:21 18.01.2020
613 Snow 1 1027 94 4000 1 100 09:55 18.01.2020
614 Snow 0 1027 94 3000 1.5 100 09:37 18.01.2020
615 Snow 0 1026 94 2000 1 0 08:59 18.01.2020
616 Snow 0 1026 94 3000 1 0 08:41 18.01.2020
617 Snow 0 1026 98 3000 1 0 08:20 18.01.2020
618 Snow 0 1026 98 3000 0.5 0 07:56 18.01.2020
619 Snow 0 1026 98 3000 1 70 07:37 18.01.2020
620 Snow 0 1025 98 3000 0.5 0 06:50 18.01.2020
621 Snow 0 1025 86 4000 0.5 0 06:22 18.01.2020
622 Snow 0 1025 80 10000 1 0 05:45 18.01.2020
623 Clouds 0 1024 98 10000 2.1 240 04:19 18.01.2020
624 Clouds 0 1023 80 10000 0.5 0 02:33 18.01.2020
625 Clouds 0 1022 80 10000 0.18 186 01:36 18.01.2020
626 Clouds 0 1022 80 10000 1 0 00:39 18.01.2020
627 Clouds -1 1022 79 10000 1 0 00:19 18.01.2020
628 Clouds 0 1022 74 10000 1.5 0 23:56 17.01.2020
629 Clouds 0 1022 74 10000 1.5 0 23:38 17.01.2020
630 Clouds 0 1022 80 10000 0.5 0 23:18 17.01.2020
631 Clouds 0 1022 79 10000 1 0 22:40 17.01.2020
632 Clouds 0 1022 79 10000 1 0 22:19 17.01.2020
633 Clouds 0 1022 79 10000 1 0 22:19 17.01.2020
634 Clouds 0 1022 79 10000 1 0 21:43 17.01.2020
635 Clouds 1 1022 97 10000 0.5 0 21:24 17.01.2020
636 Clouds 1 1022 97 10000 2.1 250 20:59 17.01.2020
637 Clouds 1 1022 97 10000 2.1 250 20:41 17.01.2020
638 Clouds 1 1022 73 10000 1.5 190 20:21 17.01.2020
639 Clouds 2 1021 69 10000 1.5 0 19:57 17.01.2020
640 Clouds 2 1021 69 10000 1.5 0 19:38 17.01.2020
641 Clouds 2 1021 69 10000 0.5 0 19:20 17.01.2020
642 Clouds 2 1021 69 10000 1.5 250 18:58 17.01.2020
643 Clouds 1 1021 69 10000 1.5 250 18:38 17.01.2020
644 Clouds 2 1021 69 10000 0.5 0 18:20 17.01.2020
645 Clouds 3 1021 64 10000 0.5 0 17:40 17.01.2020
646 Clear 4 1020 59 10000 1 0 17:21 17.01.2020
647 Clear 4 1020 55 10000 1 100 16:57 17.01.2020
648 Clear 4 1020 55 10000 1 100 16:57 17.01.2020
649 Clear 4 1020 55 10000 1 100 16:38 17.01.2020
650 Clear 6 1020 48 10000 2.1 170 16:18 17.01.2020
651 Clear 7 1020 42 10000 1.5 160 15:44 17.01.2020
652 Clear 9 1020 39 10000 1.5 170 15:26 17.01.2020
653 Clear 9 1020 39 10000 1 150 14:44 17.01.2020
654 Clouds 8 1020 36 10000 1 0 14:26 17.01.2020
655 Clouds 7 1021 42 10000 1.5 140 13:58 17.01.2020
656 Clouds 7 1021 42 10000 1 0 13:37 17.01.2020
657 Clouds 7 1021 42 10000 1 0 13:18 17.01.2020
658 Clouds 6 1022 45 10000 1 0 12:42 17.01.2020
659 Clouds 5 1022 52 10000 0.5 0 12:21 17.01.2020
660 Clouds 4 1023 55 10000 0.5 0 11:38 17.01.2020
661 Clouds 3 1023 55 10000 0.5 0 11:18 17.01.2020
662 Clouds 2 1023 69 10000 0.5 0 10:44 17.01.2020
663 Clouds 1 1023 69 10000 1.5 90 10:23 17.01.2020
664 Clouds 0 1023 48 10000 2.1 90 09:58 17.01.2020
665 Clouds -1 1023 48 10000 2.1 90 09:39 17.01.2020
666 Clouds -1 1023 48 10000 2.1 90 09:39 17.01.2020
667 Clouds -2 1024 79 10000 1 0 09:19 17.01.2020
668 Clouds -2 1024 79 10000 1 0 08:43 17.01.2020
669 Clouds -2 1024 86 10000 1.5 170 08:25 17.01.2020
670 Clear -1 1024 79 10000 1 0 07:54 17.01.2020
671 Clear -2 1023 79 10000 1 0 07:31 17.01.2020
672 Clear -2 1023 74 10000 1 0 06:58 17.01.2020
673 Clear -2 1023 74 10000 1 0 06:58 17.01.2020
674 Clear -2 1023 74 10000 1 0 06:40 17.01.2020
675 Clear -1 1023 74 10000 1.5 260 05:53 17.01.2020
676 Clear -1 1027 81 0 2.64 189 03:39 17.01.2020
677 Clear -1 1027 82 0 2.64 189 02:52 17.01.2020
678 Clear 0 1028 82 0 3.22 182 01:47 17.01.2020
679 Clear 0 1028 82 0 3.22 182 01:29 17.01.2020
680 Clear 0 1028 81 0 3.18 183 00:50 17.01.2020
681 Clear 0 1029 79 0 3.18 183 00:26 17.01.2020
682 Clear -1 1027 86 10000 0.5 0 23:44 16.01.2020
683 Clear 0 1027 86 10000 0.5 0 23:26 16.01.2020
684 Clear 0 1027 86 10000 1 0 22:57 16.01.2020
685 Clear 1 1027 86 10000 1 0 22:39 16.01.2020
686 Clear 1 1027 86 10000 1 0 22:20 16.01.2020
687 Clear 0 1027 86 10000 1 0 21:55 16.01.2020
688 Clear 1 1028 86 10000 1 0 21:36 16.01.2020
689 Clear 0 1028 86 10000 1 0 21:18 16.01.2020
690 Clear 0 1028 86 10000 1 0 21:18 16.01.2020
691 Clear 1 1028 70 10000 1 0 20:41 16.01.2020
692 Clouds 2 1028 83 10000 0.5 0 20:21 16.01.2020
693 Clouds 2 1028 79 10000 1.5 240 19:59 16.01.2020
694 Clouds 1 1028 79 10000 1.5 240 19:41 16.01.2020
695 Clouds 2 1028 74 10000 1 0 19:22 16.01.2020
696 Clouds 2 1028 74 10000 1 0 19:22 16.01.2020
697 Clouds 3 1028 74 10000 0.5 0 18:57 16.01.2020
698 Clouds 2 1028 74 10000 1.5 280 18:38 16.01.2020
699 Clouds 2 1028 74 10000 1.5 280 18:20 16.01.2020
700 Clouds 3 1027 69 10000 0.5 0 17:59 16.01.2020
701 Clouds 3 1027 64 10000 0.5 0 17:40 16.01.2020
702 Clouds 5 1027 64 10000 0.5 0 17:20 16.01.2020
703 Clouds 6 1027 56 10000 1 0 16:42 16.01.2020
704 Clouds 7 1027 60 10000 0.5 0 16:24 16.01.2020
705 Clouds 7 1027 48 10000 1 0 15:59 16.01.2020
706 Clouds 6 1027 48 10000 1 0 15:40 16.01.2020
707 Clouds 6 1027 52 10000 1.5 160 15:21 16.01.2020
708 Clouds 8 1027 49 10000 1.5 240 14:45 16.01.2020
709 Clouds 7 1028 48 10000 2.6 260 14:24 16.01.2020
710 Clouds 7 1028 48 10000 3.1 260 13:56 16.01.2020
711 Clouds 7 1029 48 10000 2.6 250 13:37 16.01.2020
712 Clouds 6 1029 48 10000 2.6 250 13:19 16.01.2020
713 Clouds 6 1029 48 10000 2.6 250 13:19 16.01.2020
714 Clouds 7 1029 52 10000 3.1 250 12:42 16.01.2020
715 Clouds 6 1030 56 10000 1.5 240 12:22 16.01.2020
716 Clouds 5 1031 60 10000 3.6 260 11:43 16.01.2020
717 Clouds 5 1031 60 10000 1.5 260 11:25 16.01.2020
718 Clouds 4 1031 64 10000 2.1 260 10:59 16.01.2020
719 Clouds 3 1031 74 10000 0.5 0 10:38 16.01.2020
720 Clouds 3 1031 74 10000 0.5 0 10:20 16.01.2020
721 Clouds 2 1031 80 10000 1 0 09:56 16.01.2020
722 Clouds 1 1031 70 10000 1.5 270 09:37 16.01.2020
723 Clouds 0 1031 70 10000 1.5 270 09:19 16.01.2020
724 Clouds 0 1031 86 10000 1 250 08:48 16.01.2020
725 Clouds 0 1031 86 10000 1 310 08:29 16.01.2020
726 Clouds 0 1031 80 10000 0.5 0 07:44 16.01.2020
727 Clouds 0 1031 80 10000 0.5 0 07:25 16.01.2020
728 Clouds 0 1031 86 10000 1 0 06:59 16.01.2020
729 Clouds 0 1031 86 10000 1 0 06:37 16.01.2020
730 Clouds 0 1031 80 10000 0.5 0 05:58 16.01.2020
731 Clouds 0 1031 80 10000 0.5 0 05:39 16.01.2020
732 Clouds -1 1031 86 10000 1 0 04:37 16.01.2020
733 Clouds -1 1031 86 10000 1 0 04:37 16.01.2020
734 Clouds -1 1031 92 10000 0.5 0 03:28 16.01.2020
735 Clouds -1 1030 86 10000 1 0 02:36 16.01.2020
736 Clouds 0 1029 86 10000 3.1 250 00:48 16.01.2020
737 Clouds -1 1029 86 10000 0.5 0 00:24 16.01.2020
738 Clouds -1 1029 86 10000 0.5 0 23:48 15.01.2020
739 Clear 0 1028 80 10000 0.5 0 23:23 15.01.2020
740 Clear 0 1028 86 10000 0.5 0 22:57 15.01.2020
741 Clear 0 1028 86 10000 0.5 0 22:39 15.01.2020
742 Clear 0 1027 80 10000 0.5 0 22:19 15.01.2020
743 Clear 0 1027 80 10000 0.5 0 21:57 15.01.2020
744 Clear 0 1026 57 10000 1 250 21:37 15.01.2020
745 Clear 0 1026 57 10000 1 250 21:19 15.01.2020
746 Clear 0 1026 57 10000 1 0 20:57 15.01.2020
747 Clear 1 1026 57 10000 1 0 20:39 15.01.2020
748 Clear 1 1025 75 10000 0.5 0 20:20 15.01.2020
749 Clear 0 1024 74 10000 0.5 0 19:55 15.01.2020
750 Clear 1 1024 64 10000 0.5 0 19:37 15.01.2020
751 Clear 1 1024 64 10000 0.5 0 19:19 15.01.2020
752 Clear 1 1023 69 10000 0.5 0 18:56 15.01.2020
753 Clear 2 1023 69 10000 0.5 0 18:38 15.01.2020
754 Clear 3 1022 60 10000 2.1 150 18:19 15.01.2020
755 Clear 3 1021 52 10000 3.1 120 17:56 15.01.2020
756 Clear 4 1021 56 10000 2.1 130 17:37 15.01.2020
757 Clear 5 1021 56 10000 2.1 130 17:18 15.01.2020
758 Clear 5 1020 48 10000 1.5 120 16:40 15.01.2020
759 Clear 7 1019 43 10000 2.1 220 16:22 15.01.2020
760 Clear 8 1019 37 10000 2.6 270 15:57 15.01.2020
761 Clear 8 1019 37 10000 2.6 270 15:39 15.01.2020
762 Clear 10 1018 34 10000 4.1 280 15:19 15.01.2020
763 Clear 9 1018 34 10000 5.1 270 14:43 15.01.2020
764 Clear 9 1019 34 10000 4.6 270 14:20 15.01.2020
765 Clear 8 1019 37 10000 1.5 0 13:46 15.01.2020
766 Clear 8 1020 39 10000 1 0 13:27 15.01.2020
767 Clear 7 1020 48 10000 1.5 0 12:59 15.01.2020
768 Clear 6 1020 48 10000 1.5 0 12:40 15.01.2020
769 Clear 5 1021 52 10000 2.1 110 12:20 15.01.2020
770 Clear 5 1021 52 10000 0.5 0 11:57 15.01.2020
771 Clear 4 1021 59 10000 1 0 11:37 15.01.2020
772 Clear 3 1021 59 10000 1 0 11:19 15.01.2020
773 Clear 1 1022 69 10000 1 0 10:43 15.01.2020
774 Clear 1 1022 80 10000 2.1 260 10:25 15.01.2020
775 Clear -1 1022 86 10000 0.5 0 09:45 15.01.2020
776 Clear -2 1022 85 10000 0.5 0 09:26 15.01.2020
777 Clear -2 1022 85 10000 0.5 0 08:58 15.01.2020
778 Clear -2 1022 85 10000 0.5 0 08:39 15.01.2020
779 Clouds -2 1022 85 10000 1 0 08:21 15.01.2020
780 Clouds -2 1022 85 10000 1 0 07:51 15.01.2020
781 Clouds -2 1022 85 10000 1.5 0 07:31 15.01.2020
782 Clouds -2 1022 85 10000 0.5 0 06:46 15.01.2020
783 Clouds -2 1022 79 10000 0.5 0 06:20 15.01.2020
784 Clouds -2 1022 85 10000 1 0 04:42 15.01.2020
785 Clouds -2 1022 79 10000 1.5 280 02:38 15.01.2020
786 Clouds -1 1022 74 10000 2.1 250 01:28 15.01.2020
787 Clouds -1 1022 74 10000 2.1 270 00:46 15.01.2020
788 Clouds -1 1022 74 10000 2.1 250 00:27 15.01.2020
789 Clouds -1 1022 74 10000 1.5 240 23:56 14.01.2020
790 Clouds -1 1022 79 10000 1 0 23:38 14.01.2020
791 Clouds -1 1022 79 10000 1 0 23:19 14.01.2020
792 Clouds 0 1022 74 10000 2.1 240 22:41 14.01.2020
793 Clouds 0 1022 74 10000 2.1 250 22:19 14.01.2020
794 Clouds 0 1022 74 10000 2.1 260 21:58 14.01.2020
795 Clouds 0 1022 74 10000 2.1 260 21:58 14.01.2020
796 Clouds 0 1022 32 10000 2.6 270 21:40 14.01.2020
797 Clouds 0 1022 32 10000 2.6 270 21:21 14.01.2020
798 Clouds 0 1022 68 10000 2.1 280 20:59 14.01.2020
799 Clouds 0 1022 68 10000 2.1 280 20:40 14.01.2020
800 Clouds 1 1022 36 10000 2.6 260 20:20 14.01.2020
801 Clouds 1 1022 36 10000 2.6 260 19:56 14.01.2020
802 Clouds 0 1022 36 10000 1.5 250 19:38 14.01.2020
803 Clouds 0 1022 36 10000 1.5 250 19:18 14.01.2020
804 Clouds 0 1022 68 10000 1.5 240 18:55 14.01.2020
805 Clouds 1 1021 59 10000 1 0 18:37 14.01.2020
806 Clouds 1 1021 59 10000 1 0 18:18 14.01.2020
807 Clouds 2 1021 59 10000 1 0 17:38 14.01.2020
808 Clouds 3 1021 59 10000 1 0 17:19 14.01.2020
809 Clouds 3 1021 55 10000 1 0 16:55 14.01.2020
810 Clouds 5 1020 51 10000 1 190 16:37 14.01.2020
811 Clouds 4 1020 51 10000 1 190 16:19 14.01.2020
812 Clouds 6 1020 45 10000 1 160 15:42 14.01.2020
813 Clouds 6 1020 45 10000 1 0 15:19 14.01.2020
814 Clouds 7 1019 39 10000 1 0 14:47 14.01.2020
815 Clouds 7 1019 41 10000 1 0 14:23 14.01.2020
816 Clouds 6 1020 48 10000 1 0 13:59 14.01.2020
817 Clouds 6 1020 48 10000 1 0 13:40 14.01.2020
818 Clouds 5 1020 51 10000 1.5 240 13:19 14.01.2020
819 Clouds 4 1021 59 10000 1 0 12:42 14.01.2020
820 Clouds 3 1021 64 10000 1 0 12:23 14.01.2020
821 Clouds 2 1021 34 10000 0.5 0 11:57 14.01.2020
822 Clouds 2 1022 79 10000 1 0 11:39 14.01.2020
823 Clouds 1 1022 79 10000 1 0 11:20 14.01.2020
824 Clouds -1 1021 79 10000 2.1 250 10:56 14.01.2020
825 Clouds -1 1021 79 10000 1 250 10:37 14.01.2020
826 Clouds -2 1021 79 10000 1 250 10:19 14.01.2020
827 Clouds -3 1021 92 10000 0.5 0 09:42 14.01.2020
828 Clouds -3 1021 92 10000 0.5 0 09:23 14.01.2020
829 Clouds -4 1021 85 10000 1 0 08:58 14.01.2020
830 Clouds -4 1021 85 10000 1 0 08:39 14.01.2020
831 Clouds -4 1021 92 10000 1.5 260 08:20 14.01.2020
832 Clouds -4 1021 92 10000 1 0 07:46 14.01.2020
833 Clouds -4 1021 92 10000 0.5 0 07:18 14.01.2020
834 Clouds -4 1021 92 10000 0.5 0 06:42 14.01.2020
835 Clouds -4 1020 85 10000 1 0 05:56 14.01.2020
836 Clouds -4 1020 92 10000 0.5 0 04:49 14.01.2020
837 Clouds -3 1021 92 10000 0.5 0 03:45 14.01.2020
838 Clouds -3 1021 85 10000 1 0 02:32 14.01.2020
839 Clouds -4 1021 85 10000 0.5 0 01:19 14.01.2020
840 Clouds -3 1021 85 10000 1 0 00:47 14.01.2020
841 Clouds -3 1021 85 10000 1 0 00:21 14.01.2020
842 Clouds -2 1021 85 10000 1.5 250 23:42 13.01.2020
843 Clear -2 1021 85 10000 1 0 23:19 13.01.2020
844 Clear -2 1021 85 10000 1.5 270 22:56 13.01.2020
845 Clear -2 1023 81 0 1.49 191 22:37 13.01.2020
846 Clear -2 1021 79 10000 0.5 0 22:19 13.01.2020
847 Clear -2 1022 85 10000 0.5 0 21:54 13.01.2020
848 Clear -2 1022 79 10000 1 0 21:36 13.01.2020
849 Clear -2 1022 79 10000 1 0 21:18 13.01.2020
850 Clear -2 1022 86 10000 2.1 260 20:42 13.01.2020
851 Clear -1 1022 79 10000 1 0 20:23 13.01.2020
852 Clouds -1 1022 74 10000 0.5 0 19:59 13.01.2020
853 Clouds -1 1022 74 10000 0.5 0 19:41 13.01.2020
854 Clouds -1 1022 79 10000 1 0 19:20 13.01.2020
855 Clouds 0 1021 68 10000 0.5 0 18:58 13.01.2020
856 Clouds 0 1021 68 10000 0.5 0 18:38 13.01.2020
857 Clouds 0 1021 44 10000 0.5 0 18:19 13.01.2020
858 Clouds 0 1021 44 10000 0.5 0 18:19 13.01.2020
859 Clouds 0 1021 44 10000 0.5 0 17:58 13.01.2020
860 Clouds 1 1021 64 10000 1 180 17:38 13.01.2020
861 Clouds 1 1021 64 10000 1 180 17:20 13.01.2020
862 Clouds 1 1023 64 0 0.93 323 16:41 13.01.2020
863 Clouds 2 1033 55 0 0.93 323 16:22 13.01.2020
864 Clouds 2 1033 55 0 0.93 323 15:56 13.01.2020
865 Clouds 3 1022 52 0 0.93 323 15:38 13.01.2020
866 Clouds 4 1022 62 0 0.93 323 15:19 13.01.2020
867 Clouds 3 1022 62 0 0.93 323 14:43 13.01.2020
868 Clouds 2 1023 64 0 0.57 314 14:24 13.01.2020
869 Clouds 2 1023 65 0 0.57 314 13:58 13.01.2020
870 Clouds 2 1033 59 0 0.57 314 13:39 13.01.2020
871 Clouds 2 1033 59 0 0.57 314 13:39 13.01.2020
872 Clouds 2 1023 66 0 1.34 270 13:21 13.01.2020
873 Clouds 2 1034 57 0 0.84 315 12:56 13.01.2020
874 Clouds 2 1024 74 10000 1.5 260 12:37 13.01.2020
875 Clouds 2 1024 74 10000 1.5 260 12:37 13.01.2020
876 Clouds 2 1024 74 10000 1.5 260 12:19 13.01.2020
877 Clouds 1 1024 74 10000 1 0 11:39 13.01.2020
878 Clouds 0 1024 74 10000 1 0 11:20 13.01.2020
879 Clouds -1 1025 79 10000 1 0 10:57 13.01.2020
880 Clouds -1 1025 79 10000 1 0 10:39 13.01.2020
881 Clouds -1 1025 79 10000 1 0 10:39 13.01.2020
882 Clouds -2 1025 79 10000 1 0 10:20 13.01.2020
883 Clouds -3 1025 85 10000 1 0 09:58 13.01.2020
884 Clouds -3 1026 85 10000 2.1 250 09:38 13.01.2020
885 Clouds -3 1026 85 10000 2.1 250 09:19 13.01.2020
886 Clouds -4 1028 84 0 0.69 200 08:39 13.01.2020
887 Clouds -5 1026 92 10000 2.1 260 08:20 13.01.2020
888 Clouds -4 1026 85 10000 1 0 07:47 13.01.2020
889 Clouds -4 1026 85 10000 0.5 0 07:27 13.01.2020
890 Clouds -4 1026 85 10000 0.5 0 07:27 13.01.2020
891 Clouds -4 1026 85 10000 1.5 240 06:43 13.01.2020
892 Clouds -4 1026 92 10000 0.5 0 06:21 13.01.2020
893 Clouds -3 1027 85 10000 1 240 05:27 13.01.2020
894 Clouds -3 1028 85 10000 1 280 03:55 13.01.2020
895 Clouds -3 1028 85 10000 0.5 0 03:24 13.01.2020
896 Clouds -3 1028 79 10000 1.5 210 02:45 13.01.2020
897 Clouds -3 1028 79 10000 0.5 0 02:26 13.01.2020
898 Clouds -2 1028 79 10000 1.5 260 01:20 13.01.2020
899 Clouds -2 1028 79 10000 0.5 0 00:41 13.01.2020
900 Clouds -2 1028 79 10000 0.5 0 00:22 13.01.2020
901 Clouds -2 1028 79 10000 1.5 270 23:44 12.01.2020
902 Clouds -2 1028 79 10000 0.5 0 23:24 12.01.2020
903 Clouds -1 1028 74 10000 1.5 240 22:58 12.01.2020
904 Clouds -1 1028 74 10000 1 290 22:40 12.01.2020
905 Clouds -1 1028 74 10000 1 290 22:21 12.01.2020
906 Clouds 0 1028 74 10000 1 210 21:56 12.01.2020
907 Clouds 0 1028 74 10000 1 210 21:38 12.01.2020
908 Clouds 0 1028 74 10000 1 210 21:38 12.01.2020
909 Clouds -1 1028 79 10000 2.1 260 21:19 12.01.2020
910 Clouds 0 1028 68 10000 1 0 20:56 12.01.2020
911 Clouds 0 1028 68 10000 1 0 20:56 12.01.2020
912 Clouds 0 1028 74 10000 0.5 0 20:38 12.01.2020
913 Clouds 0 1028 74 10000 0.5 0 20:20 12.01.2020
914 Clouds 0 1028 68 10000 0.5 0 19:56 12.01.2020
915 Clouds 0 1027 74 10000 0.5 0 19:37 12.01.2020
916 Clouds 0 1027 74 10000 0.5 0 19:18 12.01.2020
917 Clouds 0 1027 68 10000 0.5 0 18:57 12.01.2020
918 Clouds 0 1027 68 10000 0.5 0 18:39 12.01.2020
919 Clouds 1 1027 68 10000 0.5 0 18:21 12.01.2020
920 Clouds 1 1027 59 10000 1.5 250 17:43 12.01.2020
921 Clouds 2 1026 59 10000 0.5 0 17:23 12.01.2020
922 Clouds 2 1026 59 10000 0.5 0 17:23 12.01.2020
923 Clouds 2 1026 55 10000 0.5 0 16:59 12.01.2020
924 Clouds 3 1026 59 10000 1 160 16:39 12.01.2020
925 Clouds 3 1026 59 10000 1 160 16:21 12.01.2020
926 Clouds 3 1026 48 10000 1 0 15:58 12.01.2020
927 Clouds 4 1026 48 10000 1 0 15:39 12.01.2020
928 Clouds 4 1026 35 10000 1 170 15:21 12.01.2020
929 Clouds 5 1026 38 10000 1 0 14:43 12.01.2020
930 Clouds 6 1026 41 10000 1 0 14:24 12.01.2020
931 Clouds 5 1026 38 10000 1 0 13:57 12.01.2020
932 Clouds 5 1026 38 10000 1 0 13:57 12.01.2020
933 Clouds 5 1026 38 10000 1 0 13:39 12.01.2020
934 Clear 4 1027 44 10000 1 0 13:20 12.01.2020
935 Clear 4 1027 47 10000 2.1 250 12:57 12.01.2020
936 Clear 4 1028 59 10000 2.1 250 12:38 12.01.2020
937 Clear 3 1028 59 10000 2.1 250 12:19 12.01.2020
938 Clear 2 1028 28 10000 2.1 270 11:42 12.01.2020
939 Clear 1 1029 28 10000 1 0 11:22 12.01.2020
940 Clouds 1 1029 74 10000 1 0 10:57 12.01.2020
941 Clouds 0 1029 74 10000 1 0 10:39 12.01.2020
942 Clouds 0 1029 74 10000 1 0 10:39 12.01.2020
943 Clouds 0 1029 86 10000 1 0 10:20 12.01.2020
944 Clouds -3 1029 92 10000 1 360 09:42 12.01.2020
945 Clouds -3 1029 92 10000 1 0 09:23 12.01.2020
946 Clouds -3 1031 87 0 1.34 293 08:48 12.01.2020
947 Clear -3 1029 92 10000 1 0 08:24 12.01.2020
948 Clear -3 1029 92 10000 1 290 07:56 12.01.2020
949 Clear -3 1029 92 10000 1 0 07:37 12.01.2020
950 Clear -3 1029 92 10000 1 0 07:19 12.01.2020
951 Clear -3 1030 100 10000 1 130 06:40 12.01.2020
952 Clear -3 1030 92 10000 0.5 0 05:58 12.01.2020
953 Clear -3 1030 92 10000 1 260 05:18 12.01.2020
954 Clear -2 1030 92 10000 1 0 03:44 12.01.2020
955 Clear -2 1031 92 10000 1 0 02:52 12.01.2020
956 Clear -2 1030 92 10000 2.6 250 02:27 12.01.2020
957 Clear -2 1031 92 10000 1.5 240 01:35 12.01.2020
958 Clear -2 1031 92 10000 0.5 0 00:49 12.01.2020
959 Clear -1 1031 92 10000 1.5 240 00:22 12.01.2020
960 Clear -1 1031 92 10000 1.5 240 00:22 12.01.2020
961 Clear -1 1031 92 10000 1 0 23:59 11.01.2020
962 Clear -1 1031 92 10000 1 0 23:41 11.01.2020
963 Clouds -1 1031 92 10000 1 220 23:18 11.01.2020
964 Clouds -1 1031 92 10000 0.5 0 22:56 11.01.2020
965 Clouds -1 1031 86 10000 1.5 250 22:38 11.01.2020
966 Clouds -1 1031 86 10000 1.5 250 22:19 11.01.2020
967 Clouds -1 1031 92 10000 2.1 250 21:44 11.01.2020
968 Clouds -1 1032 86 10000 1.5 260 21:19 11.01.2020
969 Clouds -1 1032 67 10000 1.5 270 20:57 11.01.2020
970 Clouds 0 1032 67 10000 0.5 0 20:39 11.01.2020
971 Clouds -1 1032 87 10000 0.5 0 20:19 11.01.2020
972 Clouds 0 1032 87 10000 0.5 0 19:57 11.01.2020
973 Clouds 0 1031 86 10000 1 0 19:38 11.01.2020
974 Clouds 0 1032 87 10000 0.5 0 19:38 11.01.2020
975 Clouds 1 1031 86 10000 1 0 19:20 11.01.2020
976 Clouds 1 1031 80 10000 1.5 250 18:55 11.01.2020
977 Clouds 1 1031 86 10000 1 0 18:37 11.01.2020
978 Clouds 2 1031 86 10000 1 0 18:18 11.01.2020
979 Clouds 2 1031 87 10000 1.5 140 17:57 11.01.2020
980 Clouds 2 1031 87 10000 1.5 140 17:39 11.01.2020
981 Clouds 3 1031 88 10000 2.1 60 17:18 11.01.2020
982 Clouds 3 1031 88 10000 1 0 16:44 11.01.2020
983 Clouds 4 1031 88 10000 1.5 190 16:25 11.01.2020
984 Clouds 5 1031 65 10000 1.5 170 15:56 11.01.2020
985 Clouds 5 1031 65 10000 2.1 120 15:38 11.01.2020
986 Clouds 5 1031 65 10000 1.5 170 15:20 11.01.2020
987 Clouds 5 1031 65 10000 1.5 170 14:46 11.01.2020
988 Clouds 5 1031 65 10000 1 0 14:25 11.01.2020
989 Clouds 5 1031 70 10000 1 0 13:57 11.01.2020
990 Clouds 4 1031 75 10000 1.5 250 13:38 11.01.2020
991 Clouds 4 1031 75 10000 1.5 250 13:19 11.01.2020
992 Clouds 4 1032 76 10000 2.6 260 12:55 11.01.2020
993 Clouds 4 1032 74 10000 2.6 250 12:36 11.01.2020
994 Clouds 4 1032 74 10000 2.6 250 12:18 11.01.2020
995 Clouds 4 1033 80 10000 2.6 270 11:42 11.01.2020
996 Clouds 3 1033 86 10000 2.6 270 11:23 11.01.2020
997 Clouds 3 1033 86 10000 2.1 280 10:44 11.01.2020
998 Clouds 2 1033 86 10000 1 0 10:24 11.01.2020
999 Clouds 2 1033 86 10000 1 0 10:24 11.01.2020
1000 Clouds 2 1033 95 10000 0.5 0 09:43 11.01.2020
1001 Clouds 2 1033 95 10000 2.6 260 09:21 11.01.2020
1002 Clouds 1 1032 95 10000 2.6 250 08:43 11.01.2020
1003 Clouds 1 1032 86 10000 1.5 280 08:24 11.01.2020
1004 Clouds 2 1032 86 10000 1 250 07:59 11.01.2020
1005 Clouds 2 1032 86 10000 1 250 07:41 11.01.2020
1006 Snow 2 1034 84 0 1.11 353 07:22 11.01.2020
1007 Snow 1 1043 81 0 1.11 353 06:42 11.01.2020
1008 Clouds 1 1031 86 10000 0.5 0 05:22 11.01.2020
1009 Clouds 1 1030 86 10000 1 0 04:38 11.01.2020
1010 Clouds 1 1030 86 10000 0.5 0 04:20 11.01.2020
1011 Clouds 1 1029 98 10000 1 0 02:46 11.01.2020
1012 Clouds 2 1029 80 10000 1 0 01:45 11.01.2020
1013 Clouds 2 1029 80 10000 1 0 01:22 11.01.2020
1014 Clouds 2 1028 86 10000 1.5 0 00:52 11.01.2020
1015 Clouds 2 1028 86 10000 2.1 0 00:24 11.01.2020
1016 Clouds 2 1029 86 10000 2.6 280 23:56 10.01.2020
1017 Clouds 2 1028 86 10000 1 0 23:38 10.01.2020
1018 Clouds 2 1028 86 10000 1 0 23:20 10.01.2020
1019 Clouds 2 1028 80 10000 1 0 22:41 10.01.2020
1020 Clouds 2 1028 80 10000 1.5 230 22:22 10.01.2020
1021 Clouds 2 1028 80 10000 1 0 21:58 10.01.2020
1022 Clouds 2 1027 80 10000 0.5 0 21:39 10.01.2020
1023 Clouds 2 1027 80 10000 0.5 0 21:20 10.01.2020
1024 Clouds 2 1027 80 10000 0.5 0 20:55 10.01.2020
1025 Clouds 3 1027 74 10000 0.5 0 20:37 10.01.2020
1026 Clouds 2 1027 74 10000 0.5 0 20:19 10.01.2020
1027 Clouds 2 1026 80 10000 0.5 0 19:39 10.01.2020
1028 Clouds 2 1026 80 10000 0.5 0 19:20 10.01.2020
1029 Clouds 2 1025 80 10000 0.5 0 18:54 10.01.2020
1030 Clouds 3 1025 80 10000 1 100 18:36 10.01.2020
1031 Clouds 4 1025 80 10000 1 100 18:18 10.01.2020
1032 Clouds 4 1025 80 10000 1 100 18:18 10.01.2020
1033 Snow 3 1024 80 10000 0.5 0 17:55 10.01.2020
1034 Snow 4 1023 74 10000 0.5 0 17:37 10.01.2020
1035 Clouds 4 1023 74 10000 0.5 0 17:18 10.01.2020
1036 Clouds 5 1022 64 10000 0.5 0 16:41 10.01.2020
1037 Clouds 6 1022 64 10000 0.5 0 16:21 10.01.2020
1038 Clouds 7 1022 52 10000 1.5 170 15:56 10.01.2020
1039 Clouds 7 1022 56 10000 1 0 15:37 10.01.2020
1040 Clouds 7 1022 56 10000 1 0 15:19 10.01.2020
1041 Clouds 7 1022 56 10000 1 0 15:19 10.01.2020
1042 Clouds 8 1021 52 10000 1 0 14:57 10.01.2020
1043 Clouds 8 1021 52 10000 1 0 14:39 10.01.2020
1044 Clear 7 1021 56 10000 1 0 14:19 10.01.2020
1045 Clear 7 1021 56 10000 1 0 13:54 10.01.2020
1046 Clear 6 1022 65 10000 1.5 250 13:36 10.01.2020
1047 Clear 5 1022 65 10000 1.5 250 13:18 10.01.2020
1048 Clear 5 1022 69 10000 1 0 12:54 10.01.2020
1049 Clear 5 1022 55 10000 1.5 260 12:36 10.01.2020
1050 Clear 4 1022 55 10000 1.5 260 12:18 10.01.2020
1051 Clear 3 1023 80 10000 0.5 0 11:42 10.01.2020
1052 Clear 3 1023 80 10000 0.5 0 11:42 10.01.2020
1053 Clear 3 1023 80 10000 0.5 0 11:42 10.01.2020
1054 Clear 3 1023 80 10000 0.5 0 11:42 10.01.2020
1055 Clear 2 1023 80 10000 0.5 0 11:21 10.01.2020
1056 Clear 2 1023 53 10000 1 0 10:59 10.01.2020
1057 Clear 1 1023 92 10000 0.5 0 10:38 10.01.2020
1058 Clear 0 1023 92 10000 0.5 0 10:19 10.01.2020
1059 Clear -1 1023 92 10000 1.5 250 09:46 10.01.2020
1060 Clear -1 1034 63 0 2.13 180 09:26 10.01.2020
1061 Clear -2 1022 92 10000 1.5 240 08:58 10.01.2020
1062 Clear -2 1022 92 10000 1.5 240 08:38 10.01.2020
1063 Clouds -2 1022 100 10000 0.5 0 08:20 10.01.2020
1064 Clouds -2 1021 100 10000 1 240 07:41 10.01.2020
1065 Clouds -2 1021 100 10000 1 240 07:41 10.01.2020
1066 Clouds -2 1021 92 10000 0.5 0 07:22 10.01.2020
1067 Clouds -2 1021 92 10000 0.5 0 06:42 10.01.2020
1068 Clouds -2 1021 100 10000 0.5 0 06:24 10.01.2020
1069 Clouds -1 1020 92 10000 1 0 05:33 10.01.2020
1070 Clouds -1 1019 92 10000 2.1 250 03:32 10.01.2020
1071 Clouds -1 1020 92 10000 1 0 02:54 10.01.2020
1072 Clouds -1 1019 92 10000 0.5 0 02:33 10.01.2020
1073 Clouds -1 1020 92 10000 0.5 0 01:34 10.01.2020
1074 Clouds 0 1020 92 10000 2.1 210 00:56 10.01.2020
1075 Clouds 0 1020 92 10000 1.5 0 00:38 10.01.2020
1076 Clouds 0 1020 92 10000 1 0 23:57 09.01.2020
1077 Clouds -1 1020 92 10000 1 0 23:37 09.01.2020
1078 Clouds 0 1020 92 10000 1 0 23:19 09.01.2020
1079 Clouds 0 1020 92 10000 1 0 23:19 09.01.2020
1080 Clouds 0 1021 92 10000 1 0 22:56 09.01.2020
1081 Clouds 0 1021 86 10000 0.5 0 22:37 09.01.2020
1082 Clouds 0 1021 86 10000 0.5 0 22:18 09.01.2020
1083 Clouds 1 1021 92 10000 1.5 240 21:55 09.01.2020
1084 Clouds 1 1021 92 10000 1 0 21:37 09.01.2020
1085 Clouds 1 1021 92 10000 1 0 21:18 09.01.2020
1086 Clouds 1 1021 86 10000 0.5 0 20:55 09.01.2020
1087 Clouds 1 1021 86 10000 0.5 0 20:37 09.01.2020
1088 Clouds 2 1021 58 10000 1.5 240 20:19 09.01.2020
1089 Clouds 2 1021 86 10000 1.5 240 19:39 09.01.2020
1090 Clouds 3 1021 80 10000 0.5 0 19:21 09.01.2020
1091 Clouds 3 1021 80 10000 0.5 0 18:59 09.01.2020
1092 Clouds 2 1021 80 10000 0.5 0 18:40 09.01.2020
1093 Clouds 3 1021 80 10000 0.5 0 18:21 09.01.2020
1094 Clouds 3 1021 80 10000 0.5 0 17:58 09.01.2020
1095 Clouds 4 1020 74 10000 0.5 0 17:40 09.01.2020
1096 Clouds 5 1020 74 10000 1 0 17:18 09.01.2020
1097 Clouds 6 1020 69 10000 0.5 0 16:46 09.01.2020
1098 Clouds 5 1020 65 10000 1 0 16:22 09.01.2020
1099 Clouds 7 1020 52 10000 0.5 0 15:43 09.01.2020
1100 Clouds 7 1020 52 10000 0.5 0 15:23 09.01.2020
1101 Clouds 7 1021 56 10000 1 0 14:59 09.01.2020
1102 Clouds 7 1021 56 10000 1 0 14:41 09.01.2020
1103 Clouds 8 1021 56 10000 0.5 0 14:19 09.01.2020
1104 Clouds 8 1021 56 10000 0.5 0 13:56 09.01.2020
1105 Clouds 8 1022 56 10000 0.5 0 13:38 09.01.2020
1106 Clouds 7 1023 60 10000 1 0 13:19 09.01.2020
1107 Clouds 7 1023 60 10000 1 0 12:56 09.01.2020
1108 Clouds 6 1023 64 10000 1.5 250 12:38 09.01.2020
1109 Clouds 6 1024 64 10000 2.1 270 12:18 09.01.2020
1110 Clouds 5 1025 69 10000 0.5 0 11:42 09.01.2020
1111 Clouds 5 1025 69 10000 0.5 0 11:24 09.01.2020
1112 Clouds 5 1025 69 10000 0.5 0 11:24 09.01.2020
1113 Clouds 4 1025 69 10000 0.5 0 10:58 09.01.2020
1114 Clouds 3 1026 74 10000 0.5 0 10:40 09.01.2020
1115 Clouds 2 1026 54 10000 1 250 10:21 09.01.2020
1116 Clouds 1 1026 86 10000 0.5 0 09:46 09.01.2020
1117 Clouds 1 1026 86 10000 0.5 0 09:25 09.01.2020
1118 Clouds 0 1026 86 10000 0.5 0 08:58 09.01.2020
1119 Clouds 0 1038 68 0 0.45 166 08:39 09.01.2020
1120 Clouds 0 1026 86 10000 0.5 0 08:20 09.01.2020
1121 Clouds 0 1026 86 10000 1 10 07:48 09.01.2020
1122 Clouds 0 1026 86 10000 1 10 07:30 09.01.2020
1123 Clouds 0 1027 86 10000 1 0 06:40 09.01.2020
1124 Clouds 0 1027 86 10000 0.5 0 06:22 09.01.2020
1125 Clouds 1 1027 80 10000 0.5 0 05:51 09.01.2020
1126 Clouds 1 1027 80 10000 1.5 250 05:20 09.01.2020
1127 Clouds 1 1027 80 10000 3.1 270 04:39 09.01.2020
1128 Clouds 2 1029 80 10000 0.5 0 03:27 09.01.2020
1129 Clouds 2 1029 34 10000 1.5 230 02:46 09.01.2020
1130 Clouds 2 1030 74 10000 1 0 01:42 09.01.2020
1131 Clouds 2 1030 74 10000 1.5 240 01:18 09.01.2020
1132 Clouds 3 1030 80 10000 2.6 270 00:38 09.01.2020
1133 Clouds 3 1030 74 10000 2.1 270 00:19 09.01.2020
1134 Clouds 3 1030 74 10000 1 0 23:40 08.01.2020
1135 Clouds 3 1030 74 10000 1.5 270 23:22 08.01.2020
1136 Clouds 3 1030 74 10000 1 0 22:56 08.01.2020
1137 Clouds 3 1030 74 10000 1 0 22:37 08.01.2020
1138 Clouds 3 1030 74 10000 0.5 0 22:18 08.01.2020
1139 Clouds 2 1030 74 10000 0.5 0 21:55 08.01.2020
1140 Clouds 2 1030 74 10000 0.5 0 21:37 08.01.2020
1141 Clouds 2 1030 74 10000 0.5 0 21:18 08.01.2020
1142 Clouds 3 1030 69 10000 1 0 20:41 08.01.2020
1143 Clouds 3 1030 69 10000 1 280 20:21 08.01.2020
1144 Clouds 3 1031 69 10000 0.5 0 19:58 08.01.2020
1145 Clouds 3 1031 69 10000 0.5 0 19:38 08.01.2020
1146 Clouds 3 1031 69 10000 0.5 0 19:20 08.01.2020
1147 Clouds 3 1031 69 10000 0.5 0 18:58 08.01.2020
1148 Clouds 3 1031 69 10000 1 0 18:39 08.01.2020
1149 Clouds 3 1031 64 10000 1 0 18:19 08.01.2020
1150 Clouds 3 1031 64 10000 1 0 17:57 08.01.2020
1151 Clouds 3 1031 64 10000 1 0 17:38 08.01.2020
1152 Clouds 3 1030 64 10000 0.5 0 17:19 08.01.2020
1153 Clouds 3 1030 64 10000 0.5 0 16:56 08.01.2020
1154 Clouds 3 1030 59 10000 1 0 16:38 08.01.2020
1155 Clouds 3 1030 55 10000 1 0 16:18 08.01.2020
1156 Clouds 3 1030 55 10000 0.5 0 15:44 08.01.2020
1157 Clouds 3 1030 55 10000 1.5 290 15:21 08.01.2020
1158 Clouds 3 1030 55 10000 1.5 290 14:58 08.01.2020
1159 Clouds 3 1030 55 10000 0.5 0 14:40 08.01.2020
1160 Clouds 3 1030 55 10000 0.5 0 14:40 08.01.2020
1161 Clouds 3 1030 55 10000 0.5 0 14:40 08.01.2020
1162 Clouds 3 1031 51 10000 0.5 0 14:21 08.01.2020
1163 Clouds 3 1031 55 10000 0.5 0 13:41 08.01.2020
1164 Clouds 3 1031 59 10000 0.5 0 13:22 08.01.2020
1165 Clouds 2 1031 59 10000 0.5 0 12:55 08.01.2020
1166 Clouds 2 1032 64 10000 0.5 0 12:36 08.01.2020
1167 Clouds 2 1032 27 10000 0.5 0 12:18 08.01.2020
1168 Clouds 2 1032 80 10000 1 0 11:47 08.01.2020
1169 Clouds 1 1033 80 10000 0.5 0 11:19 08.01.2020
1170 Clouds 0 1033 80 10000 0.5 0 10:59 08.01.2020
1171 Clouds -1 1033 79 10000 2.1 240 10:40 08.01.2020
1172 Clouds -1 1032 79 10000 1.5 240 10:20 08.01.2020
1173 Clouds -2 1033 86 10000 1.5 270 09:43 08.01.2020
1174 Clouds -2 1033 86 10000 2.1 220 09:20 08.01.2020
1175 Clouds -2 1033 86 10000 2.1 220 08:58 08.01.2020
1176 Clouds -3 1033 85 10000 0.5 0 08:39 08.01.2020
1177 Clouds -3 1033 92 10000 1.5 260 08:20 08.01.2020
1178 Clouds -3 1032 92 10000 0.5 0 07:52 08.01.2020
1179 Clouds -4 1032 92 10000 1 250 07:33 08.01.2020
1180 Clouds -4 1032 92 10000 1 250 06:58 08.01.2020
1181 Clouds -3 1032 92 10000 0.5 0 06:40 08.01.2020
1182 Clouds -3 1032 92 10000 1.5 270 05:54 08.01.2020
1183 Clouds -3 1044 70 0 0.45 177 05:25 08.01.2020
1184 Clear -3 1032 92 10000 1 0 04:35 08.01.2020
1185 Clear -2 1032 92 10000 1 0 02:46 08.01.2020
1186 Clear -2 1032 92 10000 1 0 02:28 08.01.2020
1187 Clear -2 1032 92 10000 2.6 210 01:52 08.01.2020
1188 Clear -2 1032 92 10000 2.6 210 01:29 08.01.2020
1189 Clear -2 1032 92 10000 1 0 00:42 08.01.2020
1190 Clear -1 1032 92 10000 1.5 220 00:21 08.01.2020
1191 Clear -1 1032 92 10000 1.5 220 23:45 07.01.2020
1192 Clouds -1 1032 92 10000 0.5 0 23:20 07.01.2020
1193 Clouds -1 1032 86 10000 0.5 0 22:41 07.01.2020
1194 Clouds -1 1032 86 10000 1.5 240 22:21 07.01.2020
1195 Clouds -1 1032 86 10000 1.5 240 21:58 07.01.2020
1196 Clouds 0 1032 92 10000 1.5 250 21:40 07.01.2020
1197 Clouds 0 1032 86 10000 1.5 250 21:21 07.01.2020
1198 Clouds 0 1032 86 10000 1.5 250 20:57 07.01.2020
1199 Clouds 0 1032 92 10000 1 320 20:39 07.01.2020
1200 Clouds 0 1032 92 10000 1 250 20:21 07.01.2020
1201 Clouds 0 1032 92 10000 1 250 19:56 07.01.2020
1202 Clouds 0 1032 86 10000 0.5 0 19:37 07.01.2020
1203 Clouds 0 1031 92 10000 1.5 280 19:18 07.01.2020
1204 Clouds 0 1031 92 10000 1.5 280 19:18 07.01.2020
1205 Clouds 0 1031 92 10000 1.5 280 18:55 07.01.2020
1206 Clouds 0 1031 94 10000 0.5 0 18:37 07.01.2020
1207 Clouds 0 1031 94 10000 0.5 0 18:18 07.01.2020
1208 Clouds 0 1030 80 10000 0.5 0 17:40 07.01.2020
1209 Clouds 1 1030 80 10000 0.5 0 17:22 07.01.2020
1210 Clouds 1 1030 74 10000 0.48 50 16:57 07.01.2020
1211 Clouds 1 1030 74 10000 0.48 50 16:38 07.01.2020
1212 Clouds 1 1030 74 10000 0.48 50 16:38 07.01.2020
1213 Clouds 1 1030 74 10000 0.48 50 16:38 07.01.2020
1214 Clouds 1 1030 74 10000 0.48 50 16:38 07.01.2020
1215 Clouds 2 1029 69 10000 1 0 16:19 07.01.2020
1216 Clouds 2 1029 69 10000 1 0 15:59 07.01.2020
1217 Clouds 2 1029 56 10000 1.5 120 15:40 07.01.2020
1218 Clouds 2 1029 60 10000 2.1 80 15:22 07.01.2020
1219 Clouds 2 1029 60 10000 2.1 80 14:56 07.01.2020
1220 Clouds 2 1029 64 10000 2.1 90 14:37 07.01.2020
1221 Clouds 2 1029 60 10000 2.6 120 14:18 07.01.2020
1222 Clouds 1 1029 69 10000 1 0 13:40 07.01.2020
1223 Clouds 2 1029 64 10000 1.5 90 13:19 07.01.2020
1224 Clouds 2 1029 69 10000 2.1 120 12:42 07.01.2020
1225 Clouds 1 1029 74 10000 0.5 0 12:21 07.01.2020
1226 Clouds 1 1029 95 10000 1 0 11:59 07.01.2020
1227 Clouds 1 1029 95 10000 1 0 11:40 07.01.2020
1228 Clouds 0 1030 86 10000 1 0 11:21 07.01.2020
1229 Clouds -1 1029 80 10000 1 0 10:42 07.01.2020
1230 Clouds -1 1029 80 10000 1 0 10:24 07.01.2020
1231 Clouds -1 1029 80 10000 1 0 09:59 07.01.2020
1232 Clouds -2 1028 79 10000 1 0 09:38 07.01.2020
1233 Clouds -2 1028 86 10000 1 0 09:20 07.01.2020
1234 Clouds -3 1028 86 10000 0.5 0 08:46 07.01.2020
1235 Clouds -3 1027 86 10000 0.5 0 08:26 07.01.2020
1236 Clouds -3 1027 92 10000 0.5 0 07:54 07.01.2020
1237 Clouds -3 1027 92 10000 1 0 07:29 07.01.2020
1238 Clouds -4 1027 92 10000 1 0 06:54 07.01.2020
1239 Clouds -4 1027 92 10000 1 0 06:54 07.01.2020
1240 Clouds -4 1027 92 10000 1.5 270 06:35 07.01.2020
1241 Clouds -3 1027 85 10000 1.5 200 05:57 07.01.2020
1242 Clouds -3 1027 85 10000 1.5 200 05:35 07.01.2020
1243 Clear -3 1027 85 10000 1 0 03:29 07.01.2020
1244 Clear -3 1027 85 10000 1 0 02:24 07.01.2020
1245 Clear -2 1027 85 10000 1 260 01:57 07.01.2020
1246 Clear -3 1027 85 10000 1 260 01:32 07.01.2020
1247 Clear -2 1028 85 10000 1 260 00:40 07.01.2020
1248 Clear -2 1028 85 10000 1 0 00:20 07.01.2020
1249 Clear -2 1028 79 10000 1 0 23:55 06.01.2020
1250 Clear -2 1028 79 10000 1 0 23:36 06.01.2020
1251 Clear -2 1028 85 10000 1 0 23:18 06.01.2020
1252 Clear -2 1028 79 10000 1 230 22:43 06.01.2020
1253 Clear -1 1028 79 10000 0.5 0 22:23 06.01.2020
1254 Clear -1 1028 79 10000 0.5 0 21:57 06.01.2020
1255 Clear -1 1028 86 10000 1 0 21:39 06.01.2020
1256 Clear -2 1028 86 10000 1 0 21:20 06.01.2020
1257 Clear -2 1028 86 10000 1 0 21:20 06.01.2020
1258 Clear -1 1028 86 10000 1 250 20:56 06.01.2020
1259 Clear -1 1028 86 10000 1 250 20:38 06.01.2020
1260 Clear -1 1028 79 10000 0.5 0 20:20 06.01.2020
1261 Clear -1 1028 79 10000 0.5 0 19:56 06.01.2020
1262 Clear -1 1028 74 10000 1 0 19:38 06.01.2020
1263 Clear -1 1028 79 10000 0.5 0 19:19 06.01.2020
1264 Clear 0 1028 74 10000 0.5 0 18:47 06.01.2020
1265 Clear 0 1028 74 10000 0.5 0 18:47 06.01.2020
1266 Clear 0 1028 74 10000 0.5 0 18:21 06.01.2020
1267 Clear 0 1028 74 10000 0.5 0 17:58 06.01.2020
1268 Clear 0 1028 74 10000 0.5 0 17:37 06.01.2020
1269 Clear 0 1028 74 10000 0.5 0 17:37 06.01.2020
1270 Clear 1 1027 49 10000 1 0 17:18 06.01.2020
1271 Clear 2 1027 64 10000 1.5 270 16:44 06.01.2020
1272 Clear 3 1027 69 10000 1 170 16:24 06.01.2020
1273 Clear 3 1027 69 10000 1 170 15:59 06.01.2020
1274 Clear 4 1027 44 10000 1.5 190 15:38 06.01.2020
1275 Clear 4 1027 44 10000 1 0 15:18 06.01.2020
1276 Clear 4 1027 44 10000 1 0 14:56 06.01.2020
1277 Clear 5 1027 44 10000 1.5 250 14:37 06.01.2020
1278 Clear 5 1028 44 10000 2.1 250 14:18 06.01.2020
1279 Clear 4 1028 48 10000 1.5 230 13:40 06.01.2020
1280 Clear 4 1029 51 10000 1.5 240 13:22 06.01.2020
1281 Clear 4 1029 55 10000 1.5 260 12:59 06.01.2020
1282 Clear 4 1029 55 10000 1.5 260 12:41 06.01.2020
1283 Clear 3 1030 59 10000 1.5 240 12:20 06.01.2020
1284 Clear 3 1030 34 10000 1 0 11:55 06.01.2020
1285 Clear 3 1030 34 10000 1 0 11:37 06.01.2020
1286 Clear 1 1031 26 10000 1 0 11:18 06.01.2020
1287 Clear 0 1031 80 10000 1.5 270 10:41 06.01.2020
1288 Clear -1 1032 86 10000 1 0 10:21 06.01.2020
1289 Clear -1 1032 86 10000 1 0 10:21 06.01.2020
1290 Clear -3 1032 86 10000 1 0 09:42 06.01.2020
1291 Clear -3 1032 92 10000 0.5 0 09:24 06.01.2020
1292 Clear -3 1032 92 10000 0.5 0 08:57 06.01.2020
1293 Clear -3 1032 92 10000 1 0 08:38 06.01.2020
1294 Clear -3 1032 92 10000 1 0 08:38 06.01.2020
1295 Clouds -4 1032 92 10000 0.5 0 07:58 06.01.2020
1296 Clouds -3 1032 92 10000 1 280 07:39 06.01.2020
1297 Clouds -3 1032 92 10000 0.5 0 06:53 06.01.2020
1298 Clouds -3 1032 92 10000 0.5 0 06:35 06.01.2020
1299 Clouds -4 1032 92 10000 1 0 05:48 06.01.2020
1300 Clouds -3 1033 92 10000 1 0 05:23 06.01.2020
1301 Clear -3 1033 92 10000 1.5 290 04:23 06.01.2020
1302 Clear -3 1033 92 10000 1.5 250 03:30 06.01.2020
1303 Clear -2 1034 92 10000 1.5 270 02:27 06.01.2020
1304 Clear -3 1034 86 10000 1 0 01:53 06.01.2020
1305 Clear -2 1034 86 10000 1 0 01:30 06.01.2020
1306 Clear -2 1034 86 10000 2.1 250 00:45 06.01.2020
1307 Clear -2 1034 92 10000 1 0 00:26 06.01.2020
1308 Clear -2 1034 92 10000 1 0 23:57 05.01.2020
1309 Clear -2 1035 92 10000 1.5 250 23:38 05.01.2020
1310 Clouds -2 1035 92 10000 1 0 23:19 05.01.2020
1311 Clouds -3 1035 92 10000 1.5 250 22:40 05.01.2020
1312 Clouds -2 1035 92 10000 1.5 270 22:20 05.01.2020
1313 Clouds -2 1035 92 10000 1.5 270 22:20 05.01.2020
1314 Clouds -1 1035 86 10000 1 0 21:57 05.01.2020
1315 Clouds -1 1035 86 10000 1 0 21:39 05.01.2020
1316 Clouds -1 1035 92 10000 1 0 21:20 05.01.2020
1317 Clouds -2 1035 92 10000 1 0 20:56 05.01.2020
1318 Clouds -2 1035 92 10000 1 0 20:38 05.01.2020
1319 Clouds -1 1035 92 10000 0.5 0 20:19 05.01.2020
1320 Clouds -1 1035 92 10000 0.5 0 20:19 05.01.2020
1321 Clouds 0 1035 92 10000 0.5 0 19:58 05.01.2020
1322 Clouds 0 1035 84 10000 0.5 0 19:38 05.01.2020
1323 Clouds 0 1035 84 10000 0.5 0 19:20 05.01.2020
1324 Clouds -1 1035 84 10000 0.5 0 18:55 05.01.2020
1325 Clouds -1 1034 84 10000 1 250 18:37 05.01.2020
1326 Clouds -1 1034 84 10000 1 250 18:37 05.01.2020
1327 Clouds -1 1034 84 10000 0.5 0 18:19 05.01.2020
1328 Clouds 1 1034 80 10000 1 0 17:57 05.01.2020
1329 Clouds 1 1034 80 10000 1 0 17:38 05.01.2020
1330 Clouds 1 1034 80 10000 1 0 17:38 05.01.2020
1331 Clouds 2 1034 74 10000 1 0 17:19 05.01.2020
1332 Clouds 2 1034 69 10000 1 0 16:56 05.01.2020
1333 Clouds 3 1034 69 10000 1 0 16:38 05.01.2020
1334 Clouds 3 1033 69 10000 2.6 170 16:19 05.01.2020
1335 Clouds 3 1033 69 10000 2.6 170 16:19 05.01.2020
1336 Clouds 3 1033 69 10000 2.6 170 16:19 05.01.2020
1337 Clouds 5 1033 85 10000 1.5 140 15:38 05.01.2020
1338 Clouds 5 1033 85 10000 1.5 160 15:20 05.01.2020
1339 Clouds 5 1033 85 10000 1.5 160 14:55 05.01.2020
1340 Clouds 5 1033 85 10000 2.1 130 14:37 05.01.2020
1341 Clouds 5 1033 85 10000 2.1 130 14:37 05.01.2020
1342 Clouds 5 1033 70 10000 2.6 120 14:19 05.01.2020
1343 Clouds 5 1033 70 10000 2.6 120 13:55 05.01.2020
1344 Clouds 4 1033 60 10000 2.6 90 13:37 05.01.2020
1345 Clouds 4 1033 78 10000 2.1 110 13:18 05.01.2020
1346 Clouds 4 1033 78 10000 2.1 110 13:18 05.01.2020
1347 Clouds 4 1033 78 10000 2.1 110 13:18 05.01.2020
1348 Clouds 4 1033 78 10000 2.1 110 12:55 05.01.2020
1349 Clouds 4 1034 78 10000 2.1 120 12:37 05.01.2020
1350 Clouds 3 1034 75 10000 2.1 100 12:18 05.01.2020
1351 Clouds 3 1034 80 10000 3.1 110 11:43 05.01.2020
1352 Clouds 3 1034 80 10000 3.1 110 11:43 05.01.2020
1353 Clouds 3 1034 80 10000 3.1 110 11:43 05.01.2020
1354 Rain 3 1034 80 10000 3.1 110 11:43 05.01.2020
1355 Clouds 3 1035 80 10000 2.1 100 11:19 05.01.2020
1356 Clouds 2 1035 80 10000 2.1 100 10:58 05.01.2020
1357 Clouds 2 1035 88 10000 1.5 100 10:39 05.01.2020
1358 Clouds 2 1035 88 10000 1.5 100 10:39 05.01.2020
1359 Clouds 2 1035 88 10000 1.5 100 10:39 05.01.2020
1360 Clouds 2 1035 88 10000 1.5 100 10:39 05.01.2020
1361 Clouds 1 1035 88 10000 1 0 10:18 05.01.2020
1362 Clouds 1 1035 88 10000 1 0 09:42 05.01.2020
1363 Clouds 1 1035 86 10000 1 0 09:22 05.01.2020
1364 Clouds 1 1035 86 10000 1 0 08:50 05.01.2020
1365 Clouds 1 1034 86 10000 0.5 0 08:30 05.01.2020
1366 Clouds 1 1034 86 10000 0.5 0 07:56 05.01.2020
1367 Snow 1 1034 86 10000 0.5 0 07:37 05.01.2020
1368 Clouds 1 1034 80 10000 0.5 0 07:19 05.01.2020
1369 Snow 1 1033 80 10000 1.5 140 05:59 05.01.2020
1370 Clouds 1 1033 80 10000 1 0 05:33 05.01.2020
1371 Clouds 1 1033 80 10000 1 0 05:33 05.01.2020
1372 Clouds 1 1032 80 10000 1 0 04:43 05.01.2020
1373 Clouds 1 1032 80 10000 2.1 90 04:18 05.01.2020
1374 Clouds 2 1030 38 10000 6.7 290 02:46 05.01.2020
1375 Clouds 3 1030 38 10000 6.7 290 02:24 05.01.2020
1376 Clouds 2 1030 64 10000 5.7 250 01:48 05.01.2020
1377 Clouds 1 1030 96 10000 1 0 01:19 05.01.2020
1378 Clouds 1 1030 96 10000 1 0 00:42 05.01.2020
1379 Clouds 1 1030 96 10000 1 0 00:42 05.01.2020
1380 Clouds 2 1030 96 6000 2.1 0 00:23 05.01.2020
1381 Clouds 2 1030 96 6000 2.1 0 23:59 04.01.2020
1382 Mist 2 1031 96 5000 1.5 0 23:40 04.01.2020
1383 Clouds 2 1031 100 10000 1 160 23:19 04.01.2020
1384 Clouds 2 1031 100 10000 1 160 23:19 04.01.2020
1385 Clouds 2 1031 100 10000 1 160 23:19 04.01.2020
1386 Clouds 1 1031 100 10000 1 0 22:40 04.01.2020
1387 Clouds 1 1030 93 9000 1 0 22:22 04.01.2020
1388 Clouds 2 1030 93 9000 1 0 21:58 04.01.2020
1389 Clouds 2 1030 100 8000 1.5 0 21:39 04.01.2020
1390 Clouds 3 1030 93 8000 0.5 0 21:20 04.01.2020
1391 Clouds 2 1030 93 8000 0.5 0 20:59 04.01.2020
1392 Clouds 2 1030 93 10000 1 0 20:40 04.01.2020
1393 Rain 1 1030 93 8000 2.1 40 20:21 04.01.2020
1394 Clouds 2 1030 93 8000 2.1 40 19:56 04.01.2020
1395 Clouds 2 1029 93 10000 1.5 0 19:38 04.01.2020
1396 Rain 2 1030 100 10000 2.1 100 19:19 04.01.2020
1397 Rain 2 1029 100 10000 2.1 110 18:54 04.01.2020
1398 Rain 2 1029 100 10000 2.1 110 18:36 04.01.2020
1399 Rain 2 1029 100 7000 1.5 100 18:18 04.01.2020
1400 Rain 1 1029 93 6000 0.5 0 17:41 04.01.2020
1401 Rain 2 1028 93 10000 0.5 0 17:23 04.01.2020
1402 Rain 2 1028 93 10000 0.5 0 16:57 04.01.2020
1403 Rain 2 1028 86 10000 1 0 16:39 04.01.2020
1404 Rain 2 1028 86 10000 1 0 16:39 04.01.2020
1405 Rain 2 1028 86 10000 0.5 0 16:21 04.01.2020
1406 Rain 2 1027 86 10000 1 0 15:43 04.01.2020
1407 Rain 2 1027 98 10000 1.5 50 15:20 04.01.2020
1408 Rain 2 1027 98 10000 1.5 50 14:59 04.01.2020
1409 Rain 2 1027 98 10000 2.6 90 14:41 04.01.2020
1410 Snow 3 1029 91 0 1.34 68 14:20 04.01.2020
1411 Rain 3 1027 98 10000 1 110 13:59 04.01.2020
1412 Snow 3 1039 79 0 1.68 319 13:38 04.01.2020
1413 Snow 3 1039 80 0 0.45 67 13:19 04.01.2020
1414 Drizzle 3 1027 98 10000 0.5 0 12:57 04.01.2020
1415 Clouds 3 1028 74 10000 0.5 0 12:38 04.01.2020
1416 Clouds 2 1027 80 10000 0.5 0 12:18 04.01.2020
1417 Clouds 3 1027 80 10000 0.5 0 11:55 04.01.2020
1418 Clouds 3 1028 80 10000 0.5 0 11:36 04.01.2020
1419 Clouds 2 1028 80 10000 0.5 0 11:18 04.01.2020
1420 Clouds 2 1028 86 10000 1 0 10:40 04.01.2020
1421 Clouds 1 1029 98 10000 1 0 10:21 04.01.2020
1422 Drizzle 1 1029 98 10000 1 0 09:47 04.01.2020
1423 Drizzle 1 1029 98 10000 1 0 09:26 04.01.2020
1424 Clouds 1 1028 92 10000 1 0 08:49 04.01.2020
1425 Clouds 1 1028 92 10000 1 0 08:29 04.01.2020
1426 Clouds 1 1028 92 10000 0.5 0 07:56 04.01.2020
1427 Snow 1 1028 92 10000 1 0 07:38 04.01.2020
1428 Clouds 1 1028 92 10000 1.5 240 06:44 04.01.2020
1429 Clouds 0 1028 92 10000 2.1 270 05:59 04.01.2020
1430 Clouds 0 1028 86 10000 1.5 250 04:51 04.01.2020
1431 Clouds 0 1028 86 10000 1.5 250 04:30 04.01.2020
1432 Clouds 0 1028 86 10000 1 240 03:29 04.01.2020
1433 Clouds 0 1028 92 10000 1.5 260 02:49 04.01.2020
1434 Clouds 0 1028 92 10000 1 0 02:18 04.01.2020
1435 Clouds 0 1028 92 10000 1 0 01:41 04.01.2020
1436 Clouds 0 1028 92 10000 1 0 01:23 04.01.2020
1437 Clouds -1 1028 92 10000 0.5 0 00:29 04.01.2020
1438 Clouds -1 1028 86 10000 1 0 23:57 03.01.2020
1439 Clouds -1 1028 92 10000 0.5 0 23:30 03.01.2020
1440 Clouds -1 1028 92 10000 0.5 0 23:30 03.01.2020
1441 Clouds 0 1028 86 10000 0.5 0 22:59 03.01.2020
1442 Clouds 0 1028 86 10000 1 230 22:40 03.01.2020
1443 Clouds 0 1028 92 10000 1 240 22:19 03.01.2020
1444 Clouds 0 1027 92 10000 1.5 250 21:57 03.01.2020
1445 Clouds 0 1027 92 10000 1.5 250 21:38 03.01.2020
1446 Clouds 0 1027 92 10000 1 0 21:19 03.01.2020
1447 Clouds 0 1027 86 10000 0.5 0 20:55 03.01.2020
1448 Clouds 0 1027 86 10000 0.5 0 20:36 03.01.2020
1449 Clouds 0 1027 92 10000 1 260 20:18 03.01.2020
1450 Clouds 0 1027 86 10000 1 0 19:44 03.01.2020
1451 Clouds 1 1026 61 10000 0.5 0 19:23 03.01.2020
1452 Clouds 1 1026 61 10000 0.5 0 18:57 03.01.2020
1453 Clouds 1 1026 61 10000 0.5 0 18:38 03.01.2020
1454 Clouds 1 1026 80 10000 1 0 18:20 03.01.2020
1455 Clouds 1 1026 80 10000 1 0 17:42 03.01.2020
1456 Clouds 1 1025 74 10000 1 0 17:21 03.01.2020
1457 Clouds 2 1025 74 10000 1 0 16:58 03.01.2020
1458 Clouds 2 1025 80 10000 1 0 16:39 03.01.2020
1459 Clouds 2 1024 74 10000 0.5 0 16:20 03.01.2020
1460 Clouds 2 1024 69 10000 0.73 281 15:41 03.01.2020
1461 Clouds 3 1024 74 10000 1 0 15:19 03.01.2020
1462 Clouds 3 1024 80 10000 0.5 0 14:40 03.01.2020
1463 Clouds 3 1024 80 10000 0.5 0 14:40 03.01.2020
1464 Clouds 3 1024 74 10000 1 0 14:20 03.01.2020
1465 Clouds 3 1024 74 10000 1 0 13:59 03.01.2020
1466 Clouds 3 1025 80 10000 1 0 13:40 03.01.2020
1467 Clouds 3 1025 80 10000 1 0 13:21 03.01.2020
1468 Clouds 3 1026 80 10000 1.5 290 12:41 03.01.2020
1469 Clouds 3 1026 47 10000 1 0 12:22 03.01.2020
1470 Clouds 3 1026 47 10000 1 0 11:57 03.01.2020
1471 Clouds 3 1026 47 10000 1 0 11:57 03.01.2020
1472 Clouds 2 1027 86 10000 1 0 11:39 03.01.2020
1473 Clouds 0 1027 80 10000 1.5 240 10:59 03.01.2020
1474 Clouds 0 1028 86 10000 1.5 270 10:40 03.01.2020
1475 Clouds -1 1028 92 10000 1 0 10:22 03.01.2020
1476 Clouds -1 1028 92 10000 1 0 09:56 03.01.2020
1477 Clouds -2 1028 92 10000 0.5 0 09:38 03.01.2020
1478 Clouds -1 1029 92 10000 1.5 300 09:20 03.01.2020
1479 Clouds -2 1029 92 10000 1.5 320 08:45 03.01.2020
1480 Clouds -3 1028 92 10000 1 0 08:23 03.01.2020
1481 Clouds -3 1028 92 10000 1 0 07:57 03.01.2020
1482 Clouds -3 1028 100 10000 0.5 0 07:38 03.01.2020
1483 Clouds -3 1028 92 10000 0.5 0 07:18 03.01.2020
1484 Clouds -3 1028 92 10000 0.5 0 06:42 03.01.2020
1485 Clouds -3 1028 92 10000 2.1 260 06:22 03.01.2020
1486 Clouds -3 1028 92 10000 0.5 0 05:20 03.01.2020
1487 Clouds -4 1028 92 10000 1 0 03:42 03.01.2020
1488 Clouds -3 1028 92 10000 0.5 0 02:53 03.01.2020
1489 Clear -3 1028 92 10000 1 0 01:51 03.01.2020
1490 Clear -3 1028 92 10000 1 0 01:33 03.01.2020
1491 Clear -3 1028 92 10000 1 0 00:43 03.01.2020
1492 Clear -2 1028 86 10000 0.5 0 00:24 03.01.2020
1493 Clear -2 1028 92 10000 0.5 0 23:39 02.01.2020
1494 Clear -2 1028 86 10000 1 0 23:21 02.01.2020
1495 Clear -2 1028 86 10000 1 0 22:59 02.01.2020
1496 Clear -2 1028 86 10000 1 0 22:41 02.01.2020
1497 Clear -1 1028 86 10000 1 0 22:20 02.01.2020
1498 Clear -1 1028 86 10000 1 0 21:57 02.01.2020
1499 Clear -1 1028 92 10000 1 0 21:38 02.01.2020
1500 Clear -2 1028 86 10000 1.5 250 21:19 02.01.2020
1501 Clear -1 1028 86 10000 1.5 250 20:56 02.01.2020
1502 Clear -1 1028 92 10000 1 0 20:37 02.01.2020
1503 Clouds -1 1028 86 10000 0.5 0 20:19 02.01.2020
1504 Clouds 0 1028 86 10000 0.5 0 19:54 02.01.2020
1505 Clouds 0 1028 86 10000 0.5 0 19:54 02.01.2020
1506 Clouds 0 1028 86 10000 1 0 19:36 02.01.2020
1507 Clouds 0 1028 86 10000 0.5 0 19:18 02.01.2020
1508 Clouds 0 1028 86 10000 0.5 0 19:18 02.01.2020
1509 Clouds 0 1028 86 10000 0.5 0 18:43 02.01.2020
1510 Clouds 1 1028 60 10000 1 0 18:25 02.01.2020
1511 Clouds 1 1028 60 10000 1 0 17:58 02.01.2020
1512 Clouds 1 1028 60 10000 1 0 17:39 02.01.2020
1513 Clouds 2 1027 74 10000 1 0 17:21 02.01.2020
1514 Clouds 2 1027 74 10000 1 0 16:59 02.01.2020
1515 Clouds 2 1027 74 10000 1 0 16:41 02.01.2020
1516 Clouds 3 1027 69 10000 1.5 170 16:20 02.01.2020
1517 Clouds 3 1027 69 10000 1.5 170 15:58 02.01.2020
1518 Clouds 3 1027 69 10000 1.5 170 15:58 02.01.2020
1519 Clouds 4 1027 64 10000 1.5 160 15:40 02.01.2020
1520 Clouds 4 1027 56 10000 2.1 170 15:21 02.01.2020
1521 Clouds 4 1027 60 10000 1 0 14:57 02.01.2020
1522 Clouds 6 1027 60 10000 1 0 14:36 02.01.2020
1523 Clouds 5 1027 60 10000 1 0 14:36 02.01.2020
1524 Clouds 5 1027 60 10000 1 0 14:18 02.01.2020
1525 Clouds 5 1028 60 10000 1 0 13:49 02.01.2020
1526 Clear 4 1028 60 10000 1 0 13:31 02.01.2020
1527 Clear 4 1029 64 10000 1.5 0 12:46 02.01.2020
1528 Clear 4 1029 64 10000 1.5 0 12:26 02.01.2020
1529 Clear 4 1030 74 10000 1 0 11:59 02.01.2020
1530 Clear 4 1030 74 10000 1 0 11:40 02.01.2020
1531 Clouds 0 1030 40 10000 0.5 0 11:20 02.01.2020
1532 Clouds 0 1030 40 10000 0.5 0 11:20 02.01.2020
1533 Clouds 0 1031 86 10000 0.5 0 10:44 02.01.2020
1534 Clouds 0 1031 86 10000 0.5 0 10:26 02.01.2020
1535 Clouds -1 1031 92 10000 1 0 09:51 02.01.2020
1536 Clouds -1 1031 92 10000 1 0 09:33 02.01.2020
1537 Clouds -2 1031 92 10000 0.5 0 08:47 02.01.2020
1538 Clouds -2 1031 92 10000 0.5 0 08:27 02.01.2020
1539 Clear -4 1031 92 10000 0.5 0 07:54 02.01.2020
1540 Clear -4 1031 92 10000 1 0 07:30 02.01.2020
1541 Clear -4 1031 92 10000 1 0 06:55 02.01.2020
1542 Clear -5 1030 92 10000 0.5 0 06:36 02.01.2020
1543 Clear -4 1031 92 10000 0.5 0 05:36 02.01.2020
1544 Clear -4 1031 92 10000 0.5 0 04:33 02.01.2020
1545 Clear -4 1031 92 10000 1.5 250 02:54 02.01.2020
1546 Clear -3 1031 92 10000 1 0 01:59 02.01.2020
1547 Clear -3 1032 92 10000 1 230 01:39 02.01.2020
1548 Clear -3 1032 92 10000 1.5 260 00:59 02.01.2020
1549 Clear -3 1032 92 10000 1.5 260 00:34 02.01.2020
1550 Clear -3 1032 92 10000 1 0 23:56 01.01.2020
1551 Clear -3 1032 92 10000 0.5 0 23:37 01.01.2020
1552 Clear -3 1032 92 10000 1 0 23:18 01.01.2020
1553 Clear -2 1032 92 10000 1.5 260 22:38 01.01.2020
1554 Clear -2 1033 92 10000 1 330 22:19 01.01.2020
1555 Clear -2 1033 92 10000 1 330 21:56 01.01.2020
1556 Clear -2 1033 92 10000 1 250 21:38 01.01.2020
1557 Clear -2 1033 92 10000 0.5 0 21:19 01.01.2020
1558 Clear -2 1033 92 10000 0.5 0 21:19 01.01.2020
1559 Clear -2 1033 92 10000 0.5 0 20:55 01.01.2020
1560 Clear -2 1033 92 10000 0.5 0 20:37 01.01.2020
1561 Fog -2 1033 92 6000 0.5 0 20:19 01.01.2020
1562 Fog -2 1033 92 6000 0.5 0 20:19 01.01.2020
1563 Fog -1 1033 92 6000 0.5 0 19:55 01.01.2020
1564 Fog -1 1033 86 6000 1 250 19:55 01.01.2020
1565 Fog -1 1033 86 6000 1 250 19:37 01.01.2020
1566 Fog -1 1033 86 8000 1 240 19:19 01.01.2020
1567 Fog -1 1033 86 8000 1 240 18:55 01.01.2020
1568 Fog -1 1033 92 8000 1 270 18:36 01.01.2020
1569 Fog 0 1033 86 8000 2.31 175 18:18 01.01.2020
1570 Fog -1 1033 86 8000 2.31 175 17:56 01.01.2020
1571 Fog -1 1033 86 8000 2.31 175 17:56 01.01.2020
1572 Clear 0 1032 47 10000 0.5 0 17:37 01.01.2020
1573 Clear 0 1032 55 10000 0.5 0 17:18 01.01.2020
1574 Clear 1 1032 55 10000 1 0 16:40 01.01.2020
1575 Clear 1 1032 55 10000 1 0 16:40 01.01.2020
1576 Clear 2 1031 86 10000 0.5 0 16:21 01.01.2020
1577 Clear 1 1031 86 10000 0.5 0 15:57 01.01.2020
1578 Clear 2 1031 69 10000 1 220 15:39 01.01.2020
1579 Clear 4 1031 55 10000 1 0 15:20 01.01.2020
1580 Clear 3 1031 55 10000 1 0 14:58 01.01.2020
1581 Clear 4 1031 74 10000 0.5 0 14:40 01.01.2020
1582 Clear 3 1032 74 10000 1 0 14:21 01.01.2020
1583 Clear 4 1032 74 10000 1 0 13:56 01.01.2020
1584 Clear 4 1032 100 10000 1 0 13:37 01.01.2020
1585 Clear 4 1032 100 10000 1 0 13:37 01.01.2020
1586 Clouds 3 1033 100 10000 0.5 0 13:18 01.01.2020
1587 Mist 2 1033 100 7000 0.5 0 12:55 01.01.2020
1588 Mist 2 1033 100 7000 0.5 0 12:37 01.01.2020
1589 Fog 2 1034 100 2000 1 0 12:18 01.01.2020
1590 Fog 2 1034 100 600 0.5 0 11:43 01.01.2020
1591 Fog 0 1034 100 350 2.1 250 11:22 01.01.2020
1592 Fog -1 1034 100 350 2.1 250 10:58 01.01.2020
1593 Fog -1 1035 100 250 2.1 240 10:40 01.01.2020
1594 Fog -1 1034 100 250 1 0 10:20 01.01.2020
1595 Fog 0 1034 100 250 1 0 09:55 01.01.2020
1596 Fog 0 1034 100 200 1 0 09:36 01.01.2020
1597 Fog -1 1035 100 250 0.5 0 09:18 01.01.2020
1598 Fog -1 1035 100 250 0.5 0 08:54 01.01.2020
1599 Fog -1 1034 100 250 1 250 08:36 01.01.2020
1600 Fog -2 1034 100 300 1 270 08:18 01.01.2020
1601 Fog -2 1034 100 300 1 270 07:45 01.01.2020
1602 Fog -2 1034 100 300 1 270 07:26 01.01.2020
1603 Fog -2 1034 100 300 0.5 0 06:44 01.01.2020
1604 Fog -2 1033 100 200 0.5 0 06:19 01.01.2020
1605 Mist -2 1033 92 2300 1 0 04:38 01.01.2020
1606 Mist -2 1034 92 2000 0.5 0 03:41 01.01.2020
1607 Mist -2 1034 92 2200 0.5 0 03:22 01.01.2020
1608 Mist -1 1034 92 2200 0.5 0 02:55 01.01.2020
1609 Mist -1 1034 100 2400 1.5 230 02:32 01.01.2020
1610 Mist -1 1034 100 1100 1.5 240 01:45 01.01.2020
1611 Mist -2 1034 100 1100 1.5 240 01:24 01.01.2020
1612 Fog -1 1034 92 500 1 0 00:56 01.01.2020
1613 Mist -1 1034 92 2200 0.5 0 00:37 01.01.2020
1614 Mist -1 1034 92 4800 0.5 0 00:18 01.01.2020
1615 Mist -1 1035 92 4100 1 0 23:39 31.12.2019
1616 Mist -1 1035 92 5000 0.5 0 23:19 31.12.2019
1617 Mist -1 1035 92 5000 0.5 0 22:57 31.12.2019
1618 Clear -1 1034 92 6000 0.5 0 22:38 31.12.2019
1619 Clear 0 1034 92 9000 1.5 230 22:18 31.12.2019
1620 Clear -1 1034 92 9000 1.5 230 21:54 31.12.2019
1621 Clear -1 1034 92 9000 1 0 21:36 31.12.2019
1622 Clear -1 1034 100 7000 2.1 250 21:18 31.12.2019
1623 Clear -1 1034 100 7000 2.1 250 21:18 31.12.2019
1624 Mist 0 1034 100 3000 1.5 260 20:40 31.12.2019
1625 Clouds 0 1034 92 8000 0.5 0 20:21 31.12.2019
1626 Clouds 0 1034 92 8000 0.5 0 19:59 31.12.2019
1627 Clouds 0 1034 92 6000 1 280 19:40 31.12.2019
1628 Clouds 0 1034 67 10000 0.5 0 19:22 31.12.2019
1629 Clouds 0 1034 67 10000 0.5 0 18:57 31.12.2019
1630 Clouds 1 1033 67 10000 0.5 0 18:39 31.12.2019
1631 Clouds 1 1033 67 10000 1.5 270 18:19 31.12.2019
1632 Clouds 1 1033 67 10000 1.5 270 17:56 31.12.2019
1633 Clouds 1 1033 67 10000 1 0 17:37 31.12.2019
1634 Clouds 1 1033 67 10000 1 0 17:37 31.12.2019
1635 Clouds 2 1033 71 10000 1 0 17:19 31.12.2019
1636 Clouds 3 1033 71 10000 1 0 16:56 31.12.2019
1637 Clouds 3 1033 71 10000 1 0 16:56 31.12.2019
1638 Clouds 3 1032 71 10000 1.5 170 16:37 31.12.2019
1639 Clouds 3 1032 80 10000 1 180 16:19 31.12.2019
1640 Clouds 4 1032 80 10000 1 200 15:56 31.12.2019
1641 Clouds 4 1032 80 10000 1 200 15:38 31.12.2019
1642 Clouds 4 1031 71 10000 1 0 15:20 31.12.2019
1643 Clouds 5 1031 71 10000 1 0 14:56 31.12.2019
1644 Clouds 6 1032 60 10000 0.5 0 14:37 31.12.2019
1645 Clouds 5 1032 63 10000 1 0 14:19 31.12.2019
1646 Clouds 6 1032 63 10000 1 0 13:56 31.12.2019
1647 Clouds 6 1032 63 10000 1 0 13:38 31.12.2019
1648 Clouds 6 1032 63 10000 1 0 13:38 31.12.2019
1649 Clouds 5 1032 65 10000 1 0 13:20 31.12.2019
1650 Clouds 5 1032 65 10000 1 0 12:56 31.12.2019
1651 Clouds 5 1032 65 10000 1 0 12:56 31.12.2019
1652 Clouds 6 1033 69 10000 1 0 12:37 31.12.2019
1653 Clouds 4 1033 74 10000 1 0 12:19 31.12.2019
1654 Clouds 4 1033 74 10000 1 0 11:55 31.12.2019
1655 Clouds 5 1033 74 10000 0.5 0 11:37 31.12.2019
1656 Clouds 5 1033 74 10000 0.5 0 11:37 31.12.2019
1657 Clear 3 1034 86 10000 1 0 11:19 31.12.2019
1658 Clear 2 1034 86 10000 1 0 10:56 31.12.2019
1659 Clear 1 1034 52 10000 1 0 10:37 31.12.2019
1660 Clear 0 1033 92 10000 1.5 260 10:19 31.12.2019
1661 Clear 0 1033 92 10000 1.5 260 09:57 31.12.2019
1662 Clear -1 1033 92 10000 2.1 280 09:38 31.12.2019
1663 Clear -1 1033 100 10000 1.5 240 09:19 31.12.2019
1664 Clouds -1 1033 92 10000 1 0 08:43 31.12.2019
1665 Clouds -2 1033 92 10000 1 230 08:23 31.12.2019
1666 Clouds -2 1033 92 10000 1 230 07:58 31.12.2019
1667 Clouds -1 1033 92 10000 1 0 07:40 31.12.2019
1668 Clouds -1 1033 92 10000 0.5 0 07:19 31.12.2019
1669 Clouds -2 1033 92 10000 0.5 0 06:41 31.12.2019
1670 Clouds -2 1032 92 10000 0.5 0 05:28 31.12.2019
1671 Clouds -2 1032 92 10000 0.5 0 04:25 31.12.2019
1672 Clouds -2 1032 92 10000 1 280 03:24 31.12.2019
1673 Clouds -2 1033 92 10000 1 310 02:36 31.12.2019
1674 Clouds -2 1032 92 10000 0.5 0 01:53 31.12.2019
1675 Clear -2 1033 92 10000 1 0 01:32 31.12.2019
1676 Clear -2 1033 92 10000 1 0 00:56 31.12.2019
1677 Clear -2 1033 92 10000 0.5 0 00:37 31.12.2019
1678 Clear -2 1033 92 10000 0.5 0 00:18 31.12.2019
1679 Clear -2 1033 92 10000 0.5 0 23:55 30.12.2019
1680 Clear -2 1033 86 10000 2.1 270 23:36 30.12.2019
1681 Clear -2 1033 86 10000 2.1 270 23:18 30.12.2019
1682 Clear -2 1033 92 10000 2.6 260 22:54 30.12.2019
1683 Clear -2 1033 92 10000 2.6 260 22:54 30.12.2019
1684 Clear -1 1033 92 10000 2.6 260 22:36 30.12.2019
1685 Clear -1 1033 92 10000 1 240 22:18 30.12.2019
1686 Clear -2 1033 92 10000 1 240 21:55 30.12.2019
1687 Clear -2 1033 92 10000 1 240 21:55 30.12.2019
1688 Clear -1 1033 86 10000 1 270 21:37 30.12.2019
1689 Clear -1 1034 92 10000 0.5 0 21:18 30.12.2019
1690 Clear -1 1034 86 10000 2.1 250 20:42 30.12.2019
1691 Clouds -1 1034 86 10000 1.5 260 20:21 30.12.2019
1692 Clouds -1 1034 86 10000 1.5 260 19:59 30.12.2019
1693 Clouds -1 1034 86 10000 1.5 260 19:59 30.12.2019
1694 Clouds -1 1034 86 10000 2.1 250 19:40 30.12.2019
1695 Clouds -1 1034 86 10000 1.5 270 19:20 30.12.2019
1696 Clouds -1 1034 86 10000 1.5 270 19:20 30.12.2019
1697 Clouds -1 1034 86 10000 1.5 270 18:59 30.12.2019
1698 Clouds -1 1034 86 10000 1.5 290 18:41 30.12.2019
1699 Clouds 0 1034 86 10000 1.5 260 18:21 30.12.2019
1700 Clouds 0 1034 86 10000 1.5 260 17:59 30.12.2019
1701 Clouds 0 1034 86 10000 0.5 0 17:40 30.12.2019
1702 Clear 0 1034 59 10000 1 0 17:19 30.12.2019
1703 Clear 0 1034 59 10000 1 0 16:59 30.12.2019
1704 Clear 1 1034 59 10000 1.5 270 16:39 30.12.2019
1705 Clear 1 1034 59 10000 1 0 16:20 30.12.2019
1706 Clear 2 1034 59 10000 1 0 15:56 30.12.2019
1707 Clear 3 1034 69 10000 1 0 15:38 30.12.2019
1708 Clear 3 1034 64 10000 1.5 180 15:19 30.12.2019
1709 Clear 3 1034 59 10000 1 0 14:43 30.12.2019
1710 Clear 3 1035 64 10000 2.1 250 14:21 30.12.2019
1711 Clear 2 1035 64 10000 2.1 250 13:59 30.12.2019
1712 Clear 3 1035 64 10000 2.1 250 13:59 30.12.2019
1713 Clear 3 1035 64 10000 1.5 230 13:40 30.12.2019
1714 Clear 2 1035 69 10000 2.1 250 13:22 30.12.2019
1715 Clear 2 1035 69 10000 2.1 250 12:57 30.12.2019
1716 Clear 3 1036 57 10000 3.1 260 12:37 30.12.2019
1717 Clear 2 1037 80 10000 2.6 250 12:18 30.12.2019
1718 Clear 2 1037 80 10000 2.6 250 12:18 30.12.2019
1719 Rain 2 1037 80 10000 3.1 260 11:45 30.12.2019
1720 Rain 0 1038 86 10000 2.6 250 11:22 30.12.2019
1721 Clear -1 1038 86 10000 2.6 250 10:59 30.12.2019
1722 Clear -2 1038 92 10000 1.5 250 10:40 30.12.2019
1723 Clear -3 1038 86 10000 0.5 0 10:19 30.12.2019
1724 Clear -3 1038 92 10000 0.5 0 09:42 30.12.2019
1725 Clear -4 1038 92 10000 0.5 0 09:21 30.12.2019
1726 Clear -4 1038 92 10000 0.5 0 08:57 30.12.2019
1727 Clear -5 1038 92 10000 1.5 280 08:38 30.12.2019
1728 Clear -5 1038 92 10000 1.5 270 08:19 30.12.2019
1729 Clear -5 1038 92 10000 1.5 280 07:44 30.12.2019
1730 Clear -5 1037 92 10000 1 0 07:23 30.12.2019
1731 Clear -5 1037 92 10000 2.1 250 06:30 30.12.2019
1732 Clear -5 1038 92 10000 0.5 0 04:29 30.12.2019
1733 Clear -5 1038 92 10000 0.5 0 03:43 30.12.2019
1734 Clear -5 1038 92 10000 1 0 02:41 30.12.2019
1735 Clear -5 1038 92 10000 1 0 02:21 30.12.2019
1736 Clear -5 1038 92 10000 0.5 0 01:27 30.12.2019
1737 Clear -4 1038 85 10000 1 240 00:51 30.12.2019
1738 Clear -4 1038 85 10000 1 240 00:28 30.12.2019
1739 Clear -4 1038 85 10000 1 0 23:40 29.12.2019
1740 Clear -4 1038 85 10000 1 270 23:22 29.12.2019
1741 Clear -4 1038 85 10000 1 270 22:57 29.12.2019
1742 Clear -4 1038 92 10000 0.5 0 22:38 29.12.2019
1743 Clear -4 1038 92 10000 0.5 0 22:20 29.12.2019
1744 Clear -4 1038 92 10000 0.5 0 21:55 29.12.2019
1745 Clear -3 1038 86 10000 1 0 21:36 29.12.2019
1746 Clear -3 1038 86 10000 1.5 280 21:18 29.12.2019
1747 Clear -3 1038 86 10000 1.5 280 20:55 29.12.2019
1748 Clear -3 1038 86 10000 0.5 0 20:36 29.12.2019
1749 Clouds -3 1038 86 10000 1 0 20:18 29.12.2019
1750 Clouds -3 1038 86 10000 1 0 19:55 29.12.2019
1751 Clouds -3 1038 79 10000 2.1 240 19:37 29.12.2019
1752 Clouds -3 1038 86 10000 2.1 270 19:18 29.12.2019
1753 Clouds -2 1038 86 10000 0.5 0 18:40 29.12.2019
1754 Clouds -2 1038 86 10000 1 0 18:21 29.12.2019
1755 Clouds -2 1038 86 10000 1 0 17:59 29.12.2019
1756 Clouds -2 1037 79 10000 1.5 260 17:40 29.12.2019
1757 Clear -1 1037 80 10000 1 0 17:20 29.12.2019
1758 Clear -1 1037 80 10000 1 0 16:58 29.12.2019
1759 Clouds -1 1037 80 10000 1.5 260 16:40 29.12.2019
1760 Clouds -1 1037 80 10000 1.5 260 16:40 29.12.2019
1761 Rain 0 1037 58 10000 1 0 16:21 29.12.2019
1762 Rain 0 1037 58 10000 1 0 16:21 29.12.2019
1763 Rain 0 1037 58 10000 1 0 15:59 29.12.2019
1764 Rain 0 1037 69 10000 1.5 210 15:40 29.12.2019
1765 Clouds 0 1037 59 10000 1 0 15:20 29.12.2019
1766 Rain 2 1037 59 10000 1 0 14:59 29.12.2019
1767 Rain 1 1037 64 10000 1 0 14:41 29.12.2019
1768 Rain 2 1037 59 10000 1 0 14:19 29.12.2019
1769 Rain 2 1037 59 10000 1 0 13:59 29.12.2019
1770 Rain 2 1037 64 10000 1.5 220 13:40 29.12.2019
1771 Clouds 1 1037 64 10000 1.5 230 13:22 29.12.2019
1772 Clouds 1 1037 64 10000 1.5 230 12:56 29.12.2019
1773 Clouds 1 1037 41 10000 2.1 240 12:38 29.12.2019
1774 Clouds 0 1038 41 10000 2.1 220 12:20 29.12.2019
1775 Rain 0 1039 41 10000 1.5 240 11:41 29.12.2019
1776 Rain -2 1039 68 10000 1.5 230 11:21 29.12.2019
1777 Clouds -3 1039 74 10000 1 0 10:56 29.12.2019
1778 Clouds -3 1039 74 10000 1 0 10:37 29.12.2019
1779 Clouds -4 1040 68 10000 1 0 10:18 29.12.2019
1780 Clouds -4 1040 68 10000 1 0 10:18 29.12.2019
1781 Clouds -3 1040 74 10000 1.5 140 09:44 29.12.2019
1782 Clouds -3 1040 74 10000 1.5 140 09:26 29.12.2019
1783 Clouds -5 1039 79 10000 2.6 250 08:52 29.12.2019
1784 Clouds -5 1039 79 10000 2.6 250 08:29 29.12.2019
1785 Clouds -6 1039 79 10000 1 0 07:59 29.12.2019
1786 Clouds -5 1039 79 10000 2.1 140 07:33 29.12.2019
1787 Clouds -5 1039 79 10000 1.5 130 06:59 29.12.2019
1788 Clouds -5 1038 74 10000 1.5 140 06:27 29.12.2019
1789 Clouds -5 1038 74 9000 2.6 130 05:55 29.12.2019
1790 Clouds -5 1038 74 10000 1.5 140 04:59 29.12.2019
1791 Clouds -4 1038 80 10000 0.5 0 04:30 29.12.2019
1792 Clouds -4 1038 80 10000 1 120 03:32 29.12.2019
1793 Clouds -5 1039 80 10000 1 0 02:27 29.12.2019
1794 Clouds -4 1038 80 10000 0.5 0 01:47 29.12.2019
1795 Clouds -4 1038 80 10000 0.5 0 01:28 29.12.2019
1796 Clouds -4 1039 74 10000 2.6 250 00:45 29.12.2019
1797 Clouds -4 1039 42 10000 1 0 00:24 29.12.2019
1798 Clouds -3 1039 42 10000 2.1 260 23:46 28.12.2019
1799 Clouds -3 1039 63 10000 2.6 260 23:19 28.12.2019
1800 Clouds -3 1039 63 10000 2.6 260 22:59 28.12.2019
1801 Clouds -3 1039 63 10000 2.1 270 22:37 28.12.2019
1802 Clouds -2 1039 80 10000 0.5 0 22:18 28.12.2019
1803 Clouds -2 1039 80 10000 0.5 0 21:55 28.12.2019
1804 Clouds -2 1039 80 10000 0.5 0 21:37 28.12.2019
1805 Clouds 1 1039 80 10000 2.6 100 21:19 28.12.2019
1806 Clouds 1 1039 80 10000 2.6 80 20:42 28.12.2019
1807 Clouds 1 1039 80 10000 2.6 80 20:23 28.12.2019
1808 Clouds -1 1039 80 10000 3.1 60 19:59 28.12.2019
1809 Clouds -1 1039 80 10000 1 0 19:41 28.12.2019
1810 Clouds -1 1039 80 10000 1.5 50 19:23 28.12.2019
1811 Clouds -1 1039 80 10000 1.5 50 18:59 28.12.2019
1812 Clouds 1 1039 86 10000 2.6 60 18:40 28.12.2019
1813 Clouds 1 1038 86 10000 2.1 70 18:20 28.12.2019
1814 Clouds 1 1038 86 10000 2.1 70 17:58 28.12.2019
1815 Clouds 1 1038 86 10000 1.5 110 17:39 28.12.2019
1816 Clouds 0 1037 86 10000 1 150 17:19 28.12.2019
1817 Clouds 0 1037 80 10000 1 0 16:48 28.12.2019
1818 Clouds 0 1037 80 10000 1 0 16:26 28.12.2019
1819 Clouds 0 1037 74 10000 0.5 0 15:57 28.12.2019
1820 Clouds 2 1037 74 10000 1.5 70 15:39 28.12.2019
1821 Rain 0 1036 80 10000 2.1 70 15:20 28.12.2019
1822 Rain 1 1036 80 10000 2.1 70 14:45 28.12.2019
1823 Rain 1 1036 80 10000 2.1 110 14:24 28.12.2019
1824 Rain 1 1036 80 10000 2.1 110 13:58 28.12.2019
1825 Rain 1 1036 80 10000 2.1 110 13:58 28.12.2019
1826 Clouds 1 1036 80 10000 1 0 13:39 28.12.2019
1827 Clouds 1 1037 74 10000 1.5 70 13:19 28.12.2019
1828 Clouds 1 1037 80 10000 2.1 70 12:44 28.12.2019
1829 Clouds 1 1037 80 10000 3.1 60 12:25 28.12.2019
1830 Clouds 0 1037 80 10000 3.1 60 11:59 28.12.2019
1831 Clouds 0 1037 86 10000 1.5 50 11:39 28.12.2019
1832 Clouds 0 1037 86 9000 1.5 70 11:20 28.12.2019
1833 Clouds -1 1037 86 9000 4.6 60 10:46 28.12.2019
1834 Rain 0 1037 86 9000 4.6 60 10:23 28.12.2019
1835 Clouds -1 1037 90 8000 4.1 70 09:58 28.12.2019
1836 Clouds -1 1037 90 9000 4.1 70 09:40 28.12.2019
1837 Clouds -1 1036 86 7000 3.1 70 09:21 28.12.2019
1838 Clouds -1 1036 86 8000 2.6 70 08:45 28.12.2019
1839 Clouds -1 1036 86 8000 2.6 70 08:27 28.12.2019
1840 Clouds -1 1036 86 8000 2.1 80 07:57 28.12.2019
1841 Clouds -1 1035 86 6000 3.1 90 07:39 28.12.2019
1842 Clouds -1 1035 86 8000 2.6 70 06:50 28.12.2019
1843 Clouds -1 1034 98 10000 1 0 05:31 28.12.2019
1844 Clouds -1 1033 100 8000 1 0 03:47 28.12.2019
1845 Clouds 0 1033 100 10000 1 0 02:49 28.12.2019
1846 Rain 0 1033 98 10000 1 0 02:19 28.12.2019
1847 Rain 0 1033 98 5000 1 280 01:50 28.12.2019
1848 Clouds 0 1033 98 6000 1.5 250 01:20 28.12.2019
1849 Clouds 0 1032 98 6000 1.5 260 00:41 28.12.2019
1850 Rain 1 1032 100 5000 1.5 250 00:23 28.12.2019
1851 Rain 1 1032 98 6000 0.5 0 23:45 27.12.2019
1852 Clouds 1 1032 98 6000 1 0 23:20 27.12.2019
1853 Clouds 1 1032 98 6000 1 0 22:58 27.12.2019
1854 Clouds 1 1031 98 6000 0.5 0 22:39 27.12.2019
1855 Snow 1 1031 98 5000 0.5 0 22:21 27.12.2019
1856 Snow 1 1031 98 5000 0.5 0 22:21 27.12.2019
1857 Snow 1 1031 98 5000 0.5 0 21:59 27.12.2019
1858 Clouds 1 1031 98 6000 0.5 0 21:40 27.12.2019
1859 Snow 0 1030 98 5000 0.5 0 21:22 27.12.2019
1860 Clouds 1 1030 98 6000 1 240 20:42 27.12.2019
1861 Snow 1 1029 98 5000 0.5 0 20:23 27.12.2019
1862 Snow 1 1029 98 5000 0.5 0 19:55 27.12.2019
1863 Clouds 1 1029 100 6000 0.5 0 19:36 27.12.2019
1864 Clouds 1 1028 93 7000 1 120 19:18 27.12.2019
1865 Clouds 1 1028 93 7000 1 120 19:18 27.12.2019
1866 Clouds 1 1028 100 7000 1.5 70 18:41 27.12.2019
1867 Clouds 1 1027 100 6000 2.6 70 18:23 27.12.2019
1868 Rain 1 1027 100 6000 2.6 70 17:59 27.12.2019
1869 Rain 1 1027 93 8000 0.5 0 17:41 27.12.2019
1870 Rain 1 1026 93 6000 1 0 17:19 27.12.2019
1871 Rain 1 1026 93 6000 1 0 16:59 27.12.2019
1872 Rain 1 1026 93 6000 0.5 0 16:39 27.12.2019
1873 Rain 1 1026 93 6000 0.5 0 16:20 27.12.2019
1874 Rain 1 1025 93 7000 0.5 0 15:46 27.12.2019
1875 Rain 2 1025 93 8000 0.5 0 15:24 27.12.2019
1876 Rain 1 1025 93 8000 0.5 0 14:59 27.12.2019
1877 Rain 1 1024 93 8000 0.5 0 14:40 27.12.2019
1878 Rain 1 1024 93 8000 0.5 0 14:22 27.12.2019
1879 Rain 1 1024 93 8000 0.5 0 13:58 27.12.2019
1880 Rain 1 1024 93 5000 0.5 0 13:40 27.12.2019
1881 Rain 1 1024 93 5000 0.5 0 13:21 27.12.2019
1882 Rain 1 1023 100 5000 0.5 0 12:44 27.12.2019
1883 Rain 1 1023 100 5000 0.5 0 12:26 27.12.2019
1884 Rain 1 1023 100 5000 0.5 0 12:26 27.12.2019
1885 Rain 1 1023 99 4000 1.35 316 11:56 27.12.2019
1886 Rain 1 1023 99 4000 1.35 316 11:38 27.12.2019
1887 Rain 1 1024 98 4000 0.5 0 11:19 27.12.2019
1888 Rain 1 1023 98 3000 1 0 10:45 27.12.2019
1889 Snow 1 1023 98 3000 1 0 10:23 27.12.2019
1890 Snow 1 1023 98 5000 0.5 0 09:50 27.12.2019
1891 Snow 1 1023 98 5000 1 0 09:22 27.12.2019
1892 Snow 0 1023 98 5000 1 0 08:59 27.12.2019
1893 Snow 0 1023 98 5000 1 280 08:41 27.12.2019
1894 Snow 0 1023 97 4000 1.5 270 08:22 27.12.2019
1895 Snow 0 1022 96 4000 1 260 07:38 27.12.2019
1896 Snow 0 1023 96 4000 1 0 06:59 27.12.2019
1897 Snow 1 1023 96 3000 1 280 06:23 27.12.2019
1898 Clouds 0 1023 95 10000 0.5 0 04:37 27.12.2019
1899 Rain 0 1024 86 10000 0.5 0 02:28 27.12.2019
1900 Clouds 0 1024 86 10000 1 0 01:44 27.12.2019
1901 Clouds 0 1024 86 10000 1 0 01:21 27.12.2019
1902 Clouds 0 1025 86 10000 0.5 0 00:46 27.12.2019
1903 Clouds 0 1025 86 10000 0.5 0 00:25 27.12.2019
1904 Clouds 0 1025 86 10000 1 180 23:56 26.12.2019
1905 Clouds 0 1025 86 10000 1.5 350 23:37 26.12.2019
1906 Clouds 0 1025 86 10000 1 0 23:19 26.12.2019
1907 Clouds 0 1025 86 10000 1 0 22:40 26.12.2019
1908 Clouds 0 1025 86 10000 0.5 0 22:18 26.12.2019
1909 Clouds 0 1025 75 10000 2.1 270 21:40 26.12.2019
1910 Clouds 0 1024 86 10000 0.5 0 21:21 26.12.2019
1911 Clouds 0 1024 86 10000 0.5 0 20:58 26.12.2019
1912 Clouds 0 1024 86 10000 1 0 20:38 26.12.2019
1913 Clouds 0 1024 86 10000 1 0 20:38 26.12.2019
1914 Clouds 0 1024 86 10000 0.5 0 20:20 26.12.2019
1915 Clouds 0 1024 86 10000 0.5 0 19:55 26.12.2019
1916 Clouds 0 1024 86 10000 1 0 19:37 26.12.2019
1917 Clouds 0 1023 86 10000 0.5 0 19:19 26.12.2019
1918 Clouds 0 1023 86 10000 0.5 0 19:19 26.12.2019
1919 Clouds 0 1023 86 10000 0.5 0 18:55 26.12.2019
1920 Clouds 0 1023 86 10000 0.5 0 18:36 26.12.2019
1921 Clouds 0 1023 86 10000 1 240 18:18 26.12.2019
1922 Clouds 1 1023 86 10000 1.5 170 17:41 26.12.2019
1923 Clouds 1 1023 86 10000 1 0 17:21 26.12.2019
1924 Clouds 1 1023 86 10000 1 0 17:21 26.12.2019
1925 Clouds 1 1023 86 10000 1 0 16:49 26.12.2019
1926 Clouds 2 1023 80 10000 2.6 270 16:26 26.12.2019
1927 Clouds 1 1023 80 10000 2.6 270 15:57 26.12.2019
1928 Clouds 2 1023 69 10000 1.5 240 15:38 26.12.2019
1929 Clouds 3 1023 69 10000 2.1 250 15:19 26.12.2019
1930 Clouds 3 1023 69 10000 2.6 240 14:41 26.12.2019
1931 Clouds 3 1023 69 10000 2.6 240 14:23 26.12.2019
1932 Clouds 2 1023 69 10000 3.1 260 13:55 26.12.2019
1933 Clouds 3 1023 69 10000 2.6 240 13:36 26.12.2019
1934 Clouds 3 1024 69 10000 3.1 250 13:18 26.12.2019
1935 Clouds 4 1024 69 10000 2.6 260 12:44 26.12.2019
1936 Clouds 4 1025 69 10000 2.6 240 12:24 26.12.2019
1937 Clouds 3 1025 69 10000 2.6 240 11:59 26.12.2019
1938 Clouds 3 1025 74 10000 2.6 260 11:40 26.12.2019
1939 Clouds 2 1025 80 10000 2.6 260 11:21 26.12.2019
1940 Clouds 2 1026 81 10000 2.6 240 10:50 26.12.2019
1941 Clouds 1 1026 81 10000 2.6 240 10:25 26.12.2019
1942 Clouds 0 1026 81 10000 4.1 260 09:55 26.12.2019
1943 Clouds 0 1026 81 10000 2.1 270 09:33 26.12.2019
1944 Clouds 0 1026 81 10000 1.5 270 08:59 26.12.2019
1945 Clouds 1 1026 100 10000 1 260 08:39 26.12.2019
1946 Clouds 0 1025 86 10000 1.5 270 08:20 26.12.2019
1947 Clouds 1 1025 100 10000 2.1 270 07:38 26.12.2019
1948 Clouds 1 1025 100 6000 1 230 07:19 26.12.2019
1949 Fog 1 1025 100 3000 2.1 250 06:37 26.12.2019
1950 Fog 1 1025 100 800 1.5 270 06:19 26.12.2019
1951 Fog 1 1025 100 900 2.1 270 05:40 26.12.2019
1952 Mist 2 1025 93 2200 1 0 04:33 26.12.2019
1953 Clouds 2 1025 100 6000 0.5 0 03:31 26.12.2019
1954 Clouds 3 1025 93 7000 2.1 270 02:46 26.12.2019
1955 Clouds 3 1025 93 7000 2.1 270 02:25 26.12.2019
1956 Clouds 2 1024 100 10000 1 0 01:44 26.12.2019
1957 Clouds 2 1024 100 10000 1 0 01:24 26.12.2019
1958 Clouds 2 1025 93 6000 1 0 00:44 26.12.2019
1959 Clouds 2 1024 93 9000 1 0 00:23 26.12.2019
1960 Clouds 2 1024 93 9000 1 0 23:57 25.12.2019
1961 Clouds 2 1024 93 10000 0.5 0 23:36 25.12.2019
1962 Clouds 2 1024 93 10000 0.5 0 23:18 25.12.2019
1963 Clouds 2 1024 93 10000 0.5 0 22:55 25.12.2019
1964 Clouds 2 1024 93 9000 0.5 0 22:37 25.12.2019
1965 Clouds 2 1024 100 10000 1 0 22:18 25.12.2019
1966 Clouds 2 1024 93 10000 1 0 21:41 25.12.2019
1967 Clouds 2 1023 93 10000 1 0 21:23 25.12.2019
1968 Clouds 2 1023 93 10000 1 0 20:59 25.12.2019
1969 Rain 3 1023 93 10000 1 0 20:40 25.12.2019
1970 Clouds 3 1023 93 10000 1.5 70 20:20 25.12.2019
1971 Rain 2 1023 93 10000 1.5 130 19:57 25.12.2019
1972 Clouds 3 1023 93 10000 1.5 130 19:39 25.12.2019
1973 Clouds 3 1022 93 10000 2.6 0 19:21 25.12.2019
1974 Clouds 2 1022 93 10000 2.1 0 18:39 25.12.2019
1975 Rain 3 1022 86 10000 4.1 100 18:20 25.12.2019
1976 Rain 3 1021 86 10000 3.1 80 17:57 25.12.2019
1977 Rain 3 1021 86 10000 3.1 80 17:36 25.12.2019
1978 Rain 3 1019 86 10000 7.2 260 17:18 25.12.2019
1979 Rain 3 1018 86 8000 9.3 250 16:39 25.12.2019
1980 Rain 3 1018 81 8000 8.7 280 16:19 25.12.2019
1981 Rain 3 1018 81 8000 8.7 280 15:58 25.12.2019
1982 Rain 4 1017 70 10000 5.7 250 15:39 25.12.2019
1983 Rain 4 1017 75 10000 6.7 260 15:21 25.12.2019
1984 Rain 4 1017 75 10000 6.7 260 14:59 25.12.2019
1985 Rain 5 1016 81 10000 4.1 270 14:40 25.12.2019
1986 Rain 4 1016 81 10000 4.1 270 14:40 25.12.2019
1987 Rain 5 1016 81 10000 3.1 260 14:21 25.12.2019
1988 Rain 5 1016 81 10000 3.1 260 14:21 25.12.2019
1989 Rain 5 1016 81 10000 3.1 260 14:21 25.12.2019
1990 Rain 5 1016 81 10000 3.1 260 14:21 25.12.2019
1991 Rain 5 1016 81 10000 3.1 260 13:57 25.12.2019
1992 Rain 5 1016 87 10000 1.5 50 13:38 25.12.2019
1993 Rain 5 1017 87 10000 1.5 50 13:19 25.12.2019
1994 Clouds 5 1017 87 10000 1 0 12:40 25.12.2019
1995 Clouds 5 1017 87 10000 1 0 12:20 25.12.2019
1996 Clouds 5 1017 87 10000 1 0 11:56 25.12.2019
1997 Rain 4 1018 93 10000 0.5 0 11:38 25.12.2019
1998 Rain 4 1018 93 10000 0.5 0 11:18 25.12.2019
1999 Rain 4 1018 93 9000 0.5 0 10:38 25.12.2019
2000 Rain 4 1018 93 8000 1 0 10:20 25.12.2019
2001 Rain 3 1018 100 9000 0.5 0 09:51 25.12.2019
2002 Rain 4 1018 100 9000 0.5 0 09:32 25.12.2019
2003 Rain 3 1017 93 5000 1 0 08:51 25.12.2019
2004 Rain 3 1017 93 5000 1 0 08:31 25.12.2019
2005 Rain 3 1017 93 6000 1 120 07:50 25.12.2019
2006 Rain 3 1017 93 6000 1 120 07:32 25.12.2019
2007 Rain 3 1017 93 6000 0.5 0 06:51 25.12.2019
2008 Drizzle 3 1017 93 6000 1 0 06:23 25.12.2019
2009 Rain 2 1017 100 5000 1.5 260 05:18 25.12.2019
2010 Rain 2 1017 93 5000 1 0 04:39 25.12.2019
2011 Rain 2 1017 93 5000 1 70 04:20 25.12.2019
2012 Rain 2 1017 100 6000 1.5 160 03:41 25.12.2019
2013 Rain 3 1017 100 7000 0.5 0 02:53 25.12.2019
2014 Clouds 3 1017 100 10000 1.5 0 02:20 25.12.2019
2015 Rain 2 1017 100 7000 1.5 220 01:25 25.12.2019
2016 Clouds 2 1016 100 6000 1 0 00:53 25.12.2019
2017 Clouds 2 1016 100 6000 1 0 00:30 25.12.2019
2018 Clouds 2 1016 93 6000 1 0 23:57 24.12.2019
2019 Rain 2 1016 93 7000 1 0 23:38 24.12.2019
2020 Rain 2 1016 93 6000 1.5 110 23:20 24.12.2019
2021 Rain 2 1016 100 10000 1 0 22:41 24.12.2019
2022 Rain 3 1016 100 10000 2.6 150 22:21 24.12.2019
2023 Rain 2 1016 93 9000 1 0 21:44 24.12.2019
2024 Rain 3 1017 93 10000 2.1 180 21:23 24.12.2019
2025 Rain 2 1017 93 10000 2.1 180 20:57 24.12.2019
2026 Rain 2 1016 93 10000 2.6 110 20:39 24.12.2019
2027 Rain 3 1016 100 1900 1 0 20:19 24.12.2019
2028 Rain 3 1016 100 8000 1.5 280 19:44 24.12.2019
2029 Rain 3 1016 99 10000 1 0 19:20 24.12.2019
2030 Rain 2 1016 99 9000 1 0 18:44 24.12.2019
2031 Rain 2 1017 99 8000 0.5 0 18:25 24.12.2019
2032 Rain 2 1017 99 8000 0.5 0 17:59 24.12.2019
2033 Rain 2 1016 99 10000 1.5 280 17:38 24.12.2019
2034 Rain 2 1016 93 8000 3.6 260 17:20 24.12.2019
2035 Snow 2 1016 93 8000 3.6 260 16:55 24.12.2019
2036 Rain 2 1015 93 9000 5.7 270 16:37 24.12.2019
2037 Rain 2 1014 86 10000 5.1 280 16:19 24.12.2019
2038 Rain 3 1014 86 10000 5.1 280 15:55 24.12.2019
2039 Rain 3 1014 80 10000 4.6 260 15:36 24.12.2019
2040 Rain 3 1014 80 10000 5.1 270 15:18 24.12.2019
2041 Rain 3 1014 80 10000 5.1 270 14:55 24.12.2019
2042 Rain 3 1015 80 10000 6.2 250 14:37 24.12.2019
2043 Clouds 3 1015 80 10000 4.1 300 14:19 24.12.2019
2044 Clouds 3 1015 80 10000 4.1 300 13:55 24.12.2019
2045 Clouds 3 1015 86 10000 5.1 260 13:37 24.12.2019
2046 Clouds 3 1015 86 10000 5.1 260 13:37 24.12.2019
2047 Clouds 3 1016 93 10000 2.6 270 13:19 24.12.2019
2048 Clouds 4 1016 93 10000 2.6 270 12:55 24.12.2019
2049 Clouds 3 1016 93 10000 2.6 290 12:36 24.12.2019
2050 Clouds 3 1017 93 10000 3.6 260 12:18 24.12.2019
2051 Clouds 2 1018 100 7000 2.1 240 11:55 24.12.2019
2052 Clouds 3 1018 100 7000 2.1 240 11:36 24.12.2019
2053 Fog 2 1019 100 6000 2.1 290 11:18 24.12.2019
2054 Fog 2 1019 100 6000 2.1 290 10:55 24.12.2019
2055 Fog 1 1019 100 1200 1.5 280 10:36 24.12.2019
2056 Fog 1 1020 100 600 1.5 230 10:18 24.12.2019
2057 Fog 1 1020 100 300 1 0 09:54 24.12.2019
2058 Fog 1 1020 100 300 1 0 09:36 24.12.2019
2059 Fog 1 1020 100 300 1 0 09:18 24.12.2019
2060 Fog 1 1020 100 300 1 0 08:43 24.12.2019
2061 Fog 2 1020 93 800 1 0 08:20 24.12.2019
2062 Mist 1 1020 100 5000 0.5 0 07:45 24.12.2019
2063 Mist 2 1020 100 5000 0.5 0 07:25 24.12.2019
2064 Clouds 2 1020 100 10000 0.5 0 06:57 24.12.2019
2065 Clouds 3 1020 100 10000 0.5 0 06:38 24.12.2019
2066 Clouds 3 1020 100 10000 0.5 0 06:18 24.12.2019
2067 Clouds 2 1020 100 7000 1.06 273 05:20 24.12.2019
2068 Clouds 2 1020 100 9000 0.5 0 04:36 24.12.2019
2069 Clouds 2 1020 100 10000 0.5 0 03:50 24.12.2019
2070 Clouds 3 1020 100 9000 1 0 02:59 24.12.2019
2071 Clouds 3 1019 93 10000 1 0 02:19 24.12.2019
2072 Rain 3 1019 93 10000 1.5 170 01:42 24.12.2019
2073 Clouds 3 1019 93 10000 1.5 130 01:20 24.12.2019
2074 Rain 3 1018 93 10000 1.5 120 00:43 24.12.2019
2075 Rain 3 1018 86 10000 2.6 90 00:23 24.12.2019
2076 Rain 3 1018 86 10000 2.6 90 23:55 23.12.2019
2077 Rain 3 1018 86 10000 2.1 70 23:37 23.12.2019
2078 Rain 3 1018 86 10000 2.1 70 23:37 23.12.2019
2079 Rain 3 1017 86 10000 1.5 0 23:19 23.12.2019
2080 Rain 3 1017 93 10000 2.1 90 22:54 23.12.2019
2081 Rain 2 1017 93 10000 2.1 90 22:36 23.12.2019
2082 Rain 2 1016 93 10000 2.1 60 22:18 23.12.2019
2083 Rain 2 1016 93 10000 2.1 60 22:18 23.12.2019
2084 Rain 2 1016 93 10000 2.1 60 21:54 23.12.2019
2085 Rain 3 1016 93 10000 2.1 100 21:36 23.12.2019
2086 Rain 3 1016 86 10000 1 0 21:18 23.12.2019
2087 Rain 3 1016 86 10000 1 0 21:18 23.12.2019
2088 Rain 3 1016 86 10000 1 0 20:55 23.12.2019
2089 Rain 2 1015 93 10000 1 0 20:37 23.12.2019
2090 Rain 3 1015 93 8000 0.5 0 20:18 23.12.2019
2091 Rain 3 1015 93 8000 0.5 0 20:18 23.12.2019
2092 Rain 3 1015 93 10000 2.1 60 19:54 23.12.2019
2093 Rain 3 1015 93 10000 2.1 60 19:36 23.12.2019
2094 Rain 3 1014 86 10000 2.1 100 19:18 23.12.2019
2095 Rain 3 1014 86 10000 2.1 100 18:54 23.12.2019
2096 Rain 3 1014 86 10000 2.1 60 18:36 23.12.2019
2097 Rain 4 1014 86 10000 1 0 18:18 23.12.2019
2098 Rain 3 1013 93 10000 2.6 70 17:55 23.12.2019
2099 Rain 3 1013 93 10000 2.6 70 17:37 23.12.2019
2100 Rain 3 1013 93 10000 2.6 70 17:37 23.12.2019
2101 Rain 3 1013 93 10000 2.6 70 17:18 23.12.2019
2102 Rain 3 1012 86 10000 1.5 80 16:42 23.12.2019
2103 Rain 4 1011 93 10000 1 0 16:19 23.12.2019
2104 Rain 4 1011 93 10000 1 0 16:19 23.12.2019
2105 Rain 4 1011 93 10000 1 0 15:58 23.12.2019
2106 Rain 4 1011 93 10000 2.6 50 15:38 23.12.2019
2107 Rain 4 1010 86 10000 2.1 40 15:19 23.12.2019
2108 Rain 4 1010 86 10000 2.1 40 14:57 23.12.2019
2109 Rain 3 1010 93 10000 2.6 60 14:39 23.12.2019
2110 Rain 3 1010 93 10000 3.1 90 14:20 23.12.2019
2111 Rain 3 1010 93 10000 3.1 90 13:57 23.12.2019
2112 Drizzle 4 1009 86 10000 3.1 70 13:39 23.12.2019
2113 Clouds 3 1009 86 10000 3.1 70 13:21 23.12.2019
2114 Clouds 3 1009 86 10000 3.1 70 12:55 23.12.2019
2115 Rain 4 1009 86 10000 2.6 70 12:37 23.12.2019
2116 Rain 3 1009 93 10000 1 0 12:18 23.12.2019
2117 Rain 3 1008 93 8000 2.1 10 11:43 23.12.2019
2118 Rain 3 1008 93 8000 2.1 10 11:25 23.12.2019
2119 Rain 3 1008 86 10000 0.5 0 10:56 23.12.2019
2120 Rain 3 1008 86 10000 1 0 10:38 23.12.2019
2121 Rain 3 1007 93 10000 1.5 130 10:20 23.12.2019
2122 Rain 3 1007 93 10000 1.5 130 09:58 23.12.2019
2123 Drizzle 3 1007 93 10000 2.6 110 09:39 23.12.2019
2124 Drizzle 3 1007 93 10000 3.1 80 09:20 23.12.2019
2125 Drizzle 3 1007 93 10000 3.1 80 08:55 23.12.2019
2126 Drizzle 3 1006 93 10000 2.6 70 08:37 23.12.2019
2127 Drizzle 3 1006 93 9000 2.6 90 08:18 23.12.2019
2128 Rain 3 1005 93 9000 2.6 90 07:43 23.12.2019
2129 Drizzle 3 1004 86 8000 1.5 110 07:19 23.12.2019
2130 Rain 3 1004 86 8000 1 0 06:45 23.12.2019
2131 Rain 3 1003 86 8000 1.5 0 06:23 23.12.2019
2132 Rain 3 1003 86 10000 1 0 05:47 23.12.2019
2133 Rain 3 1002 86 10000 1.5 300 05:19 23.12.2019
2134 Rain 3 1002 86 10000 3.1 0 04:19 23.12.2019
2135 Rain 3 1000 93 10000 0.5 0 02:49 23.12.2019
2136 Rain 3 1000 93 10000 0.5 0 02:23 23.12.2019
2137 Clouds 3 1000 93 10000 1 0 01:53 23.12.2019
2138 Rain 3 1000 100 7000 1.5 270 01:32 23.12.2019
2139 Clouds 3 999 93 7000 0.5 0 00:55 23.12.2019
2140 Clouds 4 999 93 8000 1 0 00:35 23.12.2019
2141 Clouds 3 999 93 7000 0.5 0 23:57 22.12.2019
2142 Clouds 3 999 93 7000 0.5 0 23:57 22.12.2019
2143 Mist 4 998 100 5000 0.5 0 23:39 22.12.2019
2144 Clouds 4 998 93 9000 0.5 0 23:20 22.12.2019
2145 Clouds 3 998 93 9000 0.5 0 22:57 22.12.2019
2146 Clouds 4 997 93 9000 1 80 22:38 22.12.2019
2147 Clouds 4 997 100 10000 1 0 22:19 22.12.2019
2148 Clouds 4 997 100 10000 1 0 21:56 22.12.2019
2149 Clouds 4 997 100 10000 1 0 21:56 22.12.2019
2150 Rain 3 997 93 10000 0.5 0 21:38 22.12.2019
2151 Rain 3 997 93 10000 0.5 0 21:38 22.12.2019
2152 Rain 4 996 93 10000 1 0 21:20 22.12.2019
2153 Rain 4 996 86 10000 1 0 20:55 22.12.2019
2154 Rain 4 996 86 10000 1 0 20:37 22.12.2019
2155 Rain 4 996 86 10000 1 0 20:37 22.12.2019
2156 Clouds 4 996 86 10000 0.5 0 20:18 22.12.2019
2157 Clouds 4 995 93 10000 2.1 80 19:41 22.12.2019
2158 Clouds 4 995 93 10000 3.1 70 19:21 22.12.2019
2159 Clouds 4 995 93 10000 3.1 70 18:58 22.12.2019
2160 Rain 4 995 93 10000 0.5 0 18:38 22.12.2019
2161 Rain 3 994 93 10000 0.5 0 18:19 22.12.2019
2162 Rain 4 994 93 10000 0.5 0 17:55 22.12.2019
2163 Rain 4 994 93 10000 0.5 0 17:37 22.12.2019
2164 Rain 4 993 93 10000 1 0 17:18 22.12.2019
2165 Rain 3 993 93 10000 1 0 16:56 22.12.2019
2166 Rain 4 993 93 10000 1 0 16:37 22.12.2019
2167 Rain 4 993 86 10000 0.5 0 16:19 22.12.2019
2168 Rain 4 992 86 10000 0.5 0 15:54 22.12.2019
2169 Rain 4 992 86 10000 0.5 0 15:36 22.12.2019
2170 Clouds 4 992 81 10000 0.5 0 15:18 22.12.2019
2171 Clouds 4 992 86 10000 1.5 290 14:39 22.12.2019
2172 Clouds 4 991 86 10000 1 0 14:19 22.12.2019
2173 Clouds 4 991 86 10000 1 0 13:56 22.12.2019
2174 Clouds 4 992 86 10000 0.5 0 13:38 22.12.2019
2175 Clouds 3 991 86 10000 1 0 13:20 22.12.2019
2176 Clouds 4 991 86 10000 1 0 12:57 22.12.2019
2177 Clouds 3 992 86 10000 1.5 280 12:39 22.12.2019
2178 Clouds 3 992 86 10000 1 0 12:20 22.12.2019
2179 Clouds 3 992 86 10000 1 0 11:59 22.12.2019
2180 Clouds 2 992 93 10000 1 0 11:39 22.12.2019
2181 Clouds 2 993 93 10000 1 0 11:20 22.12.2019
2182 Clouds 2 993 93 10000 1 0 10:58 22.12.2019
2183 Drizzle 2 993 93 10000 1.5 50 10:40 22.12.2019
2184 Drizzle 2 993 93 10000 1.5 50 10:40 22.12.2019
2185 Rain 2 993 93 10000 1.5 100 10:20 22.12.2019
2186 Rain 2 993 93 10000 1.5 100 09:58 22.12.2019
2187 Rain 2 992 93 10000 0.5 0 09:39 22.12.2019
2188 Rain 1 992 93 10000 2.1 310 09:21 22.12.2019
2189 Rain 1 991 93 10000 3.1 260 08:45 22.12.2019
2190 Rain 1 991 93 10000 3.1 260 08:45 22.12.2019
2191 Rain 1 991 93 10000 2.6 270 08:23 22.12.2019
2192 Rain 1 991 93 10000 3.1 280 07:50 22.12.2019
2193 Drizzle 1 990 93 10000 3.6 270 07:22 22.12.2019
2194 Drizzle 1 990 93 10000 3.6 270 06:57 22.12.2019
2195 Drizzle 1 991 93 8000 1.5 270 06:30 22.12.2019
2196 Clouds 1 990 93 10000 1 0 05:43 22.12.2019
2197 Clouds 1 990 93 10000 1.5 320 05:21 22.12.2019
2198 Clouds 1 990 93 10000 1 0 04:27 22.12.2019
2199 Clouds 1 991 93 10000 1 0 03:28 22.12.2019
2200 Clouds 1 991 100 8000 1.5 110 02:35 22.12.2019
2201 Mist 0 992 100 1500 1 0 01:33 22.12.2019
2202 Fog 0 992 100 650 1 0 00:59 22.12.2019
2203 Mist 0 992 100 1500 1 0 00:41 22.12.2019
2204 Mist 0 993 93 1200 1 0 00:21 22.12.2019
2205 Mist 0 993 100 1400 1.5 220 23:42 21.12.2019
2206 Mist 0 993 100 1400 1.5 220 23:24 21.12.2019
2207 Mist 0 993 100 2000 1 0 22:58 21.12.2019
2208 Mist 0 993 100 1500 2.1 300 22:39 21.12.2019
2209 Fog 1 993 93 5000 1 0 22:19 21.12.2019
2210 Fog 1 993 93 5000 1 0 21:56 21.12.2019
2211 Fog 1 994 93 8000 1.5 260 21:37 21.12.2019
2212 Clouds 1 994 93 6000 1 0 21:19 21.12.2019
2213 Clouds 1 994 93 6000 1 0 20:57 21.12.2019
2214 Clouds 1 994 93 6000 1 0 20:57 21.12.2019
2215 Clouds 1 995 93 10000 1 40 20:37 21.12.2019
2216 Clouds 1 995 93 10000 1 40 20:37 21.12.2019
2217 Clouds 1 995 93 10000 1 220 20:19 21.12.2019
2218 Clouds 1 995 93 10000 1 220 19:56 21.12.2019
2219 Clouds 2 995 93 10000 1 0 19:36 21.12.2019
2220 Clouds 2 995 93 10000 1 0 19:18 21.12.2019
2221 Clouds 2 995 93 10000 1.5 160 18:42 21.12.2019
2222 Clouds 2 995 93 10000 1.5 160 18:42 21.12.2019
2223 Rain 2 995 86 10000 0.5 0 18:23 21.12.2019
2224 Rain 2 995 86 10000 0.5 0 17:57 21.12.2019
2225 Rain 2 995 93 10000 0.5 0 17:39 21.12.2019
2226 Clouds 2 996 93 10000 2.1 70 17:20 21.12.2019
2227 Rain 3 996 93 10000 2.1 70 16:57 21.12.2019
2228 Rain 3 996 93 10000 2.1 70 16:39 21.12.2019
2229 Rain 2 996 93 10000 1 0 16:18 21.12.2019
2230 Rain 2 996 93 10000 1 0 15:56 21.12.2019
2231 Rain 2 996 93 10000 2.1 100 15:37 21.12.2019
2232 Rain 2 996 93 10000 2.6 70 15:18 21.12.2019
2233 Rain 2 996 93 10000 3.6 70 14:43 21.12.2019
2234 Rain 2 996 93 10000 3.6 70 14:24 21.12.2019
2235 Rain 3 996 93 10000 3.1 70 13:59 21.12.2019
2236 Rain 3 996 93 10000 2.6 60 13:40 21.12.2019
2237 Rain 3 995 86 10000 1 0 13:20 21.12.2019
2238 Rain 3 995 86 10000 1 0 13:20 21.12.2019
2239 Rain 3 995 86 10000 1 0 12:57 21.12.2019
2240 Rain 3 995 86 10000 1 0 12:39 21.12.2019
2241 Rain 3 996 93 10000 2.1 310 12:21 21.12.2019
2242 Rain 3 996 93 10000 2.1 310 11:57 21.12.2019
2243 Rain 2 996 93 10000 1.5 280 11:39 21.12.2019
2244 Rain 3 996 87 10000 1.5 290 11:21 21.12.2019
2245 Rain 3 995 93 10000 2.1 290 10:41 21.12.2019
2246 Rain 3 995 87 10000 3.6 260 10:23 21.12.2019
2247 Rain 3 995 87 10000 3.6 260 10:23 21.12.2019
2248 Rain 3 995 87 10000 3.6 260 09:58 21.12.2019
2249 Rain 4 995 87 10000 1.5 290 09:40 21.12.2019
2250 Rain 4 995 75 10000 2.1 140 09:20 21.12.2019
2251 Rain 4 996 75 10000 1 0 08:53 21.12.2019
2252 Clouds 3 996 75 10000 1 0 08:27 21.12.2019
2253 Clouds 3 996 75 10000 1.5 280 07:59 21.12.2019
2254 Clouds 3 996 75 10000 1.5 70 07:41 21.12.2019
2255 Clouds 3 995 75 10000 1.5 120 07:21 21.12.2019
2256 Clouds 3 996 75 10000 3.1 40 06:42 21.12.2019
2257 Clouds 3 996 75 10000 3.1 70 06:24 21.12.2019
2258 Clouds 3 996 70 10000 2.6 80 05:43 21.12.2019
2259 Clouds 5 998 70 10000 4.1 70 04:55 21.12.2019
2260 Clouds 3 998 66 10000 4.1 50 03:56 21.12.2019
2261 Clouds 3 997 70 10000 3.1 260 02:39 21.12.2019
2262 Clouds 6 997 66 10000 3.6 280 01:53 21.12.2019
2263 Clouds 6 997 66 10000 1.5 220 01:26 21.12.2019
2264 Clouds 5 996 50 10000 4.6 60 00:49 21.12.2019
2265 Clouds 5 996 50 10000 4.6 60 00:28 21.12.2019
2266 Clouds 6 994 47 10000 6.7 30 23:41 20.12.2019
2267 Clouds 6 994 47 10000 6.7 30 23:41 20.12.2019
2268 Clouds 8 994 47 10000 8.2 10 23:22 20.12.2019
2269 Clouds 10 994 47 10000 8.2 10 22:59 20.12.2019
2270 Rain 9 995 50 10000 7.2 50 22:40 20.12.2019
2271 Rain 9 994 50 10000 7.7 110 22:20 20.12.2019
2272 Rain 9 994 50 10000 7.7 110 21:56 20.12.2019
2273 Clouds 8 994 47 10000 7.2 100 21:38 20.12.2019
2274 Clouds 6 995 43 10000 4.1 80 21:18 20.12.2019
2275 Clouds 9 994 47 10000 8.2 110 20:39 20.12.2019
2276 Clouds 10 994 47 10000 7.7 120 20:19 20.12.2019
2277 Clouds 11 994 47 10000 7.7 120 19:57 20.12.2019
2278 Clouds 11 994 47 10000 9.3 110 19:39 20.12.2019
2279 Clouds 9 995 47 10000 9.3 120 19:19 20.12.2019
2280 Clouds 8 994 47 10000 9.8 130 18:42 20.12.2019
2281 Clouds 8 994 47 10000 9.8 130 18:42 20.12.2019
2282 Clouds 8 994 47 10000 9.8 130 18:23 20.12.2019
2283 Clouds 8 994 47 10000 10.3 130 17:58 20.12.2019
2284 Clouds 8 996 47 10000 9.8 130 17:40 20.12.2019
2285 Clouds 12 996 47 10000 9.8 130 17:20 20.12.2019
2286 Clouds 12 996 50 10000 10.3 130 16:59 20.12.2019
2287 Clouds 9 997 50 10000 6.2 0 16:38 20.12.2019
2288 Clouds 10 997 50 10000 6.2 0 16:20 20.12.2019
2289 Clouds 10 997 50 10000 6.2 0 16:20 20.12.2019
2290 Clouds 9 998 47 10000 8.7 130 15:56 20.12.2019
2291 Clouds 8 998 47 10000 9.3 130 15:38 20.12.2019
2292 Clouds 9 998 47 10000 9.3 130 15:19 20.12.2019
2293 Clouds 7 998 47 10000 9.3 120 14:43 20.12.2019
2294 Clouds 13 998 47 10000 9.3 120 14:24 20.12.2019
2295 Clouds 13 999 50 10000 8.7 110 13:59 20.12.2019
2296 Clouds 13 999 50 10000 8.7 110 13:59 20.12.2019
2297 Clouds 13 1000 47 10000 4.6 0 13:40 20.12.2019
2298 Clouds 12 1000 47 10000 4.6 0 13:19 20.12.2019
2299 Clouds 14 1000 44 10000 7.2 340 12:57 20.12.2019
2300 Clouds 14 1001 47 10000 6.7 40 12:37 20.12.2019
2301 Clouds 14 1001 47 10000 6.7 40 12:18 20.12.2019
2302 Clouds 14 1001 44 10000 7.7 40 11:57 20.12.2019
2303 Clouds 14 1001 44 10000 7.7 40 11:39 20.12.2019
2304 Clouds 13 1001 50 10000 5.1 0 11:18 20.12.2019
2305 Clouds 13 1001 47 10000 6.2 10 10:56 20.12.2019
2306 Clouds 13 1002 47 10000 3.1 0 10:38 20.12.2019
2307 Clouds 13 1002 47 10000 3.1 0 10:20 20.12.2019
2308 Clouds 13 1002 47 10000 3.1 0 10:20 20.12.2019
2309 Clouds 5 1003 80 10000 4.1 0 09:43 20.12.2019
2310 Clouds 4 1003 80 10000 4.1 0 09:22 20.12.2019
2311 Clouds 6 1003 80 10000 4.6 260 08:58 20.12.2019
2312 Clouds 6 1004 80 10000 6.2 260 08:40 20.12.2019
2313 Clouds 2 1004 84 10000 6.2 260 08:21 20.12.2019
2314 Clouds 2 1004 84 10000 6.2 260 07:57 20.12.2019
2315 Clouds 2 1004 84 10000 4.6 260 07:38 20.12.2019
2316 Clouds 3 1004 84 10000 4.6 260 07:18 20.12.2019
2317 Clouds 3 1004 84 10000 6.2 250 06:48 20.12.2019
2318 Clouds 3 1004 80 10000 4.6 240 06:29 20.12.2019
2319 Clouds 3 1005 84 10000 4.1 270 05:49 20.12.2019
2320 Clouds 3 1006 86 10000 3.1 0 05:20 20.12.2019
2321 Clouds 4 1008 86 10000 3.6 0 03:50 20.12.2019
2322 Clouds 3 1008 86 10000 3.1 260 03:21 20.12.2019
2323 Clouds 4 1009 86 10000 5.7 270 02:30 20.12.2019
2324 Clouds 4 1009 86 10000 1.5 0 01:36 20.12.2019
2325 Clouds 4 1009 80 10000 3.1 290 00:58 20.12.2019
2326 Clouds 4 1010 80 10000 4.1 200 00:39 20.12.2019
2327 Clouds 5 1010 80 10000 6.2 260 23:58 19.12.2019
2328 Clouds 2 1010 80 10000 6.2 260 23:40 19.12.2019
2329 Clouds 6 1011 80 10000 4.1 0 23:21 19.12.2019
2330 Clouds 5 1011 80 10000 2.6 290 22:40 19.12.2019
2331 Clouds 5 1011 80 10000 2.6 290 22:40 19.12.2019
2332 Clouds 5 1012 80 10000 3.1 260 22:22 19.12.2019
2333 Clouds 6 1013 80 10000 7.2 270 21:59 19.12.2019
2334 Clouds 6 1013 80 10000 7.2 270 21:41 19.12.2019
2335 Clouds 3 1013 70 10000 2.6 0 21:20 19.12.2019
2336 Clouds 6 1013 75 10000 4.1 270 20:58 19.12.2019
2337 Clouds 7 1013 65 10000 5.1 250 20:38 19.12.2019
2338 Clouds 7 1013 65 10000 5.1 250 20:20 19.12.2019
2339 Clouds 8 1013 57 10000 3.1 0 19:58 19.12.2019
2340 Clouds 6 1013 61 10000 3.1 260 19:40 19.12.2019
2341 Clouds 6 1013 61 10000 3.1 260 19:40 19.12.2019
2342 Clouds 7 1013 61 10000 3.1 260 19:20 19.12.2019
2343 Clouds 7 1013 61 10000 3.1 260 19:20 19.12.2019
2344 Clouds 7 1013 57 10000 4.1 0 18:59 19.12.2019
2345 Clouds 6 1013 57 10000 4.1 0 18:40 19.12.2019
2346 Clouds 6 1014 50 10000 3.6 0 18:20 19.12.2019
2347 Clouds 7 1014 47 10000 5.7 110 17:56 19.12.2019
2348 Clouds 7 1014 47 10000 2.6 0 17:38 19.12.2019
2349 Clouds 6 1014 47 10000 2.6 0 17:18 19.12.2019
2350 Clouds 7 1014 47 10000 4.6 160 16:56 19.12.2019
2351 Clouds 7 1014 47 10000 4.6 160 16:56 19.12.2019
2352 Clouds 7 1014 47 10000 5.1 150 16:38 19.12.2019
2353 Clouds 7 1014 47 10000 5.1 150 16:38 19.12.2019
2354 Clouds 6 1014 47 10000 5.1 150 16:19 19.12.2019
2355 Clouds 6 1014 47 10000 5.1 150 16:19 19.12.2019
2356 Clouds 7 1014 47 10000 7.2 140 15:58 19.12.2019
2357 Clouds 7 1014 47 10000 7.2 140 15:38 19.12.2019
2358 Clouds 6 1014 47 10000 7.2 140 15:19 19.12.2019
2359 Clouds 7 1014 44 10000 8.7 130 14:57 19.12.2019
2360 Clouds 8 1014 41 10000 7.7 140 14:38 19.12.2019
2361 Clouds 15 1014 41 10000 7.7 140 14:18 19.12.2019
2362 Clouds 15 1015 41 10000 4.1 90 13:39 19.12.2019
2363 Clouds 12 1016 54 10000 1.5 0 13:20 19.12.2019
2364 Clouds 12 1016 54 10000 1.5 0 13:20 19.12.2019
2365 Clouds 10 1017 61 10000 2.1 230 12:58 19.12.2019
2366 Clouds 11 1018 54 10000 3.1 0 12:40 19.12.2019
2367 Clouds 10 1018 54 10000 3.1 0 12:19 19.12.2019
2368 Clouds 10 1018 66 10000 4.6 260 11:59 19.12.2019
2369 Clouds 9 1018 66 10000 4.6 260 11:41 19.12.2019
2370 Clouds 6 1019 70 10000 4.6 270 11:18 19.12.2019
2371 Clouds 6 1019 75 10000 4.6 270 10:59 19.12.2019
2372 Clouds 5 1019 81 10000 5.7 280 10:38 19.12.2019
2373 Clouds 5 1019 81 10000 5.7 280 10:20 19.12.2019
2374 Clouds 4 1020 86 10000 6.2 260 09:56 19.12.2019
2375 Clouds 5 1019 86 10000 4.1 280 09:37 19.12.2019
2376 Clouds 5 1019 86 10000 4.1 280 09:19 19.12.2019
2377 Clouds 4 1019 86 10000 2.6 270 08:55 19.12.2019
2378 Clouds 4 1019 86 10000 2.6 280 08:37 19.12.2019
2379 Clouds 4 1019 86 10000 2.6 280 08:18 19.12.2019
2380 Clouds 4 1019 80 10000 4.6 270 07:43 19.12.2019
2381 Clouds 4 1019 80 10000 4.6 270 07:24 19.12.2019
2382 Clouds 4 1019 86 10000 3.6 260 06:59 19.12.2019
2383 Clouds 4 1019 86 10000 5.1 290 06:41 19.12.2019
2384 Clouds 4 1019 86 10000 5.1 290 06:21 19.12.2019
2385 Clouds 3 1019 86 10000 5.1 270 05:42 19.12.2019
2386 Clouds 3 1019 86 10000 5.1 270 05:19 19.12.2019
2387 Clouds 4 1020 86 10000 2.6 250 03:53 19.12.2019
2388 Clouds 2 1021 86 10000 5.1 270 02:29 19.12.2019
2389 Clouds 2 1021 93 10000 3.6 270 01:26 19.12.2019
2390 Clouds 2 1021 86 10000 3.1 250 00:58 19.12.2019
2391 Clouds 3 1022 86 10000 3.6 260 00:39 19.12.2019
2392 Clouds 3 1022 86 10000 3.6 260 00:19 19.12.2019
2393 Clouds 3 1022 86 10000 4.1 300 23:45 18.12.2019
2394 Clouds 3 1022 86 10000 3.6 270 23:19 18.12.2019
2395 Clouds 3 1022 86 10000 3.6 250 22:58 18.12.2019
2396 Clouds 3 1022 86 10000 4.6 250 22:40 18.12.2019
2397 Clouds 3 1022 86 10000 4.6 250 22:40 18.12.2019
2398 Clouds 3 1022 86 10000 4.6 250 22:21 18.12.2019
2399 Clouds 3 1022 86 10000 4.1 260 21:59 18.12.2019
2400 Clouds 3 1022 86 10000 4.1 260 21:40 18.12.2019
2401 Clouds 3 1022 81 10000 3.1 240 21:20 18.12.2019
2402 Clouds 4 1021 81 10000 6.2 270 20:57 18.12.2019
2403 Clouds 4 1021 81 10000 4.1 270 20:38 18.12.2019
2404 Clouds 4 1021 81 10000 4.1 270 20:20 18.12.2019
2405 Clouds 5 1021 81 10000 3.6 250 19:57 18.12.2019
2406 Clouds 4 1021 81 10000 5.1 260 19:39 18.12.2019
2407 Clouds 4 1021 81 10000 5.1 260 19:19 18.12.2019
2408 Clouds 5 1021 75 10000 4.6 270 18:55 18.12.2019
2409 Clouds 5 1021 75 10000 4.6 260 18:37 18.12.2019
2410 Clouds 5 1021 75 10000 4.6 260 18:18 18.12.2019
2411 Clouds 5 1020 70 10000 4.1 260 17:55 18.12.2019
2412 Clouds 6 1020 62 10000 3.1 250 17:37 18.12.2019
2413 Clouds 9 1020 62 10000 3.1 250 17:18 18.12.2019
2414 Clouds 6 1020 62 10000 2.6 0 16:42 18.12.2019
2415 Clouds 7 1019 50 10000 2.1 0 16:23 18.12.2019
2416 Clouds 7 1019 50 10000 2.1 0 15:57 18.12.2019
2417 Clouds 7 1019 47 10000 3.1 0 15:39 18.12.2019
2418 Clouds 7 1019 47 10000 2.6 0 15:21 18.12.2019
2419 Clouds 6 1019 47 10000 2.6 0 14:56 18.12.2019
2420 Clouds 7 1019 51 10000 2.1 0 14:38 18.12.2019
2421 Clouds 12 1019 51 10000 5.1 350 14:19 18.12.2019
2422 Clouds 12 1019 58 10000 4.1 270 13:55 18.12.2019
2423 Clouds 12 1019 58 10000 4.1 270 13:36 18.12.2019
2424 Clouds 12 1019 62 10000 5.1 270 13:18 18.12.2019
2425 Clouds 12 1019 62 10000 5.1 270 13:18 18.12.2019
2426 Clouds 12 1019 62 10000 5.1 270 13:18 18.12.2019
2427 Clouds 13 1017 59 0 0.89 12 12:40 18.12.2019
2428 Clouds 12 1020 62 10000 4.6 270 12:21 18.12.2019
2429 Clouds 12 1020 62 10000 4.6 270 11:57 18.12.2019
2430 Clouds 11 1020 66 10000 5.1 270 11:39 18.12.2019
2431 Clouds 5 1020 66 10000 6.7 260 11:20 18.12.2019
2432 Clouds 4 1020 66 10000 6.7 260 10:58 18.12.2019
2433 Clouds 7 1020 75 10000 6.2 260 10:39 18.12.2019
2434 Clouds 5 1020 75 10000 1.5 0 10:20 18.12.2019
2435 Clouds 7 1020 75 10000 1.5 0 09:58 18.12.2019
2436 Clouds 4 1020 81 10000 3.6 280 09:20 18.12.2019
2437 Clouds 5 1019 81 10000 4.1 270 08:43 18.12.2019
2438 Clouds 5 1019 81 10000 4.1 270 08:25 18.12.2019
2439 Clouds 5 1019 81 10000 2.1 270 07:57 18.12.2019
2440 Clouds 3 1019 86 10000 2.1 280 07:39 18.12.2019
2441 Clouds 5 1019 81 10000 1.5 260 07:20 18.12.2019
2442 Clouds 3 1018 81 10000 3.1 280 06:52 18.12.2019
2443 Clouds 3 1018 81 10000 1.5 0 06:25 18.12.2019
2444 Clouds 3 1018 81 10000 2.6 280 05:37 18.12.2019
2445 Clouds 6 1017 81 10000 4.6 290 04:33 18.12.2019
2446 Clouds 5 1016 70 10000 5.7 270 02:48 18.12.2019
2447 Clouds 5 1016 70 10000 5.7 270 02:29 18.12.2019
2448 Clouds 5 1016 75 10000 2.6 0 01:46 18.12.2019
2449 Clouds 5 1016 75 10000 2.6 0 01:27 18.12.2019
2450 Clouds 5 1015 75 10000 5.7 280 00:55 18.12.2019
2451 Clouds 5 1015 75 10000 3.1 240 00:37 18.12.2019
2452 Clouds 5 1015 75 10000 3.6 260 00:19 18.12.2019
2453 Clouds 5 1015 75 10000 3.6 250 23:43 17.12.2019
2454 Clouds 5 1014 61 10000 3.1 0 23:24 17.12.2019
2455 Clouds 4 1014 61 10000 3.1 0 22:57 17.12.2019
2456 Clouds 4 1014 66 10000 3.6 0 22:39 17.12.2019
2457 Clouds 5 1014 61 10000 2.6 0 22:20 17.12.2019
2458 Clouds 4 1014 61 10000 2.6 0 21:57 17.12.2019
2459 Clouds 6 1014 54 10000 6.7 110 21:39 17.12.2019
2460 Clouds 6 1013 50 10000 4.6 0 21:20 17.12.2019
2461 Clouds 6 1013 50 10000 4.6 0 20:59 17.12.2019
2462 Clouds 6 1014 50 10000 5.1 0 20:40 17.12.2019
2463 Clouds 8 1013 50 10000 4.6 0 20:19 17.12.2019
2464 Clouds 9 1013 50 10000 4.6 0 19:59 17.12.2019
2465 Clouds 9 1013 50 10000 6.2 110 19:41 17.12.2019
2466 Clouds 9 1013 50 10000 6.7 70 19:20 17.12.2019
2467 Clouds 9 1013 50 10000 6.7 70 18:57 17.12.2019
2468 Clouds 6 1013 50 10000 5.7 70 18:39 17.12.2019
2469 Clouds 6 1013 50 10000 5.7 60 18:20 17.12.2019
2470 Clouds 7 1013 50 10000 6.2 50 17:55 17.12.2019
2471 Clouds 6 1013 50 10000 6.2 50 17:37 17.12.2019
2472 Clouds 6 1013 54 10000 6.2 60 17:18 17.12.2019
2473 Clouds 7 1013 50 10000 6.2 0 16:55 17.12.2019
2474 Clouds 6 1013 50 10000 6.2 0 16:37 17.12.2019
2475 Clouds 6 1012 50 10000 6.2 0 16:18 17.12.2019
2476 Clouds 6 1013 50 10000 7.2 0 15:38 17.12.2019
2477 Clouds 6 1013 50 10000 6.7 0 15:20 17.12.2019
2478 Clouds 7 1013 50 10000 6.7 110 14:57 17.12.2019
2479 Clouds 6 1013 50 10000 6.7 110 14:39 17.12.2019
2480 Clouds 14 1013 50 10000 7.2 0 14:19 17.12.2019
2481 Clouds 14 1013 50 10000 7.2 0 13:59 17.12.2019
2482 Clouds 14 1013 50 10000 8.2 130 13:41 17.12.2019
2483 Clouds 14 1013 50 10000 8.2 130 13:19 17.12.2019
2484 Clouds 14 1013 50 10000 8.2 130 12:59 17.12.2019
2485 Clouds 15 1014 47 10000 4.6 130 12:39 17.12.2019
2486 Clouds 14 1014 50 10000 4.1 0 12:18 17.12.2019
2487 Clouds 14 1014 50 10000 4.1 0 11:57 17.12.2019
2488 Clouds 12 1014 50 10000 5.1 70 11:37 17.12.2019
2489 Clouds 14 1014 50 10000 4.1 0 11:18 17.12.2019
2490 Clouds 14 1014 47 10000 4.6 0 10:57 17.12.2019
2491 Clouds 14 1014 47 10000 4.6 0 10:39 17.12.2019
2492 Clouds 14 1014 47 10000 4.6 0 10:39 17.12.2019
2493 Clouds 5 1014 62 10000 4.1 0 10:19 17.12.2019
2494 Clouds 5 1014 62 10000 4.1 0 09:56 17.12.2019
2495 Clouds 3 1015 75 10000 2.6 0 09:38 17.12.2019
2496 Clouds 3 1015 75 10000 2.6 0 09:38 17.12.2019
2497 Clouds 2 1014 75 10000 3.6 260 09:18 17.12.2019
2498 Clouds 2 1014 75 10000 4.1 270 08:54 17.12.2019
2499 Clouds 2 1014 75 10000 4.1 270 08:36 17.12.2019
2500 Clouds 4 1014 66 10000 3.1 0 08:18 17.12.2019
2501 Clouds 4 1014 61 10000 4.1 120 07:42 17.12.2019
2502 Clouds 3 1013 70 10000 3.1 0 07:22 17.12.2019
2503 Clouds 4 1013 57 10000 3.1 240 06:50 17.12.2019
2504 Clouds 6 1013 47 10000 7.2 60 06:32 17.12.2019
2505 Clouds 6 1012 47 10000 5.1 0 05:42 17.12.2019
2506 Clouds 6 1012 47 10000 5.1 0 05:42 17.12.2019
2507 Clouds 7 1013 47 10000 7.2 0 04:58 17.12.2019
2508 Clouds 5 1013 47 10000 7.7 70 03:55 17.12.2019
2509 Clouds 5 1012 50 10000 7.2 40 02:26 17.12.2019
2510 Clouds 3 1012 86 10000 4.1 0 01:22 17.12.2019
2511 Clouds 3 1013 77 10000 3.1 260 00:47 17.12.2019
2512 Clouds 4 1013 77 10000 2.6 0 00:22 17.12.2019
2513 Clouds 4 1013 77 10000 2.6 0 23:58 16.12.2019
2514 Clouds 4 1013 77 10000 5.1 240 23:40 16.12.2019
2515 Clouds 4 1013 77 10000 2.6 0 23:18 16.12.2019
2516 Clouds 4 1014 77 10000 3.6 280 22:54 16.12.2019
2517 Clouds 3 1014 77 10000 3.6 280 22:36 16.12.2019
2518 Clouds 3 1014 77 10000 3.1 0 22:18 16.12.2019
2519 Clouds 3 1014 77 10000 3.1 0 21:54 16.12.2019
2520 Clouds 3 1014 86 10000 3.1 250 21:36 16.12.2019
2521 Clouds 3 1014 77 10000 4.1 260 21:18 16.12.2019
2522 Clouds 3 1014 77 10000 4.1 260 20:55 16.12.2019
2523 Clouds 3 1014 80 10000 5.1 240 20:37 16.12.2019
2524 Clouds 3 1014 78 10000 5.1 260 20:18 16.12.2019
2525 Clouds 4 1014 78 10000 5.1 260 19:54 16.12.2019
2526 Clouds 4 1015 80 10000 5.1 260 19:36 16.12.2019
2527 Clouds 4 1014 80 10000 4.6 270 19:18 16.12.2019
2528 Clouds 5 1014 78 10000 3.6 260 18:42 16.12.2019
2529 Clouds 5 1014 80 10000 4.6 280 18:20 16.12.2019
2530 Clouds 5 1014 80 10000 4.6 280 18:20 16.12.2019
2531 Clouds 5 1014 80 10000 4.6 280 17:59 16.12.2019
2532 Clouds 5 1014 75 10000 4.1 260 17:41 16.12.2019
2533 Clouds 6 1014 70 10000 4.6 250 17:22 16.12.2019
2534 Clouds 6 1014 70 10000 4.6 250 16:58 16.12.2019
2535 Clouds 5 1014 75 10000 3.6 260 16:39 16.12.2019
2536 Clouds 6 1014 70 10000 4.1 0 16:20 16.12.2019
2537 Clouds 5 1014 70 10000 4.1 0 15:59 16.12.2019
2538 Clouds 5 1014 70 10000 4.6 270 15:39 16.12.2019
2539 Clouds 5 1013 65 10000 4.6 270 15:21 16.12.2019
2540 Clouds 5 1013 65 10000 4.6 270 14:58 16.12.2019
2541 Clouds 4 1014 70 10000 5.1 270 14:38 16.12.2019
2542 Clouds 6 1014 70 10000 4.1 280 14:20 16.12.2019
2543 Clouds 6 1014 70 10000 4.1 280 13:58 16.12.2019
2544 Clouds 6 1014 70 10000 4.1 260 13:38 16.12.2019
2545 Clouds 6 1014 65 10000 4.6 260 13:20 16.12.2019
2546 Clouds 6 1014 65 10000 4.6 260 12:58 16.12.2019
2547 Clouds 7 1015 70 10000 5.1 270 12:40 16.12.2019
2548 Clouds 6 1015 75 10000 5.1 250 12:20 16.12.2019
2549 Clouds 6 1015 75 10000 5.1 250 11:59 16.12.2019
2550 Clouds 6 1015 75 10000 5.7 260 11:41 16.12.2019
2551 Clouds 3 1016 77 10000 4.6 260 11:21 16.12.2019
2552 Clouds 2 1016 78 10000 4.6 260 10:58 16.12.2019
2553 Clouds 2 1016 74 10000 5.1 250 10:40 16.12.2019
2554 Clouds 1 1016 80 10000 5.7 270 10:20 16.12.2019
2555 Clouds 1 1016 86 10000 5.1 260 09:46 16.12.2019
2556 Clouds 0 1016 86 10000 5.1 260 09:28 16.12.2019
2557 Clouds 0 1015 80 10000 4.1 270 08:58 16.12.2019
2558 Clouds 0 1015 78 10000 5.1 270 08:38 16.12.2019
2559 Clouds 0 1015 81 10000 4.6 270 08:18 16.12.2019
2560 Clouds 0 1015 80 10000 6.2 280 07:47 16.12.2019
2561 Clouds 0 1015 80 10000 6.2 280 07:29 16.12.2019
2562 Clouds 0 1015 81 10000 6.2 280 06:46 16.12.2019
2563 Clouds 0 1015 81 10000 5.1 270 06:26 16.12.2019
2564 Clouds -1 1015 81 10000 5.1 290 05:52 16.12.2019
2565 Clouds -1 1015 81 10000 5.1 290 05:33 16.12.2019
2566 Clouds 0 1015 82 10000 3.6 280 04:27 16.12.2019
2567 Clouds -1 1016 86 10000 1.5 0 02:36 16.12.2019
2568 Clouds -1 1016 86 10000 1.5 0 01:45 16.12.2019
2569 Clouds -1 1015 86 10000 2.6 260 00:54 16.12.2019
2570 Clouds -1 1015 86 10000 2.6 260 00:36 16.12.2019
2571 Clouds 0 1015 81 10000 1.5 240 00:18 16.12.2019
2572 Clouds 0 1015 81 10000 1.5 30 23:40 15.12.2019
2573 Clear 0 1015 82 10000 2.1 240 23:21 15.12.2019
2574 Clear 0 1015 80 10000 2.6 230 22:56 15.12.2019
2575 Clear 0 1015 80 10000 2.6 230 22:56 15.12.2019
2576 Clear 0 1015 80 10000 2.6 230 22:37 15.12.2019
2577 Clear 0 1015 80 10000 3.6 260 22:18 15.12.2019
2578 Clear 0 1015 80 10000 3.6 260 21:56 15.12.2019
2579 Clear 0 1015 80 10000 5.1 270 21:38 15.12.2019
2580 Clear 0 1014 80 10000 5.7 270 21:19 15.12.2019
2581 Clear 0 1014 80 10000 5.7 270 20:56 15.12.2019
2582 Clear 0 1014 80 10000 5.7 270 20:56 15.12.2019
2583 Clear 0 1014 80 10000 5.7 270 20:37 15.12.2019
2584 Clouds 0 1014 80 10000 4.6 270 20:19 15.12.2019
2585 Clouds 0 1014 80 10000 4.6 270 19:57 15.12.2019
2586 Clouds 1 1013 74 10000 3.6 240 19:39 15.12.2019
2587 Clouds 1 1013 80 10000 4.6 280 19:18 15.12.2019
2588 Clouds 1 1013 80 10000 4.6 280 18:56 15.12.2019
2589 Clouds 1 1013 74 10000 3.1 250 18:38 15.12.2019
2590 Clouds 1 1012 80 10000 3.1 280 18:18 15.12.2019
2591 Clouds 1 1012 74 10000 4.6 270 17:56 15.12.2019
2592 Clouds 1 1012 74 10000 4.6 270 17:37 15.12.2019
2593 Clouds 1 1011 74 10000 4.1 270 17:18 15.12.2019
2594 Clouds 2 1011 69 10000 5.7 260 16:55 15.12.2019
2595 Clouds 2 1011 69 10000 5.7 260 16:55 15.12.2019
2596 Clouds 2 1011 69 10000 5.7 260 16:37 15.12.2019
2597 Clouds 2 1011 69 10000 4.6 260 16:18 15.12.2019
2598 Clouds 3 1011 69 10000 4.6 260 15:54 15.12.2019
2599 Clouds 3 1010 65 10000 5.1 260 15:36 15.12.2019
2600 Clouds 3 1010 65 10000 3.6 270 15:18 15.12.2019
2601 Clouds 4 1010 65 10000 3.6 270 14:54 15.12.2019
2602 Clouds 4 1010 65 10000 4.6 270 14:36 15.12.2019
2603 Clouds 4 1010 55 10000 4.6 280 14:18 15.12.2019
2604 Clouds 4 1010 55 10000 4.6 280 14:18 15.12.2019
2605 Clouds 4 1010 55 10000 4.6 280 13:54 15.12.2019
2606 Clouds 4 1010 65 10000 4.6 260 13:36 15.12.2019
2607 Clouds 4 1010 65 10000 3.6 260 13:18 15.12.2019
2608 Clouds 3 1010 69 10000 5.1 270 12:55 15.12.2019
2609 Clouds 4 1010 69 10000 5.1 270 12:36 15.12.2019
2610 Clouds 3 1010 74 10000 5.1 280 12:18 15.12.2019
2611 Clouds 2 1010 86 10000 3.6 280 11:38 15.12.2019
2612 Clouds 2 1010 86 10000 3.6 280 11:38 15.12.2019
2613 Clouds 0 1011 47 10000 1.5 240 11:19 15.12.2019
2614 Clouds 0 1011 92 10000 1 0 10:56 15.12.2019
2615 Clouds 0 1011 92 10000 1 0 10:38 15.12.2019
2616 Clouds 0 1011 92 10000 1 0 10:19 15.12.2019
2617 Clouds 0 1011 92 10000 1 0 09:58 15.12.2019
2618 Clouds -1 1011 100 10000 1 0 09:37 15.12.2019
2619 Clouds -2 1011 92 10000 1 0 09:19 15.12.2019
2620 Clouds -1 1010 100 10000 1 0 08:54 15.12.2019
2621 Clear -2 1010 100 10000 1 0 08:36 15.12.2019
2622 Clouds -2 1010 100 10000 1 0 08:18 15.12.2019
2623 Clouds -2 1010 92 10000 1.5 260 07:43 15.12.2019
2624 Clouds -2 1010 92 10000 1 0 07:25 15.12.2019
2625 Clouds -1 1009 92 10000 1.5 220 06:26 15.12.2019
2626 Clouds -2 1009 100 8000 1.5 270 05:42 15.12.2019
2627 Clouds -1 1009 92 10000 0.5 0 05:21 15.12.2019
2628 Clear -1 1010 100 10000 1.5 230 04:21 15.12.2019
2629 Clouds -1 1010 92 10000 2.1 220 02:55 15.12.2019
2630 Clouds -1 1010 92 10000 1 0 02:32 15.12.2019
2631 Clouds -1 1009 92 10000 1 0 01:41 15.12.2019
2632 Clouds -1 1009 100 10000 1 0 01:19 15.12.2019
2633 Clouds -1 1009 92 10000 0.5 0 00:49 15.12.2019
2634 Clouds -1 1009 92 10000 0.5 0 00:31 15.12.2019
2635 Clouds 0 1009 92 10000 1.5 290 23:41 14.12.2019
2636 Clouds 0 1009 92 10000 2.1 250 23:22 14.12.2019
2637 Clouds 0 1009 92 10000 2.1 250 22:59 14.12.2019
2638 Clouds 0 1008 92 10000 1 0 22:41 14.12.2019
2639 Clouds 0 1008 92 10000 3.1 270 22:22 14.12.2019
2640 Clouds 0 1008 92 10000 3.1 270 21:58 14.12.2019
2641 Clouds 1 1008 74 10000 2.6 250 21:39 14.12.2019
2642 Clouds 1 1008 86 10000 1 0 21:19 14.12.2019
2643 Clouds 1 1008 86 10000 1 0 20:59 14.12.2019
2644 Clouds 1 1008 86 10000 1.5 0 20:41 14.12.2019
2645 Clouds 1 1007 86 10000 2.1 140 20:20 14.12.2019
2646 Clouds 1 1007 86 10000 2.1 140 19:57 14.12.2019
2647 Clouds 1 1007 86 10000 1.5 150 19:38 14.12.2019
2648 Clouds 1 1006 91 10000 1 0 19:20 14.12.2019
2649 Clouds 2 1006 91 10000 1 0 18:56 14.12.2019
2650 Clouds 2 1006 91 10000 2.6 80 18:38 14.12.2019
2651 Clouds 2 1005 91 10000 3.1 0 18:19 14.12.2019
2652 Clouds 2 1005 91 10000 1.5 80 17:44 14.12.2019
2653 Clouds 3 1004 91 10000 1.5 0 17:24 14.12.2019
2654 Clouds 3 1004 95 10000 1.5 0 16:59 14.12.2019
2655 Clouds 3 1004 86 10000 1.5 0 16:40 14.12.2019
2656 Clouds 3 1003 86 10000 2.1 0 16:19 14.12.2019
2657 Clouds 3 1002 80 10000 2.1 0 15:43 14.12.2019
2658 Clouds 4 1002 70 10000 0.5 0 15:24 14.12.2019
2659 Clouds 4 1002 70 10000 0.5 0 14:59 14.12.2019
2660 Clouds 4 1002 75 10000 0.5 0 14:39 14.12.2019
2661 Clouds 4 1001 80 10000 1.5 220 14:20 14.12.2019
2662 Clouds 3 1000 80 10000 2.6 270 13:57 14.12.2019
2663 Clouds 3 1000 80 10000 2.6 270 13:39 14.12.2019
2664 Clouds 3 1000 80 10000 3.6 270 13:19 14.12.2019
2665 Clouds 3 1000 80 10000 3.6 270 13:19 14.12.2019
2666 Clouds 4 1000 86 10000 4.1 290 12:55 14.12.2019
2667 Clouds 3 1000 86 10000 4.1 290 12:37 14.12.2019
2668 Rain 3 999 95 10000 4.1 290 12:18 14.12.2019
2669 Rain 3 999 95 10000 4.1 250 11:55 14.12.2019
2670 Rain 2 999 95 10000 4.1 250 11:37 14.12.2019
2671 Clouds 2 999 82 10000 4.1 280 11:18 14.12.2019
2672 Clouds 2 998 82 10000 5.7 270 10:55 14.12.2019
2673 Clouds 2 998 89 10000 5.7 270 10:37 14.12.2019
2674 Clouds 2 998 82 10000 6.7 260 10:18 14.12.2019
2675 Rain 1 997 82 10000 7.7 270 09:41 14.12.2019
2676 Clouds 1 997 89 10000 6.7 280 09:21 14.12.2019
2677 Snow 0 997 89 10000 7.2 260 08:45 14.12.2019
2678 Snow 0 996 86 10000 4.6 290 08:21 14.12.2019
2679 Snow 0 996 86 10000 4.6 290 07:58 14.12.2019
2680 Snow 0 996 50 10000 1.5 0 07:38 14.12.2019
2681 Clouds 0 996 50 10000 2.6 250 07:19 14.12.2019
2682 Snow 0 997 50 10000 3.1 290 06:41 14.12.2019
2683 Snow 0 996 92 8000 4.6 250 06:22 14.12.2019
2684 Clouds -1 996 92 10000 1.5 0 05:25 14.12.2019
2685 Mist -2 995 100 2700 1.5 0 02:51 14.12.2019
2686 Mist -1 995 100 1800 0.5 0 02:23 14.12.2019
2687 Mist -1 996 92 1600 1.64 214 01:43 14.12.2019
2688 Clouds 0 996 92 9000 1 0 00:55 14.12.2019
2689 Clouds 0 996 92 10000 0.5 0 00:37 14.12.2019
2690 Clouds 0 995 92 10000 1 0 00:18 14.12.2019
2691 Clouds 0 995 92 10000 0.5 0 23:41 13.12.2019
2692 Clouds 0 994 75 10000 0.5 0 23:19 13.12.2019
2693 Clouds 1 994 75 10000 0.5 0 22:55 13.12.2019
2694 Clouds 1 994 75 10000 0.5 0 22:37 13.12.2019
2695 Clouds 1 993 75 10000 1 0 22:18 13.12.2019
2696 Clouds 1 993 86 10000 1 0 21:42 13.12.2019
2697 Clouds 0 993 75 10000 2.6 50 21:21 13.12.2019
2698 Clouds 0 993 75 10000 2.6 50 20:58 13.12.2019
2699 Clouds 0 992 86 10000 1 0 20:39 13.12.2019
2700 Clouds 0 991 86 10000 1 0 20:19 13.12.2019
2701 Clouds 0 991 86 10000 1 0 19:56 13.12.2019
2702 Clouds 0 991 86 10000 1.5 220 19:38 13.12.2019
2703 Clouds 0 991 86 10000 1.5 220 19:18 13.12.2019
2704 Snow 0 991 86 10000 2.6 290 18:42 13.12.2019
2705 Clouds 0 990 76 10000 1 0 18:20 13.12.2019
2706 Clouds 0 990 76 10000 1 0 18:20 13.12.2019
2707 Clouds 0 989 80 10000 0.5 0 17:59 13.12.2019
2708 Clouds 0 989 80 10000 2.6 310 17:39 13.12.2019
2709 Clouds 0 989 80 10000 2.6 310 17:18 13.12.2019
2710 Clouds 0 988 80 10000 3.1 240 16:56 13.12.2019
2711 Clouds 1 987 74 10000 6.2 250 16:38 13.12.2019
2712 Clouds 1 987 74 10000 6.2 250 16:19 13.12.2019
2713 Clouds 0 986 80 10000 6.7 270 15:42 13.12.2019
2714 Clouds 0 986 80 10000 6.7 270 15:21 13.12.2019
2715 Clouds 0 986 80 10000 5.1 270 14:57 13.12.2019
2716 Clouds 1 986 74 10000 6.2 260 14:37 13.12.2019
2717 Clouds 1 986 74 10000 6.2 260 14:18 13.12.2019
2718 Clouds 0 985 70 10000 5.7 260 13:43 13.12.2019
2719 Clouds 0 985 81 10000 6.2 260 13:24 13.12.2019
2720 Clouds 0 985 81 10000 5.1 280 12:55 13.12.2019
2721 Clouds 0 985 86 10000 7.2 270 12:37 13.12.2019
2722 Clouds 0 985 86 10000 7.2 270 12:18 13.12.2019
2723 Clouds 0 984 80 10000 7.2 270 11:43 13.12.2019
2724 Clouds -1 985 80 10000 7.2 270 11:24 13.12.2019
2725 Clouds -1 984 80 10000 4.1 270 10:56 13.12.2019
2726 Clouds -2 985 86 10000 5.7 270 10:38 13.12.2019
2727 Clouds -2 985 86 10000 5.7 270 10:19 13.12.2019
2728 Clouds -2 986 86 10000 5.1 270 09:42 13.12.2019
2729 Clouds -2 986 79 10000 4.6 280 09:21 13.12.2019
2730 Clouds -2 987 86 10000 4.6 270 08:45 13.12.2019
2731 Clouds -2 986 86 10000 5.1 270 08:45 13.12.2019
2732 Clouds -2 986 86 10000 5.1 270 08:26 13.12.2019
2733 Clouds -3 987 86 10000 4.1 260 07:50 13.12.2019
2734 Clouds -3 988 79 10000 4.6 260 07:26 13.12.2019
2735 Clouds -3 989 79 10000 4.1 270 06:57 13.12.2019
2736 Clouds -3 990 79 10000 6.7 280 06:31 13.12.2019
2737 Clouds -3 990 86 10000 6.7 270 05:51 13.12.2019
2738 Clouds -3 990 86 10000 5.7 270 05:31 13.12.2019
2739 Clouds -3 991 79 10000 5.1 270 04:53 13.12.2019
2740 Clouds -3 992 86 10000 6.2 270 03:50 13.12.2019
2741 Clouds -3 994 92 10000 2.1 300 02:35 13.12.2019
2742 Clouds -4 995 92 10000 1 0 01:51 13.12.2019
2743 Clouds -3 995 92 10000 1 0 01:25 13.12.2019
2744 Clouds -3 996 92 10000 1.5 220 00:46 13.12.2019
2745 Clouds -3 997 100 8000 2.1 270 00:24 13.12.2019
2746 Clouds -4 998 92 8000 1 0 23:42 12.12.2019
2747 Clouds -3 998 100 9000 0.5 0 23:24 12.12.2019
2748 Clouds -2 999 100 6000 1 180 22:56 12.12.2019
2749 Mist -2 999 94 5000 2.1 270 22:38 12.12.2019
2750 Mist -2 999 94 5000 2.1 270 22:38 12.12.2019
2751 Mist -2 999 94 5000 2.1 270 22:19 12.12.2019
2752 Clouds -2 1000 94 6000 1.5 280 21:55 12.12.2019
2753 Clouds -2 1000 94 6000 1.5 260 21:37 12.12.2019
2754 Clouds -3 1000 94 6000 1.5 260 21:19 12.12.2019
2755 Mist -2 1001 94 5000 1.5 250 20:58 12.12.2019
2756 Clouds -2 1002 94 6000 1 270 20:39 12.12.2019
2757 Clouds -1 1002 96 6000 1 270 20:21 12.12.2019
2758 Clouds -1 1002 96 6000 0.5 0 19:55 12.12.2019
2759 Clouds -1 1002 96 6000 1 0 19:37 12.12.2019
2760 Clouds -1 1002 96 6000 1 0 19:18 12.12.2019
2761 Snow 0 1003 96 4000 0.5 0 18:55 12.12.2019
2762 Snow 0 1003 96 4000 0.5 0 18:37 12.12.2019
2763 Snow 0 1003 96 4000 0.5 0 18:18 12.12.2019
2764 Snow 0 1003 96 3000 1 280 17:55 12.12.2019
2765 Snow 0 1003 96 3000 1 270 17:37 12.12.2019
2766 Snow 0 1003 95 3000 1 270 17:19 12.12.2019
2767 Snow 1 1003 95 3000 0.5 0 16:54 12.12.2019
2768 Snow 0 1004 95 5000 1.17 14 16:36 12.12.2019
2769 Snow 0 1004 95 5000 1.17 14 16:18 12.12.2019
2770 Snow 0 1004 95 3000 0.5 0 15:42 12.12.2019
2771 Snow 0 1004 95 2000 0.5 0 15:20 12.12.2019
2772 Snow 0 1004 95 2000 0.5 0 15:20 12.12.2019
2773 Snow 0 1004 95 3000 1.17 14 14:57 12.12.2019
2774 Snow 0 1004 95 3000 1.17 14 14:57 12.12.2019
2775 Snow 1 1004 86 4000 0.5 0 14:37 12.12.2019
2776 Snow 1 1004 86 4000 0.5 0 14:19 12.12.2019
2777 Snow 0 1005 86 3000 0.5 0 13:55 12.12.2019
2778 Snow 0 1005 86 4000 0.5 0 13:36 12.12.2019
2779 Snow 0 1005 86 4000 0.5 0 13:18 12.12.2019
2780 Snow 1 1006 86 4000 1 0 12:42 12.12.2019
2781 Snow 0 1006 86 4000 0.5 0 12:23 12.12.2019
2782 Snow 0 1007 86 3000 0.5 0 11:59 12.12.2019
2783 Snow 0 1007 86 4500 0.59 60 11:40 12.12.2019
2784 Snow -1 1007 88 4500 0.55 143 11:22 12.12.2019
2785 Snow -1 1007 88 4000 1.5 60 10:59 12.12.2019
2786 Snow -1 1007 88 4000 1.5 60 10:59 12.12.2019
2787 Snow -1 1007 88 4000 1.5 60 10:41 12.12.2019
2788 Snow -1 1007 92 3000 0.55 143 10:22 12.12.2019
2789 Snow -1 1007 92 1500 0.5 0 09:56 12.12.2019
2790 Snow -1 1007 92 1500 0.5 0 09:56 12.12.2019
2791 Snow -1 1007 92 2000 1 100 09:38 12.12.2019
2792 Snow -1 1007 92 2000 1 100 09:20 12.12.2019
2793 Snow -1 1007 92 1500 1 0 08:48 12.12.2019
2794 Snow -2 1007 92 3000 1.5 250 08:29 12.12.2019
2795 Clouds -2 1007 86 10000 1.5 270 07:59 12.12.2019
2796 Clouds -2 1007 86 10000 1.5 270 07:39 12.12.2019
2797 Clouds -2 1006 86 10000 1.5 300 07:20 12.12.2019
2798 Clouds -2 1006 86 10000 0.5 0 06:42 12.12.2019
2799 -273 0 0 0 0 0 06:23 12.12.2019
2800 Clouds -2 1006 92 10000 1 260 05:34 12.12.2019
2801 Clouds -2 1007 92 10000 0.5 0 04:48 12.12.2019
2802 Clouds -3 1007 92 10000 0.5 0 02:44 12.12.2019
2803 Clouds -2 1007 92 10000 0.5 0 02:25 12.12.2019
2804 Clouds -1 1008 86 10000 0.5 0 01:59 12.12.2019
2805 Clouds -1 1008 86 10000 1.5 120 01:36 12.12.2019
2806 Clouds -2 1008 86 10000 1.5 80 00:50 12.12.2019
2807 Clouds -2 1009 92 10000 0.5 0 00:22 12.12.2019
2808 Clouds -2 1009 86 10000 0.5 0 23:58 11.12.2019
2809 Clouds -2 1009 86 10000 0.5 0 23:38 11.12.2019
2810 Clouds -1 1009 86 10000 0.5 0 23:18 11.12.2019
2811 Clouds -1 1009 86 10000 0.5 0 22:56 11.12.2019
2812 Clouds -1 1009 80 10000 0.5 0 22:38 11.12.2019
2813 Clouds -1 1009 80 10000 0.5 0 22:19 11.12.2019
2814 Clouds -1 1009 80 10000 0.5 0 21:54 11.12.2019
2815 Clouds -2 1009 86 10000 1 0 21:36 11.12.2019
2816 Clouds -2 1009 86 10000 1 0 21:18 11.12.2019
2817 Clouds -1 1009 86 10000 0.5 0 20:55 11.12.2019
2818 Clouds -1 1009 80 10000 0.5 0 20:36 11.12.2019
2819 Clouds -1 1009 80 10000 0.5 0 20:18 11.12.2019
2820 Clouds -1 1009 80 10000 1 0 19:42 11.12.2019
2821 Clouds -1 1009 80 10000 0.5 0 19:23 11.12.2019
2822 Clouds -1 1009 80 10000 0.5 0 19:23 11.12.2019
2823 Clouds -1 1009 80 10000 0.5 0 18:59 11.12.2019
2824 Clouds -1 1009 86 10000 0.5 0 18:40 11.12.2019
2825 Clouds -1 1009 86 10000 0.5 0 18:20 11.12.2019
2826 Clouds -1 1009 27 10000 1 180 17:56 11.12.2019
2827 Clouds 0 1009 27 10000 0.5 0 17:38 11.12.2019
2828 Clouds 0 1009 38 10000 0.5 0 17:18 11.12.2019
2829 Clouds 0 1010 38 10000 1 280 16:55 11.12.2019
2830 Clouds 0 1010 38 10000 1 0 16:37 11.12.2019
2831 Clouds 0 1010 38 10000 1 0 16:18 11.12.2019
2832 Clouds 0 1010 64 10000 0.5 0 15:56 11.12.2019
2833 Clouds 1 1011 59 10000 1.5 160 15:37 11.12.2019
2834 Clouds 1 1011 59 10000 1.5 160 15:19 11.12.2019
2835 Clouds 2 1011 55 10000 1 0 14:54 11.12.2019
2836 Clouds 2 1012 55 10000 1.5 170 14:36 11.12.2019
2837 Clouds 2 1012 55 10000 1.5 170 14:18 11.12.2019
2838 Clouds 2 1012 55 10000 0.5 0 13:42 11.12.2019
2839 Clouds 2 1012 55 10000 0.5 0 13:42 11.12.2019
2840 Clouds 2 1013 59 10000 1.5 150 13:22 11.12.2019
2841 Clouds 2 1014 59 10000 1 0 12:58 11.12.2019
2842 Clouds 2 1015 64 10000 1.5 240 12:39 11.12.2019
2843 Clouds 2 1015 64 10000 1.5 240 12:21 11.12.2019
2844 Clouds 2 1015 64 10000 1 0 11:58 11.12.2019
2845 Clouds 3 1016 68 10000 0.5 0 11:39 11.12.2019
2846 Clouds 0 1016 68 10000 0.5 0 11:19 11.12.2019
2847 Clouds 0 1016 68 10000 0.5 0 11:19 11.12.2019
2848 Clouds -1 1017 74 10000 1 0 10:59 11.12.2019
2849 Clouds -1 1018 79 10000 0.5 0 10:39 11.12.2019
2850 Clouds -2 1018 79 10000 0.5 0 10:20 11.12.2019
2851 Clouds -1 1018 92 10000 0.5 0 09:55 11.12.2019
2852 Clouds -2 1019 85 10000 0.5 0 09:37 11.12.2019
2853 Clouds -4 1019 85 10000 0.5 0 09:19 11.12.2019
2854 Clouds -4 1019 92 10000 0.5 0 08:55 11.12.2019
2855 Clouds -4 1019 92 10000 1 290 08:36 11.12.2019
2856 Clear -6 1019 92 10000 1 290 08:18 11.12.2019
2857 Clear -6 1019 92 10000 0.5 0 07:42 11.12.2019
2858 Clear -5 1020 92 10000 1.5 280 07:22 11.12.2019
2859 Clear -5 1020 92 10000 0.5 0 06:45 11.12.2019
2860 Clear -5 1020 85 10000 0.5 0 06:24 11.12.2019
2861 Clear -5 1021 92 10000 0.5 0 05:52 11.12.2019
2862 Clear -6 1021 92 10000 0.5 0 05:27 11.12.2019
2863 Clear -5 1022 92 10000 0.5 0 04:48 11.12.2019
2864 Clear -5 1023 85 10000 1 0 03:18 11.12.2019
2865 Clear -6 1024 92 10000 0.5 0 01:56 11.12.2019
2866 Clear -5 1024 86 10000 0.5 0 01:21 11.12.2019
2867 Clear -5 1025 85 10000 1 230 00:37 11.12.2019
2868 Clear -4 1025 85 10000 1 230 00:18 11.12.2019
2869 Clear -4 1025 86 10000 1.5 240 23:43 10.12.2019
2870 Clear -5 1025 79 10000 1 200 23:22 10.12.2019
2871 Clouds -5 1026 79 10000 1.5 310 22:42 10.12.2019
2872 Clouds -4 1026 79 10000 1 0 22:24 10.12.2019
2873 Clouds -4 1026 86 10000 2.1 240 21:58 10.12.2019
2874 Clouds -4 1026 86 10000 2.1 240 21:39 10.12.2019
2875 Clouds -4 1026 74 10000 2.6 270 21:21 10.12.2019
2876 Clouds -3 1026 74 10000 2.6 260 20:59 10.12.2019
2877 Clouds -3 1026 74 10000 2.6 260 20:59 10.12.2019
2878 Clouds -4 1026 80 10000 2.6 260 20:38 10.12.2019
2879 Clouds -4 1026 80 10000 2.6 260 20:38 10.12.2019
2880 Clouds -4 1026 80 10000 2.6 260 20:38 10.12.2019
2881 Clouds -4 1026 80 10000 2.6 260 20:38 10.12.2019
2882 Clouds -4 1026 80 10000 2.6 260 20:38 10.12.2019
2883 Clouds -3 1026 80 10000 2.6 260 20:20 10.12.2019
2884 Clouds -3 1026 88 10000 1 0 19:58 10.12.2019
2885 Clouds -3 1026 88 10000 1 0 19:40 10.12.2019
2886 Clouds -3 1027 88 10000 0.5 0 19:22 10.12.2019
2887 Clouds -3 1027 88 10000 1.5 180 18:56 10.12.2019
2888 Clouds -1 1027 80 10000 1.5 60 18:38 10.12.2019
2889 Clouds -1 1027 80 10000 1.5 60 18:19 10.12.2019
2890 Clouds 0 1026 80 10000 2.1 70 17:54 10.12.2019
2891 Clouds 0 1026 80 10000 1.5 150 17:36 10.12.2019
2892 Clouds -1 1026 80 10000 1.5 150 17:18 10.12.2019
2893 Clouds 0 1026 80 10000 1 0 16:41 10.12.2019
2894 Clouds 0 1026 74 10000 2.6 100 16:20 10.12.2019
2895 Clouds 2 1026 74 10000 3.1 60 15:40 10.12.2019
2896 Clouds 1 1026 74 10000 3.1 70 15:19 10.12.2019
2897 Snow 2 1026 69 10000 2.6 80 14:59 10.12.2019
2898 Snow 3 1026 69 10000 2.6 80 14:41 10.12.2019
2899 Rain 1 1026 84 10000 3.6 70 14:23 10.12.2019
2900 Rain 1 1026 74 10000 4.1 80 13:59 10.12.2019
2901 Rain 1 1026 74 10000 3.6 90 13:40 10.12.2019
2902 Rain 1 1026 74 10000 3.6 90 13:20 10.12.2019
2903 Rain 1 1026 83 10000 3.6 60 12:55 10.12.2019
2904 Rain 1 1026 86 10000 2.6 80 12:36 10.12.2019
2905 Clouds 1 1026 86 10000 2.6 80 12:18 10.12.2019
2906 Snow 0 1038 87 0 1.34 29 11:40 10.12.2019
2907 Rain 1 1026 93 10000 1.5 350 11:22 10.12.2019
2908 Rain 1 1025 93 10000 1 0 10:44 10.12.2019
2909 Snow 1 1025 95 10000 1.5 30 10:25 10.12.2019
2910 Snow 1 1024 93 10000 1 0 09:58 10.12.2019
2911 Snow 1 1024 93 10000 1 0 09:40 10.12.2019
2912 Rain 1 1024 93 10000 2.1 120 09:22 10.12.2019
2913 Rain 1 1024 93 10000 2.1 120 09:22 10.12.2019
2914 Clouds 1 1023 100 10000 3.1 120 08:59 10.12.2019
2915 Clouds 1 1023 100 10000 3.1 120 08:40 10.12.2019
2916 Clouds 1 1022 98 10000 2.6 90 08:22 10.12.2019
2917 Rain 1 1022 100 10000 2.1 110 07:54 10.12.2019
2918 Rain 1 1021 98 10000 2.6 70 07:36 10.12.2019
2919 Rain 1 1021 98 10000 2.6 70 07:18 10.12.2019
2920 Rain 1 1021 98 10000 1.5 0 06:42 10.12.2019
2921 Snow 1 1020 98 8000 3.1 70 06:19 10.12.2019
2922 Clouds 1 1019 98 8000 1 0 05:51 10.12.2019
2923 Rain 1 1017 93 10000 3.1 90 04:35 10.12.2019
2924 Rain 2 1016 93 10000 1 0 03:31 10.12.2019
2925 Rain 2 1015 86 10000 1.5 80 02:36 10.12.2019
2926 Rain 2 1014 86 10000 2.6 90 01:42 10.12.2019
2927 Rain 2 1014 86 10000 3.1 100 01:19 10.12.2019
2928 Clouds 2 1013 86 10000 1 0 00:38 10.12.2019
2929 Clouds 2 1013 86 10000 1 0 00:18 10.12.2019
2930 Rain 2 1012 86 10000 0.5 0 23:40 09.12.2019
2931 Rain 3 1012 86 10000 0.5 0 23:22 09.12.2019
2932 Rain 3 1011 86 10000 2.6 260 22:57 09.12.2019
2933 Rain 3 1011 86 10000 2.6 260 22:39 09.12.2019
2934 Rain 3 1011 93 10000 1 0 22:18 09.12.2019
2935 Rain 2 1010 93 10000 2.1 290 21:56 09.12.2019
2936 Rain 2 1009 80 10000 3.6 280 21:38 09.12.2019
2937 Rain 2 1009 80 10000 3.6 280 21:18 09.12.2019
2938 Rain 2 1009 86 10000 1.5 290 20:56 09.12.2019
2939 Clouds 2 1008 86 10000 1.5 210 20:37 09.12.2019
2940 Clouds 2 1008 86 10000 1.5 210 20:19 09.12.2019
2941 Clouds 2 1008 93 10000 1 0 19:55 09.12.2019
2942 Clouds 3 1007 93 10000 1.5 160 19:37 09.12.2019
2943 Clouds 2 1007 93 10000 1.5 160 19:19 09.12.2019
2944 Clouds 2 1007 93 10000 0.5 0 18:55 09.12.2019
2945 Clouds 2 1007 80 10000 1.5 0 18:36 09.12.2019
2946 Clouds 2 1007 80 10000 1.5 0 18:18 09.12.2019
2947 Clouds 3 1007 80 10000 2.1 350 17:56 09.12.2019
2948 Clouds 4 1006 75 10000 2.1 220 17:37 09.12.2019
2949 Clouds 3 1006 75 10000 2.1 220 17:19 09.12.2019
2950 Clouds 4 1006 75 10000 1.5 300 16:55 09.12.2019
2951 Clouds 4 1005 70 10000 0.5 0 16:36 09.12.2019
2952 Clouds 4 1005 70 10000 0.5 0 16:18 09.12.2019
2953 Clouds 5 1005 70 10000 1 0 15:55 09.12.2019
2954 Clouds 5 1005 70 10000 0.5 0 15:36 09.12.2019
2955 Clouds 5 1005 70 10000 0.5 0 15:36 09.12.2019
2956 Clouds 3 1005 70 10000 0.5 0 15:18 09.12.2019
2957 Clouds 4 1005 65 10000 1.5 190 14:42 09.12.2019
2958 Clouds 4 1005 65 10000 1.5 190 14:42 09.12.2019
2959 Clouds 6 1005 61 10000 0.5 0 14:19 09.12.2019
2960 Clouds 3 1006 65 10000 1.5 90 13:57 09.12.2019
2961 Clouds 4 1006 65 10000 1 0 13:38 09.12.2019
2962 Clouds 5 1006 65 10000 1 0 13:19 09.12.2019
2963 Rain 5 1006 81 10000 1.5 260 12:56 09.12.2019
2964 Clouds 4 1006 81 10000 2.6 260 12:38 09.12.2019
2965 Clouds 5 1006 81 10000 2.6 260 12:19 09.12.2019
2966 Clouds 4 1006 81 10000 1 0 11:56 09.12.2019
2967 Clouds 3 1007 81 10000 1.5 260 11:37 09.12.2019
2968 Clouds 4 1007 90 10000 1.5 260 11:18 09.12.2019
2969 Clouds 3 1007 90 10000 3.6 280 10:41 09.12.2019
2970 Clouds 3 1007 90 10000 3.6 280 10:41 09.12.2019
2971 Clouds 3 1007 90 10000 1 0 10:20 09.12.2019
2972 Clouds 2 1008 69 10000 2.6 140 09:59 09.12.2019
2973 Clouds 2 1008 69 10000 3.6 80 09:40 09.12.2019
2974 Clouds 2 1008 69 10000 3.6 80 09:21 09.12.2019
2975 Clouds 2 1008 69 10000 3.1 100 08:44 09.12.2019
2976 Clouds 2 1008 74 10000 1 0 08:26 09.12.2019
2977 Clouds 2 1008 74 10000 1 0 08:26 09.12.2019
2978 Rain 1 1008 80 10000 3.6 270 07:57 09.12.2019
2979 Clouds 1 1007 80 10000 2.6 270 07:38 09.12.2019
2980 Clouds 1 1007 80 10000 2.6 270 07:20 09.12.2019
2981 Clouds 1 1007 69 10000 1.5 150 06:43 09.12.2019
2982 Clouds 1 1007 69 10000 1.5 150 06:24 09.12.2019
2983 Clouds 1 1007 69 10000 2.1 210 05:27 09.12.2019
2984 Clouds 1 1007 74 10000 4.1 280 04:46 09.12.2019
2985 Clouds 1 1008 74 10000 4.1 270 03:20 09.12.2019
2986 Clouds 1 1008 74 10000 4.1 260 02:24 09.12.2019
2987 Clouds 1 1008 69 10000 5.1 260 01:42 09.12.2019
2988 Clouds 1 1008 69 10000 5.1 260 01:42 09.12.2019
2989 Clouds 1 1009 69 10000 4.1 0 00:46 09.12.2019
2990 Clouds 2 1009 74 10000 2.1 260 00:26 09.12.2019
2991 Clouds 1 1009 74 10000 5.1 280 23:41 08.12.2019
2992 Clouds 2 1009 74 10000 5.1 260 23:23 08.12.2019
2993 Clouds 1 1010 74 10000 4.6 270 22:57 08.12.2019
2994 Clouds 1 1010 74 10000 4.6 270 22:57 08.12.2019
2995 Clouds 2 1010 74 10000 2.1 280 22:38 08.12.2019
2996 Clouds 1 1010 74 10000 2.1 280 22:19 08.12.2019
2997 Clouds 1 1010 74 10000 3.1 270 21:58 08.12.2019
2998 Clouds 1 1010 74 10000 3.1 270 21:40 08.12.2019
2999 Clouds 1 1010 74 10000 3.1 270 21:20 08.12.2019
3000 Clouds 1 1010 74 10000 3.1 270 21:20 08.12.2019
3001 Clouds 1 1011 74 10000 3.6 270 20:57 08.12.2019
3002 Clouds 1 1011 74 10000 3.1 280 20:38 08.12.2019
3003 Clouds 1 1011 74 10000 3.1 280 20:20 08.12.2019
3004 Clouds 1 1011 74 10000 3.1 280 20:20 08.12.2019
3005 Clouds 1 1011 69 10000 3.6 270 19:58 08.12.2019
3006 Clouds 1 1011 69 10000 3.6 270 19:40 08.12.2019
3007 Clouds 1 1011 69 10000 4.1 280 19:22 08.12.2019
3008 Clouds 1 1011 69 10000 4.1 270 18:55 08.12.2019
3009 Clouds 1 1011 69 10000 4.1 270 18:55 08.12.2019
3010 Clouds 2 1011 69 10000 2.6 250 18:37 08.12.2019
3011 Clouds 1 1011 69 10000 2.6 250 18:19 08.12.2019
3012 Clouds 2 1011 69 10000 2.1 250 17:56 08.12.2019
3013 Clouds 2 1011 60 10000 1.5 230 17:38 08.12.2019
3014 Clouds 3 1011 60 10000 1.5 230 17:19 08.12.2019
3015 Clouds 3 1011 55 10000 2.6 250 16:56 08.12.2019
3016 Clouds 4 1011 56 10000 3.6 250 16:38 08.12.2019
3017 Clouds 5 1011 56 10000 3.6 250 16:20 08.12.2019
3018 Clouds 4 1011 52 10000 4.1 270 15:54 08.12.2019
3019 Clouds 5 1011 52 10000 4.1 280 15:36 08.12.2019
3020 Clouds 5 1011 52 10000 4.1 280 15:18 08.12.2019
3021 Clouds 6 1012 42 10000 5.1 280 14:41 08.12.2019
3022 Clouds 8 1012 45 10000 5.1 280 14:22 08.12.2019
3023 Clouds 8 1013 45 10000 6.2 260 13:57 08.12.2019
3024 Clouds 7 1013 45 10000 6.2 260 13:39 08.12.2019
3025 Clouds 7 1013 45 10000 6.2 280 13:21 08.12.2019
3026 Clouds 6 1014 52 10000 5.1 270 12:55 08.12.2019
3027 Clouds 6 1015 56 10000 5.7 270 12:37 08.12.2019
3028 Clouds 5 1015 56 10000 5.7 270 12:18 08.12.2019
3029 Clouds 5 1016 64 10000 4.6 270 11:55 08.12.2019
3030 Clouds 5 1016 74 10000 3.6 270 11:37 08.12.2019
3031 Clouds 3 1016 74 10000 3.6 270 11:18 08.12.2019
3032 Clouds 2 1017 42 10000 1 0 10:39 08.12.2019
3033 Clouds 1 1017 42 10000 1 0 10:20 08.12.2019
3034 Clouds 1 1018 86 10000 1.5 240 09:58 08.12.2019
3035 Clouds 0 1018 86 10000 1.5 240 09:39 08.12.2019
3036 Clouds -1 1018 86 10000 1.5 0 09:20 08.12.2019
3037 Clouds -1 1018 92 10000 1.5 300 08:58 08.12.2019
3038 Clouds -1 1018 92 10000 1.5 230 08:39 08.12.2019
3039 Clouds -2 1018 92 10000 1.5 230 08:21 08.12.2019
3040 Clouds -2 1018 92 10000 1.5 260 07:44 08.12.2019
3041 Clouds -2 1018 100 10000 0.5 0 07:20 08.12.2019
3042 Clouds -2 1019 100 10000 0.5 0 06:51 08.12.2019
3043 Clouds -1 1019 92 10000 1 270 06:23 08.12.2019
3044 Clouds -2 1019 92 10000 1.5 270 05:51 08.12.2019
3045 Clouds -1 1019 92 10000 0.5 0 05:18 08.12.2019
3046 Clouds -1 1020 92 10000 1 0 03:51 08.12.2019
3047 Clouds -1 1020 92 10000 0.5 0 03:26 08.12.2019
3048 Clouds -1 1021 92 10000 1 0 02:39 08.12.2019
3049 Clouds 0 1020 92 10000 1.5 280 01:56 08.12.2019
3050 Clouds 0 1021 92 10000 1.5 270 01:27 08.12.2019
3051 Clouds 0 1021 92 10000 1.5 270 01:27 08.12.2019
3052 Clouds 0 1021 92 10000 1 0 00:40 08.12.2019
3053 Clouds 1 1021 92 10000 1 0 00:21 08.12.2019
3054 Clouds 0 1021 92 10000 1 0 23:42 07.12.2019
3055 Clouds 1 1021 92 10000 1 0 23:21 07.12.2019
3056 Clouds 1 1021 92 10000 1 0 22:58 07.12.2019
3057 Clouds 1 1021 92 10000 1 0 22:40 07.12.2019
3058 Clouds 1 1021 92 10000 1 0 22:22 07.12.2019
3059 Clouds 2 1021 92 10000 1 0 21:56 07.12.2019
3060 Clouds 1 1021 93 10000 1.5 250 21:38 07.12.2019
3061 Clouds 2 1021 93 10000 1.5 250 21:20 07.12.2019
3062 Clouds 2 1021 93 10000 0.5 0 20:59 07.12.2019
3063 Clouds 2 1021 86 10000 1.5 0 20:37 07.12.2019
3064 Clouds 2 1021 86 10000 1.5 0 20:19 07.12.2019
3065 Clouds 2 1020 80 10000 1 0 19:56 07.12.2019
3066 Clouds 2 1019 86 10000 1.5 160 19:38 07.12.2019
3067 Clouds 2 1019 86 10000 1.5 160 19:20 07.12.2019
3068 Clouds 2 1020 74 10000 1.5 210 18:44 07.12.2019
3069 Clouds 2 1019 74 10000 0.5 0 18:21 07.12.2019
3070 Clouds 3 1019 74 10000 1 0 17:59 07.12.2019
3071 Clouds 2 1019 74 10000 1 0 17:41 07.12.2019
3072 Clouds 4 1018 64 10000 1 0 17:23 07.12.2019
3073 Clouds 5 1018 64 10000 1.5 0 16:58 07.12.2019
3074 Clouds 5 1018 64 10000 1.5 0 16:39 07.12.2019
3075 Clouds 5 1017 60 10000 1.5 0 16:20 07.12.2019
3076 Clouds 5 1017 56 10000 1.5 140 15:57 07.12.2019
3077 Clouds 6 1017 52 10000 1.5 170 15:38 07.12.2019
3078 Clouds 7 1017 52 10000 1.5 170 15:20 07.12.2019
3079 Clouds 7 1017 49 10000 1 0 14:42 07.12.2019
3080 Clouds 7 1017 52 10000 2.1 150 14:19 07.12.2019
3081 Clouds 6 1017 52 10000 1.5 140 13:58 07.12.2019
3082 Clouds 7 1017 52 10000 1.5 140 13:58 07.12.2019
3083 Clouds 6 1017 52 10000 1.5 140 13:39 07.12.2019
3084 Clouds 6 1017 52 10000 1.5 140 13:19 07.12.2019
3085 Clouds 4 1017 56 10000 2.6 120 12:41 07.12.2019
3086 Clouds 4 1018 60 10000 3.1 110 12:23 07.12.2019
3087 Clouds 3 1018 60 10000 2.1 120 11:59 07.12.2019
3088 Clouds 3 1018 64 10000 3.1 80 11:41 07.12.2019
3089 Clouds 2 1018 64 10000 3.1 80 11:22 07.12.2019
3090 Clouds 1 1018 80 10000 0.5 0 10:39 07.12.2019
3091 Clouds 1 1018 80 10000 0.5 0 10:20 07.12.2019
3092 Clouds 1 1018 80 10000 0.5 0 09:59 07.12.2019
3093 Clouds 0 1018 86 10000 1 0 09:38 07.12.2019
3094 Clouds 0 1018 86 10000 1 0 09:38 07.12.2019
3095 Clouds 0 1018 86 10000 1 0 09:20 07.12.2019
3096 Clouds 0 1018 86 10000 1 0 08:45 07.12.2019
3097 Clouds 0 1017 55 10000 2.1 100 08:21 07.12.2019
3098 Clouds 0 1017 55 10000 1.5 310 07:47 07.12.2019
3099 Clouds 0 1017 55 10000 1 0 07:28 07.12.2019
3100 Clouds 0 1017 86 10000 1 0 06:52 07.12.2019
3101 Clouds 0 1017 55 10000 0.5 0 06:25 07.12.2019
3102 Clouds 0 1017 55 10000 1 0 05:44 07.12.2019
3103 Clouds -1 1017 86 10000 1.5 220 04:19 07.12.2019
3104 Clouds -1 1017 86 10000 1 0 03:47 07.12.2019
3105 Clouds -2 1018 86 10000 1 0 02:22 07.12.2019
3106 Clouds -1 1018 86 10000 0.5 0 01:35 07.12.2019
3107 Clouds -1 1018 86 10000 0.5 0 00:57 07.12.2019
3108 Clouds -1 1018 86 10000 1 0 00:21 07.12.2019
3109 Clouds -1 1018 92 10000 0.5 0 23:56 06.12.2019
3110 Clouds -1 1018 86 10000 1 0 23:38 06.12.2019
3111 Clear -1 1018 86 10000 1 0 23:18 06.12.2019
3112 Clear -1 1018 86 10000 1 280 22:39 06.12.2019
3113 Clear -1 1018 86 10000 1 0 22:20 06.12.2019
3114 Clear -1 1018 86 10000 1 0 21:58 06.12.2019
3115 Clear -1 1018 86 10000 1 0 21:39 06.12.2019
3116 Clear -1 1018 86 10000 0.5 0 21:20 06.12.2019
3117 Clear -1 1018 79 10000 0.5 0 20:45 06.12.2019
3118 Clear -1 1018 80 10000 1.5 280 20:25 06.12.2019
3119 Clear 0 1018 80 10000 1.5 190 19:59 06.12.2019
3120 Clear 0 1018 74 10000 0.5 0 19:40 06.12.2019
3121 Clear 0 1018 74 10000 0.5 0 19:22 06.12.2019
3122 Clear 0 1018 74 10000 0.5 0 19:22 06.12.2019
3123 Clear 0 1018 45 10000 1 250 18:57 06.12.2019
3124 Clear 0 1018 45 10000 1 0 18:39 06.12.2019
3125 Clear 1 1018 45 10000 1 0 18:19 06.12.2019
3126 Clear 1 1018 45 10000 1.5 250 17:56 06.12.2019
3127 Clear 1 1018 45 10000 1.5 250 17:56 06.12.2019
3128 Clear 1 1018 45 10000 1.5 250 17:56 06.12.2019
3129 Clear 2 1018 64 10000 1 0 17:37 06.12.2019
3130 Clear 2 1018 64 10000 1 0 17:19 06.12.2019
3131 Clear 2 1018 64 10000 2.1 220 16:43 06.12.2019
3132 Clear 3 1018 64 10000 1 0 16:25 06.12.2019
3133 Clear 4 1018 56 10000 1.5 170 15:59 06.12.2019
3134 Clear 4 1018 56 10000 1.5 170 15:40 06.12.2019
3135 Clear 4 1018 56 10000 1.5 170 15:40 06.12.2019
3136 Clear 4 1018 45 10000 1 0 15:19 06.12.2019
3137 Clear 4 1018 39 10000 1.5 0 14:56 06.12.2019
3138 Clear 3 1018 42 10000 3.1 250 14:38 06.12.2019
3139 Clear 3 1018 42 10000 3.1 250 14:18 06.12.2019
3140 Clear 3 1019 45 10000 1.5 250 13:43 06.12.2019
3141 Clear 4 1020 48 10000 1 0 13:25 06.12.2019
3142 Clear 5 1020 52 10000 2.1 250 12:43 06.12.2019
3143 Clear 4 1021 60 10000 1.5 230 12:23 06.12.2019
3144 Clear 3 1021 64 10000 1.5 220 11:58 06.12.2019
3145 Clear 2 1021 64 10000 1.5 220 11:39 06.12.2019
3146 Clear 1 1022 74 10000 0.5 0 11:20 06.12.2019
3147 Clear 1 1023 74 10000 0.5 0 10:43 06.12.2019
3148 Clear 0 1023 39 10000 0.5 0 10:21 06.12.2019
3149 Clear 0 1023 92 10000 1 0 09:58 06.12.2019
3150 Clear 0 1023 92 10000 0.5 0 09:37 06.12.2019
3151 Clear 0 1023 92 10000 0.5 0 09:37 06.12.2019
3152 Clear 0 1023 92 10000 0.5 0 09:37 06.12.2019
3153 Clear -1 1023 92 10000 0.5 0 09:19 06.12.2019
3154 Clear -1 1023 92 10000 1 270 08:45 06.12.2019
3155 Clear -2 1023 100 10000 1 0 08:26 06.12.2019
3156 Clear -2 1023 92 10000 0.5 0 07:44 06.12.2019
3157 Clear -2 1022 92 10000 0.5 0 07:25 06.12.2019
3158 Clear -2 1022 92 10000 0.5 0 06:59 06.12.2019
3159 Clear -2 1022 92 10000 1 0 06:28 06.12.2019
3160 Clear -2 1022 92 10000 0.5 0 05:53 06.12.2019
3161 Clear -2 1022 92 10000 1 240 05:33 06.12.2019
3162 Clear -2 1023 92 10000 1.5 280 02:19 06.12.2019
3163 Clear -1 1024 100 0 1.68 186 01:29 06.12.2019
3164 Clear -1 1024 100 0 1.53 186 00:41 06.12.2019
3165 Clear -1 1023 86 10000 1.5 240 00:20 06.12.2019
3166 Clear -1 1024 100 0 1.53 186 23:45 05.12.2019
3167 Clear -1 1023 92 10000 1.5 260 23:19 05.12.2019
3168 Clear -1 1023 86 10000 1 290 22:57 05.12.2019
3169 Clear -1 1023 86 10000 0.5 0 22:37 05.12.2019
3170 Clear -1 1023 86 10000 0.5 0 22:18 05.12.2019
3171 Clear -1 1023 92 10000 0.5 0 21:44 05.12.2019
3172 Clear 0 1023 86 10000 1.5 280 21:25 05.12.2019
3173 Clear 0 1023 86 10000 0.5 0 20:59 05.12.2019
3174 Clear 0 1023 86 10000 0.5 0 20:40 05.12.2019
3175 Clear 0 1023 86 10000 0.5 0 20:20 05.12.2019
3176 Clear 0 1023 86 10000 0.5 0 19:57 05.12.2019
3177 Clear 0 1022 86 10000 1.5 280 19:57 05.12.2019
3178 Clear 0 1022 86 10000 1.5 280 19:39 05.12.2019
3179 Clear 0 1022 48 10000 0.5 0 19:20 05.12.2019
3180 Clear 0 1022 80 10000 1 0 18:57 05.12.2019
3181 Clear -1 1022 80 10000 1 0 18:37 05.12.2019
3182 Clear 0 1022 74 10000 0.5 0 18:19 05.12.2019
3183 Clear 0 1022 74 10000 1 0 17:39 05.12.2019
3184 Clear 2 1021 74 10000 0.5 0 17:19 05.12.2019
3185 Clear 3 1021 74 10000 0.5 0 16:57 05.12.2019
3186 Clear 3 1021 69 10000 0.5 0 16:38 05.12.2019
3187 Clear 3 1021 69 10000 0.5 0 16:38 05.12.2019
3188 Clear 2 1020 64 10000 2.1 160 16:20 05.12.2019
3189 Clear 2 1020 60 10000 1 0 15:56 05.12.2019
3190 Clear 2 1020 60 10000 1 0 15:37 05.12.2019
3191 Clear 4 1020 49 10000 1.5 160 15:19 05.12.2019
3192 Clear 3 1020 49 10000 1.5 160 14:55 05.12.2019
3193 Clear 3 1020 52 10000 1 0 14:36 05.12.2019
3194 Clear 8 1021 49 10000 1 170 14:18 05.12.2019
3195 Clear 7 1021 48 10000 1 0 13:56 05.12.2019
3196 Clear 7 1021 48 10000 1 0 13:37 05.12.2019
3197 Clear 7 1021 49 10000 1 0 13:18 05.12.2019
3198 Clear 6 1022 56 10000 1 0 12:43 05.12.2019
3199 Clear 6 1022 56 10000 1.5 220 12:24 05.12.2019
3200 Clear 6 1022 56 10000 1.5 220 11:56 05.12.2019
3201 Clear 5 1023 64 10000 0.5 0 11:38 05.12.2019
3202 Clear 2 1023 69 10000 1 0 11:20 05.12.2019
3203 Clear 2 1023 69 10000 1 0 10:56 05.12.2019
3204 Clear 2 1023 69 10000 1 0 10:56 05.12.2019
3205 Clear 0 1023 74 10000 1 0 10:38 05.12.2019
3206 Clear 1 1023 80 10000 0.5 0 10:18 05.12.2019
3207 Clear 1 1023 92 10000 1 220 09:45 05.12.2019
3208 Clear 0 1023 92 10000 1 0 09:23 05.12.2019
3209 Clear -1 1023 92 10000 1 0 08:59 05.12.2019
3210 Clear -1 1023 92 10000 0.5 0 08:38 05.12.2019
3211 Clear -2 1023 92 10000 0.5 0 08:20 05.12.2019
3212 Clear -2 1022 92 10000 0.5 0 07:50 05.12.2019
3213 Clear -2 1022 92 10000 0.5 0 07:32 05.12.2019
3214 Clear -2 1022 92 10000 0.5 0 06:58 05.12.2019
3215 Clear -2 1022 92 10000 0.5 0 06:40 05.12.2019
3216 Clear -2 1022 86 10000 0.5 0 06:19 05.12.2019
3217 Clear -2 1022 92 10000 0.5 0 05:47 05.12.2019
3218 Clear -2 1021 92 10000 1 0 05:23 05.12.2019
3219 Clear -1 1021 86 10000 1 0 04:20 05.12.2019
3220 Clear -1 1021 86 10000 1 0 04:20 05.12.2019
3221 Clear -1 1021 92 10000 2.1 90 02:44 05.12.2019
3222 Clear -1 1021 92 10000 2.1 90 02:24 05.12.2019
3223 Clear -2 1021 92 10000 1 0 01:52 05.12.2019
3224 Clear -1 1021 92 10000 1 0 01:27 05.12.2019
3225 Clear -1 1021 92 10000 1 0 00:52 05.12.2019
3226 Clear -1 1021 92 10000 1 0 00:32 05.12.2019
3227 Clear -1 1021 92 10000 1 0 23:58 04.12.2019
3228 Clear -1 1021 92 10000 1 0 23:39 04.12.2019
3229 Clear -2 1021 92 10000 1 250 23:21 04.12.2019
3230 Clear -1 1021 92 10000 1.5 260 22:55 04.12.2019
3231 Clear -1 1021 92 10000 1.5 260 22:36 04.12.2019
3232 Clear -1 1021 86 10000 1 260 22:18 04.12.2019
3233 Clear -3 1021 86 10000 1 260 21:54 04.12.2019
3234 Clear -2 1021 92 10000 1 0 21:36 04.12.2019
3235 Clear -2 1021 92 10000 0.5 0 21:18 04.12.2019
3236 Clear -2 1021 92 10000 1 340 20:56 04.12.2019
3237 Clear -2 1021 92 10000 1 340 20:37 04.12.2019
3238 Clear -1 1021 86 10000 1 0 20:19 04.12.2019
3239 Clear -1 1020 86 10000 1 0 19:40 04.12.2019
3240 Clear -1 1020 86 10000 0.5 0 19:21 04.12.2019
3241 Clear -2 1020 86 10000 0.5 0 18:58 04.12.2019
3242 Clear -2 1020 86 10000 0.5 0 18:58 04.12.2019
3243 Clear -2 1020 86 10000 0.5 0 18:40 04.12.2019
3244 Clear -1 1020 39 10000 0.5 0 18:21 04.12.2019
3245 Clear -1 1020 39 10000 0.5 0 17:56 04.12.2019
3246 Clear -1 1020 39 10000 1 0 17:37 04.12.2019
3247 Clear 1 1019 74 10000 1 0 17:18 04.12.2019
3248 Clear 2 1020 74 10000 0.5 0 16:40 04.12.2019
3249 Clear 2 1019 74 10000 1 0 16:20 04.12.2019
3250 Clear 2 1019 74 10000 1 0 15:57 04.12.2019
3251 Clear 4 1019 64 10000 1 0 15:39 04.12.2019
3252 Clear 5 1019 60 10000 1.5 160 15:20 04.12.2019
3253 Clear 5 1019 60 10000 1.5 160 14:57 04.12.2019
3254 Clear 5 1019 60 10000 2.1 180 14:39 04.12.2019
3255 Clear 5 1020 60 10000 1.5 0 14:20 04.12.2019
3256 Clear 4 1020 60 10000 1 0 13:39 04.12.2019
3257 Clear 4 1021 60 10000 1 0 13:21 04.12.2019
3258 Clear 4 1021 60 10000 1 0 12:59 04.12.2019
3259 Clear 3 1021 64 10000 0.5 0 12:41 04.12.2019
3260 Clear 3 1021 74 10000 1 0 12:23 04.12.2019
3261 Clear 3 1022 42 10000 1.5 260 11:43 04.12.2019
3262 Clear 0 1022 42 10000 1.5 260 11:24 04.12.2019
3263 Clear 0 1023 30 10000 0.5 0 10:57 04.12.2019
3264 Rain -1 1023 30 10000 0.5 0 10:39 04.12.2019
3265 Rain -2 1023 86 10000 1.5 260 10:21 04.12.2019
3266 Clear 0 1023 92 10000 0.5 0 09:42 04.12.2019
3267 Clear -2 1023 92 10000 0.5 0 09:23 04.12.2019
3268 Clear -2 1023 92 10000 0.5 0 08:43 04.12.2019
3269 Clear -4 1023 92 10000 0.5 0 08:25 04.12.2019
3270 Clear -4 1023 100 10000 1 0 07:51 04.12.2019
3271 Clear -4 1023 100 10000 1 0 07:31 04.12.2019
3272 Clear -4 1023 92 10000 0.5 0 06:57 04.12.2019
3273 Clear -4 1023 100 10000 0.5 0 06:31 04.12.2019
3274 Clear -4 1023 92 10000 2.1 270 05:46 04.12.2019
3275 Clear -4 1024 92 10000 1 240 04:34 04.12.2019
3276 Clear -4 1024 92 10000 1.5 270 03:47 04.12.2019
3277 Clouds -4 1026 86 10000 0.5 0 01:34 04.12.2019
3278 Clouds -4 1026 92 10000 0.5 0 00:47 04.12.2019
3279 Clouds -4 1026 92 10000 0.5 0 00:21 04.12.2019
3280 Clouds -4 1027 92 10000 0.5 0 23:43 03.12.2019
3281 Clear -5 1027 92 10000 1 270 23:20 03.12.2019
3282 Clear -5 1027 92 10000 1 270 22:59 03.12.2019
3283 Clear -5 1027 92 10000 1 260 22:38 03.12.2019
3284 Clear -5 1027 92 10000 1 260 22:38 03.12.2019
3285 Clear -5 1027 92 10000 1 260 22:18 03.12.2019
3286 Clear -5 1027 92 10000 1 260 21:56 03.12.2019
3287 Clear -4 1027 86 10000 1 240 21:37 03.12.2019
3288 Clear -4 1027 86 10000 1 270 21:18 03.12.2019
3289 Clear -4 1027 86 10000 1.5 270 20:41 03.12.2019
3290 Clear -4 1027 86 10000 1 260 20:20 03.12.2019
3291 Clear -4 1027 86 10000 1 260 19:57 03.12.2019
3292 Clear -3 1027 86 10000 0.5 0 19:38 03.12.2019
3293 Clear -3 1027 80 10000 0.5 0 19:20 03.12.2019
3294 Clear -3 1027 80 10000 0.5 0 18:59 03.12.2019
3295 Clear -1 1027 86 10000 0.5 0 18:41 03.12.2019
3296 Clear -1 1027 86 10000 1 250 18:21 03.12.2019
3297 Clear -1 1027 86 10000 1 250 17:58 03.12.2019
3298 Clear -1 1027 86 10000 1 250 17:58 03.12.2019
3299 Clear -1 1026 86 10000 0.5 0 17:39 03.12.2019
3300 Clouds -2 1026 62 10000 1 0 17:18 03.12.2019
3301 Clouds -2 1026 62 10000 1 0 17:18 03.12.2019
3302 Clouds -2 1026 62 10000 1 0 17:18 03.12.2019
3303 Clouds -1 1026 62 10000 1 0 16:58 03.12.2019
3304 -273 0 0 0 0 0 16:58 03.12.2019
3305 Clouds -1 1026 62 10000 1.5 260 16:39 03.12.2019
3306 Clouds -1 1026 74 10000 1 0 16:20 03.12.2019
3307 Clouds 1 1026 74 10000 1 0 15:56 03.12.2019
3308 Clouds 3 1026 69 10000 1.5 180 15:38 03.12.2019
3309 Clouds 4 1026 60 10000 1.5 240 15:19 03.12.2019
3310 Clouds 4 1026 55 10000 1.5 220 14:42 03.12.2019
3311 Clouds 2 1026 60 10000 1.5 160 14:20 03.12.2019
3312 Clouds 2 1026 60 10000 1.5 160 13:57 03.12.2019
3313 Clouds 1 1026 55 10000 1.5 210 13:37 03.12.2019
3314 Clouds 1 1027 60 10000 2.6 180 13:19 03.12.2019
3315 Clouds 2 1027 64 10000 1.5 230 12:41 03.12.2019
3316 Rain 2 1028 64 10000 1.5 180 12:19 03.12.2019
3317 Rain 2 1028 64 10000 1.5 180 12:19 03.12.2019
3318 Rain 2 1028 64 10000 1.5 180 12:19 03.12.2019
3319 Rain 2 1028 64 10000 1.5 180 11:59 03.12.2019
3320 Rain 2 1028 64 10000 1.5 170 11:39 03.12.2019
3321 Clouds -1 1029 69 10000 1.5 210 11:21 03.12.2019
3322 Clouds -1 1029 69 10000 1.5 210 10:59 03.12.2019
3323 Clouds -1 1029 74 10000 0.5 0 10:41 03.12.2019
3324 Clouds -3 1029 80 10000 0.5 0 10:20 03.12.2019
3325 Clouds -1 1029 56 10000 0.5 0 09:46 03.12.2019
3326 Clouds -1 1029 56 10000 0.5 0 09:26 03.12.2019
3327 Clouds -1 1028 56 10000 1 350 08:59 03.12.2019
3328 Clouds -1 1028 56 10000 1 40 08:41 03.12.2019
3329 Clouds -4 1028 78 10000 1.5 70 08:22 03.12.2019
3330 Clouds -3 1028 78 10000 1.5 70 07:54 03.12.2019
3331 Clouds -3 1028 78 10000 1.5 60 07:30 03.12.2019
3332 Clouds -3 1028 78 10000 1.5 60 06:59 03.12.2019
3333 Clouds -2 1027 78 10000 0.72 171 06:22 03.12.2019
3334 Clouds -3 1027 78 10000 0.72 171 05:57 03.12.2019
3335 Clouds -2 1027 85 10000 1 0 04:49 03.12.2019
3336 Clouds 0 1027 85 10000 1.5 50 03:38 03.12.2019
3337 Clouds 0 1027 85 10000 2.6 60 03:18 03.12.2019
3338 Clouds 0 1027 85 10000 2.1 60 02:45 03.12.2019
3339 Clouds 0 1027 85 10000 2.1 60 02:25 03.12.2019
3340 Clouds 1 1026 80 10000 1.5 70 01:42 03.12.2019
3341 Clouds 1 1026 74 10000 2.1 70 01:23 03.12.2019
3342 Clouds 1 1027 74 10000 2.1 80 00:44 03.12.2019
3343 Clouds 1 1027 74 10000 2.1 80 00:44 03.12.2019
3344 Clouds 1 1027 74 10000 2.1 80 00:26 03.12.2019
3345 Clouds 1 1027 74 10000 2.1 90 23:57 02.12.2019
3346 Clouds 1 1026 80 10000 2.6 70 23:39 02.12.2019
3347 Clouds 0 1026 80 10000 2.6 70 23:19 02.12.2019
3348 Clouds 0 1026 80 10000 2.1 70 22:40 02.12.2019
3349 Clouds 0 1026 80 10000 2.6 80 22:22 02.12.2019
3350 Clouds 0 1026 80 10000 2.6 80 21:58 02.12.2019
3351 Clouds 0 1026 80 10000 2.6 80 21:37 02.12.2019
3352 Clouds 0 1026 80 10000 2.6 80 21:37 02.12.2019
3353 Clouds 0 1025 80 10000 2.6 80 21:18 02.12.2019
3354 Clouds 0 1025 80 10000 2.6 80 20:56 02.12.2019
3355 Clouds 0 1025 80 10000 2.6 90 20:38 02.12.2019
3356 Clouds 0 1025 80 10000 3.1 80 20:19 02.12.2019
3357 Clouds 0 1025 80 10000 3.1 70 19:43 02.12.2019
3358 Clouds 0 1024 80 10000 3.1 60 19:22 02.12.2019
3359 Clouds 1 1024 80 10000 3.1 60 18:59 02.12.2019
3360 Clouds 1 1024 80 10000 3.1 60 18:59 02.12.2019
3361 Clouds 1 1024 80 10000 2.6 70 18:39 02.12.2019
3362 Clouds 1 1023 91 10000 1 0 18:19 02.12.2019
3363 Clouds 1 1023 91 10000 1 0 17:57 02.12.2019
3364 Clouds 1 1023 91 10000 2.6 60 17:39 02.12.2019
3365 Clouds 0 1023 96 10000 2.6 50 17:19 02.12.2019
3366 Rain 1 1023 96 10000 3.1 60 16:40 02.12.2019
3367 Rain 0 1022 86 10000 2.1 60 16:19 02.12.2019
3368 Rain 0 1022 86 10000 2.1 60 15:58 02.12.2019
3369 Rain 1 1022 86 10000 1.5 70 15:40 02.12.2019
3370 Rain 1 1022 86 10000 1 0 15:22 02.12.2019
3371 Rain 2 1022 86 10000 1 0 14:59 02.12.2019
3372 Rain 2 1021 86 10000 0.5 0 14:38 02.12.2019
3373 Rain 1 1021 86 10000 1 0 14:20 02.12.2019
3374 Rain 1 1021 86 10000 1 0 13:57 02.12.2019
3375 Rain 1 1021 86 10000 1.5 50 13:39 02.12.2019
3376 Rain 1 1021 86 10000 2.1 70 13:19 02.12.2019
3377 Rain 1 1021 86 10000 2.1 70 12:55 02.12.2019
3378 Rain 1 1021 86 10000 2.1 60 12:37 02.12.2019
3379 Rain 1 1021 86 10000 1.5 50 12:18 02.12.2019
3380 Rain 1 1021 86 10000 2.6 50 11:38 02.12.2019
3381 Rain 1 1021 86 10000 2.1 60 11:20 02.12.2019
3382 Rain 1 1021 86 10000 2.1 60 10:58 02.12.2019
3383 Clouds 1 1020 86 10000 1 0 10:40 02.12.2019
3384 Rain 1 1020 86 10000 3.1 70 10:22 02.12.2019
3385 Rain 1 1020 86 10000 3.1 70 10:22 02.12.2019
3386 Rain 1 1020 86 10000 2.6 70 09:57 02.12.2019
3387 Rain 1 1020 86 10000 2.6 70 09:39 02.12.2019
3388 Drizzle 1 1019 86 10000 3.1 70 09:18 02.12.2019
3389 Drizzle 1 1019 86 10000 3.1 70 09:18 02.12.2019
3390 Drizzle 1 1019 86 10000 3.1 70 08:55 02.12.2019
3391 Drizzle 1 1019 93 10000 3.1 70 08:37 02.12.2019
3392 Rain 1 1018 93 10000 3.6 80 08:18 02.12.2019
3393 Rain 1 1018 93 10000 2.6 80 07:39 02.12.2019
3394 Rain 1 1017 93 10000 2.6 80 07:20 02.12.2019
3395 Rain 2 1017 93 10000 0.5 0 06:43 02.12.2019
3396 Rain 2 1016 93 10000 1.5 130 06:20 02.12.2019
3397 Rain 2 1016 93 10000 1.5 190 05:19 02.12.2019
3398 Rain 2 1015 86 10000 4.6 270 04:19 02.12.2019
3399 Rain 2 1015 93 10000 4.1 260 02:51 02.12.2019
3400 Rain 2 1015 93 10000 4.1 260 02:51 02.12.2019
3401 Rain 2 1026 90 0 0.79 291 01:50 02.12.2019
3402 Rain 2 1015 93 10000 4.1 270 01:21 02.12.2019
3403 Rain 2 1015 93 10000 5.7 270 00:41 02.12.2019
3404 Rain 2 1015 93 10000 5.1 270 00:22 02.12.2019
3405 Rain 2 1015 86 10000 4.6 270 23:43 01.12.2019
3406 Rain 2 1015 86 10000 3.1 280 23:22 01.12.2019
3407 Rain 2 1015 86 10000 3.1 280 22:57 01.12.2019
3408 Rain 2 1015 86 10000 3.1 280 22:57 01.12.2019
3409 Rain 2 1016 86 10000 3.6 280 22:38 01.12.2019
3410 Rain 2 1016 86 10000 5.1 260 22:19 01.12.2019
3411 Rain 2 1016 86 10000 5.1 260 21:57 01.12.2019
3412 Rain 2 1016 86 10000 6.2 270 21:39 01.12.2019
3413 Rain 2 1015 80 10000 6.2 280 21:20 01.12.2019
3414 Rain 2 1015 80 10000 6.2 280 20:58 01.12.2019
3415 Clouds 2 1017 94 0 1.09 291 20:39 01.12.2019
3416 Clouds 2 1015 78 10000 4.6 270 20:21 01.12.2019
3417 Clouds 2 1015 78 10000 4.6 270 19:58 01.12.2019
3418 Clouds 2 1015 78 10000 5.1 260 19:39 01.12.2019
3419 Clouds 2 1015 78 10000 4.6 270 19:20 01.12.2019
3420 Clouds 2 1015 78 10000 4.6 270 18:56 01.12.2019
3421 Clouds 2 1015 78 10000 4.1 270 18:38 01.12.2019
3422 Clouds 2 1015 78 10000 5.1 270 18:19 01.12.2019
3423 Clouds 2 1015 78 10000 5.1 270 17:56 01.12.2019
3424 Clouds 2 1015 69 10000 4.1 260 17:38 01.12.2019
3425 Clouds 3 1015 69 10000 4.1 260 17:20 01.12.2019
3426 Clouds 3 1015 69 10000 4.1 260 17:20 01.12.2019
3427 Clouds 3 1015 69 10000 4.1 260 16:55 01.12.2019
3428 Clouds 3 1015 69 10000 4.1 260 16:36 01.12.2019
3429 Clouds 3 1015 69 10000 4.1 260 16:18 01.12.2019
3430 Clouds 3 1015 69 10000 4.6 270 15:44 01.12.2019
3431 Clouds 3 1015 69 10000 4.6 270 15:26 01.12.2019
3432 Clouds 3 1015 69 10000 4.6 270 15:26 01.12.2019
3433 Clouds 3 1015 69 10000 4.6 270 15:26 01.12.2019
3434 Clouds 3 1015 69 10000 4.6 270 15:26 01.12.2019
3435 Clouds 3 1015 69 10000 4.6 270 15:26 01.12.2019
3436 Clouds 3 1015 65 10000 5.1 280 14:39 01.12.2019
3437 Clouds 3 1015 60 10000 5.7 260 14:19 01.12.2019
3438 Clouds 3 1015 65 10000 7.2 260 13:43 01.12.2019
3439 Clouds 3 1015 65 10000 7.2 260 13:25 01.12.2019
3440 Clouds 3 1015 65 10000 7.2 260 13:25 01.12.2019
3441 Clouds 3 1015 65 10000 7.2 260 13:25 01.12.2019
3442 Clouds 3 1015 65 10000 7.2 260 13:25 01.12.2019
3443 Clouds 3 1015 65 10000 6.7 270 12:59 01.12.2019
3444 Clouds 4 1015 65 10000 6.7 260 12:40 01.12.2019
3445 Clouds 4 1015 65 10000 6.7 260 12:40 01.12.2019
3446 Clouds 3 1016 74 10000 6.2 270 11:54 01.12.2019
3447 Clouds 3 1016 69 10000 7.2 270 11:36 01.12.2019
3448 Clouds 1 1016 74 10000 4.6 270 11:18 01.12.2019
3449 Clouds 2 1016 74 10000 4.6 270 11:18 01.12.2019
3450 Clouds 1 1016 74 10000 4.6 270 11:18 01.12.2019
3451 Clouds 1 1017 74 10000 5.7 280 10:42 01.12.2019
3452 Clouds 1 1017 74 10000 7.2 260 10:20 01.12.2019
3453 Clouds 1 1017 74 10000 7.2 260 10:20 01.12.2019
3454 Clouds 0 1016 80 10000 6.2 270 09:42 01.12.2019
3455 Clouds 0 1016 80 10000 5.1 270 09:23 01.12.2019
3456 Clouds 0 1016 80 10000 5.1 270 08:57 01.12.2019
3457 Clouds 0 1016 80 10000 4.6 270 08:37 01.12.2019
3458 Clouds -1 1017 79 10000 3.6 280 08:19 01.12.2019
3459 Clouds -1 1017 79 10000 3.6 280 08:19 01.12.2019
3460 Clouds -1 1017 79 10000 3.6 290 07:48 01.12.2019
3461 Clouds -1 1017 79 10000 3.6 290 07:28 01.12.2019
3462 Clouds -1 1018 79 10000 4.6 280 06:52 01.12.2019
3463 Clouds -1 1018 79 10000 3.6 280 05:58 01.12.2019
3464 Clouds -1 1018 79 10000 5.7 280 05:34 01.12.2019
3465 Clouds -1 1019 92 10000 3.1 270 04:29 01.12.2019
3466 Clouds -1 1020 86 10000 0.5 0 02:46 01.12.2019
3467 Clouds -2 1020 86 10000 0.5 0 02:27 01.12.2019
3468 Clouds -1 1020 92 10000 1 0 01:54 01.12.2019
3469 Clouds -2 1021 86 10000 1.5 230 01:31 01.12.2019
3470 Clouds -1 1021 92 10000 1.5 230 00:50 01.12.2019
3471 Clouds -2 1021 92 10000 1.5 230 00:27 01.12.2019
3472 Clouds -1 1021 86 10000 0.5 0 23:57 30.11.2019
3473 Clouds -1 1021 92 10000 1 270 23:39 30.11.2019
3474 Clouds -2 1021 86 10000 1.5 250 23:20 30.11.2019
3475 Clouds -1 1022 86 10000 1.5 250 22:46 30.11.2019
3476 Clouds -1 1022 86 10000 1.5 250 22:28 30.11.2019
3477 Clouds -1 1022 86 10000 2.1 270 21:54 30.11.2019
3478 Clouds -1 1022 86 10000 2.1 270 21:36 30.11.2019
3479 Clouds -1 1022 74 10000 2.6 250 21:18 30.11.2019
3480 Clouds 0 1022 74 10000 2.6 250 20:54 30.11.2019
3481 Clouds 0 1022 74 10000 3.1 260 20:36 30.11.2019
3482 Clouds 0 1022 80 10000 2.6 260 20:18 30.11.2019
3483 Clouds 0 1022 80 10000 1 0 19:54 30.11.2019
3484 Clouds 0 1022 80 10000 1 0 19:36 30.11.2019
3485 Clouds 0 1022 80 10000 1.5 20 19:18 30.11.2019
3486 Clouds 1 1023 92 0 2.07 160 18:39 30.11.2019
3487 Clouds 1 1022 93 10000 1.5 130 18:21 30.11.2019
3488 Clouds 1 1022 93 10000 1.5 130 17:59 30.11.2019
3489 Clouds 1 1022 93 10000 0.5 0 17:41 30.11.2019
3490 Clouds 2 1022 91 10000 1 0 17:23 30.11.2019
3491 Clouds 2 1022 91 10000 1 0 16:59 30.11.2019
3492 Clouds 2 1022 91 10000 1 0 16:40 30.11.2019
3493 Clouds 3 1022 91 10000 1.5 170 16:22 30.11.2019
3494 Clouds 3 1022 91 10000 1.5 170 15:54 30.11.2019
3495 Clouds 3 1021 91 10000 2.1 180 15:36 30.11.2019
3496 Clouds 3 1021 91 10000 2.1 210 15:18 30.11.2019
3497 Clouds 4 1021 91 10000 2.1 160 14:55 30.11.2019
3498 Clouds 3 1021 91 10000 2.1 160 14:36 30.11.2019
3499 Clouds 4 1022 84 10000 1.5 90 14:18 30.11.2019
3500 Clouds 4 1022 84 10000 2.1 80 13:42 30.11.2019
3501 Clouds 4 1022 83 10000 1 0 13:24 30.11.2019
3502 Clouds 4 1022 83 10000 1 0 12:57 30.11.2019
3503 Clouds 4 1022 60 10000 1.5 190 12:39 30.11.2019
3504 Clouds 4 1022 60 10000 1.5 190 12:39 30.11.2019
3505 Clouds 3 1023 69 10000 1.5 0 12:18 30.11.2019
3506 Clouds 3 1023 69 10000 1 0 11:41 30.11.2019
3507 Clouds 2 1023 91 10000 1.5 110 11:19 30.11.2019
3508 Rain 2 1023 91 10000 1.5 110 10:55 30.11.2019
3509 Rain 1 1023 74 10000 2.6 120 10:37 30.11.2019
3510 Rain 1 1022 91 10000 2.1 110 10:18 30.11.2019
3511 Clouds 1 1022 91 10000 1.5 140 09:45 30.11.2019
3512 Clouds 1 1022 86 10000 1 170 09:23 30.11.2019
3513 Clouds 1 1022 93 10000 1 0 08:44 30.11.2019
3514 Clouds 1 1021 98 10000 0.5 0 08:20 30.11.2019
3515 Clouds 1 1021 98 10000 0.5 0 07:56 30.11.2019
3516 Clouds 1 1021 98 10000 0.5 0 07:37 30.11.2019
3517 Rain 1 1021 93 10000 0.5 0 06:55 30.11.2019
3518 Rain 1 1021 93 10000 0.5 0 06:29 30.11.2019
3519 Rain 1 1020 86 10000 1 270 05:40 30.11.2019
3520 Rain 1 1019 86 10000 1.5 150 03:44 30.11.2019
3521 Drizzle 1 1019 86 10000 1 280 02:39 30.11.2019
3522 Rain 1 1018 86 10000 1 100 02:20 30.11.2019
3523 Rain 1 1018 93 10000 1.5 70 01:25 30.11.2019
3524 Rain 2 1017 86 10000 2.6 80 00:49 30.11.2019
3525 Rain 2 1017 86 10000 2.6 80 00:30 30.11.2019
3526 Rain 2 1016 93 10000 2.6 90 23:58 29.11.2019
3527 Rain 2 1016 86 10000 2.1 80 23:40 29.11.2019
3528 Rain 2 1015 93 10000 3.1 270 23:20 29.11.2019
3529 Rain 3 1015 87 10000 1.5 180 22:42 29.11.2019
3530 Rain 3 1014 87 10000 1.5 30 22:23 29.11.2019
3531 Rain 3 1014 87 10000 1.5 270 21:44 29.11.2019
3532 Clouds 3 1014 81 10000 1 0 21:23 29.11.2019
3533 Clouds 3 1014 81 10000 1 0 20:57 29.11.2019
3534 Clouds 4 1013 87 10000 1 0 20:38 29.11.2019
3535 Rain 5 1013 87 10000 1 0 20:19 29.11.2019
3536 Rain 5 1013 87 10000 0.5 0 19:56 29.11.2019
3537 Rain 4 1013 87 10000 0.5 0 19:38 29.11.2019
3538 Clouds 4 1013 87 10000 1 0 19:19 29.11.2019
3539 Rain 5 1012 81 10000 2.1 270 18:55 29.11.2019
3540 Rain 6 1012 81 10000 2.1 270 18:37 29.11.2019
3541 Rain 6 1012 81 10000 4.1 300 18:19 29.11.2019
3542 Clouds 6 1011 81 10000 1.5 280 17:43 29.11.2019
3543 Clouds 6 1011 75 10000 2.1 320 17:23 29.11.2019
3544 Clouds 6 1011 75 10000 2.1 320 16:56 29.11.2019
3545 Clouds 6 1010 75 10000 2.1 40 16:37 29.11.2019
3546 Clouds 6 1010 70 10000 4.6 250 16:18 29.11.2019
3547 Rain 7 1009 70 10000 5.1 240 15:40 29.11.2019
3548 Rain 6 1009 66 10000 6.2 240 15:21 29.11.2019
3549 Rain 7 1009 66 10000 6.2 240 14:55 29.11.2019
3550 Rain 7 1008 66 10000 5.7 240 14:37 29.11.2019
3551 Rain 7 1008 61 10000 6.2 240 14:18 29.11.2019
3552 Clouds 7 1008 57 10000 4.6 240 13:40 29.11.2019
3553 Clouds 7 1008 70 10000 2.1 280 13:20 29.11.2019
3554 Clouds 8 1008 70 10000 2.1 280 12:56 29.11.2019
3555 Clouds 7 1008 70 10000 4.1 270 12:37 29.11.2019
3556 Clouds 7 1008 75 10000 1.5 310 12:19 29.11.2019
3557 Clouds 7 1008 75 10000 1.5 240 11:41 29.11.2019
3558 Clouds 6 1008 81 10000 1 0 11:19 29.11.2019
3559 Clouds 6 1008 81 10000 1 0 10:59 29.11.2019
3560 Clouds 5 1008 81 10000 1.5 260 10:40 29.11.2019
3561 Clouds 5 1008 87 10000 2.6 280 10:22 29.11.2019
3562 Clouds 5 1008 87 10000 2.6 280 09:59 29.11.2019
3563 Clouds 4 1008 93 10000 2.6 240 09:41 29.11.2019
3564 Clouds 4 1007 100 10000 2.1 260 09:22 29.11.2019
3565 Clouds 4 1007 100 10000 2.1 260 08:59 29.11.2019
3566 Clouds 3 1007 100 10000 2.1 310 08:38 29.11.2019
3567 Clouds 3 1007 100 10000 2.1 260 08:20 29.11.2019
3568 Clouds 3 1007 100 10000 0.5 0 07:55 29.11.2019
3569 Clouds 3 1007 100 10000 0.5 0 07:37 29.11.2019
3570 Clouds 3 1007 100 10000 0.5 0 07:18 29.11.2019
3571 Clouds 4 1007 93 10000 1 0 06:41 29.11.2019
3572 Clouds 4 1007 93 10000 1 0 05:48 29.11.2019
3573 Clouds 4 1007 93 10000 1 0 05:24 29.11.2019
3574 Clouds 3 1007 100 10000 1 0 04:31 29.11.2019
3575 Clouds 4 1007 93 10000 0.5 0 03:21 29.11.2019
3576 Rain 4 1007 93 10000 1 0 02:29 29.11.2019
3577 Rain 3 1006 93 10000 1 0 01:51 29.11.2019
3578 Rain 3 1006 93 10000 1 0 01:26 29.11.2019
3579 Clouds 3 1005 100 7000 2.1 240 00:42 29.11.2019
3580 Clouds 4 1006 93 10000 1.5 290 00:21 29.11.2019
3581 Clouds 3 1006 93 10000 1.5 290 23:55 28.11.2019
3582 Clouds 3 1006 93 10000 1 0 23:36 28.11.2019
3583 Fog 3 1006 93 10000 1.5 0 23:18 28.11.2019
3584 Rain 3 1006 100 10000 2.1 340 22:38 28.11.2019
3585 Rain 4 1005 100 10000 1 0 22:20 28.11.2019
3586 Fog 4 1005 100 10000 1 0 21:59 28.11.2019
3587 Fog 4 1005 100 10000 2.6 250 21:40 28.11.2019
3588 Fog 3 1004 93 10000 1 0 21:20 28.11.2019
3589 Fog 4 1004 93 10000 1 0 20:56 28.11.2019
3590 Fog 4 1004 93 10000 1 0 20:38 28.11.2019
3591 Clouds 4 1004 93 10000 1 0 20:18 28.11.2019
3592 Clouds 4 1004 93 10000 1 0 19:55 28.11.2019
3593 Clouds 4 1004 100 10000 1.5 190 19:36 28.11.2019
3594 Clouds 5 1004 93 10000 1 0 19:18 28.11.2019
3595 Clouds 5 1004 93 10000 1 0 18:55 28.11.2019
3596 Clouds 6 1004 93 10000 1 0 18:37 28.11.2019
3597 Clouds 6 1004 93 10000 1.5 300 18:18 28.11.2019
3598 Rain 7 1004 93 10000 1.5 250 17:42 28.11.2019
3599 Rain 6 1003 87 10000 1 0 17:24 28.11.2019
3600 Clouds 7 1003 87 10000 1 0 17:23 28.11.2019
3601 Rain 6 1003 87 10000 1 0 16:58 28.11.2019
3602 Rain 6 1003 87 10000 2.1 260 16:38 28.11.2019
3603 Rain 7 1002 81 10000 7.7 250 16:19 28.11.2019
3604 Rain 7 1002 81 10000 7.7 250 16:19 28.11.2019
3605 Clouds 8 1002 70 10000 1.5 250 15:43 28.11.2019
3606 Clouds 7 1001 70 10000 0.5 0 15:21 28.11.2019
3607 Clouds 8 1001 70 10000 0.5 0 14:59 28.11.2019
3608 Clouds 8 1001 70 10000 1 260 14:41 28.11.2019
3609 Clouds 8 1001 70 10000 1 260 14:41 28.11.2019
3610 Clouds 8 1001 70 10000 1.5 270 14:22 28.11.2019
3611 Clouds 8 1001 70 10000 1.5 270 13:59 28.11.2019
3612 Clouds 8 1001 70 10000 1 0 13:41 28.11.2019
3613 Clouds 8 1001 70 10000 1.5 250 13:21 28.11.2019
3614 Clouds 8 1002 75 10000 0.5 0 12:49 28.11.2019
3615 Clouds 8 1002 75 10000 0.5 0 12:29 28.11.2019
3616 Clouds 8 1002 75 10000 1 0 11:59 28.11.2019
3617 Clouds 7 1002 75 10000 1 0 11:40 28.11.2019
3618 Clouds 6 1003 81 10000 0.5 0 11:21 28.11.2019
3619 Clouds 6 1003 81 10000 0.5 0 10:59 28.11.2019
3620 Clouds 5 1003 93 10000 1.5 350 10:40 28.11.2019
3621 Clouds 5 1003 93 10000 1 0 10:20 28.11.2019
3622 Clouds 4 1002 93 10000 2.6 260 09:41 28.11.2019
3623 -273 0 0 0 0 0 09:23 28.11.2019
3624 Clouds 4 1002 93 10000 2.1 250 08:58 28.11.2019
3625 Clouds 4 1002 93 10000 2.1 250 08:58 28.11.2019
3626 Clouds 3 1002 93 10000 3.1 260 08:38 28.11.2019
3627 Clouds 3 1002 93 10000 0.5 0 08:20 28.11.2019
3628 Clouds 3 1002 93 10000 1.5 130 07:42 28.11.2019
3629 Clouds 3 1002 100 10000 0.5 0 07:24 28.11.2019
3630 Clouds 3 1002 93 10000 1.5 130 07:24 28.11.2019
3631 Clouds 3 1002 100 10000 0.5 0 07:23 28.11.2019
3632 Clouds 3 1002 100 10000 1 250 06:44 28.11.2019
3633 Clouds 3 1002 93 10000 1.5 320 06:22 28.11.2019
3634 Clouds 3 1002 93 10000 1 100 05:46 28.11.2019
3635 Clouds 3 1002 93 10000 1.5 210 05:18 28.11.2019
3636 Clouds 3 1002 93 10000 0.5 0 02:37 28.11.2019
3637 Clouds 3 1002 100 10000 2.1 250 01:40 28.11.2019
3638 Rain 5 1003 93 10000 2.6 260 00:44 28.11.2019
3639 Clouds 4 1003 93 10000 1 0 00:22 28.11.2019
3640 Clouds 4 1003 93 10000 1 0 23:54 27.11.2019
3641 Clouds 4 1003 93 10000 2.1 250 23:36 27.11.2019
3642 Clouds 5 1003 93 10000 1 0 23:18 27.11.2019
3643 Clouds 5 1003 93 10000 1 0 22:38 27.11.2019
3644 Clouds 5 1002 93 10000 1.5 320 22:20 27.11.2019
3645 Clouds 5 1002 93 10000 1.5 320 21:56 27.11.2019
3646 Clouds 5 1002 86 10000 1.5 250 21:37 27.11.2019
3647 Clouds 5 1002 86 10000 1.5 250 21:37 27.11.2019
3648 Clouds 5 1002 93 10000 0.5 0 21:19 27.11.2019
3649 Clouds 5 1002 93 10000 0.5 0 20:58 27.11.2019
3650 Clouds 5 1002 93 10000 0.5 0 20:58 27.11.2019
3651 Clouds 5 1002 93 10000 1.5 280 20:39 27.11.2019
3652 Clouds 5 1002 86 10000 0.5 0 20:20 27.11.2019
3653 Clouds 5 1002 86 10000 0.5 0 19:57 27.11.2019
3654 Clouds 6 1002 81 10000 1.5 240 19:39 27.11.2019
3655 Clouds 5 1002 86 10000 1 0 19:19 27.11.2019
3656 Clouds 6 1002 86 10000 1 0 18:58 27.11.2019
3657 Clouds 6 1002 86 10000 1 0 18:58 27.11.2019
3658 Clouds 5 1001 87 10000 2.1 240 18:37 27.11.2019
3659 Clouds 6 1001 81 10000 4.1 260 18:19 27.11.2019
3660 Clouds 6 1001 81 10000 4.1 260 17:56 27.11.2019
3661 Clouds 8 1001 75 10000 2.1 240 17:37 27.11.2019
3662 Clouds 7 1001 81 10000 3.1 280 17:19 27.11.2019
3663 Clouds 8 1001 81 10000 3.1 280 16:56 27.11.2019
3664 Clouds 8 1000 75 10000 3.6 270 16:36 27.11.2019
3665 Clouds 9 1000 70 10000 3.1 250 16:18 27.11.2019
3666 Clouds 9 1000 70 10000 3.1 250 15:56 27.11.2019
3667 Clouds 9 1000 70 10000 3.1 250 15:56 27.11.2019
3668 Clouds 10 1000 70 10000 2.6 290 15:38 27.11.2019
3669 Clouds 11 1000 66 10000 1.5 160 15:20 27.11.2019
3670 Clouds 11 1000 66 10000 1.5 160 14:56 27.11.2019
3671 Clouds 11 1000 71 10000 2.6 270 14:38 27.11.2019
3672 Clouds 9 1001 70 10000 4.1 290 14:20 27.11.2019
3673 Clouds 9 1001 70 10000 4.1 290 13:55 27.11.2019
3674 Clouds 8 1000 70 10000 4.6 290 13:37 27.11.2019
3675 Clouds 8 1000 66 10000 6.7 260 13:18 27.11.2019
3676 Clouds 8 1000 66 10000 6.7 260 13:18 27.11.2019
3677 Clouds 7 1001 70 10000 7.2 270 12:41 27.11.2019
3678 Clouds 6 1001 75 10000 4.1 270 12:22 27.11.2019
3679 Clouds 7 1001 81 10000 2.1 230 11:57 27.11.2019
3680 Clouds 6 1002 75 10000 4.6 280 11:37 27.11.2019
3681 Clouds 5 1002 75 10000 4.6 280 11:18 27.11.2019
3682 Clouds 5 1001 80 10000 7.7 270 10:46 27.11.2019
3683 Clouds 5 1001 80 10000 7.7 270 10:46 27.11.2019
3684 Clouds 4 1001 80 10000 3.1 250 10:24 27.11.2019
3685 Clouds 5 1001 80 10000 3.1 250 09:58 27.11.2019
3686 Clouds 4 1001 86 10000 5.1 250 09:39 27.11.2019
3687 Clouds 5 1002 86 10000 5.7 280 09:21 27.11.2019
3688 Clouds 3 1001 86 10000 4.6 260 08:42 27.11.2019
3689 Clouds 3 1001 80 10000 5.1 270 08:23 27.11.2019
3690 Clouds 3 1001 86 10000 6.2 270 07:49 27.11.2019
3691 Clouds 3 1001 86 10000 6.2 270 07:29 27.11.2019
3692 Clouds 3 1001 86 10000 5.1 260 06:55 27.11.2019
3693 Clouds 3 1001 86 10000 5.1 260 06:55 27.11.2019
3694 Clouds 3 1001 86 10000 5.1 260 06:37 27.11.2019
3695 Clouds 3 1002 86 10000 3.6 290 05:53 27.11.2019
3696 Clouds 3 1002 86 10000 5.1 280 05:26 27.11.2019
3697 Clouds 2 1002 93 10000 5.7 280 04:49 27.11.2019
3698 Clouds 3 1002 93 10000 5.7 280 04:31 27.11.2019
3699 Clouds 2 1003 93 10000 5.1 270 03:43 27.11.2019
3700 Clouds 2 1004 93 10000 2.1 250 03:20 27.11.2019
3701 Clouds 3 1000 100 0 0.45 270 02:32 27.11.2019
3702 Clouds 2 1007 67 10000 1 0 00:50 27.11.2019
3703 Clouds 3 1007 93 10000 1 0 00:31 27.11.2019
3704 Clouds 3 1008 93 10000 1 0 23:56 26.11.2019
3705 Clouds 3 1008 93 10000 0.5 0 23:38 26.11.2019
3706 Clouds 3 1008 93 10000 0.5 0 23:19 26.11.2019
3707 Clouds 3 1008 93 10000 0.5 0 22:40 26.11.2019
3708 Clouds 3 1008 93 10000 0.5 0 22:40 26.11.2019
3709 Clouds 3 1008 93 10000 0.5 0 22:40 26.11.2019
3710 Clouds 3 1008 93 10000 2.1 250 22:20 26.11.2019
3711 Clouds 4 1008 93 10000 2.1 250 21:59 26.11.2019
3712 Clouds 3 1009 93 10000 1 0 21:39 26.11.2019
3713 Clouds 4 1009 93 10000 0.5 0 21:21 26.11.2019
3714 Clouds 4 1009 86 10000 1 0 20:57 26.11.2019
3715 Clouds 4 1009 86 10000 1 0 20:37 26.11.2019
3716 Clouds 4 1009 86 10000 2.6 270 20:19 26.11.2019
3717 Clouds 4 1008 86 10000 1.5 230 19:55 26.11.2019
3718 Clouds 4 1009 86 10000 2.6 270 19:55 26.11.2019
3719 Clouds 4 1008 86 10000 1.5 230 19:37 26.11.2019
3720 Clouds 4 1009 86 10000 0.5 0 19:19 26.11.2019
3721 Clouds 4 1009 80 10000 1 230 18:57 26.11.2019
3722 Clouds 5 1009 80 10000 1 230 18:39 26.11.2019
3723 Clouds 5 1009 80 10000 0.5 0 18:21 26.11.2019
3724 Clouds 5 1009 80 10000 1 0 17:58 26.11.2019
3725 Clouds 5 1009 80 10000 1 0 17:39 26.11.2019
3726 Clouds 6 1009 81 10000 2.1 270 17:21 26.11.2019
3727 Clouds 6 1009 75 10000 1 250 16:57 26.11.2019
3728 Clouds 7 1009 75 10000 1 250 16:37 26.11.2019
3729 Clouds 7 1008 75 10000 1 0 16:18 26.11.2019
3730 Clouds 8 1008 75 10000 1 0 15:58 26.11.2019
3731 Clouds 9 1008 66 10000 1.5 260 15:37 26.11.2019
3732 Clouds 9 1008 66 10000 1.5 260 15:37 26.11.2019
3733 Clouds 8 1008 70 10000 2.6 260 15:19 26.11.2019
3734 Clouds 8 1008 70 10000 2.1 260 14:47 26.11.2019
3735 Clouds 9 1008 70 10000 2.1 260 14:25 26.11.2019
3736 Clouds 9 1008 70 10000 2.1 260 14:25 26.11.2019
3737 Clouds 8 1009 66 10000 1 0 13:57 26.11.2019
3738 Clouds 8 1009 70 10000 1 0 13:38 26.11.2019
3739 Clouds 8 1009 66 10000 0.5 0 13:19 26.11.2019
3740 Clouds 7 1010 66 10000 1.5 240 12:38 26.11.2019
3741 Clouds 7 1010 66 10000 1.5 240 12:38 26.11.2019
3742 Clouds 7 1010 70 10000 2.6 250 12:20 26.11.2019
3743 Clouds 6 1010 75 10000 1 0 11:58 26.11.2019
3744 Clouds 7 1010 75 10000 1 0 11:39 26.11.2019
3745 Clouds 7 1010 75 10000 1 0 11:39 26.11.2019
3746 Clouds 6 1011 75 10000 1 0 11:20 26.11.2019
3747 Clouds 5 1011 81 10000 0.5 0 10:58 26.11.2019
3748 Clouds 4 1011 91 0 0.41 239 10:39 26.11.2019
3749 Clouds 4 1012 93 10000 1 0 10:20 26.11.2019
3750 Clouds 5 1012 93 10000 1 0 09:56 26.11.2019
3751 Clouds 4 1012 93 10000 2.1 260 09:37 26.11.2019
3752 Clouds 3 1012 93 10000 1 260 09:18 26.11.2019
3753 Clouds 3 1012 100 10000 2.1 270 08:43 26.11.2019
3754 Clouds 2 1012 93 10000 0.5 0 08:22 26.11.2019
3755 Clouds 2 1011 100 10000 1 250 07:44 26.11.2019
3756 Clouds 2 1011 100 10000 0.5 0 07:25 26.11.2019
3757 Clouds 2 1012 85 10000 0.5 0 06:55 26.11.2019
3758 Clouds 2 1012 85 10000 0.5 0 06:30 26.11.2019
3759 Clouds 2 1012 85 10000 1 0 05:41 26.11.2019
3760 Clouds 2 1011 84 9000 1 0 03:59 26.11.2019
3761 Mist 2 1011 100 2400 1 0 02:49 26.11.2019
3762 Clouds 2 1011 89 10000 0.5 0 01:33 26.11.2019
3763 Clouds 3 1012 89 10000 1 0 00:51 26.11.2019
3764 Clouds 3 1012 93 9000 0.5 0 00:26 26.11.2019
3765 Clouds 3 1012 93 10000 1 280 23:41 25.11.2019
3766 Clouds 2 1012 100 10000 1 0 23:21 25.11.2019
3767 Clouds 2 1012 100 10000 1 0 22:58 25.11.2019
3768 Clouds 3 1012 93 10000 1.5 260 22:38 25.11.2019
3769 Clouds 4 1012 93 10000 1 0 22:18 25.11.2019
3770 Clouds 4 1012 93 10000 1 0 21:58 25.11.2019
3771 Clouds 4 1011 93 10000 0.5 0 21:39 25.11.2019
3772 Mist 3 1011 86 3400 0.5 0 21:20 25.11.2019
3773 Mist 3 1011 86 3400 0.5 0 20:56 25.11.2019
3774 Clouds 4 1011 86 10000 1 0 20:38 25.11.2019
3775 Clouds 3 1011 86 10000 0.5 0 20:19 25.11.2019
3776 Clear 3 1010 80 10000 1 0 19:56 25.11.2019
3777 Clear 3 1010 80 10000 1 0 19:56 25.11.2019
3778 Clear 4 1010 80 10000 1 0 19:37 25.11.2019
3779 Clear 4 1010 80 10000 1 0 19:37 25.11.2019
3780 Clear 4 1010 80 10000 1 0 19:18 25.11.2019
3781 Clear 4 1009 81 10000 0.5 0 18:56 25.11.2019
3782 Clear 4 1009 81 10000 0.5 0 18:38 25.11.2019
3783 Clear 4 1009 81 10000 0.5 0 18:19 25.11.2019
3784 Clear 4 1009 75 10000 0.5 0 17:56 25.11.2019
3785 Clear 5 1009 75 10000 0.5 0 17:37 25.11.2019
3786 Clear 6 1008 75 10000 1.5 260 17:19 25.11.2019
3787 Clear 6 1008 70 10000 1 0 16:55 25.11.2019
3788 Clear 6 1008 70 10000 1 0 16:37 25.11.2019
3789 Clear 7 1008 71 10000 1 170 16:18 25.11.2019
3790 Clear 8 1008 62 10000 1 0 15:41 25.11.2019
3791 Clear 12 1007 62 10000 1.5 150 15:21 25.11.2019
3792 Clear 12 1007 62 10000 1.5 150 15:21 25.11.2019
3793 Clear 8 1007 62 10000 1.5 150 14:58 25.11.2019
3794 Clear 10 1007 58 10000 3.1 260 14:40 25.11.2019
3795 Clouds 10 1008 58 10000 1 0 14:21 25.11.2019
3796 Clouds 11 1008 58 10000 0.5 0 13:41 25.11.2019
3797 Clouds 10 1008 62 10000 3.1 260 13:21 25.11.2019
3798 Clouds 10 1008 62 10000 3.6 250 12:59 25.11.2019
3799 Clouds 10 1008 62 10000 3.6 250 12:40 25.11.2019
3800 Clouds 10 1009 71 10000 4.1 270 12:21 25.11.2019
3801 Clouds 9 1009 70 10000 2.6 270 11:58 25.11.2019
3802 Clouds 9 1009 70 10000 2.6 270 11:38 25.11.2019
3803 Clouds 7 1010 75 10000 1.5 270 11:20 25.11.2019
3804 Clouds 7 1010 75 10000 1.5 270 10:45 25.11.2019
3805 Clouds 7 1010 75 10000 1.5 270 10:27 25.11.2019
3806 Clouds 6 1010 81 10000 0.5 0 09:58 25.11.2019
3807 Clouds 6 1010 93 10000 1 0 09:40 25.11.2019
3808 Clouds 5 1011 93 10000 0.5 0 09:22 25.11.2019
3809 Clouds 3 1011 93 10000 0.77 165 08:41 25.11.2019
3810 Clouds 1 1010 93 10000 1.5 280 08:22 25.11.2019
3811 Clouds 1 1010 87 10000 0.5 0 07:44 25.11.2019
3812 Clouds 2 1010 93 10000 0.5 0 07:24 25.11.2019
3813 Clouds 3 1010 93 10000 1 0 06:50 25.11.2019
3814 Clouds 2 1010 93 10000 0.5 0 06:21 25.11.2019
3815 Clouds 2 1010 93 10000 1 0 05:39 25.11.2019
3816 Clouds 2 1009 93 10000 0.5 0 04:52 25.11.2019
3817 Clouds 3 1009 93 10000 3.6 270 03:24 25.11.2019
3818 Clouds 3 1010 86 10000 3.6 270 02:28 25.11.2019
3819 Clouds 3 1010 93 10000 2.6 260 01:41 25.11.2019
3820 Clouds 3 1010 86 10000 1 0 01:22 25.11.2019
3821 Clouds 4 1010 86 10000 1 0 00:24 25.11.2019
3822 Clouds 3 1010 86 10000 1 0 00:00 25.11.2019
3823 Clouds 3 1010 93 10000 2.1 280 23:41 24.11.2019
3824 Clouds 4 1010 86 10000 1.5 270 23:20 24.11.2019
3825 Clouds 3 1010 86 10000 0.5 0 22:56 24.11.2019
3826 Clouds 4 1010 86 10000 0.5 0 22:37 24.11.2019
3827 Clouds 4 1009 86 10000 1.5 220 22:18 24.11.2019
3828 Clouds 4 1009 86 10000 1.5 220 22:18 24.11.2019
3829 Clouds 4 1009 86 10000 1.5 220 21:54 24.11.2019
3830 Clouds 4 1009 86 10000 2.6 250 21:36 24.11.2019
3831 Clouds 4 1009 86 10000 3.6 270 21:18 24.11.2019
3832 Clouds 5 1009 81 10000 3.1 250 20:54 24.11.2019
3833 Clouds 5 1009 81 10000 3.1 250 20:36 24.11.2019
3834 Clouds 5 1009 87 10000 4.1 280 20:18 24.11.2019
3835 Clouds 6 1009 87 10000 5.1 270 19:54 24.11.2019
3836 Clouds 6 1009 87 10000 5.1 270 19:36 24.11.2019
3837 Clouds 6 1009 87 10000 4.6 270 19:18 24.11.2019
3838 Clouds 7 1009 81 10000 4.6 260 18:38 24.11.2019
3839 Clouds 7 1008 81 10000 4.6 270 18:20 24.11.2019
3840 Clouds 8 1008 75 10000 4.6 290 17:59 24.11.2019
3841 Clouds 8 1008 75 10000 4.6 290 17:41 24.11.2019
3842 Clouds 9 1008 81 10000 4.6 280 17:23 24.11.2019
3843 Clouds 10 1008 81 10000 4.6 280 16:59 24.11.2019
3844 Clouds 10 1008 76 10000 4.6 270 16:41 24.11.2019
3845 Clouds 9 1007 76 10000 4.1 270 16:23 24.11.2019
3846 Clouds 9 1007 76 10000 4.1 270 15:56 24.11.2019
3847 Clouds 10 1007 71 10000 5.7 270 15:38 24.11.2019
3848 Clouds 10 1007 71 10000 5.1 280 15:20 24.11.2019
3849 Clouds 10 1007 71 10000 6.2 260 14:40 24.11.2019
3850 Clouds 11 1007 71 10000 5.1 270 14:20 24.11.2019
3851 Clouds 11 1007 71 10000 5.1 270 13:59 24.11.2019
3852 Clouds 11 1007 66 10000 5.7 260 13:38 24.11.2019
3853 Clouds 12 1007 62 10000 5.1 260 13:20 24.11.2019
3854 Clouds 10 1007 71 10000 6.2 270 12:56 24.11.2019
3855 Clouds 13 1007 71 10000 6.2 270 12:38 24.11.2019
3856 Clouds 12 1007 66 10000 6.2 270 12:18 24.11.2019
3857 Clouds 12 1007 70 10000 4.6 260 11:54 24.11.2019
3858 Clouds 11 1007 70 10000 4.6 260 11:36 24.11.2019
3859 Clouds 9 1008 70 10000 5.7 260 11:18 24.11.2019
3860 Clouds 9 1008 75 10000 5.1 260 10:42 24.11.2019
3861 Clouds 8 1008 75 10000 5.1 260 10:24 24.11.2019
3862 Clouds 7 1007 75 10000 5.1 270 09:40 24.11.2019
3863 Clouds 8 1006 75 10000 5.1 270 09:20 24.11.2019
3864 Clouds 7 1006 75 10000 5.1 270 08:59 24.11.2019
3865 Clouds 7 1006 81 10000 5.7 260 08:40 24.11.2019
3866 Clouds 5 1006 81 10000 6.7 260 08:21 24.11.2019
3867 Clouds 6 1006 75 10000 5.7 260 07:52 24.11.2019
3868 Clouds 5 1006 75 10000 5.7 260 07:33 24.11.2019
3869 Clouds 7 1005 50 10000 4.1 130 06:55 24.11.2019
3870 Clouds 7 1005 50 10000 4.6 100 05:47 24.11.2019
3871 Clouds 6 1005 47 10000 5.1 80 04:45 24.11.2019
3872 Clouds 7 1004 47 10000 6.7 100 02:49 24.11.2019
3873 Clouds 7 1004 47 10000 6.7 100 02:49 24.11.2019
3874 Clouds 7 1004 50 10000 6.7 100 01:57 24.11.2019
3875 Clouds 7 1004 47 10000 8.2 80 01:37 24.11.2019
3876 Clouds 7 1004 47 10000 7.7 100 01:18 24.11.2019
3877 Clouds 7 1004 44 10000 6.7 70 00:42 24.11.2019
3878 Clouds 7 1004 44 10000 5.7 90 00:20 24.11.2019
3879 Clouds 7 1004 41 10000 6.2 40 23:44 23.11.2019
3880 Clouds 8 1003 38 10000 6.7 360 23:21 23.11.2019
3881 Clouds 8 1004 41 10000 7.2 50 22:57 23.11.2019
3882 Clouds 8 1004 41 10000 7.2 50 22:38 23.11.2019
3883 Clouds 8 1003 41 10000 8.7 350 22:20 23.11.2019
3884 Clouds 8 1003 41 10000 8.7 350 21:57 23.11.2019
3885 Clouds 8 1003 41 10000 11.3 30 21:39 23.11.2019
3886 Clouds 9 1002 44 10000 10.3 20 21:20 23.11.2019
3887 Clouds 10 1003 41 10000 9.3 40 20:39 23.11.2019
3888 Clouds 9 1003 44 10000 8.2 60 20:21 23.11.2019
3889 Clouds 9 1003 44 10000 8.2 60 20:21 23.11.2019
3890 Clouds 9 1003 44 10000 8.2 60 19:58 23.11.2019
3891 Clouds 10 1003 44 10000 6.7 60 19:39 23.11.2019
3892 Clouds 10 1003 44 10000 5.7 60 19:19 23.11.2019
3893 Clouds 10 1003 44 10000 5.7 60 19:19 23.11.2019
3894 Clouds 14 1003 44 10000 8.2 70 18:58 23.11.2019
3895 Clouds 14 1003 44 10000 8.2 70 18:39 23.11.2019
3896 Clouds 10 1003 44 10000 7.2 70 18:19 23.11.2019
3897 Clouds 14 1002 44 10000 7.7 50 17:44 23.11.2019
3898 Clouds 11 1002 44 10000 8.7 40 17:22 23.11.2019
3899 Clouds 11 1002 44 10000 7.7 40 16:57 23.11.2019
3900 Clouds 12 1002 44 10000 7.7 40 16:38 23.11.2019
3901 Clouds 12 1002 44 10000 7.7 40 16:38 23.11.2019
3902 Clouds 12 1002 44 10000 8.7 30 16:20 23.11.2019
3903 Clouds 13 1002 44 10000 8.7 30 15:58 23.11.2019
3904 Clouds 13 1002 44 10000 6.2 100 15:39 23.11.2019
3905 Clouds 13 1002 44 10000 6.7 80 15:19 23.11.2019
3906 Clouds 13 1002 44 10000 6.7 80 14:57 23.11.2019
3907 Clouds 13 1002 44 10000 6.7 80 14:57 23.11.2019
3908 Clouds 13 1002 44 10000 6.2 70 14:38 23.11.2019
3909 Clouds 12 1003 41 10000 5.7 60 14:20 23.11.2019
3910 Clouds 12 1002 41 10000 7.2 50 13:44 23.11.2019
3911 Clouds 12 1003 41 10000 7.7 60 13:22 23.11.2019
3912 Clouds 12 1003 41 10000 7.7 60 12:59 23.11.2019
3913 Clouds 13 1002 41 10000 7.7 360 12:40 23.11.2019
3914 Clouds 12 1003 41 10000 8.2 60 12:22 23.11.2019
3915 Clouds 10 1003 41 10000 6.7 20 11:43 23.11.2019
3916 Clouds 10 1003 41 10000 7.2 30 11:21 23.11.2019
3917 Clouds 8 1003 38 10000 4.6 0 10:45 23.11.2019
3918 Clouds 8 1004 41 10000 8.2 50 10:22 23.11.2019
3919 Clouds 9 1004 41 10000 4.6 0 09:43 23.11.2019
3920 Clouds 7 1004 70 10000 7.2 0 09:21 23.11.2019
3921 Clouds 6 1004 70 10000 7.2 0 08:56 23.11.2019
3922 Clouds 7 1004 70 10000 7.7 30 08:37 23.11.2019
3923 Clouds 4 1003 43 10000 6.7 10 08:18 23.11.2019
3924 Clouds 4 1004 77 10000 7.2 80 07:39 23.11.2019
3925 Clouds 4 1004 77 10000 6.2 110 06:50 23.11.2019
3926 Clouds 4 1004 77 10000 8.2 120 06:23 23.11.2019
3927 Clouds 4 1004 77 10000 8.7 120 05:53 23.11.2019
3928 Clouds 4 1005 77 10000 9.8 130 05:31 23.11.2019
3929 Clouds 4 1005 79 10000 9.3 120 04:50 23.11.2019
3930 Clouds 4 1005 79 10000 9.3 120 04:29 23.11.2019
3931 Clouds 5 1006 79 10000 8.2 120 03:21 23.11.2019
3932 Clouds 3 1006 79 10000 5.7 140 02:27 23.11.2019
3933 Clouds 1 1006 82 10000 3.6 0 01:38 23.11.2019
3934 Clouds 2 1007 86 10000 3.6 260 00:45 23.11.2019
3935 Clouds 2 1007 80 10000 2.6 0 00:19 23.11.2019
3936 Clouds 2 1008 81 10000 3.6 260 23:43 22.11.2019
3937 Clouds 2 1007 75 10000 3.1 270 23:23 22.11.2019
3938 Clouds 2 1007 80 10000 4.1 250 22:59 22.11.2019
3939 Clouds 3 1007 75 10000 3.1 270 22:59 22.11.2019
3940 Clouds 3 1007 80 10000 4.1 250 22:41 22.11.2019
3941 Clouds 4 1007 53 10000 2.6 0 22:23 22.11.2019
3942 Clouds 4 1007 53 10000 2.6 0 21:59 22.11.2019
3943 Clouds 3 1007 75 10000 2.6 270 21:40 22.11.2019
3944 Clouds 3 1008 70 10000 3.6 260 21:20 22.11.2019
3945 Clouds 3 1007 65 10000 3.6 0 20:44 22.11.2019
3946 Clouds 4 1007 81 10000 6.7 0 20:22 22.11.2019
3947 Clouds 4 1007 81 10000 6.7 0 19:58 22.11.2019
3948 Clouds 4 1007 81 10000 7.2 140 19:39 22.11.2019
3949 Clouds 4 1007 81 10000 7.2 140 19:19 22.11.2019
3950 Clouds 5 1007 81 10000 7.2 140 18:58 22.11.2019
3951 Clouds 5 1007 50 10000 7.7 120 18:36 22.11.2019
3952 Clouds 5 1008 50 10000 6.2 120 18:18 22.11.2019
3953 Clouds 5 1008 50 10000 6.2 120 18:18 22.11.2019
3954 Clouds 5 1007 50 10000 6.2 120 17:41 22.11.2019
3955 Clouds 6 1007 80 10000 5.1 140 17:22 22.11.2019
3956 Clouds 6 1007 50 10000 3.1 0 16:48 22.11.2019
3957 Clouds 7 1007 50 10000 3.1 0 16:29 22.11.2019
3958 Clouds 7 1007 50 10000 3.1 0 16:29 22.11.2019
3959 Clouds 8 1008 46 10000 5.7 110 15:54 22.11.2019
3960 Clouds 7 1008 80 10000 6.2 130 15:36 22.11.2019
3961 Clouds 7 1008 80 10000 6.2 110 15:18 22.11.2019
3962 Clouds 8 1008 80 10000 8.2 130 14:54 22.11.2019
3963 Clouds 8 1008 80 10000 8.2 130 14:36 22.11.2019
3964 Clouds 9 1007 68 10000 7.2 150 14:18 22.11.2019
3965 Clouds 8 1008 70 10000 3.1 250 13:37 22.11.2019
3966 Clouds 8 1008 65 10000 2.6 240 13:19 22.11.2019
3967 Clouds 8 1008 65 10000 2.6 240 12:57 22.11.2019
3968 Clouds 8 1009 75 10000 5.7 270 12:39 22.11.2019
3969 Clouds 8 1010 70 10000 4.1 250 12:19 22.11.2019
3970 Clouds 8 1010 70 10000 4.1 250 12:19 22.11.2019
3971 Clouds 7 1010 70 10000 4.1 250 11:56 22.11.2019
3972 Clouds 6 1010 75 10000 6.2 270 11:36 22.11.2019
3973 Clouds 6 1010 75 10000 6.2 270 11:36 22.11.2019
3974 Clouds 5 1010 75 10000 7.2 270 11:18 22.11.2019
3975 Clouds 4 1011 80 10000 5.1 270 10:42 22.11.2019
3976 Clouds 3 1011 86 10000 4.6 280 10:23 22.11.2019
3977 Clouds 3 1011 86 10000 4.6 280 09:59 22.11.2019
3978 Clouds 5 1011 71 10000 6.2 270 09:40 22.11.2019
3979 Clouds 3 1011 71 10000 4.6 270 09:21 22.11.2019
3980 Clouds 1 1011 71 10000 4.6 270 08:57 22.11.2019
3981 Clouds 1 1011 71 10000 5.1 270 08:37 22.11.2019
3982 Clouds 0 1011 79 10000 5.1 270 08:19 22.11.2019
3983 Clouds 0 1010 79 10000 4.6 0 07:40 22.11.2019
3984 Clouds 1 1011 86 10000 4.1 270 07:19 22.11.2019
3985 Clouds 1 1011 86 10000 4.6 260 06:42 22.11.2019
3986 Clouds 1 1010 79 10000 5.1 270 06:18 22.11.2019
3987 Clouds 1 1010 82 10000 4.6 290 04:55 22.11.2019
3988 Clouds 1 1010 82 10000 4.1 290 03:25 22.11.2019
3989 Clouds 1 1010 82 10000 4.1 290 03:25 22.11.2019
3990 Clouds 1 1010 82 10000 5.1 270 02:39 22.11.2019
3991 Clouds 0 1010 82 10000 5.1 270 02:19 22.11.2019
3992 Clouds 1 1010 82 10000 5.1 260 01:42 22.11.2019
3993 Clouds 0 1010 81 10000 4.1 270 01:18 22.11.2019
3994 Clouds 0 1010 81 10000 4.1 270 00:26 22.11.2019
3995 Clouds 1 1010 81 10000 3.6 270 23:59 21.11.2019
3996 Clouds 1 1010 81 10000 3.6 280 23:41 21.11.2019
3997 Clouds 2 1010 93 10000 4.1 280 23:23 21.11.2019
3998 Clouds 2 1010 93 10000 4.1 280 22:54 21.11.2019
3999 Clouds 2 1010 93 10000 4.6 270 22:36 21.11.2019
4000 Clouds 2 1010 93 10000 4.1 280 22:18 21.11.2019
4001 Clouds 1 1010 93 10000 4.1 280 21:54 21.11.2019
4002 Clouds 1 1010 93 10000 3.6 280 21:36 21.11.2019
4003 Clouds 1 1010 93 10000 3.6 280 21:18 21.11.2019
4004 Clouds 2 1010 93 10000 3.6 280 20:55 21.11.2019
4005 Clouds 2 1010 93 10000 2.6 270 20:36 21.11.2019
4006 Clouds 2 1010 93 10000 2.6 270 20:36 21.11.2019
4007 Clouds 2 1009 93 10000 2.6 250 20:18 21.11.2019
4008 Clouds 3 1009 86 10000 2.6 280 19:41 21.11.2019
4009 Clouds 3 1009 86 10000 2.6 280 19:41 21.11.2019
4010 Clouds 2 1009 86 10000 1 0 19:23 21.11.2019
4011 Clouds 2 1009 86 10000 1 0 19:23 21.11.2019
4012 Clouds 2 1009 86 10000 1 0 19:23 21.11.2019
4013 Clouds 3 1009 86 10000 1 0 18:59 21.11.2019
4014 Clouds 3 1009 86 10000 2.6 260 18:40 21.11.2019
4015 Clouds 3 1009 80 10000 2.1 0 18:21 21.11.2019
4016 Clouds 3 1009 80 10000 2.1 0 17:58 21.11.2019
4017 Clouds 4 1008 80 10000 2.6 260 17:39 21.11.2019
4018 Clouds 5 1008 80 10000 3.6 260 17:21 21.11.2019
4019 Clouds 5 1008 75 10000 3.6 260 16:57 21.11.2019
4020 Clouds 5 1008 75 10000 3.6 260 16:39 21.11.2019
4021 Clouds 6 1007 70 10000 1.5 250 16:20 21.11.2019
4022 Clouds 6 1007 66 10000 3.1 250 15:43 21.11.2019
4023 Clouds 7 1007 61 10000 3.1 240 15:21 21.11.2019
4024 Clouds 7 1007 61 10000 3.1 240 14:58 21.11.2019
4025 Clouds 7 1007 66 10000 2.6 260 14:38 21.11.2019
4026 Clouds 8 1007 61 10000 2.6 260 14:20 21.11.2019
4027 Clouds 8 1007 61 10000 2.6 260 13:57 21.11.2019
4028 Clouds 7 1007 66 10000 1.5 230 13:37 21.11.2019
4029 Clouds 7 1008 70 10000 0.5 0 13:18 21.11.2019
4030 Clouds 7 1008 75 10000 1 0 12:41 21.11.2019
4031 Clouds 6 1009 81 10000 1 0 12:22 21.11.2019
4032 Clouds 6 1009 81 10000 1 0 11:56 21.11.2019
4033 Clouds 5 1009 80 10000 1 0 11:37 21.11.2019
4034 Clouds 4 1010 86 10000 1 0 11:19 21.11.2019
4035 Clouds 4 1010 86 10000 1 0 10:42 21.11.2019
4036 Clouds 4 1010 86 10000 1 0 10:24 21.11.2019
4037 Clouds 3 1010 86 10000 1 0 09:59 21.11.2019
4038 Clouds 3 1010 86 10000 1 0 09:59 21.11.2019
4039 Clouds 3 1010 93 8000 0.5 0 09:40 21.11.2019
4040 Clouds 2 1010 100 6000 2.6 270 09:22 21.11.2019
4041 Mist 2 1010 100 5000 1 0 08:46 21.11.2019
4042 Mist 2 1010 100 5000 1 0 08:24 21.11.2019
4043 Mist 2 1010 86 4000 1 0 07:59 21.11.2019
4044 Clouds 2 1010 86 6000 1 0 07:37 21.11.2019
4045 Clouds 1 1010 86 8000 2.1 250 07:18 21.11.2019
4046 Clouds 2 1010 100 10000 2.1 240 06:42 21.11.2019
4047 Clouds 2 1010 100 10000 2.6 260 06:24 21.11.2019
4048 Clouds 1 1010 100 10000 2.1 250 04:34 21.11.2019
4049 Clouds 2 1011 93 10000 1.5 220 02:42 21.11.2019
4050 Clouds 1 1011 93 10000 1.5 230 02:24 21.11.2019
4051 Clouds 1 1011 93 10000 1.5 250 01:52 21.11.2019
4052 Clouds 2 1011 93 10000 1.5 210 01:21 21.11.2019
4053 Clouds 1 1011 93 10000 1.5 230 00:41 21.11.2019
4054 Clouds 1 1012 93 10000 1.5 240 00:20 21.11.2019
4055 Clouds 2 1012 93 10000 1.5 230 23:48 20.11.2019
4056 Clouds 2 1012 93 10000 2.1 230 23:22 20.11.2019
4057 Clouds 2 1012 93 10000 2.1 230 22:58 20.11.2019
4058 Clouds 2 1012 93 10000 3.1 250 22:40 20.11.2019
4059 Clouds 2 1012 93 10000 2.1 240 22:20 20.11.2019
4060 Clouds 2 1012 86 10000 2.1 240 21:58 20.11.2019
4061 Clouds 2 1012 86 10000 2.1 240 21:39 20.11.2019
4062 Clouds 2 1012 86 10000 3.1 260 21:20 20.11.2019
4063 Clouds 2 1012 86 10000 3.1 260 20:57 20.11.2019
4064 Clouds 2 1012 86 10000 3.6 270 20:39 20.11.2019
4065 Clouds 2 1012 86 10000 2.6 280 20:21 20.11.2019
4066 Clouds 2 1012 86 10000 2.6 280 19:57 20.11.2019
4067 Clouds 2 1012 86 10000 3.1 280 19:37 20.11.2019
4068 Clouds 2 1012 86 10000 3.1 280 19:19 20.11.2019
4069 Clouds 2 1012 86 10000 3.1 280 18:58 20.11.2019
4070 Clouds 2 1012 86 10000 3.1 260 18:39 20.11.2019
4071 Clouds 2 1012 86 10000 3.6 260 18:21 20.11.2019
4072 Clouds 2 1012 86 10000 3.6 260 17:56 20.11.2019
4073 Clouds 2 1012 86 10000 3.1 260 17:38 20.11.2019
4074 Clouds 3 1012 86 10000 2.1 270 17:20 20.11.2019
4075 Clouds 4 1012 86 10000 2.1 270 16:57 20.11.2019
4076 Clouds 4 1012 80 10000 1 0 16:38 20.11.2019
4077 Clouds 4 1012 80 10000 1 0 16:18 20.11.2019
4078 Clouds 4 1012 80 10000 1 0 15:55 20.11.2019
4079 Clouds 4 1013 80 10000 1 300 15:36 20.11.2019
4080 Clouds 4 1013 80 10000 1 0 15:18 20.11.2019
4081 Clouds 5 1013 80 10000 0.5 0 14:40 20.11.2019
4082 Clouds 5 1013 80 10000 0.5 0 14:22 20.11.2019
4083 Clouds 5 1013 80 10000 0.5 0 14:22 20.11.2019
4084 Clouds 5 1013 80 10000 0.5 0 14:22 20.11.2019
4085 Clouds 5 1013 80 10000 0.5 0 14:22 20.11.2019
4086 Clouds 5 1013 80 10000 0.5 0 14:22 20.11.2019
4087 Clouds 5 1013 80 10000 0.5 0 13:58 20.11.2019
4088 Clouds 5 1013 80 10000 1 0 13:39 20.11.2019
4089 Clouds 5 1013 80 10000 2.1 240 13:20 20.11.2019
4090 Clouds 5 1013 80 10000 2.1 240 12:55 20.11.2019
4091 Clouds 5 1014 80 10000 1.5 270 12:37 20.11.2019
4092 Clouds 5 1014 80 10000 1.5 280 12:19 20.11.2019
4093 Clouds 5 1014 80 10000 2.1 290 11:45 20.11.2019
4094 Clouds 4 1015 80 10000 2.1 280 11:22 20.11.2019
4095 Clouds 4 1015 80 10000 2.1 280 10:56 20.11.2019
4096 Clouds 3 1015 86 10000 1.5 280 10:38 20.11.2019
4097 Clouds 3 1015 86 10000 2.6 270 10:20 20.11.2019
4098 Clouds 3 1015 86 10000 2.6 270 09:55 20.11.2019
4099 Clouds 3 1015 86 10000 2.6 280 09:37 20.11.2019
4100 Clouds 3 1015 86 10000 2.1 260 09:18 20.11.2019
4101 Clouds 3 1015 86 10000 2.1 270 08:39 20.11.2019
4102 Clouds 2 1016 86 10000 1.5 270 08:21 20.11.2019
4103 Clouds 2 1016 93 10000 1.5 280 07:48 20.11.2019
4104 Clouds 2 1016 93 10000 1.5 280 07:28 20.11.2019
4105 Clouds 2 1016 86 10000 1 0 06:50 20.11.2019
4106 Clouds 2 1016 93 10000 0.5 0 06:22 20.11.2019
4107 Clouds 2 1016 93 10000 2.1 320 05:51 20.11.2019
4108 Clouds 1 1016 93 10000 4.1 260 03:52 20.11.2019
4109 Clouds 2 1017 93 10000 1.5 270 02:22 20.11.2019
4110 Clouds 2 1017 93 10000 2.6 270 01:33 20.11.2019
4111 Clouds 2 1017 93 10000 2.6 260 00:42 20.11.2019
4112 Clouds 2 1017 93 10000 2.1 260 23:59 19.11.2019
4113 Clouds 2 1017 93 10000 1.5 250 23:36 19.11.2019
4114 Clouds 2 1017 93 10000 1 0 23:18 19.11.2019
4115 Clouds 2 1017 93 10000 1.5 240 22:42 19.11.2019
4116 Clouds 2 1017 93 10000 1.5 290 22:19 19.11.2019
4117 Clouds 2 1017 93 10000 1.5 290 21:57 19.11.2019
4118 Clouds 2 1017 93 10000 2.1 260 21:38 19.11.2019
4119 Clouds 2 1017 100 10000 1.5 260 21:20 19.11.2019
4120 Clouds 2 1017 100 10000 1.5 260 20:57 19.11.2019
4121 Clouds 2 1017 97 8000 1 280 20:39 19.11.2019
4122 Clouds 2 1017 96 10000 0.5 0 20:21 19.11.2019
4123 Clouds 2 1017 96 10000 0.5 0 19:59 19.11.2019
4124 Clouds 2 1016 93 10000 1.5 270 19:41 19.11.2019
4125 Clouds 2 1016 93 10000 1 0 19:19 19.11.2019
4126 Clouds 2 1016 93 10000 1 0 19:19 19.11.2019
4127 Clouds 2 1016 93 10000 1 0 18:56 19.11.2019
4128 Clouds 2 1016 96 10000 0.5 0 18:38 19.11.2019
4129 Clouds 3 1016 86 10000 1 140 18:18 19.11.2019
4130 Clouds 3 1016 86 10000 1 140 17:56 19.11.2019
4131 Clouds 3 1016 80 10000 1 0 17:37 19.11.2019
4132 Clouds 3 1015 80 10000 1.5 90 17:18 19.11.2019
4133 Clouds 3 1015 80 10000 1.5 90 16:55 19.11.2019
4134 Clouds 3 1015 80 10000 2.6 100 16:37 19.11.2019
4135 Clouds 4 1015 80 10000 1.5 100 16:18 19.11.2019
4136 Rain 3 1015 80 10000 2.1 70 15:41 19.11.2019
4137 Rain 4 1015 80 10000 2.6 70 15:23 19.11.2019
4138 Clouds 4 1015 80 10000 2.6 70 14:56 19.11.2019
4139 Clouds 4 1014 70 10000 1 0 14:37 19.11.2019
4140 Clouds 4 1014 70 10000 1 0 14:37 19.11.2019
4141 Clouds 4 1014 70 10000 0.5 0 14:19 19.11.2019
4142 Clouds 4 1014 75 10000 1 0 13:41 19.11.2019
4143 Clouds 4 1014 75 10000 1 0 13:20 19.11.2019
4144 Clouds 4 1014 75 10000 1 0 13:20 19.11.2019
4145 Clouds 4 1014 75 10000 1 0 13:20 19.11.2019
4146 Clouds 4 1015 80 10000 1 0 12:42 19.11.2019
4147 Clouds 4 1015 86 10000 1.5 270 12:23 19.11.2019
4148 Clouds 3 1015 76 10000 2.1 260 11:59 19.11.2019
4149 Clouds 3 1015 76 10000 2.1 260 11:39 19.11.2019
4150 Clouds 2 1016 75 10000 1 0 11:20 19.11.2019
4151 Clouds 2 1016 75 10000 1 0 10:58 19.11.2019
4152 Clouds 2 1016 75 10000 2.1 250 10:40 19.11.2019
4153 Rain 2 1016 75 10000 1 0 10:20 19.11.2019
4154 Fog 1 1016 75 1000 3.1 260 09:42 19.11.2019
4155 Fog 0 1016 75 800 2.6 270 09:20 19.11.2019
4156 Fog 1 1016 75 1200 2.1 270 08:56 19.11.2019
4157 Fog 0 1016 75 1200 2.1 270 08:38 19.11.2019
4158 Fog 0 1016 89 700 2.1 270 08:20 19.11.2019
4159 Mist 0 1016 89 4000 2.6 260 07:42 19.11.2019
4160 Clouds -2 1016 89 10000 2.1 260 07:23 19.11.2019
4161 Clouds 0 1016 89 10000 2.1 260 06:54 19.11.2019
4162 Clouds 0 1016 89 10000 3.1 280 06:35 19.11.2019
4163 Clouds 0 1016 89 10000 2.1 280 05:49 19.11.2019
4164 Clouds 0 1016 88 10000 3.1 280 04:46 19.11.2019
4165 Clouds -1 1016 88 10000 1 0 03:35 19.11.2019
4166 Clouds 0 1017 88 10000 0.5 0 02:59 19.11.2019
4167 Clouds 0 1017 88 10000 2.1 290 02:33 19.11.2019
4168 Clouds 0 1017 87 10000 1 0 01:45 19.11.2019
4169 Clouds 1 1016 100 10000 1.5 280 00:22 19.11.2019
4170 Clouds 1 1016 100 10000 1.5 280 23:59 18.11.2019
4171 Clouds 1 1016 88 10000 3.6 260 23:37 18.11.2019
4172 Clouds 1 1015 91 10000 3.1 290 23:19 18.11.2019
4173 Clouds 1 1015 91 10000 4.1 280 22:46 18.11.2019
4174 Clouds 1 1015 91 10000 3.6 280 22:24 18.11.2019
4175 Clouds 1 1015 91 10000 3.6 280 21:57 18.11.2019
4176 Clouds 1 1015 100 10000 4.6 270 21:38 18.11.2019
4177 Clouds 1 1015 100 10000 4.1 260 21:20 18.11.2019
4178 Clouds 1 1015 100 10000 4.1 260 20:57 18.11.2019
4179 Clouds 2 1014 93 10000 4.1 270 20:39 18.11.2019
4180 Clouds 2 1014 93 10000 3.6 270 20:18 18.11.2019
4181 Clouds 2 1014 93 10000 3.6 270 19:56 18.11.2019
4182 Clouds 2 1013 93 10000 3.1 270 19:37 18.11.2019
4183 Clouds 2 1013 93 10000 3.6 260 19:19 18.11.2019
4184 Clouds 3 1013 93 10000 3.6 260 18:55 18.11.2019
4185 Clouds 3 1013 93 10000 4.1 270 18:37 18.11.2019
4186 Clouds 3 1013 86 10000 3.1 250 18:19 18.11.2019
4187 Clouds 4 1012 86 10000 2.6 260 17:39 18.11.2019
4188 Clouds 4 1012 86 10000 3.1 280 17:20 18.11.2019
4189 Clouds 4 1012 86 10000 3.1 280 16:58 18.11.2019
4190 Clouds 4 1012 86 10000 3.1 260 16:40 18.11.2019
4191 Clouds 5 1011 80 10000 1.5 0 16:22 18.11.2019
4192 Clouds 5 1011 80 10000 2.1 260 15:56 18.11.2019
4193 Clouds 5 1011 80 10000 2.1 260 15:37 18.11.2019
4194 Clouds 5 1011 80 10000 3.6 260 15:19 18.11.2019
4195 Clouds 6 1011 75 10000 4.1 260 14:43 18.11.2019
4196 Clouds 6 1011 75 10000 4.1 260 14:43 18.11.2019
4197 Rain 6 1010 80 10000 4.1 260 14:24 18.11.2019
4198 Rain 6 1010 80 10000 4.1 260 13:57 18.11.2019
4199 Rain 6 1010 86 10000 6.2 260 13:39 18.11.2019
4200 Rain 5 1010 86 10000 5.1 260 13:21 18.11.2019
4201 Rain 6 1010 86 10000 4.1 270 12:39 18.11.2019
4202 Rain 5 1010 93 10000 4.6 270 12:20 18.11.2019
4203 Rain 4 1009 100 10000 6.2 270 11:54 18.11.2019
4204 Rain 4 1009 100 10000 6.2 270 11:36 18.11.2019
4205 Fog 4 1009 100 10000 6.7 260 11:18 18.11.2019
4206 Mist 4 1009 100 1100 6.7 270 10:42 18.11.2019
4207 Fog 4 1009 100 1200 5.1 270 10:23 18.11.2019
4208 Fog 3 1009 100 1200 5.1 270 09:56 18.11.2019
4209 Rain 3 1009 100 1100 4.1 270 09:38 18.11.2019
4210 Rain 3 1009 100 800 3.1 260 09:19 18.11.2019
4211 Rain 3 1008 100 1500 2.1 250 08:45 18.11.2019
4212 Mist 2 1008 100 3500 2.6 280 08:22 18.11.2019
4213 Mist 2 1007 100 1200 1.5 240 07:49 18.11.2019
4214 Mist 2 1007 100 1200 1.5 240 07:30 18.11.2019
4215 Mist 2 1007 100 1600 1.5 300 06:57 18.11.2019
4216 Fog 2 1006 98 800 3.1 260 06:39 18.11.2019
4217 Fog 3 1006 98 700 2.1 270 06:20 18.11.2019
4218 Fog 3 1005 100 900 2.1 280 05:25 18.11.2019
4219 Mist 3 1005 98 5000 1.5 290 03:28 18.11.2019
4220 Rain 3 1004 99 10000 3.1 270 01:33 18.11.2019
4221 Rain 3 1004 100 10000 1.5 260 00:46 18.11.2019
4222 Rain 2 1004 93 10000 0.5 0 23:57 17.11.2019
4223 Rain 3 1004 93 10000 1.5 290 23:39 17.11.2019
4224 Rain 3 1004 93 10000 2.1 270 23:19 17.11.2019
4225 Rain 3 1004 93 10000 0.5 0 22:54 17.11.2019
4226 Rain 3 1004 93 10000 0.5 0 22:36 17.11.2019
4227 Rain 3 1004 93 10000 1 0 22:18 17.11.2019
4228 Drizzle 3 1004 100 10000 2.6 280 21:42 17.11.2019
4229 Rain 3 1004 100 10000 3.1 290 21:20 17.11.2019
4230 Rain 2 1004 100 10000 3.1 290 20:58 17.11.2019
4231 Rain 2 1003 100 10000 2.6 270 20:39 17.11.2019
4232 Rain 2 1003 100 10000 3.1 280 20:20 17.11.2019
4233 Rain 3 1003 100 10000 3.1 280 19:57 17.11.2019
4234 Rain 3 1004 100 10000 3.1 270 19:38 17.11.2019
4235 Rain 3 1004 93 8000 2.6 260 19:20 17.11.2019
4236 Rain 3 1004 93 8000 2.6 260 18:56 17.11.2019
4237 Rain 3 1004 93 7000 1 0 18:56 17.11.2019
4238 Rain 3 1004 93 8000 2.6 260 18:56 17.11.2019
4239 Rain 3 1004 93 7000 1 0 18:38 17.11.2019
4240 Rain 3 1003 93 8000 2.1 270 18:19 17.11.2019
4241 Rain 3 1003 93 8000 2.1 270 17:58 17.11.2019
4242 Rain 3 1003 93 6000 1 0 17:39 17.11.2019
4243 Rain 3 1002 93 4000 1.5 270 17:20 17.11.2019
4244 Rain 3 1002 93 4000 1.5 270 16:59 17.11.2019
4245 Rain 3 1003 100 6000 1 0 16:40 17.11.2019
4246 Rain 3 1003 93 6000 1 0 16:21 17.11.2019
4247 Rain 3 1003 93 6000 1 0 15:55 17.11.2019
4248 Rain 3 1003 93 6000 1 0 15:55 17.11.2019
4249 Rain 3 1003 93 7000 1.5 120 15:37 17.11.2019
4250 Rain 3 1003 93 8000 1.5 70 15:18 17.11.2019
4251 Rain 3 1003 93 8000 1.5 70 14:56 17.11.2019
4252 Rain 3 1003 93 8000 1 0 14:37 17.11.2019
4253 Rain 2 1003 100 6000 1.5 120 14:19 17.11.2019
4254 Rain 2 1003 100 6000 1.5 120 14:19 17.11.2019
4255 Rain 2 1003 100 8000 1.5 90 13:56 17.11.2019
4256 Rain 2 1003 100 8000 1.5 90 13:38 17.11.2019
4257 Rain 2 1003 100 8000 2.6 100 13:18 17.11.2019
4258 Rain 2 1003 100 8000 2.6 100 13:18 17.11.2019
4259 Rain 2 1004 99 5000 2.6 110 12:44 17.11.2019
4260 Rain 2 1005 99 5000 4.1 100 12:22 17.11.2019
4261 Rain 1 1005 99 5000 4.1 100 11:57 17.11.2019
4262 Rain 2 1005 99 5000 2.6 90 11:39 17.11.2019
4263 Rain 2 1005 99 5000 4.1 90 11:20 17.11.2019
4264 Rain 2 1005 99 5000 3.1 90 10:44 17.11.2019
4265 Rain 2 1006 100 5000 2.6 90 10:23 17.11.2019
4266 Rain 2 1006 100 5000 2.6 90 09:57 17.11.2019
4267 Rain 2 1006 100 5000 2.6 90 09:57 17.11.2019
4268 Rain 2 1006 100 6000 2.1 80 09:39 17.11.2019
4269 Rain 1 1006 100 6000 3.1 90 09:21 17.11.2019
4270 Rain 2 1006 100 8000 2.1 100 08:40 17.11.2019
4271 Rain 1 1006 100 8000 2.1 70 08:20 17.11.2019
4272 Rain 1 1007 99 8000 3.1 60 07:48 17.11.2019
4273 Rain 1 1007 99 8000 3.1 60 07:48 17.11.2019
4274 Rain 1 1007 99 8000 3.1 60 07:28 17.11.2019
4275 Rain 2 1007 99 5000 1.5 90 06:59 17.11.2019
4276 Rain 2 1007 99 5000 0.5 0 06:33 17.11.2019
4277 Rain 2 1007 99 5000 1 250 05:54 17.11.2019
4278 Clouds 1 1008 93 10000 1.5 250 04:24 17.11.2019
4279 Rain 2 1009 93 10000 1 0 03:49 17.11.2019
4280 Rain 2 1009 93 10000 1 0 03:29 17.11.2019
4281 Rain 2 1010 100 7000 1.5 270 02:28 17.11.2019
4282 Rain 3 1011 100 10000 2.1 260 01:41 17.11.2019
4283 Clouds 3 1011 93 10000 1 0 00:54 17.11.2019
4284 Clouds 3 1011 93 10000 1.5 230 00:22 17.11.2019
4285 Clouds 3 1011 86 10000 1.5 250 23:47 16.11.2019
4286 Clouds 3 1011 93 10000 1 0 23:20 16.11.2019
4287 Clouds 3 1011 93 10000 1 0 23:20 16.11.2019
4288 Clouds 3 1011 93 10000 1 0 22:59 16.11.2019
4289 Clouds 3 1011 93 10000 1 0 22:59 16.11.2019
4290 Clouds 3 1011 93 10000 0.5 0 22:40 16.11.2019
4291 Clouds 3 1011 86 10000 1 0 22:19 16.11.2019
4292 Clouds 3 1011 86 10000 1 0 21:56 16.11.2019
4293 Clouds 3 1011 93 10000 3.1 290 21:37 16.11.2019
4294 Clouds 3 1011 93 10000 3.6 270 21:19 16.11.2019
4295 Clouds 3 1011 93 10000 4.1 280 20:41 16.11.2019
4296 Clouds 3 1011 93 10000 4.1 260 20:21 16.11.2019
4297 Clouds 4 1011 93 10000 4.1 260 19:58 16.11.2019
4298 Clouds 4 1012 86 10000 4.1 260 19:39 16.11.2019
4299 Clouds 3 1012 80 10000 2.1 280 19:20 16.11.2019
4300 Clouds 4 1011 86 10000 3.1 260 18:46 16.11.2019
4301 Clouds 4 1011 86 10000 3.1 260 18:28 16.11.2019
4302 Clouds 5 1011 75 10000 3.6 250 17:56 16.11.2019
4303 Clouds 5 1011 49 10000 4.6 110 17:38 16.11.2019
4304 Clouds 5 1011 49 10000 4.6 110 17:19 16.11.2019
4305 Clouds 4 1012 95 0 0.68 185 16:48 16.11.2019
4306 Clouds 4 1012 95 0 0.68 185 16:30 16.11.2019
4307 Clouds 5 1012 94 0 0.45 49 15:58 16.11.2019
4308 Clouds 6 1010 46 10000 7.7 40 15:39 16.11.2019
4309 Clouds 6 1010 40 10000 7.7 30 15:20 16.11.2019
4310 Clouds 7 1010 40 10000 7.7 30 14:57 16.11.2019
4311 Clouds 6 1009 43 10000 6.7 40 14:38 16.11.2019
4312 Clouds 7 1009 70 10000 2.6 0 14:19 16.11.2019
4313 Clouds 7 1009 75 10000 3.1 280 13:54 16.11.2019
4314 Clouds 7 1009 75 10000 3.1 280 13:36 16.11.2019
4315 Clouds 7 1009 75 10000 4.6 260 13:18 16.11.2019
4316 Clouds 7 1009 81 10000 5.7 260 12:42 16.11.2019
4317 Rain 6 1009 81 10000 3.6 260 12:22 16.11.2019
4318 Rain 6 1009 81 10000 3.6 260 11:55 16.11.2019
4319 Clouds 6 1009 81 10000 2.1 260 11:37 16.11.2019
4320 Clouds 4 1009 86 10000 3.1 260 11:18 16.11.2019
4321 Clouds 3 1009 86 10000 2.6 260 10:42 16.11.2019
4322 Rain 3 1009 93 9000 2.6 260 10:24 16.11.2019
4323 Rain 3 1009 93 9000 2.6 260 09:56 16.11.2019
4324 Rain 3 1009 93 9000 2.6 260 09:56 16.11.2019
4325 Rain 2 1008 93 7000 4.1 280 09:38 16.11.2019
4326 Rain 2 1008 93 7000 3.6 280 09:19 16.11.2019
4327 Rain 2 1008 93 6000 5.1 260 08:40 16.11.2019
4328 Rain 1 1007 93 5000 4.6 260 08:20 16.11.2019
4329 Rain 1 1007 93 5000 3.1 250 07:43 16.11.2019
4330 Mist 1 1006 93 5000 3.6 260 07:22 16.11.2019
4331 Mist 1 1006 93 5000 3.6 260 06:57 16.11.2019
4332 Mist 1 1006 100 5000 3.6 260 06:39 16.11.2019
4333 Mist 1 1005 100 5000 4.1 260 06:19 16.11.2019
4334 Mist 1 1005 98 5000 2.1 260 04:21 16.11.2019
4335 Mist 0 1005 98 5000 1.5 280 03:26 16.11.2019
4336 Clouds 2 1004 100 10000 1 0 02:36 16.11.2019
4337 Rain 2 1004 93 10000 2.6 270 01:32 16.11.2019
4338 Rain 2 1004 93 10000 2.1 260 00:47 16.11.2019
4339 Rain 2 1004 93 10000 2.1 260 00:28 16.11.2019
4340 Rain 3 1003 93 10000 3.1 280 23:44 15.11.2019
4341 Rain 3 1003 93 10000 4.6 260 23:23 15.11.2019
4342 Rain 2 1003 93 10000 4.6 260 22:59 15.11.2019
4343 Rain 3 1003 93 10000 4.6 260 22:39 15.11.2019
4344 Rain 3 1003 93 10000 1.5 210 22:19 15.11.2019
4345 Rain 3 1003 93 10000 1.5 210 21:55 15.11.2019
4346 Rain 2 1002 93 10000 0.5 0 21:37 15.11.2019
4347 Rain 3 1002 93 10000 0.5 0 21:19 15.11.2019
4348 Rain 3 1002 93 10000 0.5 0 20:56 15.11.2019
4349 Rain 3 1002 93 10000 1.5 260 20:38 15.11.2019
4350 Rain 3 1002 93 10000 4.1 250 20:19 15.11.2019
4351 Rain 3 1002 93 10000 4.1 250 19:56 15.11.2019
4352 Rain 3 1003 93 10000 4.1 260 19:37 15.11.2019
4353 Rain 3 1002 93 10000 3.1 290 19:19 15.11.2019
4354 Rain 5 1002 93 10000 3.1 290 18:42 15.11.2019
4355 Rain 6 1002 93 10000 0.5 0 18:24 15.11.2019
4356 Rain 5 1002 93 10000 0.5 0 17:58 15.11.2019
4357 Rain 6 1002 93 8000 3.1 280 17:39 15.11.2019
4358 Rain 6 1002 93 10000 4.6 270 17:21 15.11.2019
4359 Rain 6 1001 93 10000 4.6 270 16:54 15.11.2019
4360 Rain 6 1001 93 10000 4.6 270 16:36 15.11.2019
4361 Drizzle 6 1001 93 10000 4.6 280 16:18 15.11.2019
4362 Clouds 5 1001 87 10000 3.6 260 15:38 15.11.2019
4363 Clouds 5 1000 93 10000 3.6 280 15:19 15.11.2019
4364 Clouds 3 1000 93 10000 3.6 280 14:56 15.11.2019
4365 Clouds 5 1001 93 10000 4.1 280 14:37 15.11.2019
4366 Drizzle 7 1001 93 10000 3.6 270 14:19 15.11.2019
4367 Drizzle 8 1001 93 10000 3.6 270 13:56 15.11.2019
4368 Rain 7 1001 93 10000 1.5 210 13:38 15.11.2019
4369 Rain 7 1002 87 10000 2.1 310 13:20 15.11.2019
4370 Rain 7 1002 87 10000 2.1 310 12:57 15.11.2019
4371 Rain 6 1001 86 10000 4.6 280 12:37 15.11.2019
4372 Rain 6 1001 86 10000 4.6 270 12:18 15.11.2019
4373 Clouds 6 1001 86 10000 4.6 270 11:55 15.11.2019
4374 Clouds 7 1000 86 10000 3.6 260 11:37 15.11.2019
4375 Clouds 5 1000 80 10000 4.1 250 11:19 15.11.2019
4376 Clouds 5 1000 80 10000 3.6 240 10:39 15.11.2019
4377 Clouds 5 999 86 10000 2.6 260 10:21 15.11.2019
4378 Clouds 4 999 86 10000 2.6 260 09:58 15.11.2019
4379 Clouds 4 999 86 10000 2.6 260 09:58 15.11.2019
4380 Clouds 4 999 86 10000 6.2 270 09:39 15.11.2019
4381 Clouds 4 998 57 10000 4.1 100 09:18 15.11.2019
4382 Rain 3 998 75 10000 3.1 270 08:42 15.11.2019
4383 Rain 2 999 66 10000 3.6 60 08:21 15.11.2019
4384 Rain 2 999 66 10000 3.6 60 08:21 15.11.2019
4385 Rain 0 1010 79 0 3.13 130 07:46 15.11.2019
4386 Rain 0 1010 79 0 3.13 130 07:26 15.11.2019
4387 Clouds 0 1010 79 0 6.71 189 06:37 15.11.2019
4388 Clouds 3 998 53 10000 6.2 50 05:57 15.11.2019
4389 Clouds 3 998 53 10000 9.8 50 05:39 15.11.2019
4390 Clouds -1 996 84 0 5.48 176 04:58 15.11.2019
4391 Clouds 0 1010 66 0 6.26 133 03:46 15.11.2019
4392 Clouds 0 1011 62 0 5.81 197 02:51 15.11.2019
4393 Clouds 1 999 43 10000 6.7 80 02:18 15.11.2019
4394 Clouds -1 1000 96 0 4.98 174 01:32 15.11.2019
4395 Clouds -1 1001 96 0 0.45 239 00:46 15.11.2019
4396 Clouds -1 1000 96 0 0.45 316 00:27 15.11.2019
4397 Clouds -1 1001 96 0 0.45 355 23:49 14.11.2019
4398 Clouds -1 1001 97 0 1.79 348 23:27 14.11.2019
4399 Clouds -1 1001 96 0 4.86 170 22:57 14.11.2019
4400 Clouds -1 1001 81 0 4.86 170 22:39 14.11.2019
4401 Clouds -1 1001 81 0 4.86 170 22:39 14.11.2019
4402 Clouds -1 1000 92 0 4.86 170 22:19 14.11.2019
4403 Clouds -1 1002 96 0 4.86 170 21:42 14.11.2019
4404 Clouds 1 1002 42 10000 9.3 30 21:23 14.11.2019
4405 Clouds 0 1003 96 0 4.86 170 20:57 14.11.2019
4406 Clouds 0 1003 96 0 0.45 84 20:39 14.11.2019
4407 Clouds 0 1003 96 0 4.92 170 20:21 14.11.2019
4408 Clouds 0 1004 96 0 4.93 169 19:58 14.11.2019
4409 Clouds 0 1004 96 0 4.93 169 19:58 14.11.2019
4410 Clouds 0 1004 96 0 4.93 169 19:40 14.11.2019
4411 Clouds 1 1003 60 10000 4.1 0 19:18 14.11.2019
4412 Clouds 0 1003 86 10000 2.1 0 18:54 14.11.2019
4413 Clouds -1 1003 86 10000 2.1 0 18:36 14.11.2019
4414 Clouds 2 1003 34 10000 5.7 60 18:18 14.11.2019
4415 Clouds 2 1003 34 10000 5.7 60 17:38 14.11.2019
4416 Clouds 2 1003 34 10000 5.7 60 17:38 14.11.2019
4417 Clouds 2 1003 74 10000 2.1 0 17:20 14.11.2019
4418 Clouds 2 1004 80 10000 3.1 250 16:58 14.11.2019
4419 Clouds 2 1004 80 10000 3.1 250 16:39 14.11.2019
4420 Clouds 3 1004 78 10000 2.6 0 16:20 14.11.2019
4421 Clouds 3 1004 78 10000 2.6 0 16:20 14.11.2019
4422 Clouds 3 1004 78 10000 2.6 0 15:58 14.11.2019
4423 Clouds 4 1004 78 10000 1.5 0 15:39 14.11.2019
4424 Clouds 3 1004 69 10000 2.1 0 15:20 14.11.2019
4425 Clouds 4 1004 69 10000 2.1 0 14:58 14.11.2019
4426 Clouds 4 1004 69 10000 2.6 250 14:39 14.11.2019
4427 Clouds 4 1004 69 10000 2.6 250 14:39 14.11.2019
4428 Rain 4 1005 69 10000 5.7 260 14:21 14.11.2019
4429 Rain 4 1005 69 10000 6.2 260 13:42 14.11.2019
4430 Rain 4 1005 69 10000 6.2 260 13:42 14.11.2019
4431 Rain 4 1005 74 10000 5.1 270 13:23 14.11.2019
4432 Rain 4 1005 74 10000 5.1 270 12:59 14.11.2019
4433 Rain 5 1006 69 10000 6.2 260 12:40 14.11.2019
4434 Rain 5 1007 69 10000 7.2 270 12:21 14.11.2019
4435 Rain 4 1007 69 10000 7.2 270 11:56 14.11.2019
4436 Rain 4 1007 74 10000 7.2 270 11:37 14.11.2019
4437 Rain 4 1007 74 10000 7.2 270 11:37 14.11.2019
4438 Clouds 0 1007 69 10000 7.7 260 11:19 14.11.2019
4439 Clouds 0 1007 69 10000 7.7 260 10:57 14.11.2019
4440 Clouds 0 1007 69 10000 8.2 270 10:37 14.11.2019
4441 Clouds -1 1007 73 10000 8.7 260 10:19 14.11.2019
4442 Rain 1 1007 73 10000 7.7 270 09:42 14.11.2019
4443 Clouds -2 1007 79 10000 6.2 270 09:24 14.11.2019
4444 Clouds -2 1007 79 10000 6.2 270 08:59 14.11.2019
4445 Clouds -2 1007 79 10000 6.2 270 08:40 14.11.2019
4446 Clouds -2 1007 79 10000 6.7 270 08:22 14.11.2019
4447 Clouds -2 1006 79 10000 7.2 270 07:42 14.11.2019
4448 Clouds -3 1007 86 10000 4.6 270 07:24 14.11.2019
4449 Clouds -3 1007 86 10000 4.6 270 07:23 14.11.2019
4450 Clouds -3 1006 86 10000 5.1 270 06:46 14.11.2019
4451 Clouds -2 1006 86 10000 3.1 280 06:20 14.11.2019
4452 Clear -3 1006 86 10000 2.6 280 05:27 14.11.2019
4453 Clouds -2 1007 86 10000 2.1 270 04:35 14.11.2019
4454 Clouds -1 1007 92 10000 0.5 0 02:51 14.11.2019
4455 Clouds -1 1007 92 10000 0.5 0 02:29 14.11.2019
4456 Fog -1 1008 100 10000 0.5 0 01:40 14.11.2019
4457 Fog -1 1008 100 10000 0.5 0 00:56 14.11.2019
4458 Fog -1 1008 100 10000 0.5 0 00:36 14.11.2019
4459 Fog 0 1009 90 10000 0.5 0 00:18 14.11.2019
4460 Fog 0 1009 90 10000 1 0 23:38 13.11.2019
4461 Fog 0 1009 90 10000 1 0 23:38 13.11.2019
4462 Mist 0 1008 94 5000 1.5 300 23:19 13.11.2019
4463 Clouds 1 1008 94 10000 1 250 22:42 13.11.2019
4464 Clouds -2 1008 94 10000 0.5 0 22:23 13.11.2019
4465 Clouds -2 1008 94 10000 0.5 0 22:23 13.11.2019
4466 Clouds -2 1008 94 10000 0.5 0 21:57 13.11.2019
4467 Clouds -1 1008 94 10000 1.5 270 21:39 13.11.2019
4468 Clouds -1 1008 94 10000 0.5 0 21:21 13.11.2019
4469 Clouds -1 1008 94 10000 0.5 0 20:58 13.11.2019
4470 Clouds -1 1008 94 10000 0.5 0 20:58 13.11.2019
4471 Clouds -1 1008 94 10000 1 0 20:38 13.11.2019
4472 Clouds -1 1008 94 10000 1 0 20:38 13.11.2019
4473 Clouds 0 1007 94 9000 2.1 260 20:20 13.11.2019
4474 Clouds 0 1007 94 9000 2.1 260 19:59 13.11.2019
4475 Clouds 0 1007 94 8000 1.5 320 19:40 13.11.2019
4476 Clouds 0 1007 100 8000 1.5 270 19:18 13.11.2019
4477 Clouds 1 1007 94 8000 0.5 0 18:56 13.11.2019
4478 Clouds 1 1007 94 8000 0.5 0 18:37 13.11.2019
4479 Clouds 1 1007 100 8000 0.5 0 18:18 13.11.2019
4480 Clouds 1 1007 100 8000 0.5 0 17:56 13.11.2019
4481 Clouds 1 1006 93 7000 1 70 17:38 13.11.2019
4482 Clouds 0 1006 100 6000 0.5 0 17:19 13.11.2019
4483 Clouds 1 1006 100 6000 0.5 0 17:19 13.11.2019
4484 Rain 1 1006 93 8000 1 160 16:56 13.11.2019
4485 Rain 1 1006 93 8000 1 160 16:37 13.11.2019
4486 Rain 1 1006 93 8000 0.5 0 16:19 13.11.2019
4487 Rain 1 1006 93 8000 0.5 0 15:57 13.11.2019
4488 Rain 1 1005 93 8000 0.5 0 15:37 13.11.2019
4489 Rain 1 1005 98 8000 0.5 0 15:18 13.11.2019
4490 Rain 1 1005 100 8000 1 260 14:41 13.11.2019
4491 Rain 1 1004 93 8000 0.5 0 14:21 13.11.2019
4492 Rain 1 1004 100 10000 1.99 351 13:54 13.11.2019
4493 Rain 1 1004 100 10000 1.45 346 13:36 13.11.2019
4494 Rain 1 1004 100 6000 0.5 0 13:18 13.11.2019
4495 Mist 1 1004 96 4000 0.5 0 12:41 13.11.2019
4496 Mist 1 1004 96 2500 0.5 0 12:23 13.11.2019
4497 Mist 1 1004 96 2500 0.5 0 11:57 13.11.2019
4498 Snow 1 1004 96 2000 1.45 346 11:38 13.11.2019
4499 Snow 1 1004 96 2000 1.45 346 11:38 13.11.2019
4500 Snow 1 1004 97 2000 0.59 310 11:19 13.11.2019
4501 Snow 1 1004 97 2000 0.59 310 10:55 13.11.2019
4502 Snow 1 1004 97 2000 0.59 310 10:37 13.11.2019
4503 Snow 1 1004 97 2000 0.5 0 10:19 13.11.2019
4504 Snow 0 1004 97 2000 0.5 0 09:43 13.11.2019
4505 Snow 0 1004 97 2000 1 290 09:21 13.11.2019
4506 Rain 0 1004 97 1500 0.5 0 08:42 13.11.2019
4507 Snow 0 1003 98 2500 0.5 0 08:23 13.11.2019
4508 Snow 0 1003 98 2500 0.5 0 07:59 13.11.2019
4509 Snow 0 1003 98 2500 0.65 302 07:40 13.11.2019
4510 Snow 0 1003 98 2500 0.65 302 07:18 13.11.2019
4511 Snow 0 1003 98 2500 0.65 302 07:18 13.11.2019
4512 Snow 0 1003 98 2500 0.5 0 06:42 13.11.2019
4513 Snow 0 1003 98 2500 0.5 0 06:19 13.11.2019
4514 Snow 0 1003 98 2500 1 260 05:48 13.11.2019
4515 Snow 0 1003 98 2200 1.5 260 05:19 13.11.2019
4516 Snow 0 1003 98 2400 1 280 03:56 13.11.2019
4517 Snow 0 1003 97 5000 1 0 01:52 13.11.2019
4518 Snow 0 1003 97 5000 1 0 01:27 13.11.2019
4519 Snow 0 1004 97 2700 1 0 00:43 13.11.2019
4520 Snow 0 1004 97 1400 1 250 23:56 12.11.2019
4521 Snow 0 1005 97 2000 0.5 0 23:38 12.11.2019
4522 Snow 0 1005 97 1500 0.5 0 23:18 12.11.2019
4523 Snow 0 1005 97 1500 0.5 0 22:42 12.11.2019
4524 Snow 0 1005 97 2000 1 110 22:19 12.11.2019
4525 Snow 0 1005 97 2000 1 110 21:56 12.11.2019
4526 Rain 0 1005 97 6000 0.5 0 21:38 12.11.2019
4527 Rain 0 1005 97 6000 0.5 0 21:38 12.11.2019
4528 Rain 1 1006 93 9000 1 0 21:19 12.11.2019
4529 Clouds 1 1006 93 9000 1 0 20:55 12.11.2019
4530 Rain 2 1006 93 10000 2.1 110 20:36 12.11.2019
4531 Rain 2 1006 100 8000 1.5 330 20:18 12.11.2019
4532 Rain 2 1006 100 8000 1.5 330 19:55 12.11.2019
4533 Rain 2 1006 100 8000 1.5 330 19:55 12.11.2019
4534 Rain 2 1005 100 10000 1.5 280 19:37 12.11.2019
4535 Rain 3 1005 93 10000 1.5 250 19:18 12.11.2019
4536 Rain 3 1005 86 10000 0.5 0 18:55 12.11.2019
4537 Rain 3 1005 86 10000 0.5 0 18:36 12.11.2019
4538 Rain 3 1005 93 10000 1.5 260 18:18 12.11.2019
4539 Rain 4 1005 93 10000 1.5 260 17:55 12.11.2019
4540 Clouds 4 1006 86 10000 1 0 17:36 12.11.2019
4541 Clouds 4 1006 86 10000 1 0 17:36 12.11.2019
4542 Clouds 4 1006 86 10000 1 0 17:36 12.11.2019
4543 Clouds 4 1006 86 10000 1 290 17:18 12.11.2019
4544 Clouds 4 1006 86 10000 1 270 16:42 12.11.2019
4545 Clouds 4 1006 86 10000 0.5 0 16:24 12.11.2019
4546 Clouds 4 1006 86 10000 0.5 0 15:57 12.11.2019
4547 Clouds 4 1006 86 10000 0.5 0 15:37 12.11.2019
4548 Clouds 3 1006 86 10000 1.21 16 15:18 12.11.2019
4549 Rain 4 1006 86 10000 0.5 0 14:42 12.11.2019
4550 Drizzle 4 1007 86 10000 1.5 330 14:20 12.11.2019
4551 Drizzle 4 1007 86 10000 1.5 330 13:58 12.11.2019
4552 Drizzle 4 1007 86 10000 1.5 330 13:58 12.11.2019
4553 Rain 4 1007 86 10000 1.5 10 13:39 12.11.2019
4554 Clouds 4 1007 86 10000 1 0 13:19 12.11.2019
4555 Clouds 4 1007 86 10000 1 0 12:59 12.11.2019
4556 Rain 4 1008 86 10000 1.29 38 12:39 12.11.2019
4557 Rain 4 1008 93 10000 0.5 0 12:18 12.11.2019
4558 Rain 3 1008 93 8000 0.5 0 11:43 12.11.2019
4559 Rain 3 1009 93 6000 0.5 0 11:24 12.11.2019
4560 Rain 3 1009 93 6000 0.5 0 10:58 12.11.2019
4561 Drizzle 2 1009 93 6000 0.5 0 10:40 12.11.2019
4562 Rain 3 1009 93 5000 0.5 0 10:22 12.11.2019
4563 Rain 2 1009 93 5000 0.5 0 09:59 12.11.2019
4564 Rain 2 1010 93 5000 1.32 58 09:38 12.11.2019
4565 Snow 1 1010 100 5000 0.5 0 09:18 12.11.2019
4566 Clouds 2 1010 84 6000 0.5 0 08:48 12.11.2019
4567 Clouds 1 1010 84 6000 0.5 0 08:28 12.11.2019
4568 Mist 1 1010 97 5000 0.5 0 07:42 12.11.2019
4569 Mist 1 1009 97 5000 1.5 80 07:24 12.11.2019
4570 Rain 1 1010 93 5000 1.5 80 06:51 12.11.2019
4571 Rain 2 1009 86 6000 1.5 0 06:24 12.11.2019
4572 Rain 2 1009 93 7000 1.5 150 05:52 12.11.2019
4573 Rain 2 1009 86 7000 0.5 0 04:51 12.11.2019
4574 Rain 2 1009 86 10000 1 250 04:20 12.11.2019
4575 Clouds 2 1008 80 10000 1.5 210 01:58 12.11.2019
4576 Clouds 2 1008 80 10000 1.5 240 01:27 12.11.2019
4577 Snow 1 1019 89 0 0.87 64 00:53 12.11.2019
4578 Snow 1 1019 88 0 0.45 341 00:33 12.11.2019
4579 Clouds 2 1007 80 10000 1.5 280 23:55 11.11.2019
4580 Clouds 1 1007 86 10000 2.6 100 23:36 11.11.2019
4581 Clouds 1 1007 80 10000 1.5 0 23:18 11.11.2019
4582 Clouds 1 1007 80 10000 2.1 120 22:38 11.11.2019
4583 Clouds 1 1006 85 10000 1.5 0 22:20 11.11.2019
4584 Clouds 1 1006 85 10000 1.5 0 21:58 11.11.2019
4585 Clouds 1 1006 85 10000 4.1 260 21:39 11.11.2019
4586 Clouds 1 1006 85 10000 3.6 260 21:20 11.11.2019
4587 Clouds 1 1010 92 0 1.14 334 20:55 11.11.2019
4588 Clouds 1 1010 92 0 1.14 334 20:37 11.11.2019
4589 Clouds 2 1006 84 10000 1.5 0 20:19 11.11.2019
4590 Clouds 2 1010 91 0 1.42 182 19:42 11.11.2019
4591 Clouds 2 1010 90 0 1.42 182 19:19 11.11.2019
4592 Clouds 3 1006 84 10000 4.6 250 18:57 11.11.2019
4593 Clouds 2 1009 90 0 1.42 182 18:39 11.11.2019
4594 Clouds 3 1006 84 10000 1.5 270 18:20 11.11.2019
4595 Clouds 3 1006 84 10000 2.1 240 17:44 11.11.2019
4596 Clouds 4 1006 56 10000 4.1 270 17:26 11.11.2019
4597 Clouds 5 1006 50 10000 3.6 40 16:55 11.11.2019
4598 Clouds 6 1006 50 10000 3.6 40 16:37 11.11.2019
4599 Clouds 6 1006 50 10000 3.6 40 16:37 11.11.2019
4600 Clouds 6 1006 50 10000 3.6 40 16:37 11.11.2019
4601 Clouds 6 1006 78 10000 2.6 0 16:19 11.11.2019
4602 Clouds 6 1006 78 10000 2.6 0 15:41 11.11.2019
4603 Clouds 7 1006 78 10000 2.6 0 15:20 11.11.2019
4604 Clouds 7 1006 78 10000 2.6 0 15:20 11.11.2019
4605 Clouds 9 1006 78 10000 2.6 0 14:55 11.11.2019
4606 Clouds 8 1007 46 10000 3.6 0 14:37 11.11.2019
4607 Clouds 8 1007 46 10000 3.6 250 14:18 11.11.2019
4608 Clouds 8 1007 46 10000 3.6 250 14:18 11.11.2019
4609 Clouds 6 1008 42 10000 6.2 260 13:40 11.11.2019
4610 Clouds 6 1009 45 10000 6.7 260 13:21 11.11.2019
4611 Clouds 7 1009 45 10000 6.7 260 12:58 11.11.2019
4612 Clouds 7 1009 45 10000 6.7 260 12:58 11.11.2019
4613 Clouds 7 1009 48 10000 5.7 270 12:40 11.11.2019
4614 Clouds 6 1010 52 10000 6.7 260 12:22 11.11.2019
4615 Clouds 6 1010 52 10000 6.7 260 11:58 11.11.2019
4616 Clouds 7 1011 60 10000 6.7 270 11:40 11.11.2019
4617 Clouds 3 1012 69 10000 6.2 270 11:21 11.11.2019
4618 Clouds 2 1013 69 10000 5.7 270 10:43 11.11.2019
4619 Clouds 1 1013 80 10000 2.1 250 10:19 11.11.2019
4620 Clouds 2 1013 80 10000 2.1 250 09:58 11.11.2019
4621 Clouds 2 1013 80 10000 2.1 250 09:58 11.11.2019
4622 Clear 1 1014 86 10000 1 0 09:39 11.11.2019
4623 Clear 1 1014 86 10000 1 0 09:39 11.11.2019
4624 Clouds 0 1014 92 10000 1.5 130 09:19 11.11.2019
4625 Clear -1 1014 86 10000 1 0 08:41 11.11.2019
4626 Clouds -1 1014 86 10000 1 0 08:22 11.11.2019
4627 Clouds -1 1014 86 10000 1 0 08:22 11.11.2019
4628 Clouds -2 1015 92 10000 0.5 0 07:57 11.11.2019
4629 Clouds -2 1015 92 10000 1 0 07:37 11.11.2019
4630 Clouds -2 1014 92 10000 1.5 230 07:19 11.11.2019
4631 Clouds -2 1015 92 10000 0.5 0 06:48 11.11.2019
4632 Clouds -2 1015 92 10000 1 0 06:23 11.11.2019
4633 Clouds -2 1015 92 10000 1.5 250 05:51 11.11.2019
4634 Clear -1 1015 92 10000 1 0 04:43 11.11.2019
4635 Clear -1 1015 92 10000 1 250 03:25 11.11.2019
4636 Clear -1 1015 92 10000 0.5 0 02:30 11.11.2019
4637 Clouds -2 1016 92 10000 0.5 0 01:56 11.11.2019
4638 Clouds -2 1016 92 10000 0.5 0 01:35 11.11.2019
4639 Clouds -2 1016 92 10000 1 0 00:50 11.11.2019
4640 Clouds -2 1016 92 10000 1 0 00:26 11.11.2019
4641 Clouds -2 1016 92 10000 1.5 270 23:55 10.11.2019
4642 Clouds -1 1016 92 10000 2.1 260 23:36 10.11.2019
4643 Clear -1 1016 92 10000 1.5 230 23:18 10.11.2019
4644 Clear -1 1016 92 10000 1.5 230 22:54 10.11.2019
4645 Clear -1 1016 92 10000 1 0 22:36 10.11.2019
4646 Clear -1 1016 92 10000 1 340 22:18 10.11.2019
4647 Clear 0 1016 81 10000 1.5 230 21:40 10.11.2019
4648 Clear 0 1015 81 10000 0.5 0 21:21 10.11.2019
4649 Clear 0 1015 81 10000 0.5 0 20:58 10.11.2019
4650 Clear 0 1015 81 10000 0.5 0 20:39 10.11.2019
4651 Clear 1 1015 86 10000 0.5 0 20:21 10.11.2019
4652 Clear 1 1015 86 10000 0.5 0 19:55 10.11.2019
4653 Clear 1 1015 86 10000 0.5 0 19:37 10.11.2019
4654 Clear 1 1015 86 10000 1.5 290 19:18 10.11.2019
4655 Clear 1 1015 86 10000 1.5 290 19:18 10.11.2019
4656 Clear 0 1015 86 10000 1.5 290 18:55 10.11.2019
4657 Clear 1 1014 80 10000 0.5 0 18:37 10.11.2019
4658 Clear 1 1014 87 10000 1 170 18:19 10.11.2019
4659 Clear 1 1014 87 10000 1 170 17:55 10.11.2019
4660 Clear 3 1013 87 10000 0.5 0 17:37 10.11.2019
4661 Clouds 3 1012 73 10000 1 0 17:19 10.11.2019
4662 Clouds 3 1012 73 10000 0.5 0 16:44 10.11.2019
4663 Clouds 4 1012 73 10000 0.5 0 16:25 10.11.2019
4664 Clear 4 1013 73 0 1.34 31 15:57 10.11.2019
4665 Clear 4 1013 73 0 1.34 31 15:57 10.11.2019
4666 Clouds 6 1011 73 10000 1.5 180 15:38 10.11.2019
4667 Clouds 7 1011 73 10000 1.5 170 15:19 10.11.2019
4668 Clouds 7 1011 73 10000 1.5 170 15:19 10.11.2019
4669 Clouds 7 1011 73 10000 1.5 170 14:58 10.11.2019
4670 Clouds 7 1011 73 10000 2.1 170 14:38 10.11.2019
4671 Clouds 8 1010 51 10000 1 0 14:20 10.11.2019
4672 Clouds 8 1010 51 10000 1 0 13:55 10.11.2019
4673 Clouds 7 1010 52 10000 1.5 170 13:37 10.11.2019
4674 Clouds 7 1010 56 10000 1.5 160 13:19 10.11.2019
4675 Clouds 8 1010 52 10000 1 0 12:41 10.11.2019
4676 Clouds 6 1010 60 10000 1.5 180 12:20 10.11.2019
4677 Clouds 6 1010 60 10000 1.5 180 12:20 10.11.2019
4678 Clouds 6 1011 56 10000 3.6 260 11:56 10.11.2019
4679 Clouds 4 1011 56 10000 3.6 260 11:38 10.11.2019
4680 Clouds 3 1011 69 10000 2.1 240 11:19 10.11.2019
4681 Rain 3 1011 69 10000 2.1 230 10:42 10.11.2019
4682 Rain 3 1011 69 10000 2.1 230 10:22 10.11.2019
4683 Clouds 2 1011 80 10000 2.6 250 09:59 10.11.2019
4684 Clouds 2 1011 80 10000 1.5 210 09:39 10.11.2019
4685 Clouds 0 1011 86 10000 2.6 250 09:19 10.11.2019
4686 Clouds 0 1011 60 10000 2.6 250 08:40 10.11.2019
4687 Clouds -3 1011 87 10000 2.6 250 08:21 10.11.2019
4688 Clouds -3 1011 87 10000 2.6 250 07:53 10.11.2019
4689 Clouds -3 1010 87 10000 1 170 07:34 10.11.2019
4690 Clouds -3 1010 87 10000 2.1 260 06:59 10.11.2019
4691 Clouds -3 1010 87 10000 0.5 0 06:21 10.11.2019
4692 Clouds -2 1010 89 10000 0.5 0 03:55 10.11.2019
4693 Clouds -2 1009 89 10000 0.5 0 02:33 10.11.2019
4694 Clouds -1 1009 91 10000 0.5 0 01:37 10.11.2019
4695 Clouds -1 1009 90 10000 1 0 01:18 10.11.2019
4696 Clouds -1 1009 90 10000 1 0 00:37 10.11.2019
4697 Clouds -1 1010 93 10000 0.5 0 23:42 09.11.2019
4698 Clouds -1 1010 95 10000 0.5 0 23:20 09.11.2019
4699 Clouds -1 1010 95 10000 0.5 0 22:54 09.11.2019
4700 Clouds 0 1010 95 10000 1 0 22:36 09.11.2019
4701 Clouds 0 1010 93 10000 1 0 22:18 09.11.2019
4702 Clouds 0 1010 93 10000 1 0 21:54 09.11.2019
4703 Clouds 0 1011 93 10000 2.1 140 21:36 09.11.2019
4704 Clouds 0 1011 93 10000 2.1 90 21:18 09.11.2019
4705 Clouds 1 1011 93 10000 2.1 110 20:41 09.11.2019
4706 Clouds 1 1011 93 10000 2.1 120 20:21 09.11.2019
4707 Clouds 1 1011 93 10000 2.1 120 19:55 09.11.2019
4708 Clouds 1 1011 93 10000 2.1 130 19:36 09.11.2019
4709 Clouds 2 1011 93 10000 1 150 19:18 09.11.2019
4710 Clouds 3 1011 86 10000 2.6 130 18:39 09.11.2019
4711 Clouds 3 1011 86 10000 1 0 18:19 09.11.2019
4712 Clouds 4 1011 86 10000 1 0 17:56 09.11.2019
4713 Clouds 4 1011 86 10000 1.5 80 17:37 09.11.2019
4714 Clouds 3 1010 80 10000 0.5 0 17:18 09.11.2019
4715 Clouds 4 1010 80 10000 2.1 130 16:42 09.11.2019
4716 Clouds 4 1010 81 10000 1.5 130 16:21 09.11.2019
4717 Clouds 4 1010 81 10000 1.5 130 15:55 09.11.2019
4718 Clouds 4 1010 81 10000 1.5 130 15:55 09.11.2019
4719 Clouds 4 1010 81 10000 2.1 160 15:37 09.11.2019
4720 Clouds 4 1010 81 10000 2.6 170 15:19 09.11.2019
4721 Clouds 5 1010 75 10000 3.1 120 14:41 09.11.2019
4722 Clouds 4 1010 75 10000 3.6 120 14:21 09.11.2019
4723 Clouds 4 1010 75 10000 3.6 120 13:57 09.11.2019
4724 Clouds 4 1011 81 10000 3.1 110 13:37 09.11.2019
4725 Clouds 4 1011 81 10000 2.6 0 13:19 09.11.2019
4726 Clouds 4 1011 86 10000 2.1 120 12:50 09.11.2019
4727 Clouds 4 1011 86 10000 2.1 120 12:29 09.11.2019
4728 Clouds 4 1011 80 10000 2.6 130 11:57 09.11.2019
4729 Clouds 4 1011 86 10000 2.6 80 11:39 09.11.2019
4730 Clouds 3 1011 80 10000 2.6 60 11:19 09.11.2019
4731 Clouds 3 1011 86 10000 2.6 40 10:42 09.11.2019
4732 Clouds 4 1011 86 10000 2.1 60 10:20 09.11.2019
4733 Clouds 3 1011 86 10000 2.1 60 09:59 09.11.2019
4734 Rain 3 1011 86 10000 1.5 100 09:41 09.11.2019
4735 Rain 2 1011 86 10000 2.1 60 09:20 09.11.2019
4736 Rain 2 1010 86 10000 2.1 70 08:43 09.11.2019
4737 Rain 2 1010 86 10000 2.6 80 08:24 09.11.2019
4738 Rain 3 1009 93 10000 2.6 80 07:55 09.11.2019
4739 Rain 3 1009 93 10000 2.6 80 07:37 09.11.2019
4740 Rain 3 1009 93 10000 3.1 80 07:18 09.11.2019
4741 Rain 3 1008 93 10000 2.1 90 06:42 09.11.2019
4742 Rain 3 1008 86 10000 2.6 90 06:24 09.11.2019
4743 Rain 5 1008 86 10000 2.1 90 05:39 09.11.2019
4744 Rain 5 1007 86 10000 3.1 50 04:29 09.11.2019
4745 Rain 5 1006 100 10000 2.6 50 02:49 09.11.2019
4746 Rain 4 1006 100 10000 2.6 50 02:26 09.11.2019
4747 Rain 4 1006 93 4200 1 0 01:18 09.11.2019
4748 Drizzle 4 1006 93 6000 1 0 00:40 09.11.2019
4749 Drizzle 4 1006 93 4400 1 0 00:22 09.11.2019
4750 Rain 5 1006 93 3500 0.5 0 23:40 08.11.2019
4751 Rain 4 1006 93 8000 1 0 23:22 08.11.2019
4752 Rain 4 1006 93 8000 1 0 22:58 08.11.2019
4753 Drizzle 5 1005 87 10000 0.5 0 22:38 08.11.2019
4754 Drizzle 5 1005 87 10000 1 0 22:20 08.11.2019
4755 Clouds 5 1004 87 10000 0.5 0 21:42 08.11.2019
4756 Clouds 5 1005 87 10000 1.5 90 21:23 08.11.2019
4757 Clouds 5 1005 87 10000 1.5 90 21:23 08.11.2019
4758 Clouds 5 1004 93 10000 2.1 60 20:58 08.11.2019
4759 Clouds 5 1004 93 10000 2.1 60 20:40 08.11.2019
4760 Clouds 5 1004 93 10000 0.5 0 20:19 08.11.2019
4761 Clouds 5 1004 93 10000 0.5 0 19:54 08.11.2019
4762 Clouds 5 1004 93 10000 0.5 0 19:36 08.11.2019
4763 Clouds 5 1003 93 10000 1 0 19:18 08.11.2019
4764 Clouds 5 1003 93 10000 1 0 18:54 08.11.2019
4765 Clouds 5 1003 87 10000 1 0 18:36 08.11.2019
4766 Clouds 5 1002 93 10000 1.5 100 18:18 08.11.2019
4767 Clouds 5 1002 93 10000 1 0 17:54 08.11.2019
4768 Clouds 5 1002 93 10000 1 0 17:36 08.11.2019
4769 Clouds 6 1001 93 10000 2.6 270 17:18 08.11.2019
4770 Clouds 6 1001 93 10000 2.6 270 16:55 08.11.2019
4771 Clouds 6 1001 87 10000 2.6 250 16:37 08.11.2019
4772 Clouds 6 1001 87 10000 3.6 270 16:18 08.11.2019
4773 Clouds 6 1001 87 10000 0.5 0 15:41 08.11.2019
4774 Clouds 6 1000 87 10000 1.5 90 15:22 08.11.2019
4775 Clouds 6 1000 87 10000 1.5 90 15:22 08.11.2019
4776 Clouds 7 1000 87 10000 1.5 90 14:57 08.11.2019
4777 Clouds 7 1001 87 10000 2.6 80 14:38 08.11.2019
4778 Rain 7 1000 87 10000 2.1 110 14:20 08.11.2019
4779 Clouds 7 1000 87 10000 2.1 110 13:58 08.11.2019
4780 Rain 7 1001 87 10000 1 0 13:39 08.11.2019
4781 Rain 7 1001 87 10000 1 0 13:21 08.11.2019
4782 Rain 6 1001 87 10000 2.1 290 12:45 08.11.2019
4783 Rain 6 1001 87 10000 2.1 290 12:27 08.11.2019
4784 Rain 6 1002 87 10000 2.1 260 11:58 08.11.2019
4785 Rain 6 1002 93 10000 3.1 260 11:40 08.11.2019
4786 Rain 5 1002 93 10000 2.6 270 11:21 08.11.2019
4787 Rain 5 1002 93 10000 2.6 270 10:58 08.11.2019
4788 Rain 4 1002 93 10000 3.1 270 10:40 08.11.2019
4789 Rain 5 1002 86 10000 3.6 260 10:21 08.11.2019
4790 Rain 5 1002 86 10000 3.6 260 09:58 08.11.2019
4791 Clouds 5 1001 86 10000 2.1 270 09:37 08.11.2019
4792 Clouds 5 1002 86 10000 3.6 260 09:18 08.11.2019
4793 Clouds 4 1002 93 10000 2.1 270 08:45 08.11.2019
4794 Clouds 4 1002 93 10000 2.1 280 08:21 08.11.2019
4795 Clouds 4 1003 93 10000 1.5 0 07:44 08.11.2019
4796 Rain 4 1003 93 10000 4.1 70 07:23 08.11.2019
4797 Rain 4 1003 93 10000 4.1 70 06:56 08.11.2019
4798 Drizzle 4 1003 93 10000 3.6 90 06:37 08.11.2019
4799 Drizzle 3 1003 93 10000 1 0 06:19 08.11.2019
4800 Drizzle 3 1003 93 10000 1 0 05:26 08.11.2019
4801 Clouds 3 1004 93 10000 2.1 260 04:29 08.11.2019
4802 Clouds 4 1004 86 10000 1 0 03:42 08.11.2019
4803 Clouds 3 1004 93 10000 1.5 120 03:18 08.11.2019
4804 Clouds 3 1005 93 10000 1 0 01:54 08.11.2019
4805 Clouds 3 1005 93 10000 1 0 01:35 08.11.2019
4806 Clouds 3 1006 93 10000 1 0 00:45 08.11.2019
4807 Clouds 5 1006 93 10000 1.5 240 00:21 08.11.2019
4808 Clouds 4 1005 93 10000 1.5 310 23:48 07.11.2019
4809 Clouds 4 1005 93 10000 1.5 310 23:27 07.11.2019
4810 Clouds 3 1005 86 10000 1 0 22:57 07.11.2019
4811 Clouds 3 1005 86 10000 2.1 290 22:39 07.11.2019
4812 Clouds 4 1005 86 10000 1.5 190 22:20 07.11.2019
4813 Clouds 4 1005 86 10000 1 0 21:39 07.11.2019
4814 Clouds 4 1005 80 10000 2.1 290 21:21 07.11.2019
4815 Clouds 4 1005 80 10000 2.1 290 20:59 07.11.2019
4816 Clouds 4 1005 75 10000 4.1 250 20:40 07.11.2019
4817 Clouds 4 1005 75 10000 3.1 260 20:22 07.11.2019
4818 Clouds 4 1006 75 10000 3.1 230 19:58 07.11.2019
4819 Clouds 4 1006 75 10000 3.1 230 19:39 07.11.2019
4820 Clouds 4 1006 75 10000 3.1 230 19:39 07.11.2019
4821 Clouds 4 1006 80 10000 3.1 270 19:20 07.11.2019
4822 Clouds 4 1006 80 10000 3.1 270 18:57 07.11.2019
4823 Clouds 5 1006 80 10000 2.6 280 18:38 07.11.2019
4824 Clouds 5 1006 80 10000 2.6 280 18:38 07.11.2019
4825 Clouds 5 1006 75 10000 1.5 320 18:19 07.11.2019
4826 Clouds 6 1006 75 10000 1.5 320 17:56 07.11.2019
4827 Clouds 7 1005 70 10000 2.6 260 17:38 07.11.2019
4828 Clouds 8 1005 70 10000 2.6 260 17:20 07.11.2019
4829 Clouds 8 1005 70 10000 1.5 250 16:55 07.11.2019
4830 Clouds 9 1005 66 10000 1.5 0 16:37 07.11.2019
4831 Clouds 10 1005 66 10000 1.5 0 16:19 07.11.2019
4832 Clouds 11 1005 57 10000 2.6 250 15:40 07.11.2019
4833 Clouds 9 1005 57 10000 1.5 270 15:21 07.11.2019
4834 Clouds 10 1005 57 10000 2.1 250 14:58 07.11.2019
4835 Clouds 10 1004 53 10000 3.6 260 14:38 07.11.2019
4836 Clouds 10 1004 53 10000 3.6 260 14:20 07.11.2019
4837 Clouds 9 1004 53 10000 4.6 260 13:55 07.11.2019
4838 Clouds 9 1004 61 10000 4.6 250 13:37 07.11.2019
4839 Clouds 10 1004 61 10000 4.6 250 13:18 07.11.2019
4840 Clouds 10 1004 57 10000 4.6 260 12:56 07.11.2019
4841 Clouds 10 1004 57 10000 4.1 250 12:38 07.11.2019
4842 Clouds 10 1004 57 10000 4.1 250 12:18 07.11.2019
4843 Clouds 8 1005 70 10000 4.1 260 11:41 07.11.2019
4844 Clouds 7 1005 75 10000 4.1 260 11:22 07.11.2019
4845 Clouds 7 1005 75 10000 1 0 10:42 07.11.2019
4846 Rain 5 1006 81 10000 1.5 120 10:19 07.11.2019
4847 Rain 5 1006 81 10000 1.5 120 10:19 07.11.2019
4848 Clouds 4 1006 86 10000 0.5 0 09:56 07.11.2019
4849 Clouds 3 1006 93 10000 0.5 0 09:38 07.11.2019
4850 Clouds 2 1006 93 10000 0.5 0 09:20 07.11.2019
4851 Clouds 3 1006 100 10000 0.5 0 08:45 07.11.2019
4852 Clouds 3 1006 100 10000 0.5 0 08:44 07.11.2019
4853 -273 0 0 0 0 0 08:24 07.11.2019
4854 Clouds 0 1006 93 10000 1 0 08:23 07.11.2019
4855 Clouds 0 1006 93 10000 0.5 0 07:57 07.11.2019
4856 Clouds 0 1006 93 10000 0.5 0 07:39 07.11.2019
4857 Clouds 0 1006 93 10000 0.5 0 07:38 07.11.2019
4858 Clouds 0 1006 93 10000 0.5 0 07:20 07.11.2019
4859 Clouds 0 1006 93 10000 0.5 0 06:45 07.11.2019
4860 Clouds 0 1005 100 8000 1 0 06:24 07.11.2019
4861 Clouds 0 1006 93 10000 1 0 05:49 07.11.2019
4862 Clouds 0 1006 93 10000 1 0 05:30 07.11.2019
4863 Clouds 0 1006 100 10000 1 0 04:51 07.11.2019
4864 Clouds 1 1007 93 10000 1 0 04:29 07.11.2019
4865 Clouds 3 1007 86 10000 1.5 140 01:28 07.11.2019
4866 Clouds 2 1007 86 10000 1 150 00:30 07.11.2019
4867 Clouds 3 1007 93 10000 0.5 0 23:56 06.11.2019
4868 Clouds 3 1007 93 10000 0.5 0 23:38 06.11.2019
4869 Clouds 3 1007 93 10000 0.5 0 23:18 06.11.2019
4870 Clouds 4 1008 93 10000 0.5 0 22:39 06.11.2019
4871 Clouds 4 1008 93 10000 0.5 0 22:20 06.11.2019
4872 Clouds 4 1007 93 10000 0.5 0 21:57 06.11.2019
4873 Clouds 4 1007 93 10000 0.5 0 21:57 06.11.2019
4874 Clouds 4 1007 93 10000 0.5 0 21:57 06.11.2019
4875 Clouds 4 1007 93 10000 0.5 0 21:39 06.11.2019
4876 Clouds 4 1007 93 10000 0.5 0 21:19 06.11.2019
4877 Clouds 4 1007 93 10000 0.5 0 20:56 06.11.2019
4878 Clouds 4 1007 93 10000 0.5 0 20:38 06.11.2019
4879 Clouds 4 1007 93 10000 0.5 0 20:20 06.11.2019
4880 Clouds 4 1007 93 10000 1 0 19:56 06.11.2019
4881 Clouds 4 1007 93 10000 0.5 0 19:36 06.11.2019
4882 Clouds 4 1007 93 10000 0.5 0 19:18 06.11.2019
4883 Rain 4 1007 93 10000 0.5 0 18:54 06.11.2019
4884 Rain 4 1007 93 10000 0.5 0 18:36 06.11.2019
4885 Rain 5 1006 87 10000 0.5 0 18:18 06.11.2019
4886 Clouds 5 1006 87 10000 0.5 0 17:41 06.11.2019
4887 Clouds 5 1006 87 10000 0.5 0 17:23 06.11.2019
4888 Rain 6 1006 81 10000 0.5 0 16:57 06.11.2019
4889 Rain 6 1006 81 10000 0.5 0 16:39 06.11.2019
4890 Rain 5 1006 81 10000 1.1 24 16:20 06.11.2019
4891 Rain 6 1006 81 10000 1.1 24 15:57 06.11.2019
4892 Rain 6 1006 81 10000 0.5 0 15:37 06.11.2019
4893 Rain 6 1006 81 10000 0.5 0 15:19 06.11.2019
4894 Rain 5 1006 81 10000 0.5 0 14:57 06.11.2019
4895 Rain 5 1005 81 10000 0.5 0 14:39 06.11.2019
4896 Rain 6 1005 81 10000 1 0 14:20 06.11.2019
4897 Rain 6 1005 81 10000 1 0 13:58 06.11.2019
4898 Rain 6 1006 81 10000 1 0 13:37 06.11.2019
4899 Rain 6 1006 75 10000 0.5 0 13:18 06.11.2019
4900 Rain 6 1006 75 10000 0.5 0 13:18 06.11.2019
4901 Rain 6 1006 75 10000 0.5 0 12:55 06.11.2019
4902 Clouds 6 1006 81 10000 0.5 0 12:37 06.11.2019
4903 Rain 5 1006 86 10000 1.5 40 12:18 06.11.2019
4904 Clouds 6 1006 86 10000 1.5 40 11:54 06.11.2019
4905 Clouds 5 1006 80 10000 1 0 11:36 06.11.2019
4906 Rain 4 1006 80 10000 1.5 210 11:18 06.11.2019
4907 Rain 4 1006 80 10000 2.1 240 10:42 06.11.2019
4908 Clouds 4 1006 86 10000 1.5 280 10:24 06.11.2019
4909 Rain 4 1006 86 10000 1.5 280 09:58 06.11.2019
4910 Rain 3 1006 86 10000 0.5 0 09:39 06.11.2019
4911 Rain 3 1005 86 10000 0.5 0 09:20 06.11.2019
4912 Rain 3 1005 86 10000 1.5 160 08:55 06.11.2019
4913 Rain 1 1005 86 10000 1.5 0 08:37 06.11.2019
4914 Rain 3 1005 86 10000 1.5 160 08:37 06.11.2019
4915 Rain 1 1005 86 10000 1.5 0 08:18 06.11.2019
4916 Clouds 1 1004 86 10000 1 0 07:43 06.11.2019
4917 Clouds 1 1004 86 10000 1 0 07:24 06.11.2019
4918 Clouds 1 1003 86 10000 1.5 200 06:48 06.11.2019
4919 Clouds 0 1003 86 10000 1.5 200 06:30 06.11.2019
4920 Clouds 1 1003 86 10000 2.1 200 05:37 06.11.2019
4921 Clouds 1 1003 86 10000 2.1 230 03:22 06.11.2019
4922 Clouds 2 1003 86 10000 1.5 260 01:41 06.11.2019
4923 Clouds 2 1002 93 10000 1 0 00:46 06.11.2019
4924 Clouds 2 1002 93 10000 1 250 23:59 05.11.2019
4925 Clouds 2 1002 93 10000 1 250 23:40 05.11.2019
4926 Clouds 2 1002 93 10000 1.5 180 23:22 05.11.2019
4927 Rain 2 1002 93 10000 1.5 180 22:57 05.11.2019
4928 Rain 2 1002 93 10000 0.5 0 22:38 05.11.2019
4929 Rain 2 1002 93 10000 0.5 0 22:18 05.11.2019
4930 Rain 3 1002 93 10000 0.5 0 21:43 05.11.2019
4931 Rain 3 1002 93 10000 1.5 230 21:22 05.11.2019
4932 Rain 3 1002 93 10000 1.5 230 20:59 05.11.2019
4933 Rain 3 1002 93 10000 1.5 230 20:59 05.11.2019
4934 Rain 3 1002 93 10000 1 250 20:39 05.11.2019
4935 Rain 3 1002 93 10000 0.5 0 20:21 05.11.2019
4936 Rain 3 1002 93 10000 0.5 0 19:59 05.11.2019
4937 Rain 3 1001 93 10000 1.5 240 19:40 05.11.2019
4938 Clouds 3 1001 86 10000 1 340 19:22 05.11.2019
4939 Clouds 3 1001 86 10000 1 340 18:58 05.11.2019
4940 Rain 3 1001 93 10000 1.97 168 18:39 05.11.2019
4941 Rain 3 1001 86 10000 1.5 100 18:20 05.11.2019
4942 Rain 3 1001 86 10000 1.5 100 17:58 05.11.2019
4943 Rain 3 1001 93 10000 2.1 100 17:39 05.11.2019
4944 Rain 4 1001 93 10000 2.1 80 17:19 05.11.2019
4945 Drizzle 4 1001 86 10000 2.6 60 16:56 05.11.2019
4946 Drizzle 4 1001 86 10000 2.6 60 16:38 05.11.2019
4947 Clouds 4 1001 86 10000 1.5 100 16:19 05.11.2019
4948 Clouds 4 1001 86 10000 1.5 40 15:39 05.11.2019
4949 Rain 5 1001 86 10000 1.5 40 15:20 05.11.2019
4950 Rain 5 1001 86 10000 1.5 40 14:58 05.11.2019
4951 Rain 4 1001 86 10000 2.1 120 14:40 05.11.2019
4952 Clouds 4 1001 86 10000 2.1 90 14:21 05.11.2019
4953 Clouds 5 1001 86 10000 2.1 90 13:55 05.11.2019
4954 Rain 5 1001 86 10000 1.5 120 13:37 05.11.2019
4955 Rain 5 1001 86 10000 2.1 160 13:18 05.11.2019
4956 Rain 5 1001 93 10000 2.1 140 12:39 05.11.2019
4957 Rain 4 1001 86 10000 1.5 150 12:20 05.11.2019
4958 Rain 5 1001 86 10000 1.5 150 11:56 05.11.2019
4959 Rain 4 1001 93 10000 1.5 80 11:37 05.11.2019
4960 Rain 4 1001 87 10000 2.6 120 11:19 05.11.2019
4961 Rain 4 1001 93 10000 1.5 0 10:42 05.11.2019
4962 Rain 4 1001 87 10000 1.5 180 10:24 05.11.2019
4963 Rain 4 1001 87 10000 1.5 180 10:24 05.11.2019
4964 Rain 5 1001 87 10000 1.5 180 09:58 05.11.2019
4965 Rain 4 1001 87 10000 1.5 90 09:40 05.11.2019
4966 Rain 4 1001 87 10000 1.5 130 09:19 05.11.2019
4967 Rain 4 1001 87 10000 1.5 130 09:19 05.11.2019
4968 Rain 5 1001 87 10000 1.5 130 08:55 05.11.2019
4969 Rain 5 1001 87 10000 1.5 130 08:55 05.11.2019
4970 Rain 5 1000 87 8000 3.6 130 08:37 05.11.2019
4971 Rain 5 1001 93 8000 2.1 90 08:18 05.11.2019
4972 Rain 5 1000 93 8000 1 0 07:43 05.11.2019
4973 Rain 5 1000 100 5000 0.5 0 07:24 05.11.2019
4974 Rain 6 1000 100 5000 0.5 0 06:51 05.11.2019
4975 Rain 6 1000 93 6000 0.5 0 05:54 05.11.2019
4976 Rain 6 1000 100 5000 0.5 0 05:54 05.11.2019
4977 Rain 6 1000 93 6000 0.5 0 05:36 05.11.2019
4978 Rain 6 1000 93 9000 0.5 0 05:18 05.11.2019
4979 Rain 6 1000 93 9000 0.5 0 04:20 05.11.2019
4980 Rain 6 1000 93 10000 1 0 03:24 05.11.2019
4981 Rain 7 1000 93 10000 1 0 02:41 05.11.2019
4982 Clouds 7 999 93 10000 1 0 01:52 05.11.2019
4983 Rain 7 998 87 10000 1 0 00:41 05.11.2019
4984 Clouds 7 999 81 10000 1.5 130 00:23 05.11.2019
4985 Clouds 7 999 87 10000 2.1 290 23:41 04.11.2019
4986 Clouds 7 999 87 10000 1.5 240 23:19 04.11.2019
4987 Clouds 7 999 87 10000 1.5 240 23:19 04.11.2019
4988 Clouds 7 999 87 10000 1.5 240 22:55 04.11.2019
4989 Clouds 7 999 87 10000 1 0 22:37 04.11.2019
4990 Clouds 7 999 87 10000 1.5 260 22:19 04.11.2019
4991 Clouds 7 999 87 10000 1.5 260 21:54 04.11.2019
4992 Clouds 7 998 87 10000 1.5 0 21:36 04.11.2019
4993 Clouds 7 999 87 10000 4.6 260 21:18 04.11.2019
4994 Clouds 7 999 87 10000 4.6 260 20:54 04.11.2019
4995 Clouds 7 999 87 10000 3.6 260 20:36 04.11.2019
4996 Clouds 7 998 81 10000 1.5 0 20:18 04.11.2019
4997 Clouds 7 998 81 10000 3.1 260 19:42 04.11.2019
4998 Clouds 7 998 81 10000 3.1 250 19:23 04.11.2019
4999 Clouds 7 998 81 10000 3.1 250 18:58 04.11.2019
5000 Clouds 7 998 81 10000 3.1 270 18:40 04.11.2019
5001 Clouds 8 997 76 10000 2.1 250 18:21 04.11.2019
5002 Clouds 9 997 76 10000 2.1 250 17:58 04.11.2019
5003 Clouds 9 996 76 10000 3.6 280 17:36 04.11.2019
5004 Clouds 9 996 76 10000 2.6 240 17:18 04.11.2019
5005 Clouds 10 996 71 10000 3.1 280 16:43 04.11.2019
5006 Clouds 11 996 71 10000 3.1 280 16:24 04.11.2019
5007 Clouds 11 996 71 10000 2.1 260 15:59 04.11.2019
5008 Clouds 11 996 71 10000 3.1 280 15:41 04.11.2019
5009 Clouds 11 996 66 10000 5.7 270 15:21 04.11.2019
5010 Clouds 12 996 66 10000 5.7 270 14:58 04.11.2019
5011 Clouds 12 995 66 10000 4.1 270 14:39 04.11.2019
5012 Clouds 12 995 66 10000 4.6 260 14:20 04.11.2019
5013 Clouds 12 995 66 10000 4.6 260 13:57 04.11.2019
5014 Clouds 12 995 62 10000 3.6 250 13:39 04.11.2019
5015 Clouds 12 994 66 10000 1 0 13:20 04.11.2019
5016 Clouds 12 994 66 10000 1 0 12:55 04.11.2019
5017 Clouds 12 995 62 10000 1 0 12:37 04.11.2019
5018 Clouds 11 996 66 10000 3.6 260 12:18 04.11.2019
5019 Clouds 11 997 71 10000 3.6 260 11:42 04.11.2019
5020 Clouds 10 997 76 10000 3.6 250 11:23 04.11.2019
5021 Clouds 9 997 76 10000 3.6 250 10:56 04.11.2019
5022 Clouds 9 997 81 10000 3.6 270 10:38 04.11.2019
5023 Clouds 8 998 81 10000 2.1 240 10:18 04.11.2019
5024 Clouds 8 998 87 10000 3.6 250 09:40 04.11.2019
5025 Clouds 7 998 87 10000 3.6 260 09:20 04.11.2019
5026 Clouds 7 998 93 10000 1 0 08:55 04.11.2019
5027 Clouds 6 998 93 10000 1 0 08:37 04.11.2019
5028 Clouds 3 998 93 10000 1.5 100 08:18 04.11.2019
5029 Clouds 3 998 93 10000 1 0 07:42 04.11.2019
5030 Clouds 3 998 93 10000 1 0 07:20 04.11.2019
5031 Clouds 4 997 93 10000 1 150 06:49 04.11.2019
5032 Clouds 4 997 93 10000 1 0 06:18 04.11.2019
5033 Clouds 5 998 100 10000 1.5 180 05:37 04.11.2019
5034 Clouds 6 997 93 10000 0.5 0 04:37 04.11.2019
5035 Clouds 6 997 100 10000 0.5 0 03:42 04.11.2019
5036 Rain 7 996 100 10000 1 0 01:38 04.11.2019
5037 Rain 8 995 93 10000 0.5 0 01:18 04.11.2019
5038 Rain 8 995 93 10000 1 0 00:22 04.11.2019
5039 Rain 7 995 93 10000 1 0 23:59 03.11.2019
5040 Rain 8 995 93 10000 2.6 240 23:39 03.11.2019
5041 Rain 8 994 93 10000 3.6 280 23:20 03.11.2019
5042 Rain 8 994 93 10000 3.6 280 22:56 03.11.2019
5043 Rain 8 993 81 10000 6.2 240 22:38 03.11.2019
5044 Rain 8 992 81 10000 7.7 240 22:19 03.11.2019
5045 Clouds 10 991 81 10000 5.7 270 21:43 03.11.2019
5046 Clouds 10 991 81 10000 4.1 280 21:22 03.11.2019
5047 Clouds 10 991 81 10000 4.1 280 21:22 03.11.2019
5048 Clouds 10 991 81 10000 4.1 280 20:58 03.11.2019
5049 Clouds 10 991 81 10000 4.1 270 20:38 03.11.2019
5050 Clouds 10 990 71 10000 2.1 250 20:19 03.11.2019
5051 Clouds 10 989 71 10000 2.1 200 19:57 03.11.2019
5052 Clouds 10 989 71 10000 2.1 200 19:57 03.11.2019
5053 Clouds 10 989 71 10000 2.1 200 19:39 03.11.2019
5054 Clouds 10 989 71 10000 2.1 200 19:39 03.11.2019
5055 Clouds 10 989 66 10000 1.5 0 19:20 03.11.2019
5056 Clouds 10 989 54 10000 3.6 0 18:57 03.11.2019
5057 Clouds 10 989 54 10000 3.6 0 18:37 03.11.2019
5058 Clouds 10 989 54 10000 6.2 150 18:18 03.11.2019
5059 Clouds 10 989 54 10000 2.6 0 17:42 03.11.2019
5060 Clouds 12 989 54 10000 8.2 110 17:22 03.11.2019
5061 Clouds 12 989 54 10000 8.2 110 16:59 03.11.2019
5062 Clouds 12 989 54 10000 9.3 130 16:41 03.11.2019
5063 Clouds 12 990 58 10000 7.2 100 16:22 03.11.2019
5064 Rain 11 990 58 10000 7.2 100 15:58 03.11.2019
5065 Rain 11 990 58 10000 7.7 110 15:40 03.11.2019
5066 Clouds 12 990 54 10000 7.2 100 15:22 03.11.2019
5067 Clouds 12 990 54 10000 7.2 100 14:54 03.11.2019
5068 Clouds 12 990 54 10000 6.7 0 14:36 03.11.2019
5069 Clouds 13 990 54 10000 7.2 60 14:18 03.11.2019
5070 Clouds 13 989 54 10000 6.7 50 13:41 03.11.2019
5071 Clouds 12 986 100 0 0.89 158 13:19 03.11.2019
5072 Clouds 12 986 100 0 0.89 158 13:19 03.11.2019
5073 Clouds 12 986 100 0 0.89 180 12:57 03.11.2019
5074 Clouds 12 986 100 0 1.34 135 12:36 03.11.2019
5075 Clouds 12 986 100 0 1.34 90 12:18 03.11.2019
5076 Clouds 11 991 76 10000 2.6 0 11:42 03.11.2019
5077 Clouds 11 992 81 10000 2.1 270 11:22 03.11.2019
5078 Clouds 10 992 81 10000 2.1 270 10:56 03.11.2019
5079 Clouds 9 992 81 10000 2.1 0 10:37 03.11.2019
5080 Rain 9 992 87 10000 1 0 10:19 03.11.2019
5081 Rain 8 992 93 10000 1.5 260 09:43 03.11.2019
5082 Rain 8 992 93 10000 1.5 260 09:43 03.11.2019
5083 Rain 8 992 93 10000 1.5 260 09:25 03.11.2019
5084 Rain 8 992 87 10000 2.6 280 08:56 03.11.2019
5085 Rain 6 992 93 10000 1.5 0 08:37 03.11.2019
5086 Clouds 6 992 93 10000 1 0 08:19 03.11.2019
5087 Rain 6 992 87 10000 1 0 07:45 03.11.2019
5088 Clouds 6 992 93 10000 1 0 07:22 03.11.2019
5089 Clouds 6 992 93 10000 3.1 280 06:39 03.11.2019
5090 Clouds 6 993 87 10000 2.6 270 05:55 03.11.2019
5091 Clouds 6 993 87 10000 2.1 240 05:37 03.11.2019
5092 Clouds 6 994 87 10000 2.6 260 04:55 03.11.2019
5093 Clouds 6 994 93 10000 2.6 0 04:26 03.11.2019
5094 Clouds 5 995 87 10000 3.1 280 03:27 03.11.2019
5095 Clouds 7 996 93 10000 4.6 270 02:29 03.11.2019
5096 Clouds 7 997 87 10000 4.1 270 01:57 03.11.2019
5097 Clouds 7 997 93 10000 4.6 270 01:36 03.11.2019
5098 Clouds 7 997 93 10000 3.1 260 01:18 03.11.2019
5099 Clouds 7 997 87 10000 4.6 250 00:40 03.11.2019
5100 Clouds 7 998 87 10000 3.6 0 00:21 03.11.2019
5101 Clouds 7 998 87 10000 3.6 0 23:56 02.11.2019
5102 Clouds 7 999 87 10000 5.7 260 23:36 02.11.2019
5103 Clouds 7 999 87 10000 4.1 230 23:18 02.11.2019
5104 Clouds 6 999 87 10000 4.1 230 22:54 02.11.2019
5105 Clouds 7 999 87 10000 3.6 0 22:36 02.11.2019
5106 Clouds 7 1000 81 10000 4.6 250 22:18 02.11.2019
5107 Clouds 7 1000 81 10000 4.6 250 22:18 02.11.2019
5108 Clouds 7 1000 81 10000 4.6 250 21:55 02.11.2019
5109 Clouds 8 1000 76 10000 5.1 250 21:36 02.11.2019
5110 Clouds 8 1000 76 10000 2.6 260 21:18 02.11.2019
5111 Clouds 8 1000 76 10000 2.6 260 21:18 02.11.2019
5112 Clouds 8 1000 76 10000 2.6 260 21:18 02.11.2019
5113 Clouds 8 1000 76 10000 2.6 260 21:18 02.11.2019
5114 Clouds 8 1000 81 10000 3.1 270 20:56 02.11.2019
5115 Clouds 8 1000 81 10000 3.1 270 20:38 02.11.2019
5116 Clouds 9 1000 71 10000 4.6 250 20:18 02.11.2019
5117 Clouds 10 1000 58 10000 4.6 180 19:39 02.11.2019
5118 Clouds 11 1000 51 10000 5.7 140 19:20 02.11.2019
5119 Clouds 15 1000 51 10000 5.7 140 18:55 02.11.2019
5120 Clouds 15 1000 51 10000 5.7 140 18:55 02.11.2019
5121 Clouds 14 1001 51 10000 5.1 130 18:37 02.11.2019
5122 Clouds 14 1001 51 10000 5.7 130 18:18 02.11.2019
5123 Clouds 13 1001 51 10000 5.7 130 17:56 02.11.2019
5124 Clouds 13 1001 51 10000 5.7 130 17:56 02.11.2019
5125 Clouds 13 1000 51 10000 3.6 0 17:37 02.11.2019
5126 Clouds 13 1000 48 10000 5.7 140 17:18 02.11.2019
5127 Clouds 14 1000 48 10000 5.7 140 16:40 02.11.2019
5128 Clouds 14 1000 48 10000 5.7 140 16:40 02.11.2019
5129 Clouds 14 1000 48 10000 4.6 140 16:21 02.11.2019
5130 Clouds 16 1000 48 10000 4.6 140 15:56 02.11.2019
5131 Clouds 16 1001 48 10000 7.2 140 15:37 02.11.2019
5132 Clouds 17 1001 45 10000 6.7 150 15:19 02.11.2019
5133 Clouds 15 1001 45 10000 5.1 150 14:42 02.11.2019
5134 Clouds 14 1001 59 10000 2.6 260 14:23 02.11.2019
5135 Clouds 14 1002 62 10000 3.1 270 13:56 02.11.2019
5136 Clouds 13 1002 62 10000 3.1 270 13:37 02.11.2019
5137 Clouds 13 1002 67 10000 3.6 250 13:18 02.11.2019
5138 Clouds 13 1003 71 10000 2.1 290 12:40 02.11.2019
5139 Clouds 13 1003 76 10000 5.1 280 12:22 02.11.2019
5140 Clouds 13 1003 76 10000 5.1 280 11:57 02.11.2019
5141 Clouds 12 1003 76 10000 6.7 260 11:38 02.11.2019
5142 Clouds 11 1003 81 10000 4.1 260 11:19 02.11.2019
5143 Clouds 10 1003 87 10000 3.6 270 10:44 02.11.2019
5144 Clouds 10 1003 87 10000 3.6 270 10:25 02.11.2019
5145 Clouds 10 1004 87 10000 4.6 270 09:56 02.11.2019
5146 Clouds 10 1004 93 10000 3.6 270 09:38 02.11.2019
5147 Clouds 10 1004 93 10000 5.1 270 09:18 02.11.2019
5148 Clouds 9 1004 100 10000 4.6 270 08:42 02.11.2019
5149 Clouds 8 1004 100 10000 4.1 260 08:20 02.11.2019
5150 Clouds 8 1005 93 10000 4.1 270 07:47 02.11.2019
5151 Clouds 8 1005 93 10000 4.1 270 07:27 02.11.2019
5152 Clouds 7 1005 93 10000 4.6 280 06:54 02.11.2019
5153 Clouds 8 1005 93 10000 4.6 280 06:26 02.11.2019
5154 Clouds 7 1005 93 10000 3.6 260 05:56 02.11.2019
5155 Clouds 7 1006 93 9000 5.7 270 04:53 02.11.2019
5156 Clouds 7 1006 93 10000 3.1 260 04:20 02.11.2019
5157 Clouds 7 1006 93 7000 3.6 270 03:46 02.11.2019
5158 Mist 8 1006 93 1400 4.6 260 02:40 02.11.2019
5159 Mist 8 1007 93 2200 4.6 280 01:42 02.11.2019
5160 Clouds 7 1007 93 10000 3.6 290 01:21 02.11.2019
5161 Clouds 8 1007 93 10000 3.6 270 00:43 02.11.2019
5162 Clouds 8 1008 93 10000 3.1 270 00:25 02.11.2019
5163 Clouds 8 1008 93 10000 3.6 260 23:46 01.11.2019
5164 Clouds 8 1008 93 10000 3.6 270 23:20 01.11.2019
5165 Clouds 8 1008 93 10000 3.6 270 22:57 01.11.2019
5166 Clouds 8 1009 93 10000 3.6 260 22:38 01.11.2019
5167 Clouds 8 1009 87 10000 1.5 260 22:20 01.11.2019
5168 Clouds 9 1009 93 10000 2.6 280 21:40 01.11.2019
5169 Clouds 9 1009 87 10000 1.5 260 21:22 01.11.2019
5170 Clouds 9 1009 87 10000 1.5 260 20:56 01.11.2019
5171 Clouds 9 1009 87 10000 2.6 260 20:38 01.11.2019
5172 Rain 9 1010 87 10000 1.5 240 20:18 01.11.2019
5173 Rain 9 1010 87 10000 3.1 270 19:41 01.11.2019
5174 Clouds 9 1010 87 10000 3.1 270 19:22 01.11.2019
5175 Clouds 9 1010 87 10000 3.1 270 18:58 01.11.2019
5176 Clouds 9 1010 87 10000 2.6 260 18:39 01.11.2019
5177 Clouds 10 1010 87 10000 2.1 250 18:18 01.11.2019
5178 Clouds 10 1010 81 10000 1.5 0 17:41 01.11.2019
5179 Clouds 10 1010 81 10000 1.5 0 17:23 01.11.2019
5180 Clouds 10 1010 81 10000 1.5 0 16:58 01.11.2019
5181 Clouds 10 1010 81 10000 1 0 16:36 01.11.2019
5182 Clouds 10 1010 76 10000 1 0 16:18 01.11.2019
5183 Clouds 10 1010 71 10000 0.5 0 15:40 01.11.2019
5184 Clouds 10 1011 71 10000 0.5 0 15:22 01.11.2019
5185 Clouds 11 1011 71 10000 0.5 0 14:56 01.11.2019
5186 Clouds 11 1011 71 10000 0.5 0 14:56 01.11.2019
5187 Clouds 11 1011 71 10000 0.5 0 14:38 01.11.2019
5188 Clouds 11 1012 66 10000 2.1 230 14:19 01.11.2019
5189 Clouds 11 1012 66 10000 2.1 230 13:55 01.11.2019
5190 Clouds 12 1012 71 10000 1 0 13:36 01.11.2019
5191 Clouds 12 1013 66 10000 1.5 260 13:18 01.11.2019
5192 Clouds 11 1014 71 10000 2.6 270 12:43 01.11.2019
5193 Clouds 11 1014 71 10000 2.6 270 12:24 01.11.2019
5194 Clouds 11 1015 71 10000 2.6 270 11:43 01.11.2019
5195 Clouds 11 1015 71 10000 1.5 230 11:24 01.11.2019
5196 Clouds 10 1015 71 10000 1.5 230 10:57 01.11.2019
5197 Clouds 9 1016 76 10000 0.5 0 10:38 01.11.2019
5198 Clouds 8 1017 81 10000 0.5 0 10:20 01.11.2019
5199 Clouds 8 1017 81 10000 0.5 0 09:43 01.11.2019
5200 Clouds 7 1017 81 10000 0.5 0 09:25 01.11.2019
5201 Clouds 7 1017 93 10000 0.5 0 08:57 01.11.2019
5202 Clouds 7 1017 93 10000 0.5 0 08:39 01.11.2019
5203 Clouds 3 1017 93 10000 0.5 0 08:20 01.11.2019
5204 Clouds 3 1018 93 10000 0.5 0 07:51 01.11.2019
5205 Clouds 4 1018 87 10000 1 0 07:24 01.11.2019
5206 Clouds 4 1018 87 10000 1 0 06:56 01.11.2019
5207 Clouds 4 1018 93 10000 1 0 06:23 01.11.2019
5208 Clouds 4 1018 93 10000 1 0 05:59 01.11.2019
5209 Clouds 4 1018 87 10000 0.5 0 05:38 01.11.2019
5210 Clouds 5 1019 81 10000 2.1 260 03:32 01.11.2019
5211 Clouds 5 1019 81 10000 3.1 270 01:49 01.11.2019
5212 Clouds 6 1020 87 10000 3.1 270 01:22 01.11.2019
5213 Clouds 5 1020 87 10000 1.5 220 00:20 01.11.2019
5214 Clouds 6 1020 87 10000 2.6 290 23:45 31.10.2019
5215 Clouds 5 1020 87 10000 2.6 290 23:27 31.10.2019
5216 Clouds 6 1020 87 10000 3.1 280 22:59 31.10.2019
5217 Clouds 6 1020 87 10000 3.1 280 22:59 31.10.2019
5218 Clouds 6 1020 87 10000 3.1 280 22:59 31.10.2019
5219 Clouds 6 1020 87 10000 2.6 270 22:40 31.10.2019
5220 Clouds 6 1020 87 10000 2.1 280 22:22 31.10.2019
5221 Clouds 6 1020 87 10000 2.1 280 21:56 31.10.2019
5222 Clear 6 1020 97 0 1.44 189 21:38 31.10.2019
5223 Clouds 6 1020 93 10000 2.1 260 21:18 31.10.2019
5224 Clouds 6 1020 93 10000 2.1 260 21:18 31.10.2019
5225 Clouds 6 1020 87 10000 1.5 250 20:41 31.10.2019
5226 Clouds 6 1020 87 10000 1.5 250 20:41 31.10.2019
5227 Clouds 6 1020 87 10000 1.5 250 20:41 31.10.2019
5228 Clouds 6 1020 93 10000 1 0 20:22 31.10.2019
5229 Clouds 5 1020 97 0 1.48 168 19:56 31.10.2019
5230 Clouds 5 1020 97 0 1.48 168 19:38 31.10.2019
5231 Clouds 5 1020 96 0 1.48 168 19:18 31.10.2019
5232 Clouds 5 1019 96 0 1.48 168 18:43 31.10.2019
5233 Clouds 5 1020 97 0 1.48 168 18:25 31.10.2019
5234 Clouds 6 1019 95 0 0.45 32 17:58 31.10.2019
5235 Clouds 6 1019 95 0 1.48 168 17:39 31.10.2019
5236 Clouds 7 1019 81 10000 1.5 140 17:20 31.10.2019
5237 Clouds 7 1019 81 10000 1.5 80 16:54 31.10.2019
5238 Clouds 7 1019 81 10000 1.5 80 16:36 31.10.2019
5239 Clouds 7 1019 81 10000 2.1 70 16:18 31.10.2019
5240 Clouds 8 1019 81 10000 2.1 70 15:40 31.10.2019
5241 Clouds 8 1019 76 10000 2.6 70 15:21 31.10.2019
5242 Clouds 8 1019 76 10000 2.6 70 14:58 31.10.2019
5243 Clouds 8 1019 81 10000 3.6 60 14:40 31.10.2019
5244 Clouds 8 1019 76 10000 2.6 130 14:22 31.10.2019
5245 Clouds 8 1019 76 10000 2.6 130 13:59 31.10.2019
5246 Clouds 8 1019 76 10000 1 0 13:38 31.10.2019
5247 Clouds 8 1020 76 10000 1.5 150 13:19 31.10.2019
5248 Clouds 8 1020 76 10000 1.5 150 12:55 31.10.2019
5249 Clouds 8 1020 76 10000 1 0 12:37 31.10.2019
5250 Clouds 8 1020 81 10000 1.5 0 12:18 31.10.2019
5251 Clouds 7 1020 76 10000 1 0 11:45 31.10.2019
5252 Rain 6 1020 95 0 0.89 36 11:20 31.10.2019
5253 Rain 5 1021 95 0 2.24 49 10:58 31.10.2019
5254 Rain 5 1021 95 0 2.24 49 10:58 31.10.2019
5255 Clouds 6 1021 87 10000 1 0 10:39 31.10.2019
5256 Clouds 6 1021 87 10000 0.5 0 10:20 31.10.2019
5257 Clouds 5 1021 87 10000 0.5 0 09:46 31.10.2019
5258 Rain 5 1021 93 8000 0.5 0 09:20 31.10.2019
5259 Rain 5 1021 93 8000 0.5 0 08:58 31.10.2019
5260 Rain 5 1021 93 8000 0.5 0 08:39 31.10.2019
5261 Rain 5 1021 93 8000 1 0 08:21 31.10.2019
5262 Rain 5 1021 93 7000 1.5 70 07:46 31.10.2019
5263 Rain 4 1021 93 7000 1.5 80 07:26 31.10.2019
5264 Rain 5 1020 93 8000 1 0 06:52 31.10.2019
5265 Rain 4 1020 93 8000 1 0 06:31 31.10.2019
5266 Rain 4 1021 93 9000 2.6 70 05:20 31.10.2019
5267 Rain 4 1021 93 9000 0.5 0 02:50 31.10.2019
5268 Rain 4 1021 93 9000 0.5 0 02:25 31.10.2019
5269 Rain 4 1021 93 9000 0.5 0 02:25 31.10.2019
5270 Rain 4 1021 93 10000 0.5 0 01:20 31.10.2019
5271 Rain 5 1021 93 10000 1 0 00:26 31.10.2019
5272 Rain 5 1022 93 9000 1.5 110 23:42 30.10.2019
5273 Rain 5 1022 93 10000 1.5 100 23:23 30.10.2019
5274 Rain 5 1022 93 10000 1.5 90 22:42 30.10.2019
5275 Rain 5 1022 93 10000 1 0 22:19 30.10.2019
5276 Rain 5 1022 93 10000 1 0 21:55 30.10.2019
5277 Rain 5 1022 93 10000 1 0 21:55 30.10.2019
5278 Rain 5 1022 93 10000 1 0 21:37 30.10.2019
5279 Rain 5 1022 93 10000 1 0 21:37 30.10.2019
5280 Rain 5 1022 93 10000 1 0 21:37 30.10.2019
5281 Rain 5 1022 93 10000 0.5 0 21:18 30.10.2019
5282 Rain 5 1022 93 10000 0.5 0 20:58 30.10.2019
5283 Rain 5 1022 93 10000 1.5 80 20:39 30.10.2019
5284 Rain 5 1022 93 10000 0.5 0 20:20 30.10.2019
5285 Rain 5 1022 93 10000 1 0 19:43 30.10.2019
5286 Rain 5 1022 93 10000 1 0 19:25 30.10.2019
5287 Clouds 5 1022 87 10000 0.5 0 19:00 30.10.2019
5288 Clouds 5 1022 87 10000 1 0 18:38 30.10.2019
5289 Rain 5 1022 87 10000 1 150 18:19 30.10.2019
5290 Rain 5 1022 87 10000 1 150 17:56 30.10.2019
5291 Rain 5 1022 87 10000 1 170 17:37 30.10.2019
5292 Clouds 6 1022 87 10000 1 0 17:18 30.10.2019
5293 Clouds 5 1022 87 10000 1.5 70 16:54 30.10.2019
5294 Clouds 6 1022 87 10000 1.5 70 16:36 30.10.2019
5295 Clouds 6 1023 87 10000 2.1 50 16:18 30.10.2019
5296 Rain 5 1023 81 10000 0.5 0 15:41 30.10.2019
5297 Clouds 5 1023 87 10000 2.1 60 15:21 30.10.2019
5298 Clouds 6 1023 81 10000 2.1 70 14:59 30.10.2019
5299 Clouds 6 1023 81 10000 2.1 70 14:41 30.10.2019
5300 Clouds 6 1023 81 10000 1.5 70 14:22 30.10.2019
5301 Clouds 6 1023 81 10000 1.5 70 13:57 30.10.2019
5302 Clouds 6 1023 81 10000 1.5 50 13:39 30.10.2019
5303 Rain 6 1024 87 10000 1.5 90 13:19 30.10.2019
5304 Rain 6 1024 87 10000 2.1 70 12:46 30.10.2019
5305 Rain 6 1024 87 10000 2.1 70 12:28 30.10.2019
5306 Rain 6 1024 87 10000 2.1 70 12:28 30.10.2019
5307 Rain 5 1024 87 10000 2.6 60 11:59 30.10.2019
5308 Rain 5 1024 87 10000 2.6 80 11:41 30.10.2019
5309 Drizzle 5 1024 87 10000 2.6 80 11:21 30.10.2019
5310 Drizzle 4 1024 87 10000 2.6 70 10:43 30.10.2019
5311 Drizzle 4 1024 93 10000 3.1 80 10:23 30.10.2019
5312 Drizzle 4 1024 93 10000 3.6 70 09:43 30.10.2019
5313 Drizzle 4 1024 93 10000 3.6 70 09:24 30.10.2019
5314 Rain 4 1024 87 10000 3.1 90 08:58 30.10.2019
5315 Rain 4 1024 93 7000 1.5 90 08:40 30.10.2019
5316 Rain 4 1023 93 8000 1.5 100 08:21 30.10.2019
5317 Rain 4 1023 93 10000 2.1 90 07:46 30.10.2019
5318 Rain 4 1023 93 10000 2.1 90 07:28 30.10.2019
5319 Drizzle 4 1022 93 7000 2.1 100 06:42 30.10.2019
5320 Drizzle 5 1021 93 7000 1.5 80 06:21 30.10.2019
5321 Rain 5 1022 93 10000 2.6 70 05:42 30.10.2019
5322 Rain 5 1022 93 10000 2.1 70 05:19 30.10.2019
5323 Rain 5 1022 93 10000 2.1 80 03:45 30.10.2019
5324 Rain 5 1022 93 10000 1.5 90 02:55 30.10.2019
5325 Rain 5 1022 93 9000 1.5 60 02:19 30.10.2019
5326 Rain 5 1022 93 10000 2.1 90 01:32 30.10.2019
5327 Rain 5 1022 93 10000 0.5 0 00:31 30.10.2019
5328 Rain 5 1022 93 10000 2.6 60 23:46 29.10.2019
5329 Rain 5 1022 93 10000 2.6 60 23:25 29.10.2019
5330 Rain 5 1022 87 10000 2.1 90 22:55 29.10.2019
5331 Rain 5 1022 87 10000 2.1 90 22:37 29.10.2019
5332 Rain 5 1022 93 10000 1.5 80 22:18 29.10.2019
5333 Rain 5 1022 87 10000 0.5 0 21:42 29.10.2019
5334 Clouds 5 1021 87 10000 2.6 60 21:21 29.10.2019
5335 Clouds 5 1021 87 10000 2.6 60 20:59 29.10.2019
5336 Rain 6 1021 93 10000 1 0 20:40 29.10.2019
5337 Rain 6 1021 93 9000 1.5 90 20:21 29.10.2019
5338 Rain 6 1021 93 9000 1.5 90 19:57 29.10.2019
5339 Rain 6 1021 93 9000 2.1 70 19:38 29.10.2019
5340 Rain 6 1021 93 8000 2.6 60 19:20 29.10.2019
5341 Rain 6 1021 93 10000 2.1 70 18:56 29.10.2019
5342 Rain 6 1021 93 10000 2.1 70 18:56 29.10.2019
5343 Rain 6 1021 93 10000 2.1 70 18:37 29.10.2019
5344 Rain 6 1021 87 10000 3.6 80 18:19 29.10.2019
5345 Rain 6 1021 87 10000 3.6 80 17:55 29.10.2019
5346 Rain 6 1020 87 10000 3.1 80 17:36 29.10.2019
5347 Rain 6 1020 87 10000 3.6 60 17:18 29.10.2019
5348 Clouds 7 1020 93 10000 2.6 80 16:40 29.10.2019
5349 Rain 7 1019 93 10000 3.6 70 16:21 29.10.2019
5350 Rain 7 1019 93 10000 3.6 70 15:57 29.10.2019
5351 Rain 7 1014 100 0 1.34 68 15:39 29.10.2019
5352 Rain 7 1014 100 0 1.34 68 15:20 29.10.2019
5353 Rain 7 1017 97 0 1.79 319 14:55 29.10.2019
5354 Rain 7 1018 87 10000 3.6 70 14:37 29.10.2019
5355 Clouds 7 1018 87 10000 3.1 70 14:19 29.10.2019
5356 Clouds 8 1018 87 10000 2.1 70 13:40 29.10.2019
5357 Rain 8 1018 87 10000 1 60 13:22 29.10.2019
5358 Rain 8 1018 87 10000 1 60 12:55 29.10.2019
5359 Rain 8 1018 87 10000 1.5 40 12:36 29.10.2019
5360 Rain 7 1013 100 0 2.24 90 12:18 29.10.2019
5361 Clouds 8 1018 93 10000 2.6 80 11:42 29.10.2019
5362 Clouds 8 1018 87 10000 2.1 80 11:20 29.10.2019
5363 Rain 8 1018 87 10000 2.1 80 10:57 29.10.2019
5364 Rain 8 1018 93 10000 2.6 60 10:39 29.10.2019
5365 Drizzle 8 1018 93 10000 2.1 70 10:20 29.10.2019
5366 Drizzle 8 1018 93 10000 2.1 70 09:57 29.10.2019
5367 Rain 8 1018 93 7000 2.6 70 09:39 29.10.2019
5368 Drizzle 8 1017 93 7000 2.1 70 09:21 29.10.2019
5369 Drizzle 8 1017 93 6000 2.1 70 08:44 29.10.2019
5370 Rain 8 1017 93 6000 1 100 08:25 29.10.2019
5371 Rain 8 1017 93 6000 1 100 07:55 29.10.2019
5372 Rain 8 1017 93 6000 1 0 07:36 29.10.2019
5373 Rain 8 1016 93 6000 1.5 100 07:18 29.10.2019
5374 Rain 7 1016 93 6000 1.5 100 07:18 29.10.2019
5375 Rain 7 1016 93 5000 2.1 90 06:43 29.10.2019
5376 Rain 7 1016 93 5000 1 0 06:21 29.10.2019
5377 Rain 7 1016 93 6000 1.5 100 05:50 29.10.2019
5378 Drizzle 8 1016 93 7000 1.5 70 05:19 29.10.2019
5379 Rain 8 1016 93 6000 1.5 110 03:55 29.10.2019
5380 Rain 8 1016 93 7000 2.1 90 02:32 29.10.2019
5381 Rain 8 1017 93 9000 1.5 90 01:46 29.10.2019
5382 Rain 8 1017 93 9000 2.6 90 01:18 29.10.2019
5383 Rain 8 1017 93 8000 2.6 90 00:31 29.10.2019
5384 Rain 8 1013 100 0 0.89 90 23:43 28.10.2019
5385 Rain 8 1013 100 0 0.45 90 23:20 28.10.2019
5386 Rain 8 1018 93 10000 2.6 80 22:57 28.10.2019
5387 Rain 8 1013 100 0 0.89 90 22:37 28.10.2019
5388 Rain 8 1016 96 0 0.51 34 22:18 28.10.2019
5389 Rain 8 1013 100 0 0.89 90 21:55 28.10.2019
5390 Rain 8 1013 100 0 0.45 90 21:37 28.10.2019
5391 Rain 8 1013 100 0 0.89 68 21:18 28.10.2019
5392 Rain 8 1013 100 0 0.89 68 21:18 28.10.2019
5393 Rain 8 1018 93 9000 2.6 90 20:44 28.10.2019
5394 Rain 9 1018 93 10000 2.6 90 20:24 28.10.2019
5395 Rain 9 1018 93 10000 2.6 90 19:58 28.10.2019
5396 Rain 9 1018 93 10000 2.6 80 19:39 28.10.2019
5397 Rain 9 1018 93 10000 3.1 90 19:20 28.10.2019
5398 Rain 9 1018 93 10000 3.1 90 19:20 28.10.2019
5399 Rain 9 1013 100 0 1.34 68 18:58 28.10.2019
5400 Rain 9 1018 93 10000 3.1 80 18:39 28.10.2019
5401 Rain 9 1014 100 0 1.34 113 18:21 28.10.2019
5402 Rain 9 1014 100 0 1.34 113 18:21 28.10.2019
5403 Rain 9 1013 100 0 3.13 68 17:56 28.10.2019
5404 Rain 9 1016 95 0 0.49 48 17:38 28.10.2019
5405 Rain 9 1013 100 0 1.34 90 17:19 28.10.2019
5406 Rain 9 1016 95 0 0.52 103 16:56 28.10.2019
5407 Rain 9 1017 96 0 1.79 47 16:38 28.10.2019
5408 Rain 9 1017 96 0 1.34 40 16:19 28.10.2019
5409 Rain 9 1016 95 0 0.89 293 15:56 28.10.2019
5410 Rain 10 1017 95 0 0.52 103 15:38 28.10.2019
5411 Rain 10 1017 95 0 0.52 103 15:18 28.10.2019
5412 Rain 10 1017 95 0 0.52 103 14:55 28.10.2019
5413 Rain 10 1016 95 0 0.52 103 14:37 28.10.2019
5414 Rain 10 1016 94 0 0.68 86 14:18 28.10.2019
5415 Rain 10 1016 95 0 0.68 86 13:54 28.10.2019
5416 Rain 10 1016 95 0 0.68 86 13:54 28.10.2019
5417 Rain 10 1016 95 0 0.86 73 13:36 28.10.2019
5418 Rain 10 1017 93 0 0.89 40 13:18 28.10.2019
5419 Rain 10 1017 91 0 0.86 73 12:40 28.10.2019
5420 Rain 11 1020 87 10000 0.5 0 12:19 28.10.2019
5421 Rain 11 1020 87 9000 0.5 0 11:39 28.10.2019
5422 Rain 11 1021 87 8000 1.5 270 11:20 28.10.2019
5423 Rain 11 1021 87 8000 1.5 270 10:56 28.10.2019
5424 Rain 11 1020 93 8000 1 280 10:38 28.10.2019
5425 Drizzle 11 1020 93 8000 1 0 10:19 28.10.2019
5426 Rain 11 1021 93 7000 1.5 270 09:54 28.10.2019
5427 Rain 10 1021 93 7000 1.5 270 09:36 28.10.2019
5428 Rain 10 1020 93 7000 1.5 270 09:18 28.10.2019
5429 Drizzle 10 1020 93 8000 1.23 8 08:55 28.10.2019
5430 Drizzle 10 1020 93 8000 1.23 8 08:37 28.10.2019
5431 Rain 10 1020 100 7000 1.65 358 08:18 28.10.2019
5432 Rain 10 1020 93 7000 0.5 0 07:42 28.10.2019
5433 Rain 10 1020 93 7000 1.65 358 07:21 28.10.2019
5434 Rain 10 1020 93 7000 1.65 358 06:55 28.10.2019
5435 Rain 10 1020 93 7000 0.5 0 06:34 28.10.2019
5436 Rain 10 1020 93 10000 1 0 04:39 28.10.2019
5437 Rain 10 1020 87 10000 0.5 0 03:43 28.10.2019
5438 Clouds 10 1020 87 10000 0.5 0 02:45 28.10.2019
5439 Clouds 11 1020 87 10000 1.5 240 01:36 28.10.2019
5440 Clouds 10 1020 87 10000 1 260 00:46 28.10.2019
5441 Clouds 10 1021 87 10000 0.5 0 00:23 28.10.2019
5442 Clouds 11 1021 87 10000 1 0 23:44 27.10.2019
5443 Clouds 11 1021 81 10000 1 0 23:21 27.10.2019
5444 Clouds 11 1021 81 10000 1 0 22:56 27.10.2019
5445 Clouds 11 1021 81 10000 1 0 22:56 27.10.2019
5446 Clouds 11 1021 87 10000 1 0 22:37 27.10.2019
5447 Clouds 11 1021 81 10000 0.5 0 22:18 27.10.2019
5448 Clouds 11 1021 87 10000 0.5 0 21:40 27.10.2019
5449 Clouds 11 1021 87 10000 1 0 21:22 27.10.2019
5450 Clouds 11 1021 87 10000 1 0 20:59 27.10.2019
5451 Clouds 11 1021 87 10000 0.5 0 20:40 27.10.2019
5452 Clouds 12 1021 81 10000 1 0 20:22 27.10.2019
5453 Clouds 12 1021 81 10000 1 0 19:57 27.10.2019
5454 Clouds 12 1021 81 10000 1 0 19:37 27.10.2019
5455 Clouds 12 1020 76 10000 1 0 19:19 27.10.2019
5456 Clouds 12 1020 76 10000 1 0 18:56 27.10.2019
5457 Clouds 12 1020 76 10000 0.5 0 18:38 27.10.2019
5458 Clouds 13 1020 76 10000 0.5 0 18:19 27.10.2019
5459 Clouds 14 1020 71 10000 1 0 17:54 27.10.2019
5460 Clouds 17 1020 71 10000 1 0 17:36 27.10.2019
5461 Clouds 15 1019 67 10000 0.5 0 17:18 27.10.2019
5462 Clouds 16 1019 67 10000 0.5 0 16:55 27.10.2019
5463 Clouds 16 1019 63 10000 1.5 160 16:37 27.10.2019
5464 Clouds 17 1019 55 10000 1.5 160 16:18 27.10.2019
5465 Clouds 17 1019 55 10000 1.5 160 15:54 27.10.2019
5466 Clouds 17 1019 52 10000 1 0 15:36 27.10.2019
5467 Clouds 19 1019 45 10000 1.5 170 15:18 27.10.2019
5468 Clouds 19 1020 49 10000 1.5 120 14:41 27.10.2019
5469 Clear 18 1020 45 10000 1.5 0 14:19 27.10.2019
5470 Clear 18 1020 45 10000 1.5 170 13:54 27.10.2019
5471 Clear 17 1020 45 10000 1.5 170 13:36 27.10.2019
5472 Clear 17 1021 52 10000 1 0 13:18 27.10.2019
5473 Clear 17 1021 55 10000 1 0 12:42 27.10.2019
5474 Clear 17 1022 59 10000 0.5 0 12:23 27.10.2019
5475 Clear 17 1022 62 10000 0.5 0 11:43 27.10.2019
5476 Clear 15 1022 62 10000 0.5 0 11:25 27.10.2019
5477 Clear 14 1023 71 10000 1 0 11:25 27.10.2019
5478 Clear 15 1022 62 10000 0.5 0 11:25 27.10.2019
5479 Clear 15 1023 71 10000 1 0 10:57 27.10.2019
5480 Clear 15 1023 76 10000 1 0 10:39 27.10.2019
5481 Clear 15 1023 76 10000 1 0 10:38 27.10.2019
5482 Clear 13 1023 76 10000 0.5 0 10:20 27.10.2019
5483 Clear 13 1024 81 10000 1 0 09:43 27.10.2019
5484 Clear 11 1024 93 10000 1.5 260 09:19 27.10.2019
5485 Clear 10 1024 93 10000 1.5 260 08:57 27.10.2019
5486 Clear 9 1024 93 10000 1 0 08:38 27.10.2019
5487 Clear 6 1024 100 10000 0.5 0 08:19 27.10.2019
5488 Fog 6 1024 93 10000 0.5 0 07:47 27.10.2019
5489 Fog 6 1024 93 10000 0.5 0 07:28 27.10.2019
5490 Clear 6 1024 100 10000 0.5 0 06:55 27.10.2019
5491 Clear 7 1023 93 10000 1.5 240 06:29 27.10.2019
5492 Clear 7 1024 100 10000 2.1 260 05:57 27.10.2019
5493 Clear 7 1024 93 10000 1.5 320 05:36 27.10.2019
5494 Clear 7 1023 93 10000 0.5 0 04:25 27.10.2019
5495 Clear 8 1024 93 10000 0.5 0 02:29 27.10.2019
5496 Clear 8 1024 93 10000 0.5 0 01:27 27.10.2019
5497 Clear 8 1024 93 10000 0.5 0 00:55 27.10.2019
5498 Clear 8 1024 93 10000 0.5 0 00:36 27.10.2019
5499 Clear 9 1023 93 10000 0.5 0 23:58 26.10.2019
5500 Clear 10 1023 87 10000 0.5 0 23:40 26.10.2019
5501 Clear 10 1023 87 10000 1.5 270 23:21 26.10.2019
5502 Clear 9 1023 87 10000 0.5 0 22:57 26.10.2019
5503 Clear 10 1023 87 10000 0.5 0 22:38 26.10.2019
5504 Clear 10 1023 81 10000 0.5 0 22:19 26.10.2019
5505 Clear 11 1023 81 10000 0.5 0 21:55 26.10.2019
5506 Clear 11 1023 87 10000 0.5 0 21:37 26.10.2019
5507 Clear 11 1023 87 10000 1 0 21:19 26.10.2019
5508 Clear 12 1023 81 10000 1.5 260 20:42 26.10.2019
5509 Clear 12 1022 81 10000 0.5 0 20:19 26.10.2019
5510 Clear 13 1022 76 10000 0.5 0 19:44 26.10.2019
5511 Clear 13 1021 71 10000 0.5 0 19:21 26.10.2019
5512 Clear 14 1021 71 10000 0.5 0 18:59 26.10.2019
5513 Clear 15 1021 67 10000 1.5 0 18:40 26.10.2019
5514 Clear 16 1021 63 10000 1 0 18:20 26.10.2019
5515 Clear 16 1021 63 10000 1 0 17:59 26.10.2019
5516 Clear 17 1020 55 10000 2.6 160 17:39 26.10.2019
5517 Clear 18 1020 49 10000 2.1 150 17:20 26.10.2019
5518 Clear 19 1020 49 10000 1.5 160 16:57 26.10.2019
5519 Clear 18 1020 49 10000 1.5 160 16:38 26.10.2019
5520 Clear 19 1020 49 10000 2.6 250 16:20 26.10.2019
5521 Clear 19 1020 43 10000 3.6 260 15:40 26.10.2019
5522 Clear 19 1020 43 10000 3.6 260 15:40 26.10.2019
5523 Clear 19 1020 49 10000 4.1 260 15:18 26.10.2019
5524 Clear 19 1021 49 10000 3.6 260 14:40 26.10.2019
5525 Clear 19 1021 49 10000 3.6 260 14:40 26.10.2019
5526 Clear 19 1021 52 10000 4.6 280 14:20 26.10.2019
5527 Clear 19 1021 38 0 0.65 350 13:59 26.10.2019
5528 Clear 19 1021 38 0 0.65 350 13:39 26.10.2019
5529 Clear 19 1021 38 0 0.65 350 13:20 26.10.2019
5530 Clear 17 1023 55 10000 2.6 250 12:46 26.10.2019
5531 Clear 14 1024 76 10000 1 0 12:23 26.10.2019
5532 Clear 13 1024 76 10000 1 0 11:48 26.10.2019
5533 Clear 13 1024 76 10000 1 0 11:48 26.10.2019
5534 Clear 12 1024 76 10000 1 0 11:28 26.10.2019
5535 Clear 12 1024 76 10000 1 0 11:28 26.10.2019
5536 Clear 12 1024 76 10000 1 0 11:28 26.10.2019
5537 Clear 11 1024 81 10000 0.5 0 10:47 26.10.2019
5538 Clear 11 1024 81 10000 0.5 0 10:27 26.10.2019
5539 Clear 10 1025 87 10000 0.5 0 09:59 26.10.2019
5540 Clear 8 1025 93 10000 0.5 0 09:41 26.10.2019
5541 Clear 6 1025 100 10000 0.5 0 09:22 26.10.2019
5542 Fog 5 1025 100 10000 0.5 0 08:43 26.10.2019
5543 Fog 6 1024 100 10000 0.5 0 08:25 26.10.2019
5544 Clear 6 1024 100 10000 0.5 0 07:44 26.10.2019
5545 Clear 6 1024 100 10000 0.5 0 07:44 26.10.2019
5546 Clear 6 1024 100 10000 0.5 0 07:25 26.10.2019
5547 Clear 6 1024 100 10000 1 290 06:42 26.10.2019
5548 Clear 7 1024 93 10000 0.5 0 06:23 26.10.2019
5549 Clear 7 1024 100 10000 0.5 0 05:19 26.10.2019
5550 Clear 7 1023 93 10000 1 0 04:23 26.10.2019
5551 Clouds 7 1024 100 10000 1 0 02:45 26.10.2019
5552 Clouds 8 1024 93 10000 1 0 01:51 26.10.2019
5553 Clouds 8 1024 93 10000 0.5 0 01:20 26.10.2019
5554 Clouds 8 1025 87 10000 1.5 270 00:23 26.10.2019
5555 Clouds 8 1025 93 10000 0.5 0 23:41 25.10.2019
5556 Clouds 8 1025 87 10000 1.5 240 23:20 25.10.2019
5557 Clouds 9 1025 93 10000 2.1 240 22:40 25.10.2019
5558 Clouds 9 1025 87 10000 1 0 22:22 25.10.2019
5559 Clouds 9 1025 87 10000 1 0 21:57 25.10.2019
5560 Clouds 9 1025 87 10000 0.5 0 21:39 25.10.2019
5561 Clouds 9 1025 87 10000 0.5 0 21:39 25.10.2019
5562 Clouds 10 1025 81 10000 0.5 0 21:19 25.10.2019
5563 Clouds 10 1024 87 10000 1 0 20:45 25.10.2019
5564 Clouds 11 1024 76 10000 1 150 20:20 25.10.2019
5565 Clouds 12 1024 76 10000 1 150 19:59 25.10.2019
5566 Clouds 12 1024 76 10000 1 150 19:59 25.10.2019
5567 Clouds 11 1024 76 10000 0.5 0 19:40 25.10.2019
5568 Clouds 12 1023 76 10000 0.5 0 19:22 25.10.2019
5569 Clouds 15 1023 72 10000 1 0 18:43 25.10.2019
5570 Clouds 15 1023 72 10000 1.5 140 18:21 25.10.2019
5571 Clouds 15 1022 63 10000 0.5 0 17:41 25.10.2019
5572 Clouds 16 1022 63 10000 1.5 180 17:21 25.10.2019
5573 Clouds 17 1022 55 10000 1 0 16:54 25.10.2019
5574 Clouds 16 1022 55 10000 1 0 16:36 25.10.2019
5575 Clouds 17 1022 52 10000 1.5 120 16:18 25.10.2019
5576 Clouds 17 1022 52 10000 2.6 110 15:40 25.10.2019
5577 Clouds 17 1022 55 10000 1.5 50 15:21 25.10.2019
5578 Clouds 16 1022 55 10000 1.5 50 14:57 25.10.2019
5579 Clouds 16 1023 59 10000 1 0 14:38 25.10.2019
5580 Clouds 16 1023 63 10000 3.1 290 14:20 25.10.2019
5581 Clouds 16 1023 63 10000 3.6 260 13:41 25.10.2019
5582 Clouds 15 1023 67 10000 3.1 250 13:23 25.10.2019
5583 Clouds 14 1023 67 10000 3.1 250 12:55 25.10.2019
5584 Clouds 14 1023 63 10000 2.1 110 12:37 25.10.2019
5585 Clouds 13 1023 72 10000 3.1 90 12:18 25.10.2019
5586 Clouds 13 1023 71 10000 3.1 80 11:40 25.10.2019
5587 Clouds 12 1024 76 10000 3.6 70 11:22 25.10.2019
5588 Clouds 12 1024 76 10000 3.6 70 10:57 25.10.2019
5589 Clouds 11 1024 76 10000 3.1 80 10:36 25.10.2019
5590 Clouds 11 1024 76 10000 3.1 80 10:36 25.10.2019
5591 Clouds 11 1024 76 10000 2.6 90 10:18 25.10.2019
5592 Clouds 11 1024 81 10000 2.1 120 09:41 25.10.2019
5593 Rain 10 1020 80 0 1.21 345 09:21 25.10.2019
5594 Rain 10 1020 81 0 1.21 345 08:57 25.10.2019
5595 Rain 10 1020 84 0 1.21 345 08:39 25.10.2019
5596 Rain 10 1020 84 0 1.21 345 08:39 25.10.2019
5597 Clouds 10 1022 81 10000 1 90 08:20 25.10.2019
5598 Clouds 9 1022 81 10000 1 0 07:45 25.10.2019
5599 Clouds 10 1022 81 10000 1 0 07:26 25.10.2019
5600 Rain 9 1017 83 0 1.21 345 06:37 25.10.2019
5601 Clouds 9 1021 87 10000 1 0 05:49 25.10.2019
5602 Clouds 9 1021 87 10000 1 0 05:28 25.10.2019
5603 Clouds 9 1020 87 10000 1.16 9 04:30 25.10.2019
5604 Clouds 10 1019 76 10000 0.5 0 02:35 25.10.2019
5605 Clouds 10 1018 76 10000 1.5 270 01:52 25.10.2019
5606 Clouds 11 1017 67 10000 1.5 110 00:34 25.10.2019
5607 Clouds 12 1016 67 10000 1.5 100 23:43 24.10.2019
5608 Clouds 12 1016 67 10000 1.5 100 23:24 24.10.2019
5609 Clouds 12 1016 63 10000 3.1 90 22:59 24.10.2019
5610 Clouds 13 1015 51 10000 2.1 0 22:39 24.10.2019
5611 Clouds 13 1015 55 10000 3.6 270 22:19 24.10.2019
5612 Clouds 13 1015 55 10000 3.6 270 21:57 24.10.2019
5613 Clouds 14 1015 45 10000 2.1 230 21:38 24.10.2019
5614 Clouds 13 1012 83 0 1.79 63 21:20 24.10.2019
5615 Clouds 13 1012 80 0 1.79 39 20:59 24.10.2019
5616 Clouds 13 1012 74 0 1.79 56 20:39 24.10.2019
5617 Clouds 13 1012 72 0 2.68 60 20:21 24.10.2019
5618 Clouds 13 1012 70 0 2.68 39 19:56 24.10.2019
5619 Clouds 16 1014 37 10000 1 0 19:37 24.10.2019
5620 Clouds 16 1013 37 10000 5.1 130 19:18 24.10.2019
5621 Clouds 16 1013 35 10000 3.6 70 18:41 24.10.2019
5622 Clouds 16 1010 44 0 0.45 158 18:23 24.10.2019
5623 Clouds 16 1009 44 0 0.45 258 17:59 24.10.2019
5624 Clouds 17 1009 44 0 0.45 183 17:41 24.10.2019
5625 Clouds 17 1009 42 0 3.58 159 17:20 24.10.2019
5626 Clouds 17 1009 43 0 3.13 164 16:56 24.10.2019
5627 Clouds 17 1012 33 10000 6.7 120 16:38 24.10.2019
5628 Clouds 18 1012 31 10000 5.7 90 16:19 24.10.2019
5629 Clouds 18 1012 31 10000 5.7 90 15:57 24.10.2019
5630 Clouds 18 1013 28 10000 6.7 120 15:39 24.10.2019
5631 Clouds 18 1009 39 0 2.24 131 15:21 24.10.2019
5632 Clouds 18 1009 39 0 3.13 181 14:55 24.10.2019
5633 Clouds 19 1012 27 10000 7.2 130 14:37 24.10.2019
5634 Clouds 18 1009 36 0 4.92 185 14:18 24.10.2019
5635 Clouds 18 1012 45 10000 3.1 280 13:40 24.10.2019
5636 Clouds 17 1012 52 10000 4.1 260 13:19 24.10.2019
5637 Clouds 17 1012 52 10000 4.1 260 13:19 24.10.2019
5638 Clouds 17 1012 52 10000 4.1 260 12:57 24.10.2019
5639 Clouds 17 1014 59 10000 6.2 280 12:38 24.10.2019
5640 Clouds 14 1013 62 10000 6.2 270 12:19 24.10.2019
5641 Clouds 13 1013 62 10000 6.2 270 11:56 24.10.2019
5642 Clouds 13 1013 62 10000 6.2 270 11:56 24.10.2019
5643 Clouds 13 1014 62 10000 4.1 260 11:37 24.10.2019
5644 Clouds 13 1014 62 10000 4.1 260 11:37 24.10.2019
5645 Clouds 13 1013 67 10000 4.1 260 11:19 24.10.2019
5646 Clouds 15 1014 76 10000 4.1 280 10:55 24.10.2019
5647 Clouds 15 1014 76 10000 4.1 280 10:36 24.10.2019
5648 Clouds 14 1014 71 10000 6.2 260 10:18 24.10.2019
5649 Clouds 12 1014 76 10000 4.1 270 09:37 24.10.2019
5650 Clouds 10 1014 76 10000 3.6 270 09:18 24.10.2019
5651 Clouds 10 1014 81 10000 5.1 270 08:44 24.10.2019
5652 Clouds 10 1014 76 10000 3.6 260 08:20 24.10.2019
5653 Clouds 10 1014 76 10000 3.1 0 07:49 24.10.2019
5654 Clouds 11 1014 76 10000 3.6 280 07:24 24.10.2019
5655 Clouds 10 1014 76 10000 3.6 280 06:59 24.10.2019
5656 Clouds 11 1014 81 10000 3.1 270 06:37 24.10.2019
5657 Clouds 9 1014 66 10000 3.1 0 05:56 24.10.2019
5658 Clouds 9 1014 66 10000 3.1 0 05:35 24.10.2019
5659 Clouds 9 1014 76 10000 4.1 0 04:34 24.10.2019
5660 Clear 9 1014 66 10000 2.6 250 03:36 24.10.2019
5661 Clouds 10 1015 71 10000 5.7 280 02:44 24.10.2019
5662 Clouds 10 1015 71 10000 3.6 240 02:20 24.10.2019
5663 Clouds 10 1015 76 10000 2.6 270 01:32 24.10.2019
5664 Clouds 10 1015 71 10000 3.6 0 00:57 24.10.2019
5665 Clouds 10 1015 76 10000 4.6 270 00:30 24.10.2019
5666 Clouds 11 1015 71 10000 4.1 260 23:58 23.10.2019
5667 Clouds 11 1016 62 10000 2.1 0 23:38 23.10.2019
5668 Clouds 11 1016 71 10000 1.5 0 23:20 23.10.2019
5669 Clouds 11 1016 71 10000 1.5 0 22:57 23.10.2019
5670 Clouds 11 1016 66 10000 3.6 250 22:37 23.10.2019
5671 Clouds 12 1016 62 10000 3.6 250 22:18 23.10.2019
5672 Clouds 12 1016 62 10000 3.6 250 21:57 23.10.2019
5673 Clouds 12 1016 62 10000 3.6 250 21:57 23.10.2019
5674 Clouds 12 1016 51 10000 2.1 0 21:37 23.10.2019
5675 Clouds 13 1016 51 10000 2.6 0 21:19 23.10.2019
5676 Clouds 13 1016 51 10000 2.6 0 20:54 23.10.2019
5677 Clouds 13 1016 55 10000 4.1 240 20:36 23.10.2019
5678 Clouds 13 1014 62 0 3.75 184 20:18 23.10.2019
5679 Clouds 15 1015 33 10000 5.1 50 19:43 23.10.2019
5680 Clouds 16 1015 30 10000 6.7 50 19:19 23.10.2019
5681 Clouds 17 1015 30 10000 6.7 50 18:58 23.10.2019
5682 Clouds 20 1015 40 10000 4.1 0 18:39 23.10.2019
5683 Clouds 17 1012 37 0 4.02 102 18:19 23.10.2019
5684 Clouds 18 1013 35 0 0.89 200 17:55 23.10.2019
5685 Clouds 18 1013 35 0 0.89 200 17:55 23.10.2019
5686 Clouds 18 1013 57 0 2.65 183 17:36 23.10.2019
5687 Clouds 18 1013 57 0 2.65 183 17:36 23.10.2019
5688 Clouds 19 1013 57 0 2.65 183 17:18 23.10.2019
5689 Clouds 21 1014 22 10000 4.1 0 16:40 23.10.2019
5690 Clouds 22 1015 22 10000 4.6 60 16:21 23.10.2019
5691 Clouds 21 1015 22 10000 4.6 60 15:57 23.10.2019
5692 Clouds 22 1015 23 10000 4.6 70 15:38 23.10.2019
5693 Clear 21 1016 49 10000 4.6 280 15:20 23.10.2019
5694 Clear 21 1016 49 10000 4.6 280 14:56 23.10.2019
5695 Clouds 21 1016 37 10000 5.7 350 14:37 23.10.2019
5696 Clouds 20 1016 49 10000 6.2 260 14:18 23.10.2019
5697 Clouds 21 1016 45 10000 6.7 250 13:42 23.10.2019
5698 Clouds 21 1017 48 10000 6.2 270 13:24 23.10.2019
5699 Clouds 20 1017 48 10000 6.2 270 12:57 23.10.2019
5700 Clouds 20 1018 55 10000 6.7 270 12:38 23.10.2019
5701 Clear 17 1018 59 10000 6.2 260 12:19 23.10.2019
5702 Clear 16 1018 59 10000 6.2 260 11:57 23.10.2019
5703 Clouds 15 1019 63 10000 6.2 270 11:39 23.10.2019
5704 Clear 14 1019 67 10000 6.7 270 11:20 23.10.2019
5705 Clear 15 1019 67 10000 6.2 260 10:46 23.10.2019
5706 Clear 13 1019 67 10000 6.2 260 10:26 23.10.2019
5707 Clear 12 1020 81 10000 5.1 280 09:58 23.10.2019
5708 Clouds 11 1020 81 10000 5.1 280 09:40 23.10.2019
5709 Clouds 9 1020 87 10000 2.1 300 09:21 23.10.2019
5710 Clouds 8 1020 87 10000 2.6 260 08:43 23.10.2019
5711 Clouds 8 1020 87 10000 2.6 260 08:25 23.10.2019
5712 Clouds 8 1020 87 10000 2.6 250 07:58 23.10.2019
5713 Clouds 9 1020 87 10000 2.1 260 07:39 23.10.2019
5714 Rain 9 1020 93 10000 1 0 07:18 23.10.2019
5715 Rain 9 1020 93 10000 2.1 240 06:41 23.10.2019
5716 Clouds 9 1021 93 10000 1.5 0 06:18 23.10.2019
5717 Clouds 9 1021 93 10000 1 0 05:18 23.10.2019
5718 Clouds 10 1022 100 10000 1 0 03:46 23.10.2019
5719 Clouds 11 1022 100 10000 0.5 0 02:43 23.10.2019
5720 Clouds 10 1023 93 10000 1 0 01:40 23.10.2019
5721 Clouds 10 1023 93 10000 1 0 00:59 23.10.2019
5722 Clouds 11 1023 93 10000 1 0 00:33 23.10.2019
5723 Clouds 11 1023 93 8000 0.5 0 23:55 22.10.2019
5724 Clouds 12 1023 87 10000 0.5 0 23:37 22.10.2019
5725 Clouds 12 1023 87 10000 0.5 0 23:37 22.10.2019
5726 Clouds 12 1023 93 10000 1.5 270 23:18 22.10.2019
5727 Clouds 13 1022 87 10000 1 0 22:40 22.10.2019
5728 Clouds 12 1022 87 10000 1.5 70 22:22 22.10.2019
5729 Clouds 12 1022 87 10000 1.5 70 21:57 22.10.2019
5730 Clouds 12 1022 82 10000 2.6 90 21:38 22.10.2019
5731 Clouds 13 1022 82 10000 2.6 90 21:19 22.10.2019
5732 Clouds 12 1022 82 10000 2.6 90 20:58 22.10.2019
5733 Clouds 13 1022 77 10000 2.1 100 20:40 22.10.2019
5734 Clouds 13 1022 77 10000 3.6 110 20:22 22.10.2019
5735 Clouds 13 1021 77 10000 3.1 100 19:57 22.10.2019
5736 Clouds 13 1021 77 10000 3.1 100 19:39 22.10.2019
5737 Clouds 13 1021 72 10000 6.7 80 19:21 22.10.2019
5738 Clouds 14 1021 68 10000 6.2 80 18:55 22.10.2019
5739 Clouds 14 1021 68 10000 6.2 80 18:37 22.10.2019
5740 Clouds 14 1021 68 10000 6.2 80 18:37 22.10.2019
5741 Clouds 15 1021 68 10000 6.2 70 18:19 22.10.2019
5742 Clouds 15 1020 60 10000 6.2 80 17:54 22.10.2019
5743 Clouds 16 1020 60 10000 6.2 80 17:36 22.10.2019
5744 Clouds 16 1020 60 10000 5.1 90 17:18 22.10.2019
5745 Clouds 16 1020 80 0 1.34 14 16:39 22.10.2019
5746 Clouds 16 1020 80 0 1.34 14 16:39 22.10.2019
5747 Clouds 18 1020 46 10000 0.5 0 16:20 22.10.2019
5748 Clouds 17 1020 46 10000 0.5 0 15:59 22.10.2019
5749 Clouds 17 1020 46 10000 3.6 270 15:41 22.10.2019
5750 Clouds 18 1020 53 10000 4.1 270 15:19 22.10.2019
5751 Clouds 18 1021 49 10000 4.1 260 14:46 22.10.2019
5752 Clouds 18 1021 52 10000 5.7 270 14:22 22.10.2019
5753 Clouds 18 1021 52 10000 5.7 270 13:55 22.10.2019
5754 Clouds 18 1021 52 10000 5.7 270 13:55 22.10.2019
5755 Clouds 18 1022 52 10000 5.7 270 13:37 22.10.2019
5756 Clouds 19 1022 56 10000 4.1 270 13:18 22.10.2019
5757 Clouds 17 1023 59 10000 4.6 270 12:41 22.10.2019
5758 Clouds 16 1023 63 10000 5.1 280 12:22 22.10.2019
5759 Clouds 16 1023 63 10000 5.1 280 11:59 22.10.2019
5760 Clouds 15 1023 72 10000 4.6 270 11:40 22.10.2019
5761 Clouds 14 1024 77 10000 3.1 270 11:22 22.10.2019
5762 Clouds 14 1024 77 10000 3.1 270 10:58 22.10.2019
5763 Clouds 13 1024 77 10000 1 0 10:37 22.10.2019
5764 Clouds 12 1024 76 10000 0.5 0 10:19 22.10.2019
5765 Clouds 12 1024 76 10000 0.5 0 09:56 22.10.2019
5766 Clouds 11 1024 87 10000 0.5 0 09:37 22.10.2019
5767 Clouds 11 1024 87 10000 0.5 0 09:37 22.10.2019
5768 Clouds 10 1024 93 10000 1 0 09:19 22.10.2019
5769 Clouds 10 1024 93 10000 1.5 110 08:43 22.10.2019
5770 Clouds 9 1024 93 10000 1.5 220 08:22 22.10.2019
5771 Clouds 9 1023 93 10000 1.5 280 07:50 22.10.2019
5772 Clouds 9 1023 93 10000 1.5 280 07:29 22.10.2019
5773 Clouds 10 1023 87 10000 1.5 90 06:52 22.10.2019
5774 Clouds 10 1023 87 10000 1.5 90 06:31 22.10.2019
5775 Clouds 10 1023 87 10000 1 0 05:59 22.10.2019
5776 Clouds 10 1023 87 10000 1 0 05:24 22.10.2019
5777 Clouds 11 1023 82 10000 3.6 280 03:19 22.10.2019
5778 Clouds 11 1023 82 10000 1.5 240 02:28 22.10.2019
5779 Clouds 11 1021 95 0 0.99 173 01:31 22.10.2019
5780 Clouds 11 1021 95 0 0.99 173 00:58 22.10.2019
5781 Clouds 11 1021 95 0 0.99 173 00:40 22.10.2019
5782 Clouds 12 1022 82 10000 3.1 270 00:21 22.10.2019
5783 Clouds 12 1022 82 10000 3.1 270 23:56 21.10.2019
5784 Clouds 13 1022 77 10000 3.1 250 23:37 21.10.2019
5785 Clouds 12 1022 77 10000 3.1 280 23:18 21.10.2019
5786 Clouds 11 1020 94 0 0.63 226 22:57 21.10.2019
5787 Clouds 12 1020 94 0 0.63 226 22:38 21.10.2019
5788 Clouds 12 1020 94 0 0.63 226 22:19 21.10.2019
5789 Clouds 12 1020 92 0 0.45 145 21:54 21.10.2019
5790 Clouds 12 1020 92 0 0.59 196 21:36 21.10.2019
5791 Clouds 12 1016 100 0 2.24 90 21:18 21.10.2019
5792 Clouds 13 1020 91 0 0.39 24 20:41 21.10.2019
5793 Clouds 13 1019 91 0 0.39 24 20:21 21.10.2019
5794 Clouds 14 1021 46 10000 2.1 0 20:00 21.10.2019
5795 Clouds 15 1021 46 10000 5.1 120 19:41 21.10.2019
5796 Clouds 16 1020 46 10000 5.7 140 19:22 21.10.2019
5797 Clouds 17 1020 46 10000 5.7 140 18:57 21.10.2019
5798 Clouds 19 1019 43 10000 5.1 60 18:38 21.10.2019
5799 Clouds 19 1019 43 10000 5.1 60 18:38 21.10.2019
5800 Clouds 17 1019 49 10000 5.7 0 18:19 21.10.2019
5801 Clouds 16 1016 58 0 2.24 231 17:59 21.10.2019
5802 Clouds 17 1016 58 0 2.68 125 17:38 21.10.2019
5803 Clouds 17 1016 59 0 2.24 227 17:19 21.10.2019
5804 Clouds 18 1016 58 0 2.68 125 16:57 21.10.2019
5805 Clouds 18 1019 46 10000 3.6 0 16:39 21.10.2019
5806 Clouds 19 1020 49 10000 4.6 0 16:20 21.10.2019
5807 Clouds 18 1020 49 10000 6.2 0 15:47 21.10.2019
5808 Clouds 18 1020 49 10000 6.2 0 15:25 21.10.2019
5809 Clouds 18 1020 46 10000 6.2 130 14:58 21.10.2019
5810 Clouds 20 1020 43 10000 6.7 120 14:39 21.10.2019
5811 Clouds 20 1019 40 10000 6.7 0 14:21 21.10.2019
5812 Clouds 20 1019 40 10000 6.7 0 13:57 21.10.2019
5813 Clouds 20 1019 43 10000 6.7 50 13:39 21.10.2019
5814 Clouds 20 1020 40 10000 4.1 0 13:19 21.10.2019
5815 Clouds 19 1020 49 10000 2.1 0 12:42 21.10.2019
5816 Clouds 15 1020 59 10000 4.1 250 12:22 21.10.2019
5817 Clouds 17 1020 59 10000 4.1 250 11:57 21.10.2019
5818 Clouds 16 1020 67 10000 5.1 280 11:39 21.10.2019
5819 Clouds 16 1020 67 10000 6.2 260 11:20 21.10.2019
5820 Clouds 16 1020 67 10000 6.2 260 11:20 21.10.2019
5821 Clouds 16 1020 67 10000 6.2 260 10:57 21.10.2019
5822 Clouds 14 1019 76 10000 4.1 260 10:38 21.10.2019
5823 Rain 13 1019 81 10000 5.7 270 10:19 21.10.2019
5824 Clouds 13 1019 81 10000 3.6 250 09:46 21.10.2019
5825 Clouds 11 1019 81 10000 3.6 250 09:26 21.10.2019
5826 Clouds 11 1019 81 10000 5.7 260 08:57 21.10.2019
5827 Clouds 12 1018 81 10000 4.6 240 08:37 21.10.2019
5828 Clouds 11 1017 76 10000 3.6 230 08:19 21.10.2019
5829 Clouds 12 1017 76 10000 3.6 280 07:39 21.10.2019
5830 Clouds 12 1017 76 10000 2.6 0 07:21 21.10.2019
5831 Clouds 12 1017 76 10000 2.6 0 06:56 21.10.2019
5832 Clouds 12 1016 71 10000 5.1 270 06:36 21.10.2019
5833 Clouds 12 1016 71 10000 5.1 270 06:36 21.10.2019
5834 Clouds 13 1016 52 10000 5.1 0 05:56 21.10.2019
5835 Clouds 13 1015 43 10000 7.7 360 04:46 21.10.2019
5836 Clouds 13 1015 49 10000 6.2 0 03:37 21.10.2019
5837 Clouds 14 1015 43 10000 7.7 50 02:25 21.10.2019
5838 Clouds 14 1014 43 10000 6.2 20 01:59 21.10.2019
5839 Clouds 15 1014 46 10000 3.1 0 01:23 21.10.2019
5840 Clouds 14 1014 46 10000 6.2 0 00:48 21.10.2019
5841 Clouds 14 1014 46 10000 6.2 0 00:26 21.10.2019
5842 Clouds 14 1014 46 10000 8.7 120 23:42 20.10.2019
5843 Clouds 13 1014 46 10000 4.1 0 23:22 20.10.2019
5844 Clouds 13 1014 46 10000 4.1 0 23:22 20.10.2019
5845 Clouds 14 1014 46 10000 4.1 0 22:57 20.10.2019
5846 Clouds 14 1014 46 10000 4.1 0 22:57 20.10.2019
5847 Clouds 14 1014 46 10000 5.1 100 22:38 20.10.2019
5848 Clouds 14 1014 43 10000 6.7 360 22:18 20.10.2019
5849 Clouds 14 1014 43 10000 6.7 360 21:58 20.10.2019
5850 Clouds 14 1013 43 10000 4.6 60 21:39 20.10.2019
5851 Clouds 14 1013 43 10000 4.1 0 21:21 20.10.2019
5852 Clouds 14 1013 43 10000 4.1 0 20:42 20.10.2019
5853 Clouds 14 1012 43 10000 5.1 0 20:20 20.10.2019
5854 Clouds 14 1012 43 10000 5.1 0 19:57 20.10.2019
5855 Clouds 14 1012 43 10000 5.1 0 19:57 20.10.2019
5856 Clouds 15 1012 43 10000 5.7 0 19:39 20.10.2019
5857 Clouds 15 1012 40 10000 5.1 0 19:20 20.10.2019
5858 Clouds 13 1011 85 0 3.34 176.529 18:56 20.10.2019
5859 Clouds 13 1011 85 0 3.34 176.529 18:56 20.10.2019
5860 Clouds 14 1011 85 0 3.34 176.529 18:38 20.10.2019
5861 Clouds 14 1011 65 0 2.56 158.993 18:20 20.10.2019
5862 Clouds 16 1011 37 10000 5.1 150 17:54 20.10.2019
5863 Clouds 16 1011 37 10000 5.1 150 17:36 20.10.2019
5864 Clouds 16 1011 40 10000 4.1 0 17:18 20.10.2019
5865 Clouds 16 1012 40 10000 6.7 130 16:41 20.10.2019
5866 Clouds 17 1012 43 10000 7.2 120 16:23 20.10.2019
5867 Clouds 17 1012 43 10000 7.2 120 15:58 20.10.2019
5868 Clouds 18 1012 43 10000 6.7 120 15:38 20.10.2019
5869 Clouds 18 1012 40 10000 5.7 100 15:20 20.10.2019
5870 Clouds 18 1012 40 10000 5.7 100 14:57 20.10.2019
5871 Clouds 18 1013 45 10000 6.2 120 14:37 20.10.2019
5872 Clouds 18 1013 40 10000 5.1 0 14:19 20.10.2019
5873 Clouds 19 1013 40 10000 7.7 150 13:55 20.10.2019
5874 Clouds 19 1013 40 10000 7.7 150 13:36 20.10.2019
5875 Clouds 19 1012 40 10000 6.2 0 13:18 20.10.2019
5876 Clouds 17 1012 40 10000 6.2 0 12:55 20.10.2019
5877 Clouds 17 1013 42 10000 4.6 0 12:37 20.10.2019
5878 Clouds 16 1013 42 10000 7.2 80 12:19 20.10.2019
5879 Clouds 16 1013 42 10000 7.2 80 12:19 20.10.2019
5880 Clouds 16 1013 42 10000 3.6 0 11:42 20.10.2019
5881 Clouds 15 1013 45 10000 5.7 20 11:23 20.10.2019
5882 Clouds 14 1013 45 10000 5.7 20 10:59 20.10.2019
5883 Clouds 15 1013 48 10000 3.6 0 10:40 20.10.2019
5884 Clouds 13 1013 71 10000 4.1 0 10:21 20.10.2019
5885 Clouds 13 1013 71 10000 4.1 0 09:57 20.10.2019
5886 Clouds 13 1013 67 10000 3.1 0 09:38 20.10.2019
5887 Clouds 9 1013 81 10000 5.1 290 09:20 20.10.2019
5888 Clouds 9 1013 81 10000 4.1 270 08:45 20.10.2019
5889 Clouds 9 1012 76 10000 5.1 240 08:22 20.10.2019
5890 Clouds 9 1012 76 10000 4.1 280 07:50 20.10.2019
5891 Clear 8 1011 97 0 0.89 165 07:29 20.10.2019
5892 Clouds 7 1012 87 10000 4.1 270 06:32 20.10.2019
5893 Clear 8 1012 76 10000 6.7 250 04:46 20.10.2019
5894 Clear 8 1012 76 10000 6.7 250 04:25 20.10.2019
5895 Clear 7 1010 78 0 3.31 176.585 03:41 20.10.2019
5896 Clouds 7 1011 96 0 3.01 175.996 03:18 20.10.2019
5897 Clouds 8 1012 76 10000 4.1 270 02:33 20.10.2019
5898 Clouds 9 1007 100 0 3.01 175.996 01:55 20.10.2019
5899 Clouds 9 1012 71 10000 3.1 0 01:23 20.10.2019
5900 Clouds 9 1012 76 10000 3.6 0 00:53 20.10.2019
5901 Clouds 9 1012 81 10000 2.6 0 00:21 20.10.2019
5902 Clouds 9 1012 81 10000 2.6 0 23:55 19.10.2019
5903 Clear 9 1007 100 0 0.45 90 23:37 19.10.2019
5904 Clouds 10 1012 62 10000 3.6 0 23:19 19.10.2019
5905 Clear 9 1007 100 0 0.89 90 22:55 19.10.2019
5906 Clear 9 1008 100 0 0.89 68 22:37 19.10.2019
5907 Clouds 10 1012 76 10000 1.5 0 22:18 19.10.2019
5908 Clouds 10 1011 67 10000 2.6 0 21:43 19.10.2019
5909 Clouds 11 1011 71 10000 6.7 60 21:20 19.10.2019
5910 Clouds 12 1011 71 10000 4.1 110 20:43 19.10.2019
5911 Clouds 11 1011 67 10000 5.7 70 20:22 19.10.2019
5912 Clouds 11 1011 67 10000 5.7 70 19:56 19.10.2019
5913 Clouds 11 1012 76 10000 5.1 90 19:37 19.10.2019
5914 Clouds 11 1011 72 10000 5.1 80 19:19 19.10.2019
5915 Clouds 12 1011 72 10000 5.1 100 18:41 19.10.2019
5916 Clouds 14 1011 67 10000 3.6 90 18:22 19.10.2019
5917 Clouds 15 1011 63 10000 6.2 110 17:42 19.10.2019
5918 Clouds 15 1011 63 10000 5.1 100 17:23 19.10.2019
5919 Clouds 15 1011 63 10000 5.1 100 16:59 19.10.2019
5920 Clouds 15 1011 59 10000 4.1 70 16:38 19.10.2019
5921 Clouds 15 1011 52 10000 5.1 0 16:19 19.10.2019
5922 Clouds 15 1011 49 10000 5.7 90 15:44 19.10.2019
5923 Clouds 16 1011 49 10000 5.7 90 15:26 19.10.2019
5924 Clouds 15 1011 59 10000 4.1 270 14:40 19.10.2019
5925 Clouds 15 1011 59 10000 4.6 260 14:21 19.10.2019
5926 Clouds 15 1011 59 10000 4.6 260 13:59 19.10.2019
5927 Clouds 15 1009 60 0 4.02 154 13:41 19.10.2019
5928 Clouds 15 1012 59 10000 3.1 270 13:23 19.10.2019
5929 Clouds 15 1012 59 10000 3.1 270 12:59 19.10.2019
5930 Clouds 15 1012 59 10000 4.6 260 12:39 19.10.2019
5931 Clouds 13 1012 67 10000 5.7 270 12:20 19.10.2019
5932 Clouds 13 1012 71 10000 2.6 0 11:42 19.10.2019
5933 Clouds 12 1013 76 10000 5.1 260 11:23 19.10.2019
5934 Clouds 12 1012 81 10000 3.1 260 10:58 19.10.2019
5935 Clouds 12 1013 81 10000 3.1 270 10:40 19.10.2019
5936 Clouds 11 1013 81 10000 3.1 270 10:22 19.10.2019
5937 Clouds 11 1013 81 10000 3.1 270 10:22 19.10.2019
5938 Clouds 11 1013 93 10000 2.6 260 09:56 19.10.2019
5939 Clouds 9 1013 93 10000 1 0 09:37 19.10.2019
5940 Clouds 8 1013 93 10000 1 0 09:19 19.10.2019
5941 Clouds 7 1013 100 10000 1.5 250 08:41 19.10.2019
5942 Clouds 7 1013 100 10000 1.5 250 08:21 19.10.2019
5943 Clouds 7 1014 93 10000 1.5 270 07:46 19.10.2019
5944 Clouds 7 1014 93 10000 1 0 07:26 19.10.2019
5945 Clouds 8 1014 93 10000 1 0 06:48 19.10.2019
5946 Clouds 7 1014 93 10000 1 0 06:30 19.10.2019
5947 Clouds 7 1014 93 10000 1 0 06:30 19.10.2019
5948 Clouds 8 1014 93 10000 0.5 0 05:35 19.10.2019
5949 Clouds 8 1014 93 10000 1.5 270 04:26 19.10.2019
5950 Clouds 8 1014 93 10000 0.5 0 02:56 19.10.2019
5951 Clouds 8 1014 87 10000 0.5 0 01:56 19.10.2019
5952 Clouds 8 1015 87 10000 1.5 260 01:37 19.10.2019
5953 Clouds 9 1015 87 10000 2.1 260 00:49 19.10.2019
5954 Clouds 9 1015 87 10000 2.1 260 00:28 19.10.2019
5955 Clouds 9 1015 81 10000 1 0 23:56 18.10.2019
5956 Clouds 10 1015 81 10000 2.1 270 23:37 18.10.2019
5957 Clouds 10 1015 76 10000 2.1 0 23:19 18.10.2019
5958 Clouds 11 1015 71 10000 3.1 100 22:43 18.10.2019
5959 Clouds 11 1014 71 10000 3.1 70 22:21 18.10.2019
5960 Clouds 11 1014 71 10000 3.1 70 21:59 18.10.2019
5961 Clouds 11 1015 66 10000 3.1 60 21:39 18.10.2019
5962 Clouds 12 1015 55 10000 5.1 110 21:21 18.10.2019
5963 Clouds 12 1015 55 10000 5.1 110 20:59 18.10.2019
5964 Clouds 13 1014 51 10000 3.1 60 20:41 18.10.2019
5965 Clouds 13 1014 48 10000 2.6 0 20:22 18.10.2019
5966 Clouds 14 1014 48 10000 2.6 0 19:58 18.10.2019
5967 Clouds 15 1014 51 10000 3.1 0 19:40 18.10.2019
5968 Clouds 17 1014 48 10000 3.1 160 19:21 18.10.2019
5969 Clouds 17 1014 48 10000 3.1 160 18:58 18.10.2019
5970 Clouds 18 1014 45 10000 5.1 160 18:39 18.10.2019
5971 Clouds 15 1014 45 10000 6.2 150 18:21 18.10.2019
5972 Clouds 16 1014 45 10000 4.6 150 17:40 18.10.2019
5973 Clouds 17 1014 42 10000 4.6 140 17:21 18.10.2019
5974 Clouds 17 1014 42 10000 4.6 140 16:59 18.10.2019
5975 Clouds 18 1013 42 10000 4.6 150 16:38 18.10.2019
5976 Clouds 17 1013 42 10000 3.1 0 16:19 18.10.2019
5977 Clouds 17 1013 42 10000 3.1 0 15:55 18.10.2019
5978 Clouds 18 1014 48 10000 1.5 0 15:36 18.10.2019
5979 Clouds 17 1014 55 10000 2.6 230 15:18 18.10.2019
5980 Clouds 17 1014 55 10000 2.6 230 14:56 18.10.2019
5981 Clouds 17 1014 52 10000 4.1 260 14:38 18.10.2019
5982 Clouds 17 1014 55 10000 4.1 280 14:18 18.10.2019
5983 Clouds 17 1014 51 10000 3.1 260 13:42 18.10.2019
5984 Clouds 16 1015 59 10000 1.5 260 13:23 18.10.2019
5985 Clouds 16 1015 59 10000 1.5 260 12:58 18.10.2019
5986 Clouds 15 1016 62 10000 2.1 0 12:39 18.10.2019
5987 Clouds 14 1016 67 10000 1 0 12:21 18.10.2019
5988 Clouds 13 1016 67 10000 1 0 11:57 18.10.2019
5989 Clouds 13 1016 67 10000 1 0 11:57 18.10.2019
5990 Clouds 13 1017 66 10000 0.5 0 11:39 18.10.2019
5991 Clouds 12 1017 76 10000 0.5 0 11:20 18.10.2019
5992 Clouds 11 1017 76 10000 0.5 0 10:56 18.10.2019
5993 Clouds 11 1017 76 10000 1 0 10:38 18.10.2019
5994 Clouds 11 1017 76 10000 1 0 10:38 18.10.2019
5995 Clouds 10 1018 87 10000 0.5 0 10:18 18.10.2019
5996 Clouds 9 1018 87 10000 0.5 0 09:55 18.10.2019
5997 Clouds 8 1018 87 10000 0.5 0 09:37 18.10.2019
5998 Clouds 8 1018 93 10000 0.5 0 09:18 18.10.2019
5999 Clouds 7 1018 93 10000 0.5 0 08:42 18.10.2019
6000 Clouds 7 1018 93 10000 0.5 0 08:23 18.10.2019
6001 Clouds 6 1017 93 10000 0.5 0 07:48 18.10.2019
6002 Clouds 6 1017 93 10000 0.5 0 07:29 18.10.2019
6003 Clouds 6 1017 93 10000 1 0 06:41 18.10.2019
6004 Clouds 6 1017 93 10000 0.5 0 06:23 18.10.2019
6005 Clouds 7 1017 93 10000 0.5 0 05:59 18.10.2019
6006 Clouds 7 1018 93 10000 1 0 05:24 18.10.2019
6007 Clouds 7 1018 93 10000 0.5 0 04:49 18.10.2019
6008 Clouds 7 1018 93 10000 1 0 03:34 18.10.2019
6009 Clouds 8 1018 87 10000 1 0 02:50 18.10.2019
6010 Clouds 8 1018 87 10000 1 0 02:32 18.10.2019
6011 Clouds 8 1018 87 10000 1 0 01:38 18.10.2019
6012 Clouds 9 1017 87 10000 2.1 260 00:54 18.10.2019
6013 Clouds 9 1017 87 10000 2.1 260 00:36 18.10.2019
6014 Clouds 8 1017 81 10000 2.1 250 00:18 18.10.2019
6015 Clouds 9 1017 81 10000 4.6 270 23:38 17.10.2019
6016 Clear 9 1017 81 10000 2.1 260 23:19 17.10.2019
6017 Clear 8 1017 81 10000 2.1 260 22:55 17.10.2019
6018 Clear 8 1017 76 10000 2.6 230 22:37 17.10.2019
6019 Clear 10 1016 76 10000 2.6 270 22:18 17.10.2019
6020 Clear 10 1016 76 10000 2.6 270 21:56 17.10.2019
6021 Clear 10 1016 81 10000 3.6 290 21:37 17.10.2019
6022 Clear 10 1016 76 10000 2.6 0 21:19 17.10.2019
6023 Clear 10 1016 76 10000 2.6 0 20:56 17.10.2019
6024 Clear 11 1016 76 10000 1.5 0 20:38 17.10.2019
6025 Clear 11 1016 71 10000 1.5 270 20:18 17.10.2019
6026 Clear 10 1016 71 10000 1.5 270 19:55 17.10.2019
6027 Clear 11 1015 76 10000 1 0 19:37 17.10.2019
6028 Clear 12 1015 66 10000 0.5 0 19:18 17.10.2019
6029 Clear 12 1015 66 10000 0.5 0 19:18 17.10.2019
6030 Clear 14 1015 62 10000 1 0 18:42 17.10.2019
6031 Clear 15 1014 55 10000 1.5 0 18:21 17.10.2019
6032 Clouds 16 1014 51 10000 2.1 180 17:55 17.10.2019
6033 Clouds 17 1014 51 10000 2.1 180 17:37 17.10.2019
6034 Clouds 17 1015 48 10000 2.1 120 17:19 17.10.2019
6035 Clouds 18 1015 45 10000 2.6 70 16:42 17.10.2019
6036 Clouds 18 1015 45 10000 2.6 70 16:42 17.10.2019
6037 Clouds 17 1015 48 10000 2.1 130 16:19 17.10.2019
6038 Clouds 17 1015 48 10000 2.1 130 15:59 17.10.2019
6039 Clouds 17 1015 48 10000 2.1 100 15:41 17.10.2019
6040 Clouds 17 1015 52 10000 2.6 100 15:20 17.10.2019
6041 Clouds 17 1015 52 10000 2.6 100 14:58 17.10.2019
6042 Clouds 17 1016 52 10000 1.5 130 14:39 17.10.2019
6043 Clouds 16 1016 52 10000 0.5 0 14:20 17.10.2019
6044 Clouds 16 1017 59 10000 0.5 0 13:41 17.10.2019
6045 Clouds 16 1017 55 10000 0.5 0 13:21 17.10.2019
6046 Clouds 15 1017 55 10000 0.5 0 12:58 17.10.2019
6047 Clouds 15 1018 62 10000 0.5 0 12:39 17.10.2019
6048 Clouds 13 1018 66 10000 1.5 240 12:20 17.10.2019
6049 Clouds 13 1019 62 10000 0.5 0 11:56 17.10.2019
6050 Clouds 12 1019 62 10000 0.5 0 11:38 17.10.2019
6051 Clouds 11 1019 76 10000 1.5 230 11:18 17.10.2019
6052 -273 0 0 0 0 0 10:42 17.10.2019
6053 Clouds 10 1019 81 10000 0.5 0 10:20 17.10.2019
6054 Clouds 10 1019 81 10000 0.5 0 09:58 17.10.2019
6055 Clouds 10 1019 81 10000 1 0 09:39 17.10.2019
6056 Clouds 6 1020 93 10000 1 0 09:20 17.10.2019
6057 Clouds 7 1020 93 10000 1 0 08:57 17.10.2019
6058 -273 0 0 0 0 0 08:57 17.10.2019
6059 Clouds 6 1019 93 10000 0.5 0 08:38 17.10.2019
6060 Clouds 6 1019 93 10000 0.5 0 08:18 17.10.2019
6061 Clouds 6 1019 93 10000 0.5 0 07:48 17.10.2019
6062 Clouds 6 1019 93 10000 0.5 0 07:21 17.10.2019
6063 Clouds 6 1019 93 10000 0.5 0 07:21 17.10.2019
6064 Clouds 6 1019 93 10000 0.5 0 06:56 17.10.2019
6065 Clouds 6 1018 87 10000 0.5 0 06:38 17.10.2019
6066 Clouds 6 1019 93 10000 0.5 0 06:19 17.10.2019
6067 Clouds 6 1018 93 10000 1 0 05:41 17.10.2019
6068 Clouds 7 1018 87 10000 0.5 0 05:20 17.10.2019
6069 Clouds 7 1018 93 10000 0.5 0 04:48 17.10.2019
6070 Clouds 7 1018 93 10000 0.5 0 03:49 17.10.2019
6071 Clouds 7 1018 93 10000 0.5 0 03:49 17.10.2019
6072 Clear 7 1019 93 10000 1.5 340 02:32 17.10.2019
6073 Clear 6 1018 87 10000 1 0 00:43 17.10.2019
6074 Clear 7 1018 93 10000 1.5 290 00:21 17.10.2019
6075 Clear 7 1018 93 10000 1.5 290 23:59 16.10.2019
6076 Clear 7 1018 87 10000 2.1 240 23:41 16.10.2019
6077 Clear 7 1018 87 10000 2.1 240 23:41 16.10.2019
6078 Clear 7 1018 87 10000 1.5 270 23:19 16.10.2019
6079 Clear 6 1018 87 10000 1.5 270 22:54 16.10.2019
6080 Clear 6 1018 87 10000 1.5 270 22:36 16.10.2019
6081 Clear 7 1018 81 10000 1.5 240 22:18 16.10.2019
6082 Clear 7 1018 81 10000 1.5 240 21:54 16.10.2019
6083 Clear 7 1018 81 10000 2.1 250 21:36 16.10.2019
6084 Clear 8 1018 81 10000 2.1 250 21:18 16.10.2019
6085 Clear 9 1018 81 10000 2.1 250 20:56 16.10.2019
6086 Clear 9 1017 81 10000 2.6 260 20:37 16.10.2019
6087 Clear 9 1017 81 10000 2.6 260 20:37 16.10.2019
6088 Clear 9 1017 81 10000 2.1 280 20:19 16.10.2019
6089 Clear 10 1017 76 10000 2.1 100 19:40 16.10.2019
6090 Clear 10 1017 76 10000 2.1 100 19:40 16.10.2019
6091 Clear 10 1017 76 10000 0.5 0 19:21 16.10.2019
6092 Clear 11 1017 76 10000 0.5 0 18:58 16.10.2019
6093 Clear 13 1016 71 10000 0.5 0 18:38 16.10.2019
6094 Clear 13 1016 67 10000 1.5 170 18:19 16.10.2019
6095 Clear 13 1016 67 10000 1.5 170 18:19 16.10.2019
6096 Clear 14 1016 67 10000 1.5 170 17:56 16.10.2019
6097 Clear 15 1016 63 10000 1.5 190 17:37 16.10.2019
6098 Clear 15 1016 55 10000 1.5 200 17:19 16.10.2019
6099 Clear 15 1016 55 10000 1.5 200 16:57 16.10.2019
6100 Clear 15 1016 55 10000 1.5 140 16:38 16.10.2019
6101 Clear 15 1016 55 10000 1.5 130 16:20 16.10.2019
6102 Clouds 15 1016 55 10000 0.5 0 15:41 16.10.2019
6103 Clouds 15 1016 55 10000 0.5 0 15:41 16.10.2019
6104 Clouds 15 1017 59 10000 1.5 260 15:19 16.10.2019
6105 Clouds 15 1017 59 10000 1.5 260 14:59 16.10.2019
6106 -273 0 0 0 0 0 14:40 16.10.2019
6107 Clouds 14 1017 62 10000 1 0 14:21 16.10.2019
6108 Clouds 14 1017 62 10000 1 0 13:59 16.10.2019
6109 Clouds 14 1018 58 10000 2.6 180 13:41 16.10.2019
6110 Clouds 14 1018 62 10000 2.1 110 13:22 16.10.2019
6111 Clouds 13 1018 62 10000 1 0 12:44 16.10.2019
6112 Clouds 13 1018 62 10000 1 0 12:44 16.10.2019
6113 Clouds 11 1019 66 10000 1.5 190 12:20 16.10.2019
6114 Clouds 11 1019 66 10000 1.5 190 11:58 16.10.2019
6115 Clouds 11 1018 66 10000 1.5 230 11:40 16.10.2019
6116 Clouds 10 1019 71 10000 2.6 270 11:18 16.10.2019
6117 Clouds 10 1019 81 10000 2.1 260 10:37 16.10.2019
6118 Clouds 10 1019 81 10000 1.5 180 10:19 16.10.2019
6119 Clouds 9 1019 93 10000 2.6 260 09:41 16.10.2019
6120 Clouds 8 1018 93 10000 2.6 280 09:22 16.10.2019
6121 Clouds 8 1018 93 10000 2.6 280 08:58 16.10.2019
6122 Clouds 8 1018 93 10000 1.5 290 08:40 16.10.2019
6123 Clouds 8 1018 100 10000 1 0 08:20 16.10.2019
6124 Clouds 8 1017 100 10000 0.5 0 07:43 16.10.2019
6125 Clouds 8 1017 100 10000 0.5 0 07:24 16.10.2019
6126 Clouds 8 1017 100 10000 0.5 0 06:56 16.10.2019
6127 Clouds 8 1017 93 10000 0.5 0 06:35 16.10.2019
6128 Rain 8 1016 87 10000 1 0 05:23 16.10.2019
6129 Rain 9 1015 76 10000 8.7 230 02:57 16.10.2019
6130 Clouds 10 1012 82 10000 2.1 230 01:39 16.10.2019
6131 Clouds 11 1011 71 10000 1.5 0 01:18 16.10.2019
6132 Clouds 12 1011 67 10000 3.6 100 00:45 16.10.2019
6133 Rain 11 1011 72 10000 4.6 0 23:59 15.10.2019
6134 Rain 12 1010 55 10000 5.1 130 23:39 15.10.2019
6135 Clouds 13 1010 52 10000 3.6 0 23:21 15.10.2019
6136 Clouds 14 1010 52 10000 3.6 0 22:55 15.10.2019
6137 -273 0 0 0 0 0 22:55 15.10.2019
6138 Clouds 18 1009 52 10000 4.6 150 22:37 15.10.2019
6139 Clouds 18 1009 55 10000 4.6 0 22:19 15.10.2019
6140 Clouds 18 1009 55 10000 4.6 0 21:55 15.10.2019
6141 Clouds 18 1009 55 10000 4.1 140 21:37 15.10.2019
6142 Clouds 14 1005 72 0 2.68 135 21:19 15.10.2019
6143 Clouds 14 1005 72 0 2.68 135 21:19 15.10.2019
6144 Clouds 14 1006 71 0 3.13 181 20:56 15.10.2019
6145 Clouds 14 1006 71 0 3.13 144 20:37 15.10.2019
6146 Clouds 15 1007 74 0 3.58 39 20:19 15.10.2019
6147 Clouds 16 1007 45 10000 6.2 50 19:56 15.10.2019
6148 Clouds 16 1007 45 10000 6.2 50 19:56 15.10.2019
6149 Clouds 20 1007 45 10000 5.1 0 19:37 15.10.2019
6150 Clouds 20 1007 45 10000 5.1 0 19:37 15.10.2019
6151 Clouds 18 1007 43 10000 5.7 130 19:19 15.10.2019
6152 Clouds 21 1007 40 10000 5.7 130 18:44 15.10.2019
6153 Clouds 18 1007 40 10000 5.7 130 18:26 15.10.2019
6154 Clouds 18 1003 52 0 4.47 144 17:56 15.10.2019
6155 Clouds 19 1007 43 10000 7.7 130 17:38 15.10.2019
6156 Clouds 20 1006 40 10000 9.3 140 17:19 15.10.2019
6157 Clouds 22 1007 40 10000 9.3 130 16:45 15.10.2019
6158 Clouds 21 1007 43 10000 8.7 130 16:22 15.10.2019
6159 Clouds 21 1008 43 10000 9.8 130 15:58 15.10.2019
6160 Clouds 22 1007 43 10000 8.7 130 15:58 15.10.2019
6161 Clouds 21 1008 43 10000 9.8 130 15:40 15.10.2019
6162 Clouds 21 1008 43 10000 9.8 130 15:40 15.10.2019
6163 Clouds 19 1008 43 10000 9.3 130 15:20 15.10.2019
6164 Clouds 19 1008 43 10000 9.3 130 14:56 15.10.2019
6165 Clouds 20 1008 40 10000 10.3 130 14:37 15.10.2019
6166 Clouds 20 1009 43 10000 9.3 130 14:19 15.10.2019
6167 Clouds 22 1009 43 10000 7.7 130 13:44 15.10.2019
6168 Clouds 21 1010 43 10000 9.8 150 13:21 15.10.2019
6169 Clouds 21 1010 43 10000 7.7 120 12:59 15.10.2019
6170 Clouds 20 1010 43 10000 7.7 120 12:39 15.10.2019
6171 Clouds 19 1010 46 10000 8.2 20 12:20 15.10.2019
6172 Clouds 17 1011 59 10000 5.1 340 11:44 15.10.2019
6173 Clouds 16 1012 63 10000 4.1 250 11:21 15.10.2019
6174 Clouds 15 1012 71 10000 4.1 270 10:58 15.10.2019
6175 Clouds 15 1012 71 10000 4.1 270 10:39 15.10.2019
6176 Clouds 13 1012 71 10000 5.1 280 10:19 15.10.2019
6177 Clouds 14 1012 71 10000 5.1 280 09:57 15.10.2019
6178 Clouds 14 1012 81 10000 5.1 270 09:37 15.10.2019
6179 Clouds 8 1013 87 10000 4.6 260 09:19 15.10.2019
6180 Clouds 9 1013 81 10000 3.6 290 08:42 15.10.2019
6181 Clouds 9 1013 81 10000 4.6 260 08:21 15.10.2019
6182 Clouds 9 1013 87 10000 5.7 270 07:56 15.10.2019
6183 Clouds 9 1013 81 10000 4.6 260 07:56 15.10.2019
6184 Clouds 9 1013 81 10000 4.6 260 07:56 15.10.2019
6185 Clouds 9 1013 87 10000 5.7 270 07:38 15.10.2019
6186 Clouds 8 1013 87 10000 5.7 270 07:18 15.10.2019
6187 Clouds 9 1013 81 10000 5.7 260 06:43 15.10.2019
6188 Clouds 9 1014 87 10000 4.6 270 06:24 15.10.2019
6189 Clear 9 1014 87 10000 3.1 0 05:41 15.10.2019
6190 Clear 9 1014 87 10000 4.6 260 05:22 15.10.2019
6191 Clear 8 1015 81 10000 4.6 260 04:23 15.10.2019
6192 Clear 9 1015 81 10000 3.1 250 03:36 15.10.2019
6193 Clear 11 1015 87 10000 3.1 250 02:23 15.10.2019
6194 Clouds 10 1015 87 10000 3.1 280 01:47 15.10.2019
6195 Clouds 10 1015 81 10000 3.6 250 01:19 15.10.2019
6196 Clouds 11 1015 81 10000 1.5 250 00:48 15.10.2019
6197 Clouds 12 1015 76 10000 3.6 230 00:21 15.10.2019
6198 Clear 13 1015 76 10000 3.6 260 23:43 14.10.2019
6199 Clear 11 1015 81 10000 2.6 250 23:20 14.10.2019
6200 Clear 11 1015 81 10000 2.6 250 22:55 14.10.2019
6201 Clear 11 1015 76 10000 4.1 250 22:37 14.10.2019
6202 Clear 11 1015 76 10000 4.6 260 22:18 14.10.2019
6203 Clear 12 1014 71 10000 3.6 260 21:41 14.10.2019
6204 Clear 13 1014 67 10000 3.1 0 21:22 14.10.2019
6205 Clear 14 1014 67 10000 3.1 0 20:59 14.10.2019
6206 Clear 14 1014 63 10000 3.1 260 20:39 14.10.2019
6207 Clear 14 1014 55 10000 3.1 0 20:21 14.10.2019
6208 Clear 14 1014 55 10000 3.1 0 19:59 14.10.2019
6209 Clouds 15 1014 52 10000 5.1 50 19:40 14.10.2019
6210 Clear 16 1014 63 10000 6.2 50 19:22 14.10.2019
6211 Clear 16 1014 63 10000 6.2 50 18:58 14.10.2019
6212 Clear 19 1014 52 10000 5.7 80 18:38 14.10.2019
6213 Clear 17 1010 100 0 2.24 158 18:19 14.10.2019
6214 Clear 18 1009 100 0 2.24 90 17:44 14.10.2019
6215 Clear 19 1009 100 0 2.24 113 17:26 14.10.2019
6216 Clear 19 1013 54 0 1.79 26 16:59 14.10.2019
6217 Clear 19 1013 55 0 2.68 48 16:40 14.10.2019
6218 Clear 20 1014 53 10000 1.5 0 16:20 14.10.2019
6219 Clear 20 1014 53 10000 1.5 0 16:20 14.10.2019
6220 Clear 20 1014 46 10000 2.1 260 15:42 14.10.2019
6221 Clear 20 1015 46 10000 3.6 260 15:22 14.10.2019
6222 Clear 19 1015 46 10000 3.6 260 14:56 14.10.2019
6223 Clear 19 1015 46 10000 3.6 260 14:56 14.10.2019
6224 Clear 19 1016 49 10000 2.6 270 14:38 14.10.2019
6225 Clear 19 1016 59 10000 1 0 14:18 14.10.2019
6226 Clear 19 1012 100 0 1.34 158 13:42 14.10.2019
6227 Clear 18 1012 100 0 1.34 158 13:21 14.10.2019
6228 Clear 17 1018 76 10000 1.5 90 12:55 14.10.2019
6229 Clear 17 1018 76 10000 1.5 90 12:36 14.10.2019
6230 Clear 15 1019 76 10000 0.5 0 12:18 14.10.2019
6231 Clear 16 1019 76 10000 1 0 11:44 14.10.2019
6232 Clear 14 1020 76 10000 0.5 0 11:24 14.10.2019
6233 Clear 14 1020 76 10000 0.5 0 10:55 14.10.2019
6234 Clear 14 1020 76 10000 0.5 0 10:37 14.10.2019
6235 Clear 13 1015 100 0 1.5 183.288 10:18 14.10.2019
6236 Clear 13 1015 100 0 1.5 183.288 10:18 14.10.2019
6237 Clear 11 1020 81 10000 1 0 09:42 14.10.2019
6238 Clear 11 1020 81 10000 1 0 09:41 14.10.2019
6239 Clear 9 1021 93 10000 1 0 09:21 14.10.2019
6240 Clear 9 1021 100 10000 0.5 0 08:51 14.10.2019
6241 Clear 8 1021 100 10000 0.5 0 08:23 14.10.2019
6242 Clear 8 1021 93 10000 0.5 0 07:47 14.10.2019
6243 Clear 8 1021 93 10000 0.5 0 07:47 14.10.2019
6244 -273 0 0 0 0 0 07:25 14.10.2019
6245 Clear 8 1021 100 10000 1.5 270 06:59 14.10.2019
6246 Clear 8 1021 93 10000 1 260 06:28 14.10.2019
6247 Clear 8 1021 100 10000 1 0 05:57 14.10.2019
6248 Clear 8 1021 93 10000 0.5 0 05:27 14.10.2019
6249 Clear 8 1021 93 10000 1 0 03:51 14.10.2019
6250 Clear 9 1021 93 10000 1 0 03:26 14.10.2019
6251 Clear 9 1021 93 10000 1 0 02:32 14.10.2019
6252 Clear 10 1021 93 10000 2.1 240 01:21 14.10.2019
6253 Clear 10 1021 93 10000 1.5 300 00:44 14.10.2019
6254 Clear 10 1021 87 10000 1.5 300 00:19 14.10.2019
6255 Clear 11 1021 87 10000 1 0 23:43 13.10.2019
6256 Clear 11 1021 81 10000 1 0 23:20 13.10.2019
6257 Clear 12 1021 81 10000 1 0 22:57 13.10.2019
6258 Clear 12 1020 87 10000 1.5 330 22:39 13.10.2019
6259 Clear 12 1020 87 10000 2.1 280 22:20 13.10.2019
6260 Clear 12 1020 87 10000 2.1 280 21:57 13.10.2019
6261 Clear 12 1020 87 10000 1 0 21:36 13.10.2019
6262 Clear 12 1020 87 10000 1 0 21:36 13.10.2019
6263 Clear 13 1020 81 10000 1 0 21:18 13.10.2019
6264 Clear 13 1020 81 10000 1 0 20:57 13.10.2019
6265 Clear 13 1020 76 10000 1.5 230 20:37 13.10.2019
6266 Clear 14 1019 76 10000 2.1 220 20:19 13.10.2019
6267 -273 0 0 0 0 0 19:55 13.10.2019
6268 -273 0 0 0 0 0 19:55 13.10.2019
6269 Clear 14 1019 76 10000 2.1 220 19:55 13.10.2019
6270 Clear 15 1019 76 10000 1.5 270 19:37 13.10.2019
6271 Clear 15 1019 77 10000 1 0 19:19 13.10.2019
6272 -273 0 0 0 0 0 18:55 13.10.2019
6273 Clear 16 1018 72 10000 0.5 0 18:55 13.10.2019
6274 Clear 16 1018 72 10000 0.5 0 18:36 13.10.2019
6275 Clear 17 1018 63 10000 1 0 18:18 13.10.2019
6276 Clear 17 1018 63 10000 1 0 18:18 13.10.2019
6277 Clear 20 1018 60 10000 1 0 17:42 13.10.2019
6278 Clear 21 1018 52 10000 1.5 210 17:24 13.10.2019
6279 -273 0 0 0 0 0 16:54 13.10.2019
6280 Clear 21 1018 49 10000 1.5 0 16:36 13.10.2019
6281 Clear 20 1018 49 10000 4.1 260 16:18 13.10.2019
6282 Clear 20 1018 49 10000 4.6 260 15:40 13.10.2019
6283 Clear 20 1018 52 10000 4.1 270 15:22 13.10.2019
6284 Clear 20 1018 52 10000 4.1 270 14:59 13.10.2019
6285 Clear 19 1018 49 10000 3.6 280 14:40 13.10.2019
6286 Clear 19 1019 52 10000 3.6 250 14:22 13.10.2019
6287 Clear 19 1019 52 10000 3.6 250 13:59 13.10.2019
6288 Clear 18 1019 55 10000 4.1 270 13:38 13.10.2019
6289 Clear 18 1019 55 10000 4.1 270 13:38 13.10.2019
6290 Clear 18 1019 55 10000 4.1 270 13:38 13.10.2019
6291 Clear 18 1019 52 10000 3.6 270 13:20 13.10.2019
6292 Clear 19 1020 59 10000 3.1 260 12:56 13.10.2019
6293 Clear 18 1020 59 10000 3.1 260 12:38 13.10.2019
6294 Clear 16 1020 63 10000 3.6 270 12:19 13.10.2019
6295 Clear 17 1020 63 10000 3.6 270 11:56 13.10.2019
6296 Clear 15 1021 67 10000 2.6 250 11:38 13.10.2019
6297 Clear 15 1021 71 10000 2.1 280 11:18 13.10.2019
6298 Clear 14 1022 76 10000 1.5 280 10:42 13.10.2019
6299 Clear 12 1022 81 10000 1 0 10:23 13.10.2019
6300 Clear 10 1022 81 10000 1 0 09:56 13.10.2019
6301 Clear 10 1022 87 10000 1.5 230 09:37 13.10.2019
6302 Clear 9 1022 87 10000 2.1 260 09:19 13.10.2019
6303 Clear 8 1022 93 10000 2.6 250 08:42 13.10.2019
6304 Clear 7 1022 93 10000 1.5 240 08:21 13.10.2019
6305 Clear 7 1022 93 10000 2.6 250 07:46 13.10.2019
6306 Clear 7 1022 93 10000 3.6 270 07:21 13.10.2019
6307 Clear 8 1022 93 10000 2.1 250 06:42 13.10.2019
6308 Clear 8 1022 93 10000 2.1 250 05:49 13.10.2019
6309 Clear 8 1022 93 10000 2.1 240 04:49 13.10.2019
6310 Clear 7 1022 93 10000 2.1 240 04:29 13.10.2019
6311 Clouds 8 1022 87 10000 2.6 250 02:42 13.10.2019
6312 Clouds 8 1022 87 10000 2.6 250 02:42 13.10.2019
6313 Clouds 8 1022 93 10000 4.1 260 01:59 13.10.2019
6314 Clouds 9 1022 87 10000 2.6 250 01:30 13.10.2019
6315 Clouds 9 1022 87 10000 2.1 240 00:49 13.10.2019
6316 Clouds 9 1022 87 10000 2.1 270 00:22 13.10.2019
6317 Clouds 9 1022 87 10000 2.1 270 23:57 12.10.2019
6318 Clouds 10 1022 87 10000 2.6 270 23:39 12.10.2019
6319 Clear 10 1021 87 10000 2.6 260 23:19 12.10.2019
6320 Clear 10 1021 87 10000 2.6 260 22:57 12.10.2019
6321 Clear 10 1021 87 10000 2.1 270 22:38 12.10.2019
6322 Clouds 10 1021 81 10000 0.5 0 22:20 12.10.2019
6323 Clouds 10 1021 81 10000 0.5 0 21:55 12.10.2019
6324 Clear 11 1021 81 10000 1 0 21:37 12.10.2019
6325 Clear 11 1021 87 10000 2.1 290 21:18 12.10.2019
6326 Clear 11 1021 87 10000 2.1 290 21:18 12.10.2019
6327 Clear 12 1020 87 10000 1 0 20:40 12.10.2019
6328 Clear 12 1020 81 10000 1 0 20:22 12.10.2019
6329 Clear 13 1020 82 10000 1 0 19:39 12.10.2019
6330 Clear 13 1020 82 10000 1 0 19:39 12.10.2019
6331 Clear 14 1019 76 10000 1.5 270 19:20 12.10.2019
6332 Clear 14 1019 76 10000 1.5 270 18:59 12.10.2019
6333 Clear 15 1019 72 10000 1 0 18:40 12.10.2019
6334 Clear 15 1019 72 10000 1 0 18:40 12.10.2019
6335 Clear 15 1019 72 10000 0.5 0 18:22 12.10.2019
6336 Clear 17 1018 48 10000 1.5 250 17:43 12.10.2019
6337 Clear 18 1018 55 10000 1.5 230 17:19 12.10.2019
6338 Clear 19 1018 55 10000 1.5 230 16:55 12.10.2019
6339 Clear 19 1018 52 10000 1.5 180 16:36 12.10.2019
6340 Clear 19 1018 52 10000 1.5 180 16:36 12.10.2019
6341 Clear 20 1018 42 10000 1 0 16:18 12.10.2019
6342 Clear 20 1019 45 10000 1 0 15:44 12.10.2019
6343 Clear 19 1019 40 10000 1 0 15:25 12.10.2019
6344 Clear 19 1019 39 10000 1 0 14:43 12.10.2019
6345 Clear 18 1019 48 10000 0.5 0 14:22 12.10.2019
6346 Clear 18 1019 48 10000 0.5 0 13:59 12.10.2019
6347 Clear 17 1020 45 10000 1 0 13:40 12.10.2019
6348 Clear 17 1021 48 10000 1.5 260 13:21 12.10.2019
6349 Clear 17 1021 55 10000 1 0 12:40 12.10.2019
6350 Clear 15 1021 58 10000 1 0 12:21 12.10.2019
6351 Clear 15 1021 58 10000 1 0 11:59 12.10.2019
6352 Clear 13 1022 54 10000 1 0 11:39 12.10.2019
6353 Clear 13 1022 66 10000 2.1 260 11:20 12.10.2019
6354 Clear 13 1022 71 10000 2.6 280 10:44 12.10.2019
6355 Clear 10 1022 76 10000 1 0 10:24 12.10.2019
6356 Clear 10 1022 81 10000 0.5 0 09:58 12.10.2019
6357 Clear 10 1022 81 10000 0.5 0 09:58 12.10.2019
6358 Clear 9 1022 81 10000 0.5 0 09:40 12.10.2019
6359 Clear 8 1022 93 10000 0.5 0 09:22 12.10.2019
6360 Clear 6 1022 93 10000 1 0 08:58 12.10.2019
6361 Clear 6 1022 93 10000 1 0 08:38 12.10.2019
6362 Clear 5 1022 93 10000 1.5 250 08:20 12.10.2019
6363 Clear 5 1022 93 10000 1.5 250 08:20 12.10.2019
6364 Clear 5 1022 93 10000 1 0 07:35 12.10.2019
6365 Clear 5 1022 93 10000 1 0 06:57 12.10.2019
6366 Clear 6 1022 86 10000 2.1 270 05:48 12.10.2019
6367 Clear 6 1022 87 10000 1.5 0 05:23 12.10.2019
6368 Clear 6 1022 93 10000 3.1 270 04:24 12.10.2019
6369 Clear 7 1022 93 10000 2.1 280 03:33 12.10.2019
6370 Clear 7 1022 87 10000 2.1 280 01:50 12.10.2019
6371 Clear 8 1022 87 10000 2.1 260 01:24 12.10.2019
6372 Clear 8 1022 87 10000 2.6 240 00:42 12.10.2019
6373 Clear 8 1022 87 10000 4.6 270 00:19 12.10.2019
6374 Clear 9 1022 87 10000 4.1 290 23:40 11.10.2019
6375 Clear 9 1021 87 10000 4.6 280 23:20 11.10.2019
6376 Clear 7 1021 81 10000 4.1 260 22:41 11.10.2019
6377 Clear 8 1021 81 10000 3.1 290 22:22 11.10.2019
6378 Clear 8 1021 81 10000 3.1 290 21:58 11.10.2019
6379 Clear 7 1021 81 10000 3.6 270 21:39 11.10.2019
6380 Clear 10 1021 81 10000 3.6 270 21:21 11.10.2019
6381 Clear 10 1020 76 10000 3.6 280 20:45 11.10.2019
6382 Clear 10 1020 76 10000 3.6 280 20:27 11.10.2019
6383 Clear 10 1020 76 10000 2.1 260 20:27 11.10.2019
6384 Clear 10 1020 76 10000 2.1 260 19:59 11.10.2019
6385 Clear 10 1020 71 10000 2.6 220 19:39 11.10.2019
6386 Clear 11 1019 71 10000 2.6 270 19:18 11.10.2019
6387 Clear 11 1019 71 10000 2.6 270 19:18 11.10.2019
6388 Clear 11 1019 71 10000 2.6 270 19:18 11.10.2019
6389 Clear 11 1019 71 10000 2.6 270 18:59 11.10.2019
6390 Clear 11 1019 71 10000 2.6 270 18:59 11.10.2019
6391 Clear 12 1019 66 10000 2.6 270 18:38 11.10.2019
6392 Clear 15 1019 63 10000 1.5 0 18:19 11.10.2019
6393 Clear 16 1019 51 10000 3.1 250 17:59 11.10.2019
6394 Clear 17 1019 51 10000 3.1 250 17:38 11.10.2019
6395 Clear 17 1019 48 10000 3.6 260 17:19 11.10.2019
6396 Clear 17 1019 48 10000 3.6 260 16:58 11.10.2019
6397 Clear 17 1019 45 10000 2.6 260 16:39 11.10.2019
6398 Clear 17 1019 45 10000 2.6 250 16:19 11.10.2019
6399 Clear 17 1020 42 10000 2.6 250 15:42 11.10.2019
6400 Clear 17 1020 45 10000 1 0 15:21 11.10.2019
6401 Clear 17 1020 45 10000 1 0 14:59 11.10.2019
6402 Clear 16 1021 48 10000 1 0 14:40 11.10.2019
6403 Clear 15 1022 51 10000 1 0 14:20 11.10.2019
6404 Clear 15 1022 51 10000 1 0 13:45 11.10.2019
6405 Clear 15 1023 58 10000 1 0 13:25 11.10.2019
6406 Clear 14 1023 58 10000 1 0 12:57 11.10.2019
6407 Clear 14 1023 58 10000 2.6 290 12:39 11.10.2019
6408 Clear 14 1023 58 10000 2.6 290 12:39 11.10.2019
6409 Clear 12 1024 62 10000 4.6 270 12:20 11.10.2019
6410 Clear 11 1024 62 10000 4.6 270 11:58 11.10.2019
6411 Clear 10 1024 71 10000 5.7 280 11:38 11.10.2019
6412 Clear 10 1024 71 10000 5.7 280 11:38 11.10.2019
6413 Clouds 10 1024 76 10000 5.7 270 11:20 11.10.2019
6414 Clouds 10 1024 76 10000 5.7 270 10:55 11.10.2019
6415 Clouds 11 1025 81 10000 3.6 270 10:36 11.10.2019
6416 Clouds 8 1025 87 10000 2.6 270 10:18 11.10.2019
6417 Clouds 7 1025 93 10000 1.5 270 09:41 11.10.2019
6418 Clouds 5 1025 100 10000 0.5 0 09:21 11.10.2019
6419 Clouds 5 1025 100 10000 0.5 0 08:57 11.10.2019
6420 Mist 5 1025 100 10000 0.5 0 08:38 11.10.2019
6421 Mist 4 1025 93 5000 0.5 0 08:20 11.10.2019
6422 Mist 4 1025 93 5000 1 0 07:52 11.10.2019
6423 Mist 4 1025 100 7000 0.5 0 07:33 11.10.2019
6424 Fog 4 1025 100 7000 0.5 0 06:50 11.10.2019
6425 Fog 2 1025 100 7000 1 0 06:25 11.10.2019
6426 Mist 3 1025 100 2000 2.1 280 05:47 11.10.2019
6427 Mist 2 1025 100 2000 2.1 280 05:29 11.10.2019
6428 Clouds 3 1025 93 10000 1.5 240 04:50 11.10.2019
6429 Clear 4 1025 93 10000 1 290 03:21 11.10.2019
6430 Clear 3 1024 93 10000 1 270 01:18 11.10.2019
6431 Clear 3 1024 93 10000 1 270 01:18 11.10.2019
6432 Clear 4 1025 93 10000 2.32 186.706 00:31 11.10.2019
6433 Clear 5 1025 93 10000 0.5 0 23:58 10.10.2019
6434 Clear 5 1025 93 10000 0.5 0 23:40 10.10.2019
6435 Clouds 5 1024 93 10000 2.1 260 23:19 10.10.2019
6436 Clouds 6 1024 87 10000 1 0 22:55 10.10.2019
6437 Clouds 6 1024 87 10000 1 0 22:36 10.10.2019
6438 Clouds 6 1023 93 10000 1 0 22:18 10.10.2019
6439 Clouds 6 1023 93 10000 1 0 21:42 10.10.2019
6440 Clouds 7 1022 87 10000 1 0 21:22 10.10.2019
6441 Clouds 7 1022 87 10000 1 0 20:58 10.10.2019
6442 Clouds 8 1022 81 10000 1.5 150 20:39 10.10.2019
6443 Clouds 8 1022 81 10000 0.5 0 20:19 10.10.2019
6444 Clouds 10 1021 81 10000 0.5 0 19:56 10.10.2019
6445 Clouds 10 1021 81 10000 0.5 0 19:38 10.10.2019
6446 Clouds 11 1020 76 10000 1 0 19:19 10.10.2019
6447 Clouds 12 1020 71 10000 2.1 220 18:42 10.10.2019
6448 Clouds 11 1019 66 10000 2.6 330 18:21 10.10.2019
6449 Clouds 11 1019 66 10000 2.6 330 17:58 10.10.2019
6450 Clouds 12 1019 58 10000 2.1 0 17:39 10.10.2019
6451 Clouds 12 1019 58 10000 3.6 230 17:18 10.10.2019
6452 Clouds 12 1019 58 10000 3.6 230 17:18 10.10.2019
6453 Clouds 12 1019 58 10000 3.6 230 16:55 10.10.2019
6454 Clouds 12 1019 62 10000 4.6 260 16:37 10.10.2019
6455 Clouds 12 1018 58 10000 4.6 270 16:18 10.10.2019
6456 Clouds 12 1018 71 10000 3.6 270 15:39 10.10.2019
6457 Clouds 12 1018 71 10000 4.1 260 15:21 10.10.2019
6458 Clouds 12 1018 71 10000 4.1 260 14:56 10.10.2019
6459 Clouds 12 1018 67 10000 2.6 280 14:37 10.10.2019
6460 Clouds 12 1019 71 10000 3.6 260 14:19 10.10.2019
6461 Clouds 12 1019 71 10000 3.6 260 13:55 10.10.2019
6462 Clouds 11 1019 71 10000 4.1 270 13:37 10.10.2019
6463 Clouds 11 1019 76 10000 2.6 270 13:18 10.10.2019
6464 Clouds 11 1019 76 10000 3.1 280 12:42 10.10.2019
6465 Clouds 11 1019 71 10000 2.6 260 12:20 10.10.2019
6466 Rain 10 1018 75 0 2.57 275.884 11:58 10.10.2019
6467 Rain 10 1018 80 0 2.57 275.884 11:39 10.10.2019
6468 Clouds 9 1019 81 10000 1 0 11:19 10.10.2019
6469 Clouds 10 1019 81 10000 1.5 100 10:46 10.10.2019
6470 Clouds 10 1019 81 10000 1.5 100 10:27 10.10.2019
6471 Clouds 8 1019 81 10000 1.5 130 09:58 10.10.2019
6472 Clouds 8 1019 87 10000 1 0 09:40 10.10.2019
6473 Clouds 7 1018 87 10000 0.5 0 09:22 10.10.2019
6474 Clouds 7 1018 87 10000 0.5 0 08:58 10.10.2019
6475 Clouds 7 1018 87 10000 1 0 08:38 10.10.2019
6476 Clouds 7 1018 87 10000 1 0 08:38 10.10.2019
6477 Clouds 7 1017 81 6000 1 0 08:19 10.10.2019
6478 Clouds 6 1017 87 6000 1 0 07:46 10.10.2019
6479 Clouds 6 1017 87 6000 2.1 80 07:23 10.10.2019
6480 Clouds 6 1017 93 6000 1.5 80 06:49 10.10.2019
6481 Clouds 6 1017 93 6000 1.5 80 06:29 10.10.2019
6482 Clouds 6 1017 93 10000 0.5 0 05:28 10.10.2019
6483 Clouds 7 1017 93 10000 2.1 130 04:55 10.10.2019
6484 Clouds 7 1017 93 10000 2.1 130 04:33 10.10.2019
6485 Clouds 6 1016 100 10000 1.5 40 02:19 10.10.2019
6486 Clouds 6 1016 100 10000 1 0 01:36 10.10.2019
6487 Clouds 7 1017 93 10000 1.5 260 01:18 10.10.2019
6488 Clouds 7 1016 93 10000 0.5 0 00:24 10.10.2019
6489 Clouds 7 1017 93 7000 1 0 23:41 09.10.2019
6490 Clouds 7 1016 93 10000 0.5 0 23:23 09.10.2019
6491 Clouds 7 1016 93 10000 0.5 0 22:59 09.10.2019
6492 Clouds 7 1016 93 10000 0.5 0 22:59 09.10.2019
6493 Clouds 7 1017 93 10000 1 0 22:40 09.10.2019
6494 Clouds 8 1017 93 10000 0.5 0 22:22 09.10.2019
6495 Rain 8 1017 93 10000 0.5 0 21:41 09.10.2019
6496 Rain 9 1017 100 10000 1.5 80 21:21 09.10.2019
6497 Rain 8 1016 87 10000 2.6 70 20:56 09.10.2019
6498 Rain 8 1016 87 10000 2.6 70 20:38 09.10.2019
6499 Rain 8 1016 93 10000 2.6 90 20:19 09.10.2019
6500 Rain 10 1016 93 10000 2.6 90 19:59 09.10.2019
6501 Rain 10 1016 93 10000 2.6 90 19:59 09.10.2019
6502 Rain 10 1016 93 10000 1 0 19:40 09.10.2019
6503 Rain 10 1015 93 10000 0.5 0 19:22 09.10.2019
6504 Rain 9 1015 87 10000 2.1 340 18:39 09.10.2019
6505 Rain 9 1015 87 8000 4.6 260 18:20 09.10.2019
6506 Rain 10 1014 81 10000 3.6 250 17:58 09.10.2019
6507 Rain 10 1014 81 10000 3.6 250 17:39 09.10.2019
6508 Rain 10 1012 82 8000 5.7 250 17:21 09.10.2019
6509 Rain 10 1012 82 8000 5.7 250 16:56 09.10.2019
6510 Rain 10 1012 82 8000 5.7 250 16:56 09.10.2019
6511 Rain 10 1012 82 8000 5.7 250 16:56 09.10.2019
6512 Rain 14 1011 76 10000 4.1 100 16:37 09.10.2019
6513 Rain 12 1011 72 10000 4.1 80 16:19 09.10.2019
6514 Rain 11 1011 72 10000 4.1 80 15:55 09.10.2019
6515 Rain 11 1011 72 10000 4.1 80 15:55 09.10.2019
6516 Clouds 15 1011 63 10000 4.6 0 15:37 09.10.2019
6517 Clouds 13 1011 51 10000 5.7 0 15:18 09.10.2019
6518 Clouds 13 1011 55 10000 3.6 90 14:44 09.10.2019
6519 Clouds 13 1011 55 10000 3.6 90 14:44 09.10.2019
6520 Clouds 14 1011 45 10000 4.1 0 14:19 09.10.2019
6521 Clouds 14 1011 45 10000 4.1 0 13:59 09.10.2019
6522 Clouds 14 1010 48 10000 6.7 120 13:37 09.10.2019
6523 Clouds 15 1011 55 10000 3.6 0 13:18 09.10.2019
6524 Clouds 14 1011 72 10000 4.1 100 12:43 09.10.2019
6525 Clouds 13 1012 59 10000 3.1 70 12:23 09.10.2019
6526 Clouds 12 1012 59 10000 3.1 70 11:58 09.10.2019
6527 Clouds 12 1012 76 10000 2.1 270 11:39 09.10.2019
6528 Clouds 12 1013 82 10000 2.1 220 11:20 09.10.2019
6529 Clouds 12 1013 82 10000 2.1 220 10:58 09.10.2019
6530 Clouds 12 1014 87 10000 3.1 260 10:40 09.10.2019
6531 Clouds 12 1014 87 10000 5.7 280 10:18 09.10.2019
6532 Clouds 11 1014 93 10000 5.7 270 09:43 09.10.2019
6533 Clouds 10 1014 93 10000 1.5 0 09:20 09.10.2019
6534 Clouds 10 1014 93 10000 1.5 0 08:57 09.10.2019
6535 Clouds 10 1015 100 10000 1.5 110 08:37 09.10.2019
6536 Rain 10 1012 73 0 0.89 311 08:19 09.10.2019
6537 Clouds 10 1015 100 10000 1.5 270 07:47 09.10.2019
6538 Clouds 10 1015 93 10000 1 0 07:24 09.10.2019
6539 Rain 10 1013 71 0 0.89 235 06:56 09.10.2019
6540 Rain 10 1012 71 0 1.9 175.8 06:34 09.10.2019
6541 Clouds 10 1014 93 10000 1 0 05:51 09.10.2019
6542 Clouds 9 1013 93 10000 1.5 0 04:41 09.10.2019
6543 Clouds 9 1013 93 10000 2.6 240 03:43 09.10.2019
6544 Clouds 9 1014 93 10000 2.1 230 02:27 09.10.2019
6545 Clouds 9 1014 93 10000 3.1 270 01:22 09.10.2019
6546 Clouds 9 1014 93 10000 3.1 270 00:59 09.10.2019
6547 Clouds 9 1014 93 10000 2.1 290 00:40 09.10.2019
6548 Clouds 10 1014 93 10000 2.1 200 00:22 09.10.2019
6549 Clouds 9 1014 93 10000 2.1 200 23:58 08.10.2019
6550 Clouds 10 1014 87 10000 1 0 23:38 08.10.2019
6551 Clouds 10 1014 87 10000 1 0 23:18 08.10.2019
6552 Clouds 10 1014 87 10000 1 0 22:41 08.10.2019
6553 Clouds 10 1014 93 10000 3.1 280 22:22 08.10.2019
6554 Clouds 11 1014 81 10000 2.1 250 21:58 08.10.2019
6555 Clouds 11 1014 81 10000 2.1 250 21:39 08.10.2019
6556 Clouds 11 1014 87 10000 1.5 250 21:20 08.10.2019
6557 Clouds 11 1014 87 10000 1.5 250 20:58 08.10.2019
6558 Clouds 11 1014 81 10000 1 0 20:39 08.10.2019
6559 Clouds 12 1014 81 10000 2.1 280 20:21 08.10.2019
6560 Clouds 12 1014 81 10000 2.1 280 19:59 08.10.2019
6561 Clouds 15 1014 76 10000 1.5 280 19:41 08.10.2019
6562 Clouds 14 1013 71 10000 0.5 0 19:23 08.10.2019
6563 Clouds 15 1014 67 10000 1.5 160 18:57 08.10.2019
6564 Clouds 15 1014 67 10000 1.5 160 18:39 08.10.2019
6565 Clouds 14 1014 58 10000 1.5 240 18:19 08.10.2019
6566 Clouds 14 1013 59 10000 2.1 260 17:55 08.10.2019
6567 Clouds 14 1013 59 10000 2.1 260 17:55 08.10.2019
6568 Clouds 14 1013 59 10000 2.1 260 17:36 08.10.2019
6569 Clouds 15 1013 58 10000 1.5 260 17:18 08.10.2019
6570 Clouds 15 1014 54 10000 3.6 260 16:41 08.10.2019
6571 Clouds 15 1014 51 10000 2.1 280 16:22 08.10.2019
6572 Clouds 16 1014 51 10000 2.1 280 15:57 08.10.2019
6573 Clouds 15 1014 58 10000 2.6 280 15:37 08.10.2019
6574 Clouds 15 1015 62 10000 6.2 260 15:19 08.10.2019
6575 Clouds 15 1015 62 10000 6.2 260 15:19 08.10.2019
6576 Clouds 14 1015 62 10000 4.6 270 14:42 08.10.2019
6577 Clouds 14 1016 66 10000 5.1 270 14:21 08.10.2019
6578 Clouds 13 1016 66 10000 5.1 270 13:58 08.10.2019
6579 Clouds 12 1016 62 10000 4.6 270 13:39 08.10.2019
6580 Clouds 12 1016 62 10000 4.6 270 13:39 08.10.2019
6581 Clouds 12 1017 66 10000 5.1 270 13:20 08.10.2019
6582 Clouds 11 1017 66 10000 5.1 270 12:59 08.10.2019
6583 Rain 11 1018 71 10000 5.7 270 12:39 08.10.2019
6584 Clouds 10 1018 71 10000 5.7 260 12:19 08.10.2019
6585 Clouds 9 1018 76 10000 4.6 280 11:43 08.10.2019
6586 Clouds 9 1018 76 10000 3.6 280 11:24 08.10.2019
6587 Clouds 10 1018 76 10000 3.6 280 10:59 08.10.2019
6588 Clouds 9 1019 76 10000 1.5 290 10:40 08.10.2019
6589 Clouds 9 1019 81 10000 3.1 270 10:21 08.10.2019
6590 Clouds 8 1019 81 10000 3.1 270 09:58 08.10.2019
6591 Clouds 7 1019 81 10000 1.5 270 09:39 08.10.2019
6592 Clouds 6 1019 87 10000 2.1 270 09:20 08.10.2019
6593 Clouds 5 1019 93 10000 2.1 270 08:43 08.10.2019
6594 Clouds 5 1019 93 10000 2.1 290 08:25 08.10.2019
6595 Clouds 5 1019 86 10000 2.1 280 07:46 08.10.2019
6596 Clouds 5 1019 93 10000 2.1 260 07:22 08.10.2019
6597 Clouds 3 1020 93 10000 2.6 270 06:56 08.10.2019
6598 Clouds 3 1020 93 10000 2.6 270 06:34 08.10.2019
6599 Clouds 4 1020 93 10000 2.6 280 05:57 08.10.2019
6600 Clouds 4 1020 93 10000 1 0 05:57 08.10.2019
6601 Clouds 4 1020 93 10000 1 0 05:36 08.10.2019
6602 Clouds 4 1020 93 10000 1.5 270 04:36 08.10.2019
6603 Clouds 4 1020 93 10000 3.1 260 03:29 08.10.2019
6604 Clouds 4 1021 93 10000 1 0 02:39 08.10.2019
6605 Clouds 3 1021 93 10000 2.6 260 01:49 08.10.2019
6606 Clouds 3 1021 93 10000 2.6 260 01:31 08.10.2019
6607 Clouds 4 1021 87 10000 2.1 260 00:50 08.10.2019
6608 Clouds 4 1021 93 10000 1 0 00:21 08.10.2019
6609 Clouds 5 1021 87 10000 1 0 23:41 07.10.2019
6610 Clouds 6 1021 87 10000 0.5 0 23:20 07.10.2019
6611 Clouds 6 1021 87 10000 0.5 0 22:58 07.10.2019
6612 Clouds 6 1020 87 10000 1.5 250 22:40 07.10.2019
6613 Clouds 6 1020 87 10000 1.5 250 22:40 07.10.2019
6614 Clouds 6 1020 87 10000 1 300 22:20 07.10.2019
6615 Clouds 6 1020 87 10000 1 300 21:57 07.10.2019
6616 Clouds 6 1020 87 10000 1.5 260 21:39 07.10.2019
6617 Clouds 7 1020 81 10000 1 0 21:20 07.10.2019
6618 Clouds 8 1020 81 10000 1 0 20:58 07.10.2019
6619 Clouds 7 1019 87 10000 0.5 0 20:39 07.10.2019
6620 Clouds 7 1019 81 10000 0.5 0 20:20 07.10.2019
6621 Clouds 8 1019 81 10000 0.5 0 19:58 07.10.2019
6622 Clouds 8 1019 76 10000 1.5 60 19:40 07.10.2019
6623 Clouds 9 1019 71 10000 2.1 80 19:19 07.10.2019
6624 Clouds 12 1019 71 10000 2.1 80 18:57 07.10.2019
6625 Clouds 12 1018 71 10000 2.6 30 18:38 07.10.2019
6626 Clouds 10 1018 71 10000 1 0 18:18 07.10.2019
6627 Clouds 11 1018 66 10000 1.5 170 17:43 07.10.2019
6628 Clouds 11 1018 54 10000 1 0 17:22 07.10.2019
6629 Clouds 11 1018 54 10000 1 0 16:58 07.10.2019
6630 Rain 11 1017 72 0 1.79 315 16:39 07.10.2019
6631 Rain 11 1017 72 0 1.79 315 16:39 07.10.2019
6632 Rain 10 1017 69 0 0.89 304 16:20 07.10.2019
6633 Clouds 11 1018 58 10000 2.6 50 15:45 07.10.2019
6634 Rain 10 1017 72 0 1.34 344 15:26 07.10.2019
6635 Clouds 10 1018 66 10000 3.1 70 14:55 07.10.2019
6636 Rain 10 1017 74 0 0.89 349 14:37 07.10.2019
6637 Clouds 10 1018 62 10000 4.6 60 14:19 07.10.2019
6638 Clouds 10 1018 71 10000 4.6 60 13:43 07.10.2019
6639 Clouds 10 1018 71 10000 3.6 60 13:20 07.10.2019
6640 Rain 9 1017 75 0 1.34 310 12:56 07.10.2019
6641 Rain 9 1017 74 0 1.34 320 12:38 07.10.2019
6642 Clouds 9 1017 74 0 2.24 343 12:19 07.10.2019
6643 Clouds 9 1016 77 0 0.45 39 11:57 07.10.2019
6644 Clouds 9 1016 82 0 0.45 350 11:37 07.10.2019
6645 Clouds 9 1017 81 10000 1.5 100 11:18 07.10.2019
6646 Clouds 9 1017 87 10000 1 0 10:41 07.10.2019
6647 Clouds 9 1017 87 10000 1 0 10:41 07.10.2019
6648 Clouds 9 1017 93 10000 0.5 0 10:20 07.10.2019
6649 Clouds 9 1017 93 10000 0.5 0 10:20 07.10.2019
6650 Clouds 9 1017 87 10000 1 0 09:42 07.10.2019
6651 Clouds 9 1017 87 10000 1 0 09:42 07.10.2019
6652 Clouds 8 1016 100 10000 0.5 0 09:23 07.10.2019
6653 Clouds 8 1016 100 10000 0.5 0 08:56 07.10.2019
6654 Clouds 8 1015 93 10000 1 0 08:38 07.10.2019
6655 Clouds 8 1015 93 10000 1 0 08:19 07.10.2019
6656 Rain 8 1015 93 10000 1.5 340 07:41 07.10.2019
6657 Clouds 8 1015 93 10000 0.5 0 07:22 07.10.2019
6658 Drizzle 8 1014 100 10000 1 0 06:49 07.10.2019
6659 Drizzle 8 1014 100 10000 1 0 06:27 07.10.2019
6660 Clouds 8 1013 100 10000 0.5 0 05:47 07.10.2019
6661 Clouds 8 1013 100 10000 0.5 0 05:22 07.10.2019
6662 Rain 8 1012 100 10000 1.5 80 04:25 07.10.2019
6663 Rain 8 1012 100 10000 0.5 0 03:44 07.10.2019
6664 Rain 8 1012 100 10000 0.5 0 03:21 07.10.2019
6665 Rain 8 1012 100 5000 1 0 02:22 07.10.2019
6666 Rain 8 1011 93 7000 1 0 01:52 07.10.2019
6667 Rain 8 1011 93 10000 1 190 01:21 07.10.2019
6668 Rain 8 1011 93 10000 0.5 0 00:39 07.10.2019
6669 Rain 8 1011 93 10000 0.5 0 00:39 07.10.2019
6670 Rain 8 1011 93 10000 0.5 0 00:20 07.10.2019
6671 Rain 8 1011 93 10000 1.5 260 23:42 06.10.2019
6672 Rain 8 1011 93 10000 1.5 280 23:22 06.10.2019
6673 Rain 9 1011 93 10000 1.5 280 22:59 06.10.2019
6674 Rain 8 1011 93 10000 1 0 22:41 06.10.2019
6675 Rain 8 1012 93 10000 0.5 0 22:22 06.10.2019
6676 Clouds 8 1012 93 10000 1 0 21:58 06.10.2019
6677 Clouds 8 1012 93 10000 1 0 21:38 06.10.2019
6678 Clouds 8 1012 93 10000 1 0 21:38 06.10.2019
6679 Clouds 8 1012 93 10000 1 0 21:38 06.10.2019
6680 Clouds 8 1012 87 10000 1 170 21:19 06.10.2019
6681 Clouds 8 1012 87 10000 1 170 20:58 06.10.2019
6682 Rain 8 1013 87 10000 0.5 0 20:40 06.10.2019
6683 Clouds 8 1013 87 10000 1 0 20:20 06.10.2019
6684 Clouds 8 1013 87 10000 1 0 20:20 06.10.2019
6685 Clouds 9 1013 87 10000 1 0 19:57 06.10.2019
6686 Rain 9 1013 87 10000 1 0 19:37 06.10.2019
6687 Rain 9 1013 87 10000 1 0 19:19 06.10.2019
6688 Rain 9 1013 87 10000 1 0 18:56 06.10.2019
6689 Rain 9 1013 81 10000 2.6 60 18:38 06.10.2019
6690 Rain 9 1013 81 10000 2.6 70 18:19 06.10.2019
6691 Rain 9 1013 81 10000 2.6 60 17:57 06.10.2019
6692 Rain 9 1013 81 10000 2.6 60 17:38 06.10.2019
6693 Rain 10 1014 71 10000 0.56 336.265 17:18 06.10.2019
6694 Rain 10 1014 71 10000 0.5 0 16:42 06.10.2019
6695 Clouds 10 1014 71 10000 0.5 0 16:23 06.10.2019
6696 Rain 9 1014 90 0 0.45 311 15:54 06.10.2019
6697 Rain 10 1014 90 0 0.89 291 15:36 06.10.2019
6698 Rain 10 1014 91 0 0.89 301 15:18 06.10.2019
6699 Clouds 10 1015 71 10000 1 0 14:42 06.10.2019
6700 Clouds 10 1016 71 10000 1 0 14:24 06.10.2019
6701 Clouds 9 1016 71 10000 1 0 13:56 06.10.2019
6702 Clouds 9 1016 71 10000 0.5 0 13:38 06.10.2019
6703 Clouds 9 1017 81 10000 1 0 13:19 06.10.2019
6704 Clouds 9 1017 81 10000 1 0 12:56 06.10.2019
6705 Drizzle 9 1017 81 10000 1 0 12:37 06.10.2019
6706 Clouds 9 1017 81 10000 0.5 0 12:19 06.10.2019
6707 Clouds 8 1017 87 10000 0.5 0 11:55 06.10.2019
6708 Clouds 8 1017 87 10000 0.5 0 11:36 06.10.2019
6709 Clouds 8 1018 87 10000 0.5 0 11:18 06.10.2019
6710 Clouds 8 1018 87 10000 1 0 10:42 06.10.2019
6711 Clouds 8 1018 87 10000 1.5 60 10:24 06.10.2019
6712 Rain 7 1018 93 10000 2.1 80 09:42 06.10.2019
6713 Rain 6 1018 93 10000 2.1 90 09:21 06.10.2019
6714 Rain 6 1018 93 10000 2.1 90 09:21 06.10.2019
6715 Rain 6 1018 93 10000 2.1 90 08:59 06.10.2019
6716 Rain 5 1018 93 10000 1.5 80 08:39 06.10.2019
6717 Rain 5 1018 93 10000 0.5 0 08:19 06.10.2019
6718 Rain 5 1018 93 10000 1.5 80 07:42 06.10.2019
6719 Rain 6 1018 93 10000 1.5 80 07:18 06.10.2019
6720 Clouds 5 1018 87 10000 1.5 80 06:18 06.10.2019
6721 Clouds 5 1018 93 10000 2.6 90 05:27 06.10.2019
6722 Clouds 6 1018 93 10000 1 170 03:23 06.10.2019
6723 Clouds 6 1019 93 10000 1.5 120 02:40 06.10.2019
6724 Clouds 6 1019 93 10000 1.5 120 02:40 06.10.2019
6725 Clouds 6 1019 87 10000 1.5 70 01:57 06.10.2019
6726 Clouds 6 1019 87 10000 1.5 70 01:37 06.10.2019
6727 Clouds 6 1019 87 10000 1 0 01:18 06.10.2019
6728 Clouds 6 1019 87 10000 1.5 70 00:45 06.10.2019
6729 Clouds 6 1018 87 10000 1 0 00:21 06.10.2019
6730 Rain 5 1017 95 0 0.51 136.904 23:43 05.10.2019
6731 Rain 5 1017 96 0 0.51 136.904 23:21 05.10.2019
6732 Clouds 6 1018 87 10000 0.5 0 22:57 05.10.2019
6733 Clouds 6 1018 87 10000 1.5 80 22:38 05.10.2019
6734 Clouds 6 1018 87 10000 1.5 80 22:38 05.10.2019
6735 Clouds 6 1018 87 10000 1.5 80 22:38 05.10.2019
6736 Clouds 7 1018 87 10000 1.5 90 22:19 05.10.2019
6737 Clouds 7 1018 87 10000 1 0 21:42 05.10.2019
6738 Rain 7 1017 87 10000 1.5 160 21:24 05.10.2019
6739 Rain 7 1017 87 10000 1.5 160 20:59 05.10.2019
6740 Rain 7 1017 87 10000 1.5 160 20:59 05.10.2019
6741 Rain 7 1017 87 10000 1 0 20:40 05.10.2019
6742 Rain 7 1017 87 10000 2.1 0 20:20 05.10.2019
6743 Rain 7 1015 95 0 0.45 291 19:58 05.10.2019
6744 Rain 8 1016 81 10000 2.6 240 19:37 05.10.2019
6745 Rain 8 1016 87 10000 1.5 0 19:18 05.10.2019
6746 Rain 8 1015 87 10000 2.6 90 18:55 05.10.2019
6747 Rain 8 1015 87 10000 2.6 90 18:36 05.10.2019
6748 Rain 8 1014 93 0 0.89 317 18:18 05.10.2019
6749 Rain 9 1014 81 10000 4.1 80 17:42 05.10.2019
6750 Rain 9 1013 87 10000 4.1 70 17:22 05.10.2019
6751 Rain 9 1013 87 10000 4.1 70 16:56 05.10.2019
6752 Rain 9 1013 87 10000 4.1 70 16:56 05.10.2019
6753 Rain 9 1013 87 10000 3.1 80 16:37 05.10.2019
6754 Rain 10 1012 82 10000 2.1 80 16:19 05.10.2019
6755 Rain 10 1012 82 10000 2.1 80 15:56 05.10.2019</